<?xml version="1.0" encoding="UTF-8" standalone="no" ?>
<gpx xmlns="http://www.topografix.com/GPX/1/1" xmlns:xsi="http://www.w3.org/2001/XMLSchema-instance" xsi:schemaLocation="http://www.topografix.com/GPX/1/1 http://www.topografix.com/GPX/1/1/gpx.xsd" version="1.1" creator="VisuGPX - https://www.visugpx.com">
  <metadata>
    <name>Violay 15 juin 2025 .3</name>
  </metadata>
  <trk>
    <name><![CDATA[Violay 15 juin 2025 .3_1]]></name>
    <extensions>
      <line xmlns="http://www.topografix.com/GPX/gpx_style/0/2">
        <color>fff700</color>
        <opacity>0.65</opacity>
        <width>8</width>
      </line>
    </extensions>
    <trkseg>
      <trkpt lat="45.84327" lon="4.37888">
        <ele>930</ele>
        <time>2025-05-11T08:53:11Z</time>
      </trkpt>
      <trkpt lat="45.84334" lon="4.37878">
        <ele>930</ele>
        <time>2025-05-11T08:53:14Z</time>
      </trkpt>
      <trkpt lat="45.84338" lon="4.3789">
        <ele>930</ele>
        <time>2025-05-11T08:53:21Z</time>
      </trkpt>
      <trkpt lat="45.84332" lon="4.37903">
        <ele>930</ele>
        <time>2025-05-11T08:53:24Z</time>
      </trkpt>
      <trkpt lat="45.84325" lon="4.37914">
        <ele>930</ele>
        <time>2025-05-11T08:53:25Z</time>
      </trkpt>
      <trkpt lat="45.84316" lon="4.37927">
        <ele>930</ele>
        <time>2025-05-11T08:53:28Z</time>
      </trkpt>
      <trkpt lat="45.84306" lon="4.37942">
        <ele>930</ele>
        <time>2025-05-11T08:53:30Z</time>
      </trkpt>
      <trkpt lat="45.84295" lon="4.37959">
        <ele>930</ele>
        <time>2025-05-11T08:53:31Z</time>
      </trkpt>
      <trkpt lat="45.84283" lon="4.37976">
        <ele>929</ele>
        <time>2025-05-11T08:53:33Z</time>
      </trkpt>
      <trkpt lat="45.84271" lon="4.37994">
        <ele>929</ele>
        <time>2025-05-11T08:53:35Z</time>
      </trkpt>
      <trkpt lat="45.84259" lon="4.38012">
        <ele>928</ele>
        <time>2025-05-11T08:53:37Z</time>
      </trkpt>
      <trkpt lat="45.84246" lon="4.3803">
        <ele>927</ele>
        <time>2025-05-11T08:53:39Z</time>
      </trkpt>
      <trkpt lat="45.84239" lon="4.38039">
        <ele>927</ele>
        <time>2025-05-11T08:53:40Z</time>
      </trkpt>
      <trkpt lat="45.84226" lon="4.38057">
        <ele>926</ele>
        <time>2025-05-11T08:53:42Z</time>
      </trkpt>
      <trkpt lat="45.84214" lon="4.38076">
        <ele>925</ele>
        <time>2025-05-11T08:53:44Z</time>
      </trkpt>
      <trkpt lat="45.84203" lon="4.38094">
        <ele>924</ele>
        <time>2025-05-11T08:53:47Z</time>
      </trkpt>
      <trkpt lat="45.84194" lon="4.38114">
        <ele>923</ele>
        <time>2025-05-11T08:53:48Z</time>
      </trkpt>
      <trkpt lat="45.84185" lon="4.38136">
        <ele>922</ele>
        <time>2025-05-11T08:53:50Z</time>
      </trkpt>
      <trkpt lat="45.84181" lon="4.38148">
        <ele>921</ele>
        <time>2025-05-11T08:53:52Z</time>
      </trkpt>
      <trkpt lat="45.84176" lon="4.3816">
        <ele>920</ele>
        <time>2025-05-11T08:53:53Z</time>
      </trkpt>
      <trkpt lat="45.84172" lon="4.38172">
        <ele>919</ele>
        <time>2025-05-11T08:53:54Z</time>
      </trkpt>
      <trkpt lat="45.84167" lon="4.38183">
        <ele>919</ele>
        <time>2025-05-11T08:53:55Z</time>
      </trkpt>
      <trkpt lat="45.84159" lon="4.38206">
        <ele>918</ele>
        <time>2025-05-11T08:53:56Z</time>
      </trkpt>
      <trkpt lat="45.84149" lon="4.38227">
        <ele>916</ele>
        <time>2025-05-11T08:53:58Z</time>
      </trkpt>
      <trkpt lat="45.84139" lon="4.38247">
        <ele>915</ele>
        <time>2025-05-11T08:54:00Z</time>
      </trkpt>
      <trkpt lat="45.84133" lon="4.38257">
        <ele>915</ele>
        <time>2025-05-11T08:54:01Z</time>
      </trkpt>
      <trkpt lat="45.84118" lon="4.38286">
        <ele>914</ele>
        <time>2025-05-11T08:54:04Z</time>
      </trkpt>
      <trkpt lat="45.84107" lon="4.38303">
        <ele>911</ele>
        <time>2025-05-11T08:54:07Z</time>
      </trkpt>
      <trkpt lat="45.84098" lon="4.38318">
        <ele>910</ele>
        <time>2025-05-11T08:54:09Z</time>
      </trkpt>
      <trkpt lat="45.84091" lon="4.38331">
        <ele>909</ele>
        <time>2025-05-11T08:54:11Z</time>
      </trkpt>
      <trkpt lat="45.84085" lon="4.38343">
        <ele>908</ele>
        <time>2025-05-11T08:54:12Z</time>
      </trkpt>
      <trkpt lat="45.84077" lon="4.38352">
        <ele>906</ele>
        <time>2025-05-11T08:54:14Z</time>
      </trkpt>
      <trkpt lat="45.84068" lon="4.3836">
        <ele>905</ele>
        <time>2025-05-11T08:54:16Z</time>
      </trkpt>
      <trkpt lat="45.84059" lon="4.38368">
        <ele>903</ele>
        <time>2025-05-11T08:54:18Z</time>
      </trkpt>
      <trkpt lat="45.84051" lon="4.38376">
        <ele>901</ele>
        <time>2025-05-11T08:54:21Z</time>
      </trkpt>
      <trkpt lat="45.84043" lon="4.38383">
        <ele>900</ele>
        <time>2025-05-11T08:54:23Z</time>
      </trkpt>
      <trkpt lat="45.8404" lon="4.38387">
        <ele>899</ele>
        <time>2025-05-11T08:54:24Z</time>
      </trkpt>
      <trkpt lat="45.84035" lon="4.38392">
        <ele>899</ele>
        <time>2025-05-11T08:54:25Z</time>
      </trkpt>
      <trkpt lat="45.84024" lon="4.38385">
        <ele>897</ele>
        <time>2025-05-11T08:54:30Z</time>
      </trkpt>
      <trkpt lat="45.84016" lon="4.38374">
        <ele>896</ele>
        <time>2025-05-11T08:54:31Z</time>
      </trkpt>
      <trkpt lat="45.8401" lon="4.38359">
        <ele>894</ele>
        <time>2025-05-11T08:54:33Z</time>
      </trkpt>
      <trkpt lat="45.84003" lon="4.38342">
        <ele>893</ele>
        <time>2025-05-11T08:54:35Z</time>
      </trkpt>
      <trkpt lat="45.83995" lon="4.38322">
        <ele>891</ele>
        <time>2025-05-11T08:54:37Z</time>
      </trkpt>
      <trkpt lat="45.83991" lon="4.38312">
        <ele>890</ele>
        <time>2025-05-11T08:54:39Z</time>
      </trkpt>
      <trkpt lat="45.83983" lon="4.3829">
        <ele>889</ele>
        <time>2025-05-11T08:54:40Z</time>
      </trkpt>
      <trkpt lat="45.83978" lon="4.38278">
        <ele>888</ele>
        <time>2025-05-11T08:54:41Z</time>
      </trkpt>
      <trkpt lat="45.83974" lon="4.38267">
        <ele>887</ele>
        <time>2025-05-11T08:54:42Z</time>
      </trkpt>
      <trkpt lat="45.83965" lon="4.38244">
        <ele>885</ele>
        <time>2025-05-11T08:54:44Z</time>
      </trkpt>
      <trkpt lat="45.8396" lon="4.38232">
        <ele>884</ele>
        <time>2025-05-11T08:54:46Z</time>
      </trkpt>
      <trkpt lat="45.83951" lon="4.38208">
        <ele>883</ele>
        <time>2025-05-11T08:54:47Z</time>
      </trkpt>
      <trkpt lat="45.83946" lon="4.38196">
        <ele>881</ele>
        <time>2025-05-11T08:54:49Z</time>
      </trkpt>
      <trkpt lat="45.83941" lon="4.38184">
        <ele>881</ele>
        <time>2025-05-11T08:54:50Z</time>
      </trkpt>
      <trkpt lat="45.83935" lon="4.38172">
        <ele>880</ele>
        <time>2025-05-11T08:54:51Z</time>
      </trkpt>
      <trkpt lat="45.8393" lon="4.38161">
        <ele>879</ele>
        <time>2025-05-11T08:54:52Z</time>
      </trkpt>
      <trkpt lat="45.83925" lon="4.38149">
        <ele>879</ele>
        <time>2025-05-11T08:54:53Z</time>
      </trkpt>
      <trkpt lat="45.83921" lon="4.38138">
        <ele>878</ele>
        <time>2025-05-11T08:54:54Z</time>
      </trkpt>
      <trkpt lat="45.83916" lon="4.38127">
        <ele>878</ele>
        <time>2025-05-11T08:54:55Z</time>
      </trkpt>
      <trkpt lat="45.83912" lon="4.38115">
        <ele>877</ele>
        <time>2025-05-11T08:54:56Z</time>
      </trkpt>
      <trkpt lat="45.83904" lon="4.38089">
        <ele>877</ele>
        <time>2025-05-11T08:54:57Z</time>
      </trkpt>
      <trkpt lat="45.839" lon="4.38076">
        <ele>877</ele>
        <time>2025-05-11T08:54:59Z</time>
      </trkpt>
      <trkpt lat="45.83896" lon="4.38063">
        <ele>875</ele>
        <time>2025-05-11T08:55:00Z</time>
      </trkpt>
      <trkpt lat="45.83893" lon="4.38049">
        <ele>874</ele>
        <time>2025-05-11T08:55:01Z</time>
      </trkpt>
      <trkpt lat="45.83889" lon="4.38037">
        <ele>873</ele>
        <time>2025-05-11T08:55:02Z</time>
      </trkpt>
      <trkpt lat="45.83886" lon="4.38025">
        <ele>873</ele>
        <time>2025-05-11T08:55:03Z</time>
      </trkpt>
      <trkpt lat="45.83883" lon="4.38013">
        <ele>872</ele>
        <time>2025-05-11T08:55:04Z</time>
      </trkpt>
      <trkpt lat="45.83879" lon="4.38003">
        <ele>871</ele>
        <time>2025-05-11T08:55:05Z</time>
      </trkpt>
      <trkpt lat="45.83873" lon="4.37984">
        <ele>871</ele>
        <time>2025-05-11T08:55:06Z</time>
      </trkpt>
      <trkpt lat="45.83866" lon="4.37969">
        <ele>870</ele>
        <time>2025-05-11T08:55:08Z</time>
      </trkpt>
      <trkpt lat="45.83859" lon="4.37956">
        <ele>869</ele>
        <time>2025-05-11T08:55:10Z</time>
      </trkpt>
      <trkpt lat="45.83856" lon="4.3795">
        <ele>869</ele>
        <time>2025-05-11T08:55:11Z</time>
      </trkpt>
      <trkpt lat="45.8385" lon="4.3794">
        <ele>868</ele>
        <time>2025-05-11T08:55:13Z</time>
      </trkpt>
      <trkpt lat="45.83847" lon="4.37935">
        <ele>867</ele>
        <time>2025-05-11T08:55:14Z</time>
      </trkpt>
      <trkpt lat="45.83844" lon="4.37931">
        <ele>867</ele>
        <time>2025-05-11T08:55:16Z</time>
      </trkpt>
      <trkpt lat="45.83835" lon="4.37923">
        <ele>866</ele>
        <time>2025-05-11T08:55:17Z</time>
      </trkpt>
      <trkpt lat="45.83824" lon="4.37913">
        <ele>865</ele>
        <time>2025-05-11T08:55:19Z</time>
      </trkpt>
      <trkpt lat="45.83812" lon="4.37904">
        <ele>864</ele>
        <time>2025-05-11T08:55:21Z</time>
      </trkpt>
      <trkpt lat="45.83799" lon="4.37896">
        <ele>861</ele>
        <time>2025-05-11T08:55:24Z</time>
      </trkpt>
      <trkpt lat="45.83786" lon="4.37887">
        <ele>859</ele>
        <time>2025-05-11T08:55:26Z</time>
      </trkpt>
      <trkpt lat="45.83772" lon="4.37873">
        <ele>857</ele>
        <time>2025-05-11T08:55:28Z</time>
      </trkpt>
      <trkpt lat="45.83765" lon="4.37865">
        <ele>855</ele>
        <time>2025-05-11T08:55:29Z</time>
      </trkpt>
      <trkpt lat="45.8375" lon="4.37849">
        <ele>854</ele>
        <time>2025-05-11T08:55:30Z</time>
      </trkpt>
      <trkpt lat="45.83743" lon="4.37841">
        <ele>853</ele>
        <time>2025-05-11T08:55:31Z</time>
      </trkpt>
      <trkpt lat="45.83736" lon="4.37833">
        <ele>852</ele>
        <time>2025-05-11T08:55:32Z</time>
      </trkpt>
      <trkpt lat="45.8373" lon="4.37825">
        <ele>851</ele>
        <time>2025-05-11T08:55:33Z</time>
      </trkpt>
      <trkpt lat="45.83723" lon="4.37817">
        <ele>850</ele>
        <time>2025-05-11T08:55:34Z</time>
      </trkpt>
      <trkpt lat="45.83717" lon="4.3781">
        <ele>849</ele>
        <time>2025-05-11T08:55:35Z</time>
      </trkpt>
      <trkpt lat="45.83711" lon="4.37803">
        <ele>848</ele>
        <time>2025-05-11T08:55:36Z</time>
      </trkpt>
      <trkpt lat="45.83705" lon="4.37797">
        <ele>847</ele>
        <time>2025-05-11T08:55:37Z</time>
      </trkpt>
      <trkpt lat="45.83699" lon="4.37791">
        <ele>846</ele>
        <time>2025-05-11T08:55:39Z</time>
      </trkpt>
      <trkpt lat="45.83694" lon="4.37785">
        <ele>845</ele>
        <time>2025-05-11T08:55:40Z</time>
      </trkpt>
      <trkpt lat="45.83684" lon="4.37773">
        <ele>845</ele>
        <time>2025-05-11T08:55:41Z</time>
      </trkpt>
      <trkpt lat="45.83675" lon="4.37765">
        <ele>844</ele>
        <time>2025-05-11T08:55:43Z</time>
      </trkpt>
      <trkpt lat="45.83671" lon="4.3776">
        <ele>844</ele>
        <time>2025-05-11T08:55:44Z</time>
      </trkpt>
      <trkpt lat="45.83662" lon="4.37751">
        <ele>844</ele>
        <time>2025-05-11T08:55:46Z</time>
      </trkpt>
      <trkpt lat="45.83658" lon="4.37747">
        <ele>843</ele>
        <time>2025-05-11T08:55:48Z</time>
      </trkpt>
      <trkpt lat="45.83649" lon="4.37737">
        <ele>843</ele>
        <time>2025-05-11T08:55:49Z</time>
      </trkpt>
      <trkpt lat="45.8364" lon="4.37727">
        <ele>842</ele>
        <time>2025-05-11T08:55:51Z</time>
      </trkpt>
      <trkpt lat="45.8363" lon="4.37718">
        <ele>840</ele>
        <time>2025-05-11T08:55:54Z</time>
      </trkpt>
      <trkpt lat="45.83622" lon="4.37711">
        <ele>839</ele>
        <time>2025-05-11T08:55:55Z</time>
      </trkpt>
      <trkpt lat="45.83614" lon="4.377">
        <ele>836</ele>
        <time>2025-05-11T08:55:59Z</time>
      </trkpt>
      <trkpt lat="45.83604" lon="4.37693">
        <ele>835</ele>
        <time>2025-05-11T08:56:03Z</time>
      </trkpt>
      <trkpt lat="45.83593" lon="4.37682">
        <ele>833</ele>
        <time>2025-05-11T08:56:06Z</time>
      </trkpt>
      <trkpt lat="45.83585" lon="4.37676">
        <ele>832</ele>
        <time>2025-05-11T08:56:08Z</time>
      </trkpt>
      <trkpt lat="45.83576" lon="4.37667">
        <ele>831</ele>
        <time>2025-05-11T08:56:11Z</time>
      </trkpt>
      <trkpt lat="45.83568" lon="4.37659">
        <ele>830</ele>
        <time>2025-05-11T08:56:14Z</time>
      </trkpt>
      <trkpt lat="45.83563" lon="4.37654">
        <ele>830</ele>
        <time>2025-05-11T08:56:15Z</time>
      </trkpt>
      <trkpt lat="45.8356" lon="4.37652">
        <ele>829</ele>
        <time>2025-05-11T08:56:17Z</time>
      </trkpt>
      <trkpt lat="45.8355" lon="4.37647">
        <ele>829</ele>
        <time>2025-05-11T08:56:22Z</time>
      </trkpt>
      <trkpt lat="45.8354" lon="4.3765">
        <ele>829</ele>
        <time>2025-05-11T08:56:26Z</time>
      </trkpt>
      <trkpt lat="45.83531" lon="4.37653">
        <ele>828</ele>
        <time>2025-05-11T08:56:29Z</time>
      </trkpt>
      <trkpt lat="45.83521" lon="4.37659">
        <ele>827</ele>
        <time>2025-05-11T08:56:32Z</time>
      </trkpt>
      <trkpt lat="45.83513" lon="4.37667">
        <ele>826</ele>
        <time>2025-05-11T08:56:36Z</time>
      </trkpt>
      <trkpt lat="45.83504" lon="4.37671">
        <ele>822</ele>
        <time>2025-05-11T08:56:40Z</time>
      </trkpt>
      <trkpt lat="45.83493" lon="4.37677">
        <ele>819</ele>
        <time>2025-05-11T08:56:45Z</time>
      </trkpt>
      <trkpt lat="45.83481" lon="4.37683">
        <ele>817</ele>
        <time>2025-05-11T08:56:49Z</time>
      </trkpt>
      <trkpt lat="45.83477" lon="4.37685">
        <ele>816</ele>
        <time>2025-05-11T08:56:50Z</time>
      </trkpt>
      <trkpt lat="45.83471" lon="4.37688">
        <ele>815</ele>
        <time>2025-05-11T08:56:52Z</time>
      </trkpt>
      <trkpt lat="45.83468" lon="4.3769">
        <ele>814</ele>
        <time>2025-05-11T08:56:53Z</time>
      </trkpt>
      <trkpt lat="45.83462" lon="4.37694">
        <ele>813</ele>
        <time>2025-05-11T08:56:55Z</time>
      </trkpt>
      <trkpt lat="45.83459" lon="4.37696">
        <ele>812</ele>
        <time>2025-05-11T08:56:57Z</time>
      </trkpt>
      <trkpt lat="45.83452" lon="4.37699">
        <ele>812</ele>
        <time>2025-05-11T08:56:58Z</time>
      </trkpt>
      <trkpt lat="45.83445" lon="4.37703">
        <ele>811</ele>
        <time>2025-05-11T08:57:00Z</time>
      </trkpt>
      <trkpt lat="45.83441" lon="4.37705">
        <ele>811</ele>
        <time>2025-05-11T08:57:01Z</time>
      </trkpt>
      <trkpt lat="45.83434" lon="4.37709">
        <ele>810</ele>
        <time>2025-05-11T08:57:03Z</time>
      </trkpt>
      <trkpt lat="45.83431" lon="4.37711">
        <ele>809</ele>
        <time>2025-05-11T08:57:04Z</time>
      </trkpt>
      <trkpt lat="45.83428" lon="4.37713">
        <ele>809</ele>
        <time>2025-05-11T08:57:05Z</time>
      </trkpt>
      <trkpt lat="45.83425" lon="4.37715">
        <ele>809</ele>
        <time>2025-05-11T08:57:06Z</time>
      </trkpt>
      <trkpt lat="45.83422" lon="4.37717">
        <ele>809</ele>
        <time>2025-05-11T08:57:07Z</time>
      </trkpt>
      <trkpt lat="45.83419" lon="4.37718">
        <ele>808</ele>
        <time>2025-05-11T08:57:08Z</time>
      </trkpt>
      <trkpt lat="45.83413" lon="4.37722">
        <ele>808</ele>
        <time>2025-05-11T08:57:10Z</time>
      </trkpt>
      <trkpt lat="45.8341" lon="4.37724">
        <ele>808</ele>
        <time>2025-05-11T08:57:11Z</time>
      </trkpt>
      <trkpt lat="45.83407" lon="4.37726">
        <ele>807</ele>
        <time>2025-05-11T08:57:13Z</time>
      </trkpt>
      <trkpt lat="45.83402" lon="4.37729">
        <ele>807</ele>
        <time>2025-05-11T08:57:14Z</time>
      </trkpt>
      <trkpt lat="45.83399" lon="4.3773">
        <ele>806</ele>
        <time>2025-05-11T08:57:16Z</time>
      </trkpt>
      <trkpt lat="45.83395" lon="4.37733">
        <ele>806</ele>
        <time>2025-05-11T08:57:17Z</time>
      </trkpt>
      <trkpt lat="45.83393" lon="4.37736">
        <ele>806</ele>
        <time>2025-05-11T08:57:19Z</time>
      </trkpt>
      <trkpt lat="45.8339" lon="4.37737">
        <ele>806</ele>
        <time>2025-05-11T08:57:21Z</time>
      </trkpt>
      <trkpt lat="45.83389" lon="4.37738">
        <ele>806</ele>
        <time>2025-05-11T08:57:23Z</time>
      </trkpt>
      <trkpt lat="45.83387" lon="4.37738">
        <ele>806</ele>
        <time>2025-05-11T08:57:24Z</time>
      </trkpt>
      <trkpt lat="45.83385" lon="4.37739">
        <ele>805</ele>
        <time>2025-05-11T08:57:25Z</time>
      </trkpt>
      <trkpt lat="45.83379" lon="4.37742">
        <ele>805</ele>
        <time>2025-05-11T08:57:26Z</time>
      </trkpt>
      <trkpt lat="45.83373" lon="4.37747">
        <ele>805</ele>
        <time>2025-05-11T08:57:28Z</time>
      </trkpt>
      <trkpt lat="45.83371" lon="4.3775">
        <ele>804</ele>
        <time>2025-05-11T08:57:30Z</time>
      </trkpt>
      <trkpt lat="45.83362" lon="4.37757">
        <ele>804</ele>
        <time>2025-05-11T08:57:33Z</time>
      </trkpt>
      <trkpt lat="45.8336" lon="4.3776">
        <ele>804</ele>
        <time>2025-05-11T08:57:34Z</time>
      </trkpt>
      <trkpt lat="45.83358" lon="4.37763">
        <ele>804</ele>
        <time>2025-05-11T08:57:35Z</time>
      </trkpt>
      <trkpt lat="45.83355" lon="4.37765">
        <ele>804</ele>
        <time>2025-05-11T08:57:36Z</time>
      </trkpt>
      <trkpt lat="45.83353" lon="4.37768">
        <ele>804</ele>
        <time>2025-05-11T08:57:37Z</time>
      </trkpt>
      <trkpt lat="45.83348" lon="4.37775">
        <ele>804</ele>
        <time>2025-05-11T08:57:38Z</time>
      </trkpt>
      <trkpt lat="45.83345" lon="4.37778">
        <ele>803</ele>
        <time>2025-05-11T08:57:40Z</time>
      </trkpt>
      <trkpt lat="45.83343" lon="4.37781">
        <ele>803</ele>
        <time>2025-05-11T08:57:41Z</time>
      </trkpt>
      <trkpt lat="45.8334" lon="4.37785">
        <ele>803</ele>
        <time>2025-05-11T08:57:42Z</time>
      </trkpt>
      <trkpt lat="45.83337" lon="4.37788">
        <ele>803</ele>
        <time>2025-05-11T08:57:43Z</time>
      </trkpt>
      <trkpt lat="45.83328" lon="4.37796">
        <ele>802</ele>
        <time>2025-05-11T08:57:46Z</time>
      </trkpt>
      <trkpt lat="45.83318" lon="4.37804">
        <ele>801</ele>
        <time>2025-05-11T08:57:49Z</time>
      </trkpt>
      <trkpt lat="45.83308" lon="4.37812">
        <ele>801</ele>
        <time>2025-05-11T08:57:52Z</time>
      </trkpt>
      <trkpt lat="45.83301" lon="4.37816">
        <ele>800</ele>
        <time>2025-05-11T08:57:53Z</time>
      </trkpt>
      <trkpt lat="45.83295" lon="4.37821">
        <ele>800</ele>
        <time>2025-05-11T08:57:55Z</time>
      </trkpt>
      <trkpt lat="45.83292" lon="4.37823">
        <ele>799</ele>
        <time>2025-05-11T08:57:56Z</time>
      </trkpt>
      <trkpt lat="45.8329" lon="4.37825">
        <ele>799</ele>
        <time>2025-05-11T08:57:57Z</time>
      </trkpt>
      <trkpt lat="45.83281" lon="4.37827">
        <ele>798</ele>
        <time>2025-05-11T08:58:02Z</time>
      </trkpt>
      <trkpt lat="45.83277" lon="4.37827">
        <ele>797</ele>
        <time>2025-05-11T08:58:04Z</time>
      </trkpt>
      <trkpt lat="45.83267" lon="4.3783">
        <ele>796</ele>
        <time>2025-05-11T08:58:07Z</time>
      </trkpt>
      <trkpt lat="45.83264" lon="4.37831">
        <ele>796</ele>
        <time>2025-05-11T08:58:08Z</time>
      </trkpt>
      <trkpt lat="45.83261" lon="4.37832">
        <ele>795</ele>
        <time>2025-05-11T08:58:09Z</time>
      </trkpt>
      <trkpt lat="45.83257" lon="4.37833">
        <ele>795</ele>
        <time>2025-05-11T08:58:10Z</time>
      </trkpt>
      <trkpt lat="45.8325" lon="4.37835">
        <ele>794</ele>
        <time>2025-05-11T08:58:12Z</time>
      </trkpt>
      <trkpt lat="45.83247" lon="4.37836">
        <ele>794</ele>
        <time>2025-05-11T08:58:14Z</time>
      </trkpt>
      <trkpt lat="45.83242" lon="4.37837">
        <ele>794</ele>
        <time>2025-05-11T08:58:15Z</time>
      </trkpt>
      <trkpt lat="45.83239" lon="4.37838">
        <ele>793</ele>
        <time>2025-05-11T08:58:17Z</time>
      </trkpt>
      <trkpt lat="45.83237" lon="4.37839">
        <ele>793</ele>
        <time>2025-05-11T08:58:18Z</time>
      </trkpt>
      <trkpt lat="45.83235" lon="4.3784">
        <ele>793</ele>
        <time>2025-05-11T08:58:19Z</time>
      </trkpt>
      <trkpt lat="45.83232" lon="4.37841">
        <ele>793</ele>
        <time>2025-05-11T08:58:20Z</time>
      </trkpt>
      <trkpt lat="45.8323" lon="4.37843">
        <ele>792</ele>
        <time>2025-05-11T08:58:21Z</time>
      </trkpt>
      <trkpt lat="45.83227" lon="4.37845">
        <ele>792</ele>
        <time>2025-05-11T08:58:22Z</time>
      </trkpt>
      <trkpt lat="45.83218" lon="4.37848">
        <ele>791</ele>
        <time>2025-05-11T08:58:28Z</time>
      </trkpt>
      <trkpt lat="45.83208" lon="4.37848">
        <ele>789</ele>
        <time>2025-05-11T08:58:34Z</time>
      </trkpt>
      <trkpt lat="45.83198" lon="4.37847">
        <ele>787</ele>
        <time>2025-05-11T08:58:39Z</time>
      </trkpt>
      <trkpt lat="45.83187" lon="4.37843">
        <ele>784</ele>
        <time>2025-05-11T08:58:44Z</time>
      </trkpt>
      <trkpt lat="45.83178" lon="4.37837">
        <ele>783</ele>
        <time>2025-05-11T08:58:47Z</time>
      </trkpt>
      <trkpt lat="45.83173" lon="4.37834">
        <ele>781</ele>
        <time>2025-05-11T08:58:49Z</time>
      </trkpt>
      <trkpt lat="45.83171" lon="4.37833">
        <ele>780</ele>
        <time>2025-05-11T08:58:51Z</time>
      </trkpt>
      <trkpt lat="45.83168" lon="4.37831">
        <ele>780</ele>
        <time>2025-05-11T08:58:52Z</time>
      </trkpt>
      <trkpt lat="45.8316" lon="4.37827">
        <ele>778</ele>
        <time>2025-05-11T08:58:55Z</time>
      </trkpt>
      <trkpt lat="45.83158" lon="4.37826">
        <ele>778</ele>
        <time>2025-05-11T08:58:56Z</time>
      </trkpt>
      <trkpt lat="45.83156" lon="4.37825">
        <ele>778</ele>
        <time>2025-05-11T08:58:57Z</time>
      </trkpt>
      <trkpt lat="45.83154" lon="4.37824">
        <ele>777</ele>
        <time>2025-05-11T08:58:59Z</time>
      </trkpt>
      <trkpt lat="45.83152" lon="4.37822">
        <ele>777</ele>
        <time>2025-05-11T08:59:00Z</time>
      </trkpt>
      <trkpt lat="45.8315" lon="4.37821">
        <ele>777</ele>
        <time>2025-05-11T08:59:01Z</time>
      </trkpt>
      <trkpt lat="45.83148" lon="4.3782">
        <ele>777</ele>
        <time>2025-05-11T08:59:02Z</time>
      </trkpt>
      <trkpt lat="45.83146" lon="4.37819">
        <ele>776</ele>
        <time>2025-05-11T08:59:03Z</time>
      </trkpt>
      <trkpt lat="45.83144" lon="4.37818">
        <ele>776</ele>
        <time>2025-05-11T08:59:04Z</time>
      </trkpt>
      <trkpt lat="45.83139" lon="4.37817">
        <ele>775</ele>
        <time>2025-05-11T08:59:05Z</time>
      </trkpt>
      <trkpt lat="45.83137" lon="4.37816">
        <ele>775</ele>
        <time>2025-05-11T08:59:07Z</time>
      </trkpt>
      <trkpt lat="45.83134" lon="4.37815">
        <ele>774</ele>
        <time>2025-05-11T08:59:08Z</time>
      </trkpt>
      <trkpt lat="45.83131" lon="4.37814">
        <ele>774</ele>
        <time>2025-05-11T08:59:09Z</time>
      </trkpt>
      <trkpt lat="45.83129" lon="4.37813">
        <ele>773</ele>
        <time>2025-05-11T08:59:10Z</time>
      </trkpt>
      <trkpt lat="45.83126" lon="4.37812">
        <ele>773</ele>
        <time>2025-05-11T08:59:11Z</time>
      </trkpt>
      <trkpt lat="45.83124" lon="4.37811">
        <ele>772</ele>
        <time>2025-05-11T08:59:12Z</time>
      </trkpt>
      <trkpt lat="45.83121" lon="4.3781">
        <ele>771</ele>
        <time>2025-05-11T08:59:13Z</time>
      </trkpt>
      <trkpt lat="45.83118" lon="4.37808">
        <ele>771</ele>
        <time>2025-05-11T08:59:14Z</time>
      </trkpt>
      <trkpt lat="45.83116" lon="4.37807">
        <ele>770</ele>
        <time>2025-05-11T08:59:15Z</time>
      </trkpt>
      <trkpt lat="45.83111" lon="4.37804">
        <ele>770</ele>
        <time>2025-05-11T08:59:16Z</time>
      </trkpt>
      <trkpt lat="45.83109" lon="4.37803">
        <ele>769</ele>
        <time>2025-05-11T08:59:17Z</time>
      </trkpt>
      <trkpt lat="45.83106" lon="4.37802">
        <ele>769</ele>
        <time>2025-05-11T08:59:18Z</time>
      </trkpt>
      <trkpt lat="45.83104" lon="4.378">
        <ele>768</ele>
        <time>2025-05-11T08:59:19Z</time>
      </trkpt>
      <trkpt lat="45.83102" lon="4.37798">
        <ele>768</ele>
        <time>2025-05-11T08:59:20Z</time>
      </trkpt>
      <trkpt lat="45.831" lon="4.37796">
        <ele>768</ele>
        <time>2025-05-11T08:59:21Z</time>
      </trkpt>
      <trkpt lat="45.83097" lon="4.37795">
        <ele>767</ele>
        <time>2025-05-11T08:59:22Z</time>
      </trkpt>
      <trkpt lat="45.83096" lon="4.37793">
        <ele>767</ele>
        <time>2025-05-11T08:59:23Z</time>
      </trkpt>
      <trkpt lat="45.83091" lon="4.3779">
        <ele>766</ele>
        <time>2025-05-11T08:59:25Z</time>
      </trkpt>
      <trkpt lat="45.83089" lon="4.37788">
        <ele>766</ele>
        <time>2025-05-11T08:59:26Z</time>
      </trkpt>
      <trkpt lat="45.83083" lon="4.37784">
        <ele>765</ele>
        <time>2025-05-11T08:59:28Z</time>
      </trkpt>
      <trkpt lat="45.83081" lon="4.37782">
        <ele>764</ele>
        <time>2025-05-11T08:59:29Z</time>
      </trkpt>
      <trkpt lat="45.83078" lon="4.3778">
        <ele>763</ele>
        <time>2025-05-11T08:59:31Z</time>
      </trkpt>
      <trkpt lat="45.83073" lon="4.37777">
        <ele>763</ele>
        <time>2025-05-11T08:59:32Z</time>
      </trkpt>
      <trkpt lat="45.83071" lon="4.37776">
        <ele>762</ele>
        <time>2025-05-11T08:59:33Z</time>
      </trkpt>
      <trkpt lat="45.83068" lon="4.37774">
        <ele>761</ele>
        <time>2025-05-11T08:59:35Z</time>
      </trkpt>
      <trkpt lat="45.83065" lon="4.37772">
        <ele>761</ele>
        <time>2025-05-11T08:59:36Z</time>
      </trkpt>
      <trkpt lat="45.83063" lon="4.37771">
        <ele>760</ele>
        <time>2025-05-11T08:59:37Z</time>
      </trkpt>
      <trkpt lat="45.83059" lon="4.37769">
        <ele>760</ele>
        <time>2025-05-11T08:59:38Z</time>
      </trkpt>
      <trkpt lat="45.83057" lon="4.37768">
        <ele>759</ele>
        <time>2025-05-11T08:59:40Z</time>
      </trkpt>
      <trkpt lat="45.83052" lon="4.37766">
        <ele>759</ele>
        <time>2025-05-11T08:59:41Z</time>
      </trkpt>
      <trkpt lat="45.8305" lon="4.37764">
        <ele>758</ele>
        <time>2025-05-11T08:59:42Z</time>
      </trkpt>
      <trkpt lat="45.83044" lon="4.37761">
        <ele>758</ele>
        <time>2025-05-11T08:59:44Z</time>
      </trkpt>
      <trkpt lat="45.83038" lon="4.37759">
        <ele>757</ele>
        <time>2025-05-11T08:59:46Z</time>
      </trkpt>
      <trkpt lat="45.83036" lon="4.37758">
        <ele>757</ele>
        <time>2025-05-11T08:59:47Z</time>
      </trkpt>
      <trkpt lat="45.83034" lon="4.37757">
        <ele>755</ele>
        <time>2025-05-11T08:59:49Z</time>
      </trkpt>
      <trkpt lat="45.83028" lon="4.37754">
        <ele>754</ele>
        <time>2025-05-11T08:59:50Z</time>
      </trkpt>
      <trkpt lat="45.83026" lon="4.37753">
        <ele>754</ele>
        <time>2025-05-11T08:59:51Z</time>
      </trkpt>
      <trkpt lat="45.83023" lon="4.37751">
        <ele>754</ele>
        <time>2025-05-11T08:59:52Z</time>
      </trkpt>
      <trkpt lat="45.83018" lon="4.37748">
        <ele>753</ele>
        <time>2025-05-11T08:59:54Z</time>
      </trkpt>
      <trkpt lat="45.83013" lon="4.37745">
        <ele>751</ele>
        <time>2025-05-11T08:59:56Z</time>
      </trkpt>
      <trkpt lat="45.83011" lon="4.37744">
        <ele>750</ele>
        <time>2025-05-11T08:59:58Z</time>
      </trkpt>
      <trkpt lat="45.83007" lon="4.37741">
        <ele>750</ele>
        <time>2025-05-11T08:59:59Z</time>
      </trkpt>
      <trkpt lat="45.83005" lon="4.37739">
        <ele>748</ele>
        <time>2025-05-11T09:00:01Z</time>
      </trkpt>
      <trkpt lat="45.83002" lon="4.37738">
        <ele>748</ele>
        <time>2025-05-11T09:00:02Z</time>
      </trkpt>
      <trkpt lat="45.82998" lon="4.37735">
        <ele>747</ele>
        <time>2025-05-11T09:00:03Z</time>
      </trkpt>
      <trkpt lat="45.82995" lon="4.37733">
        <ele>747</ele>
        <time>2025-05-11T09:00:04Z</time>
      </trkpt>
      <trkpt lat="45.8299" lon="4.37731">
        <ele>745</ele>
        <time>2025-05-11T09:00:06Z</time>
      </trkpt>
      <trkpt lat="45.82987" lon="4.37729">
        <ele>744</ele>
        <time>2025-05-11T09:00:08Z</time>
      </trkpt>
      <trkpt lat="45.82983" lon="4.37727">
        <ele>744</ele>
        <time>2025-05-11T09:00:09Z</time>
      </trkpt>
      <trkpt lat="45.82981" lon="4.37726">
        <ele>742</ele>
        <time>2025-05-11T09:00:11Z</time>
      </trkpt>
      <trkpt lat="45.82978" lon="4.37725">
        <ele>742</ele>
        <time>2025-05-11T09:00:12Z</time>
      </trkpt>
      <trkpt lat="45.82976" lon="4.37724">
        <ele>742</ele>
        <time>2025-05-11T09:00:13Z</time>
      </trkpt>
      <trkpt lat="45.82973" lon="4.37723">
        <ele>741</ele>
        <time>2025-05-11T09:00:14Z</time>
      </trkpt>
      <trkpt lat="45.82968" lon="4.37719">
        <ele>741</ele>
        <time>2025-05-11T09:00:15Z</time>
      </trkpt>
      <trkpt lat="45.82965" lon="4.37718">
        <ele>741</ele>
        <time>2025-05-11T09:00:16Z</time>
      </trkpt>
      <trkpt lat="45.82963" lon="4.37717">
        <ele>740</ele>
        <time>2025-05-11T09:00:18Z</time>
      </trkpt>
      <trkpt lat="45.82961" lon="4.37716">
        <ele>740</ele>
        <time>2025-05-11T09:00:19Z</time>
      </trkpt>
      <trkpt lat="45.82959" lon="4.37715">
        <ele>739</ele>
        <time>2025-05-11T09:00:20Z</time>
      </trkpt>
      <trkpt lat="45.82954" lon="4.37713">
        <ele>739</ele>
        <time>2025-05-11T09:00:21Z</time>
      </trkpt>
      <trkpt lat="45.82952" lon="4.37711">
        <ele>738</ele>
        <time>2025-05-11T09:00:22Z</time>
      </trkpt>
      <trkpt lat="45.8295" lon="4.3771">
        <ele>738</ele>
        <time>2025-05-11T09:00:23Z</time>
      </trkpt>
      <trkpt lat="45.82947" lon="4.37709">
        <ele>738</ele>
        <time>2025-05-11T09:00:24Z</time>
      </trkpt>
      <trkpt lat="45.82945" lon="4.37708">
        <ele>737</ele>
        <time>2025-05-11T09:00:25Z</time>
      </trkpt>
      <trkpt lat="45.82942" lon="4.37706">
        <ele>736</ele>
        <time>2025-05-11T09:00:27Z</time>
      </trkpt>
      <trkpt lat="45.82938" lon="4.37703">
        <ele>736</ele>
        <time>2025-05-11T09:00:28Z</time>
      </trkpt>
      <trkpt lat="45.82935" lon="4.37702">
        <ele>735</ele>
        <time>2025-05-11T09:00:29Z</time>
      </trkpt>
      <trkpt lat="45.82932" lon="4.377">
        <ele>735</ele>
        <time>2025-05-11T09:00:30Z</time>
      </trkpt>
      <trkpt lat="45.82929" lon="4.37698">
        <ele>734</ele>
        <time>2025-05-11T09:00:32Z</time>
      </trkpt>
      <trkpt lat="45.82926" lon="4.37696">
        <ele>733</ele>
        <time>2025-05-11T09:00:33Z</time>
      </trkpt>
      <trkpt lat="45.82924" lon="4.37694">
        <ele>733</ele>
        <time>2025-05-11T09:00:34Z</time>
      </trkpt>
      <trkpt lat="45.82921" lon="4.37692">
        <ele>733</ele>
        <time>2025-05-11T09:00:35Z</time>
      </trkpt>
      <trkpt lat="45.82918" lon="4.37691">
        <ele>732</ele>
        <time>2025-05-11T09:00:36Z</time>
      </trkpt>
      <trkpt lat="45.82915" lon="4.3769">
        <ele>732</ele>
        <time>2025-05-11T09:00:37Z</time>
      </trkpt>
      <trkpt lat="45.82912" lon="4.37688">
        <ele>731</ele>
        <time>2025-05-11T09:00:38Z</time>
      </trkpt>
      <trkpt lat="45.8291" lon="4.37687">
        <ele>731</ele>
        <time>2025-05-11T09:00:39Z</time>
      </trkpt>
      <trkpt lat="45.82907" lon="4.37685">
        <ele>731</ele>
        <time>2025-05-11T09:00:40Z</time>
      </trkpt>
      <trkpt lat="45.82905" lon="4.37684">
        <ele>730</ele>
        <time>2025-05-11T09:00:41Z</time>
      </trkpt>
      <trkpt lat="45.82902" lon="4.37683">
        <ele>730</ele>
        <time>2025-05-11T09:00:42Z</time>
      </trkpt>
      <trkpt lat="45.82897" lon="4.3768">
        <ele>730</ele>
        <time>2025-05-11T09:00:43Z</time>
      </trkpt>
      <trkpt lat="45.82894" lon="4.37678">
        <ele>729</ele>
        <time>2025-05-11T09:00:45Z</time>
      </trkpt>
      <trkpt lat="45.82888" lon="4.37675">
        <ele>728</ele>
        <time>2025-05-11T09:00:46Z</time>
      </trkpt>
      <trkpt lat="45.82886" lon="4.37674">
        <ele>728</ele>
        <time>2025-05-11T09:00:47Z</time>
      </trkpt>
      <trkpt lat="45.82884" lon="4.37673">
        <ele>728</ele>
        <time>2025-05-11T09:00:48Z</time>
      </trkpt>
      <trkpt lat="45.8288" lon="4.37671">
        <ele>727</ele>
        <time>2025-05-11T09:00:50Z</time>
      </trkpt>
      <trkpt lat="45.82876" lon="4.3767">
        <ele>726</ele>
        <time>2025-05-11T09:00:52Z</time>
      </trkpt>
      <trkpt lat="45.82874" lon="4.37669">
        <ele>725</ele>
        <time>2025-05-11T09:00:54Z</time>
      </trkpt>
      <trkpt lat="45.8287" lon="4.37668">
        <ele>724</ele>
        <time>2025-05-11T09:00:55Z</time>
      </trkpt>
      <trkpt lat="45.82868" lon="4.37667">
        <ele>723</ele>
        <time>2025-05-11T09:00:57Z</time>
      </trkpt>
      <trkpt lat="45.82866" lon="4.37667">
        <ele>721</ele>
        <time>2025-05-11T09:01:10Z</time>
      </trkpt>
      <trkpt lat="45.82863" lon="4.37666">
        <ele>720</ele>
        <time>2025-05-11T09:01:12Z</time>
      </trkpt>
      <trkpt lat="45.82862" lon="4.37665">
        <ele>718</ele>
        <time>2025-05-11T09:01:23Z</time>
      </trkpt>
      <trkpt lat="45.8286" lon="4.37668">
        <ele>718</ele>
        <time>2025-05-11T09:01:24Z</time>
      </trkpt>
      <trkpt lat="45.82858" lon="4.3767">
        <ele>717</ele>
        <time>2025-05-11T09:01:27Z</time>
      </trkpt>
      <trkpt lat="45.82857" lon="4.37673">
        <ele>717</ele>
        <time>2025-05-11T09:01:29Z</time>
      </trkpt>
      <trkpt lat="45.82855" lon="4.37675">
        <ele>717</ele>
        <time>2025-05-11T09:01:31Z</time>
      </trkpt>
      <trkpt lat="45.82854" lon="4.37672">
        <ele>716</ele>
        <time>2025-05-11T09:01:47Z</time>
      </trkpt>
      <trkpt lat="45.82854" lon="4.37669">
        <ele>716</ele>
        <time>2025-05-11T09:01:54Z</time>
      </trkpt>
      <trkpt lat="45.82852" lon="4.37666">
        <ele>716</ele>
        <time>2025-05-11T09:01:57Z</time>
      </trkpt>
      <trkpt lat="45.82851" lon="4.37662">
        <ele>715</ele>
        <time>2025-05-11T09:02:16Z</time>
      </trkpt>
      <trkpt lat="45.8285" lon="4.37659">
        <ele>715</ele>
        <time>2025-05-11T09:02:17Z</time>
      </trkpt>
      <trkpt lat="45.82848" lon="4.37655">
        <ele>715</ele>
        <time>2025-05-11T09:02:20Z</time>
      </trkpt>
      <trkpt lat="45.82847" lon="4.37652">
        <ele>715</ele>
        <time>2025-05-11T09:02:21Z</time>
      </trkpt>
      <trkpt lat="45.82843" lon="4.37648">
        <ele>714</ele>
        <time>2025-05-11T09:02:22Z</time>
      </trkpt>
      <trkpt lat="45.82842" lon="4.37646">
        <ele>713</ele>
        <time>2025-05-11T09:02:24Z</time>
      </trkpt>
      <trkpt lat="45.82839" lon="4.37643">
        <ele>713</ele>
        <time>2025-05-11T09:02:26Z</time>
      </trkpt>
      <trkpt lat="45.82836" lon="4.37641">
        <ele>712</ele>
        <time>2025-05-11T09:02:28Z</time>
      </trkpt>
      <trkpt lat="45.82834" lon="4.3764">
        <ele>711</ele>
        <time>2025-05-11T09:02:29Z</time>
      </trkpt>
      <trkpt lat="45.82831" lon="4.37641">
        <ele>711</ele>
        <time>2025-05-11T09:02:30Z</time>
      </trkpt>
      <trkpt lat="45.82828" lon="4.37643">
        <ele>711</ele>
        <time>2025-05-11T09:02:32Z</time>
      </trkpt>
      <trkpt lat="45.82824" lon="4.37643">
        <ele>710</ele>
        <time>2025-05-11T09:02:34Z</time>
      </trkpt>
      <trkpt lat="45.82822" lon="4.37643">
        <ele>710</ele>
        <time>2025-05-11T09:02:35Z</time>
      </trkpt>
      <trkpt lat="45.8282" lon="4.37643">
        <ele>710</ele>
        <time>2025-05-11T09:02:36Z</time>
      </trkpt>
      <trkpt lat="45.82818" lon="4.37643">
        <ele>710</ele>
        <time>2025-05-11T09:02:37Z</time>
      </trkpt>
      <trkpt lat="45.82816" lon="4.37642">
        <ele>710</ele>
        <time>2025-05-11T09:02:38Z</time>
      </trkpt>
      <trkpt lat="45.82814" lon="4.37642">
        <ele>709</ele>
        <time>2025-05-11T09:02:40Z</time>
      </trkpt>
      <trkpt lat="45.82811" lon="4.37642">
        <ele>708</ele>
        <time>2025-05-11T09:02:42Z</time>
      </trkpt>
      <trkpt lat="45.82807" lon="4.37641">
        <ele>708</ele>
        <time>2025-05-11T09:02:44Z</time>
      </trkpt>
      <trkpt lat="45.82805" lon="4.37641">
        <ele>708</ele>
        <time>2025-05-11T09:02:45Z</time>
      </trkpt>
      <trkpt lat="45.82802" lon="4.3764">
        <ele>707</ele>
        <time>2025-05-11T09:02:47Z</time>
      </trkpt>
      <trkpt lat="45.828" lon="4.3764">
        <ele>707</ele>
        <time>2025-05-11T09:02:49Z</time>
      </trkpt>
      <trkpt lat="45.82797" lon="4.37641">
        <ele>707</ele>
        <time>2025-05-11T09:02:51Z</time>
      </trkpt>
      <trkpt lat="45.82795" lon="4.37644">
        <ele>707</ele>
        <time>2025-05-11T09:02:53Z</time>
      </trkpt>
      <trkpt lat="45.82794" lon="4.37646">
        <ele>706</ele>
        <time>2025-05-11T09:02:54Z</time>
      </trkpt>
      <trkpt lat="45.82792" lon="4.37648">
        <ele>706</ele>
        <time>2025-05-11T09:02:55Z</time>
      </trkpt>
      <trkpt lat="45.82789" lon="4.37652">
        <ele>706</ele>
        <time>2025-05-11T09:02:56Z</time>
      </trkpt>
      <trkpt lat="45.82788" lon="4.37654">
        <ele>706</ele>
        <time>2025-05-11T09:02:57Z</time>
      </trkpt>
      <trkpt lat="45.82787" lon="4.37656">
        <ele>705</ele>
        <time>2025-05-11T09:02:59Z</time>
      </trkpt>
      <trkpt lat="45.82784" lon="4.37659">
        <ele>705</ele>
        <time>2025-05-11T09:03:00Z</time>
      </trkpt>
      <trkpt lat="45.82783" lon="4.37661">
        <ele>705</ele>
        <time>2025-05-11T09:03:01Z</time>
      </trkpt>
      <trkpt lat="45.82781" lon="4.37663">
        <ele>705</ele>
        <time>2025-05-11T09:03:02Z</time>
      </trkpt>
      <trkpt lat="45.82779" lon="4.37665">
        <ele>705</ele>
        <time>2025-05-11T09:03:04Z</time>
      </trkpt>
      <trkpt lat="45.82775" lon="4.37668">
        <ele>705</ele>
        <time>2025-05-11T09:03:07Z</time>
      </trkpt>
      <trkpt lat="45.82774" lon="4.37669">
        <ele>705</ele>
        <time>2025-05-11T09:03:08Z</time>
      </trkpt>
      <trkpt lat="45.82771" lon="4.37671">
        <ele>705</ele>
        <time>2025-05-11T09:03:09Z</time>
      </trkpt>
      <trkpt lat="45.82768" lon="4.37671">
        <ele>705</ele>
        <time>2025-05-11T09:03:11Z</time>
      </trkpt>
      <trkpt lat="45.82764" lon="4.37673">
        <ele>704</ele>
        <time>2025-05-11T09:03:14Z</time>
      </trkpt>
      <trkpt lat="45.82761" lon="4.37673">
        <ele>704</ele>
        <time>2025-05-11T09:03:15Z</time>
      </trkpt>
      <trkpt lat="45.82759" lon="4.37674">
        <ele>704</ele>
        <time>2025-05-11T09:03:16Z</time>
      </trkpt>
      <trkpt lat="45.82757" lon="4.37674">
        <ele>704</ele>
        <time>2025-05-11T09:03:17Z</time>
      </trkpt>
      <trkpt lat="45.82755" lon="4.37675">
        <ele>703</ele>
        <time>2025-05-11T09:03:18Z</time>
      </trkpt>
      <trkpt lat="45.82753" lon="4.37675">
        <ele>703</ele>
        <time>2025-05-11T09:03:19Z</time>
      </trkpt>
      <trkpt lat="45.8275" lon="4.37676">
        <ele>703</ele>
        <time>2025-05-11T09:03:20Z</time>
      </trkpt>
      <trkpt lat="45.82746" lon="4.37675">
        <ele>703</ele>
        <time>2025-05-11T09:03:22Z</time>
      </trkpt>
      <trkpt lat="45.82742" lon="4.37676">
        <ele>702</ele>
        <time>2025-05-11T09:03:25Z</time>
      </trkpt>
      <trkpt lat="45.8274" lon="4.37677">
        <ele>702</ele>
        <time>2025-05-11T09:03:26Z</time>
      </trkpt>
      <trkpt lat="45.82738" lon="4.37677">
        <ele>702</ele>
        <time>2025-05-11T09:03:27Z</time>
      </trkpt>
      <trkpt lat="45.82736" lon="4.37678">
        <ele>702</ele>
        <time>2025-05-11T09:03:28Z</time>
      </trkpt>
      <trkpt lat="45.82731" lon="4.37682">
        <ele>701</ele>
        <time>2025-05-11T09:03:30Z</time>
      </trkpt>
      <trkpt lat="45.82729" lon="4.37683">
        <ele>701</ele>
        <time>2025-05-11T09:03:31Z</time>
      </trkpt>
      <trkpt lat="45.82727" lon="4.37684">
        <ele>700</ele>
        <time>2025-05-11T09:03:33Z</time>
      </trkpt>
      <trkpt lat="45.82724" lon="4.37685">
        <ele>700</ele>
        <time>2025-05-11T09:03:35Z</time>
      </trkpt>
      <trkpt lat="45.82721" lon="4.37685">
        <ele>700</ele>
        <time>2025-05-11T09:03:37Z</time>
      </trkpt>
      <trkpt lat="45.82718" lon="4.37685">
        <ele>699</ele>
        <time>2025-05-11T09:03:39Z</time>
      </trkpt>
      <trkpt lat="45.82714" lon="4.37684">
        <ele>698</ele>
        <time>2025-05-11T09:03:41Z</time>
      </trkpt>
      <trkpt lat="45.82709" lon="4.37682">
        <ele>698</ele>
        <time>2025-05-11T09:03:42Z</time>
      </trkpt>
      <trkpt lat="45.82707" lon="4.37681">
        <ele>697</ele>
        <time>2025-05-11T09:03:44Z</time>
      </trkpt>
      <trkpt lat="45.82704" lon="4.3768">
        <ele>697</ele>
        <time>2025-05-11T09:03:45Z</time>
      </trkpt>
      <trkpt lat="45.82702" lon="4.37679">
        <ele>697</ele>
        <time>2025-05-11T09:03:46Z</time>
      </trkpt>
      <trkpt lat="45.827" lon="4.37677">
        <ele>696</ele>
        <time>2025-05-11T09:03:47Z</time>
      </trkpt>
      <trkpt lat="45.82697" lon="4.37676">
        <ele>696</ele>
        <time>2025-05-11T09:03:48Z</time>
      </trkpt>
      <trkpt lat="45.82695" lon="4.37675">
        <ele>696</ele>
        <time>2025-05-11T09:03:49Z</time>
      </trkpt>
      <trkpt lat="45.82692" lon="4.37673">
        <ele>695</ele>
        <time>2025-05-11T09:03:50Z</time>
      </trkpt>
      <trkpt lat="45.8269" lon="4.37672">
        <ele>695</ele>
        <time>2025-05-11T09:03:51Z</time>
      </trkpt>
      <trkpt lat="45.82688" lon="4.3767">
        <ele>695</ele>
        <time>2025-05-11T09:03:52Z</time>
      </trkpt>
      <trkpt lat="45.82686" lon="4.37669">
        <ele>694</ele>
        <time>2025-05-11T09:03:53Z</time>
      </trkpt>
      <trkpt lat="45.8268" lon="4.37666">
        <ele>694</ele>
        <time>2025-05-11T09:03:54Z</time>
      </trkpt>
      <trkpt lat="45.82677" lon="4.37665">
        <ele>694</ele>
        <time>2025-05-11T09:03:55Z</time>
      </trkpt>
      <trkpt lat="45.82674" lon="4.37663">
        <ele>693</ele>
        <time>2025-05-11T09:03:56Z</time>
      </trkpt>
      <trkpt lat="45.82672" lon="4.37662">
        <ele>693</ele>
        <time>2025-05-11T09:03:57Z</time>
      </trkpt>
      <trkpt lat="45.82667" lon="4.37659">
        <ele>692</ele>
        <time>2025-05-11T09:03:59Z</time>
      </trkpt>
      <trkpt lat="45.82664" lon="4.37657">
        <ele>692</ele>
        <time>2025-05-11T09:04:00Z</time>
      </trkpt>
      <trkpt lat="45.82662" lon="4.37654">
        <ele>691</ele>
        <time>2025-05-11T09:04:02Z</time>
      </trkpt>
      <trkpt lat="45.82657" lon="4.37647">
        <ele>691</ele>
        <time>2025-05-11T09:04:03Z</time>
      </trkpt>
      <trkpt lat="45.82653" lon="4.3764">
        <ele>690</ele>
        <time>2025-05-11T09:04:05Z</time>
      </trkpt>
      <trkpt lat="45.82651" lon="4.37636">
        <ele>690</ele>
        <time>2025-05-11T09:04:06Z</time>
      </trkpt>
      <trkpt lat="45.82647" lon="4.37626">
        <ele>689</ele>
        <time>2025-05-11T09:04:08Z</time>
      </trkpt>
      <trkpt lat="45.82644" lon="4.37621">
        <ele>689</ele>
        <time>2025-05-11T09:04:10Z</time>
      </trkpt>
      <trkpt lat="45.8264" lon="4.37612">
        <ele>688</ele>
        <time>2025-05-11T09:04:11Z</time>
      </trkpt>
      <trkpt lat="45.82638" lon="4.37607">
        <ele>687</ele>
        <time>2025-05-11T09:04:12Z</time>
      </trkpt>
      <trkpt lat="45.82636" lon="4.37602">
        <ele>686</ele>
        <time>2025-05-11T09:04:14Z</time>
      </trkpt>
      <trkpt lat="45.82631" lon="4.37593">
        <ele>686</ele>
        <time>2025-05-11T09:04:15Z</time>
      </trkpt>
      <trkpt lat="45.82628" lon="4.37589">
        <ele>685</ele>
        <time>2025-05-11T09:04:17Z</time>
      </trkpt>
      <trkpt lat="45.82626" lon="4.37584">
        <ele>685</ele>
        <time>2025-05-11T09:04:18Z</time>
      </trkpt>
      <trkpt lat="45.82623" lon="4.3758">
        <ele>684</ele>
        <time>2025-05-11T09:04:19Z</time>
      </trkpt>
      <trkpt lat="45.8262" lon="4.37576">
        <ele>684</ele>
        <time>2025-05-11T09:04:20Z</time>
      </trkpt>
      <trkpt lat="45.82617" lon="4.37571">
        <ele>683</ele>
        <time>2025-05-11T09:04:21Z</time>
      </trkpt>
      <trkpt lat="45.82614" lon="4.37567">
        <ele>682</ele>
        <time>2025-05-11T09:04:22Z</time>
      </trkpt>
      <trkpt lat="45.8261" lon="4.37563">
        <ele>682</ele>
        <time>2025-05-11T09:04:23Z</time>
      </trkpt>
      <trkpt lat="45.82606" lon="4.37561">
        <ele>681</ele>
        <time>2025-05-11T09:04:24Z</time>
      </trkpt>
      <trkpt lat="45.82598" lon="4.37556">
        <ele>681</ele>
        <time>2025-05-11T09:04:25Z</time>
      </trkpt>
      <trkpt lat="45.82594" lon="4.37554">
        <ele>680</ele>
        <time>2025-05-11T09:04:27Z</time>
      </trkpt>
      <trkpt lat="45.82585" lon="4.37551">
        <ele>679</ele>
        <time>2025-05-11T09:04:28Z</time>
      </trkpt>
      <trkpt lat="45.82579" lon="4.37551">
        <ele>678</ele>
        <time>2025-05-11T09:04:29Z</time>
      </trkpt>
      <trkpt lat="45.82574" lon="4.37551">
        <ele>678</ele>
        <time>2025-05-11T09:04:30Z</time>
      </trkpt>
      <trkpt lat="45.82569" lon="4.37552">
        <ele>677</ele>
        <time>2025-05-11T09:04:31Z</time>
      </trkpt>
      <trkpt lat="45.82563" lon="4.37554">
        <ele>676</ele>
        <time>2025-05-11T09:04:32Z</time>
      </trkpt>
      <trkpt lat="45.82558" lon="4.37555">
        <ele>675</ele>
        <time>2025-05-11T09:04:33Z</time>
      </trkpt>
      <trkpt lat="45.82552" lon="4.37556">
        <ele>674</ele>
        <time>2025-05-11T09:04:34Z</time>
      </trkpt>
      <trkpt lat="45.82547" lon="4.37558">
        <ele>674</ele>
        <time>2025-05-11T09:04:35Z</time>
      </trkpt>
      <trkpt lat="45.82541" lon="4.3756">
        <ele>673</ele>
        <time>2025-05-11T09:04:36Z</time>
      </trkpt>
      <trkpt lat="45.82536" lon="4.37561">
        <ele>672</ele>
        <time>2025-05-11T09:04:38Z</time>
      </trkpt>
      <trkpt lat="45.82532" lon="4.37564">
        <ele>671</ele>
        <time>2025-05-11T09:04:39Z</time>
      </trkpt>
      <trkpt lat="45.82523" lon="4.37568">
        <ele>671</ele>
        <time>2025-05-11T09:04:40Z</time>
      </trkpt>
      <trkpt lat="45.82519" lon="4.3757">
        <ele>671</ele>
        <time>2025-05-11T09:04:41Z</time>
      </trkpt>
      <trkpt lat="45.82515" lon="4.37572">
        <ele>670</ele>
        <time>2025-05-11T09:04:42Z</time>
      </trkpt>
      <trkpt lat="45.82511" lon="4.37575">
        <ele>670</ele>
        <time>2025-05-11T09:04:43Z</time>
      </trkpt>
      <trkpt lat="45.82504" lon="4.37578">
        <ele>669</ele>
        <time>2025-05-11T09:04:45Z</time>
      </trkpt>
      <trkpt lat="45.82502" lon="4.37579">
        <ele>668</ele>
        <time>2025-05-11T09:04:46Z</time>
      </trkpt>
      <trkpt lat="45.82497" lon="4.3758">
        <ele>668</ele>
        <time>2025-05-11T09:04:48Z</time>
      </trkpt>
      <trkpt lat="45.82494" lon="4.37579">
        <ele>667</ele>
        <time>2025-05-11T09:04:50Z</time>
      </trkpt>
      <trkpt lat="45.82492" lon="4.37577">
        <ele>667</ele>
        <time>2025-05-11T09:04:51Z</time>
      </trkpt>
      <trkpt lat="45.82491" lon="4.37573">
        <ele>667</ele>
        <time>2025-05-11T09:04:52Z</time>
      </trkpt>
      <trkpt lat="45.82492" lon="4.37569">
        <ele>667</ele>
        <time>2025-05-11T09:04:53Z</time>
      </trkpt>
      <trkpt lat="45.82495" lon="4.37564">
        <ele>666</ele>
        <time>2025-05-11T09:04:54Z</time>
      </trkpt>
      <trkpt lat="45.82497" lon="4.37558">
        <ele>666</ele>
        <time>2025-05-11T09:04:55Z</time>
      </trkpt>
      <trkpt lat="45.825" lon="4.37552">
        <ele>666</ele>
        <time>2025-05-11T09:04:56Z</time>
      </trkpt>
      <trkpt lat="45.82507" lon="4.37539">
        <ele>665</ele>
        <time>2025-05-11T09:04:57Z</time>
      </trkpt>
      <trkpt lat="45.82509" lon="4.37533">
        <ele>665</ele>
        <time>2025-05-11T09:04:58Z</time>
      </trkpt>
      <trkpt lat="45.82514" lon="4.37518">
        <ele>665</ele>
        <time>2025-05-11T09:05:00Z</time>
      </trkpt>
      <trkpt lat="45.82517" lon="4.37511">
        <ele>664</ele>
        <time>2025-05-11T09:05:02Z</time>
      </trkpt>
      <trkpt lat="45.82523" lon="4.37496">
        <ele>663</ele>
        <time>2025-05-11T09:05:03Z</time>
      </trkpt>
      <trkpt lat="45.82526" lon="4.37488">
        <ele>663</ele>
        <time>2025-05-11T09:05:04Z</time>
      </trkpt>
      <trkpt lat="45.82529" lon="4.3748">
        <ele>663</ele>
        <time>2025-05-11T09:05:05Z</time>
      </trkpt>
      <trkpt lat="45.82532" lon="4.37471">
        <ele>662</ele>
        <time>2025-05-11T09:05:07Z</time>
      </trkpt>
      <trkpt lat="45.82537" lon="4.37453">
        <ele>662</ele>
        <time>2025-05-11T09:05:08Z</time>
      </trkpt>
      <trkpt lat="45.82541" lon="4.37434">
        <ele>661</ele>
        <time>2025-05-11T09:05:10Z</time>
      </trkpt>
      <trkpt lat="45.82543" lon="4.37425">
        <ele>660</ele>
        <time>2025-05-11T09:05:12Z</time>
      </trkpt>
      <trkpt lat="45.82548" lon="4.37409">
        <ele>659</ele>
        <time>2025-05-11T09:05:13Z</time>
      </trkpt>
      <trkpt lat="45.8255" lon="4.374">
        <ele>659</ele>
        <time>2025-05-11T09:05:15Z</time>
      </trkpt>
      <trkpt lat="45.82552" lon="4.37391">
        <ele>658</ele>
        <time>2025-05-11T09:05:16Z</time>
      </trkpt>
      <trkpt lat="45.82555" lon="4.37383">
        <ele>658</ele>
        <time>2025-05-11T09:05:17Z</time>
      </trkpt>
      <trkpt lat="45.82558" lon="4.37376">
        <ele>658</ele>
        <time>2025-05-11T09:05:18Z</time>
      </trkpt>
      <trkpt lat="45.8256" lon="4.37368">
        <ele>658</ele>
        <time>2025-05-11T09:05:19Z</time>
      </trkpt>
      <trkpt lat="45.82564" lon="4.37361">
        <ele>657</ele>
        <time>2025-05-11T09:05:20Z</time>
      </trkpt>
      <trkpt lat="45.82567" lon="4.37353">
        <ele>657</ele>
        <time>2025-05-11T09:05:21Z</time>
      </trkpt>
      <trkpt lat="45.82573" lon="4.37338">
        <ele>657</ele>
        <time>2025-05-11T09:05:22Z</time>
      </trkpt>
      <trkpt lat="45.82575" lon="4.37329">
        <ele>656</ele>
        <time>2025-05-11T09:05:23Z</time>
      </trkpt>
      <trkpt lat="45.82577" lon="4.37312">
        <ele>656</ele>
        <time>2025-05-11T09:05:25Z</time>
      </trkpt>
      <trkpt lat="45.82577" lon="4.37302">
        <ele>656</ele>
        <time>2025-05-11T09:05:26Z</time>
      </trkpt>
      <trkpt lat="45.82577" lon="4.37293">
        <ele>655</ele>
        <time>2025-05-11T09:05:27Z</time>
      </trkpt>
      <trkpt lat="45.82577" lon="4.37284">
        <ele>655</ele>
        <time>2025-05-11T09:05:28Z</time>
      </trkpt>
      <trkpt lat="45.82578" lon="4.37275">
        <ele>655</ele>
        <time>2025-05-11T09:05:29Z</time>
      </trkpt>
      <trkpt lat="45.82579" lon="4.37266">
        <ele>654</ele>
        <time>2025-05-11T09:05:30Z</time>
      </trkpt>
      <trkpt lat="45.82581" lon="4.37258">
        <ele>654</ele>
        <time>2025-05-11T09:05:31Z</time>
      </trkpt>
      <trkpt lat="45.82584" lon="4.3725">
        <ele>654</ele>
        <time>2025-05-11T09:05:32Z</time>
      </trkpt>
      <trkpt lat="45.82586" lon="4.37242">
        <ele>653</ele>
        <time>2025-05-11T09:05:33Z</time>
      </trkpt>
      <trkpt lat="45.82593" lon="4.37226">
        <ele>653</ele>
        <time>2025-05-11T09:05:35Z</time>
      </trkpt>
      <trkpt lat="45.82596" lon="4.37218">
        <ele>652</ele>
        <time>2025-05-11T09:05:36Z</time>
      </trkpt>
      <trkpt lat="45.82603" lon="4.37202">
        <ele>651</ele>
        <time>2025-05-11T09:05:38Z</time>
      </trkpt>
      <trkpt lat="45.82606" lon="4.37195">
        <ele>651</ele>
        <time>2025-05-11T09:05:39Z</time>
      </trkpt>
      <trkpt lat="45.8261" lon="4.3718">
        <ele>650</ele>
        <time>2025-05-11T09:05:41Z</time>
      </trkpt>
      <trkpt lat="45.82615" lon="4.37167">
        <ele>650</ele>
        <time>2025-05-11T09:05:43Z</time>
      </trkpt>
      <trkpt lat="45.82618" lon="4.37159">
        <ele>649</ele>
        <time>2025-05-11T09:05:44Z</time>
      </trkpt>
      <trkpt lat="45.82621" lon="4.37151">
        <ele>649</ele>
        <time>2025-05-11T09:05:45Z</time>
      </trkpt>
      <trkpt lat="45.82625" lon="4.37143">
        <ele>649</ele>
        <time>2025-05-11T09:05:46Z</time>
      </trkpt>
      <trkpt lat="45.82632" lon="4.37127">
        <ele>648</ele>
        <time>2025-05-11T09:05:48Z</time>
      </trkpt>
      <trkpt lat="45.82635" lon="4.3712">
        <ele>648</ele>
        <time>2025-05-11T09:05:49Z</time>
      </trkpt>
      <trkpt lat="45.82639" lon="4.37113">
        <ele>648</ele>
        <time>2025-05-11T09:05:50Z</time>
      </trkpt>
      <trkpt lat="45.82643" lon="4.37107">
        <ele>648</ele>
        <time>2025-05-11T09:05:52Z</time>
      </trkpt>
      <trkpt lat="45.82647" lon="4.371">
        <ele>647</ele>
        <time>2025-05-11T09:05:53Z</time>
      </trkpt>
      <trkpt lat="45.82655" lon="4.37084">
        <ele>647</ele>
        <time>2025-05-11T09:05:54Z</time>
      </trkpt>
      <trkpt lat="45.82659" lon="4.37076">
        <ele>647</ele>
        <time>2025-05-11T09:05:56Z</time>
      </trkpt>
      <trkpt lat="45.82663" lon="4.37068">
        <ele>646</ele>
        <time>2025-05-11T09:05:57Z</time>
      </trkpt>
      <trkpt lat="45.82667" lon="4.3706">
        <ele>646</ele>
        <time>2025-05-11T09:05:58Z</time>
      </trkpt>
      <trkpt lat="45.82671" lon="4.37051">
        <ele>646</ele>
        <time>2025-05-11T09:05:59Z</time>
      </trkpt>
      <trkpt lat="45.82674" lon="4.37042">
        <ele>646</ele>
        <time>2025-05-11T09:06:00Z</time>
      </trkpt>
      <trkpt lat="45.82677" lon="4.37032">
        <ele>645</ele>
        <time>2025-05-11T09:06:01Z</time>
      </trkpt>
      <trkpt lat="45.82679" lon="4.37022">
        <ele>645</ele>
        <time>2025-05-11T09:06:02Z</time>
      </trkpt>
      <trkpt lat="45.82681" lon="4.37012">
        <ele>645</ele>
        <time>2025-05-11T09:06:03Z</time>
      </trkpt>
      <trkpt lat="45.82683" lon="4.37001">
        <ele>644</ele>
        <time>2025-05-11T09:06:04Z</time>
      </trkpt>
      <trkpt lat="45.82686" lon="4.3698">
        <ele>644</ele>
        <time>2025-05-11T09:06:05Z</time>
      </trkpt>
      <trkpt lat="45.82688" lon="4.3697">
        <ele>644</ele>
        <time>2025-05-11T09:06:06Z</time>
      </trkpt>
      <trkpt lat="45.82689" lon="4.3696">
        <ele>644</ele>
        <time>2025-05-11T09:06:08Z</time>
      </trkpt>
      <trkpt lat="45.82693" lon="4.36941">
        <ele>643</ele>
        <time>2025-05-11T09:06:09Z</time>
      </trkpt>
      <trkpt lat="45.82695" lon="4.36932">
        <ele>643</ele>
        <time>2025-05-11T09:06:11Z</time>
      </trkpt>
      <trkpt lat="45.82698" lon="4.36922">
        <ele>643</ele>
        <time>2025-05-11T09:06:12Z</time>
      </trkpt>
      <trkpt lat="45.82699" lon="4.36912">
        <ele>643</ele>
        <time>2025-05-11T09:06:13Z</time>
      </trkpt>
      <trkpt lat="45.82701" lon="4.36892">
        <ele>643</ele>
        <time>2025-05-11T09:06:14Z</time>
      </trkpt>
      <trkpt lat="45.827" lon="4.36883">
        <ele>642</ele>
        <time>2025-05-11T09:06:16Z</time>
      </trkpt>
      <trkpt lat="45.827" lon="4.36874">
        <ele>642</ele>
        <time>2025-05-11T09:06:17Z</time>
      </trkpt>
      <trkpt lat="45.82698" lon="4.36866">
        <ele>641</ele>
        <time>2025-05-11T09:06:18Z</time>
      </trkpt>
      <trkpt lat="45.82697" lon="4.36856">
        <ele>641</ele>
        <time>2025-05-11T09:06:19Z</time>
      </trkpt>
      <trkpt lat="45.82694" lon="4.36835">
        <ele>641</ele>
        <time>2025-05-11T09:06:20Z</time>
      </trkpt>
      <trkpt lat="45.82693" lon="4.36823">
        <ele>641</ele>
        <time>2025-05-11T09:06:21Z</time>
      </trkpt>
      <trkpt lat="45.8269" lon="4.36801">
        <ele>641</ele>
        <time>2025-05-11T09:06:23Z</time>
      </trkpt>
      <trkpt lat="45.82687" lon="4.36779">
        <ele>641</ele>
        <time>2025-05-11T09:06:25Z</time>
      </trkpt>
      <trkpt lat="45.82685" lon="4.36757">
        <ele>640</ele>
        <time>2025-05-11T09:06:27Z</time>
      </trkpt>
      <trkpt lat="45.82683" lon="4.36747">
        <ele>640</ele>
        <time>2025-05-11T09:06:29Z</time>
      </trkpt>
      <trkpt lat="45.82681" lon="4.36725">
        <ele>640</ele>
        <time>2025-05-11T09:06:30Z</time>
      </trkpt>
      <trkpt lat="45.8268" lon="4.36715">
        <ele>640</ele>
        <time>2025-05-11T09:06:32Z</time>
      </trkpt>
      <trkpt lat="45.82679" lon="4.36706">
        <ele>640</ele>
        <time>2025-05-11T09:06:33Z</time>
      </trkpt>
      <trkpt lat="45.82678" lon="4.36697">
        <ele>640</ele>
        <time>2025-05-11T09:06:34Z</time>
      </trkpt>
      <trkpt lat="45.82678" lon="4.36687">
        <ele>640</ele>
        <time>2025-05-11T09:06:35Z</time>
      </trkpt>
      <trkpt lat="45.82678" lon="4.36678">
        <ele>640</ele>
        <time>2025-05-11T09:06:36Z</time>
      </trkpt>
      <trkpt lat="45.82678" lon="4.36667">
        <ele>640</ele>
        <time>2025-05-11T09:06:37Z</time>
      </trkpt>
      <trkpt lat="45.82678" lon="4.36656">
        <ele>640</ele>
        <time>2025-05-11T09:06:38Z</time>
      </trkpt>
      <trkpt lat="45.82678" lon="4.36645">
        <ele>640</ele>
        <time>2025-05-11T09:06:39Z</time>
      </trkpt>
      <trkpt lat="45.82678" lon="4.36634">
        <ele>640</ele>
        <time>2025-05-11T09:06:40Z</time>
      </trkpt>
      <trkpt lat="45.82679" lon="4.36624">
        <ele>640</ele>
        <time>2025-05-11T09:06:41Z</time>
      </trkpt>
      <trkpt lat="45.82675" lon="4.36607">
        <ele>640</ele>
        <time>2025-05-11T09:06:42Z</time>
      </trkpt>
      <trkpt lat="45.82671" lon="4.36596">
        <ele>641</ele>
        <time>2025-05-11T09:06:44Z</time>
      </trkpt>
      <trkpt lat="45.82669" lon="4.36591">
        <ele>641</ele>
        <time>2025-05-11T09:06:46Z</time>
      </trkpt>
      <trkpt lat="45.82668" lon="4.36587">
        <ele>641</ele>
        <time>2025-05-11T09:06:47Z</time>
      </trkpt>
      <trkpt lat="45.82665" lon="4.36577">
        <ele>641</ele>
        <time>2025-05-11T09:06:48Z</time>
      </trkpt>
      <trkpt lat="45.82661" lon="4.36569">
        <ele>641</ele>
        <time>2025-05-11T09:06:50Z</time>
      </trkpt>
      <trkpt lat="45.82657" lon="4.3656">
        <ele>640</ele>
        <time>2025-05-11T09:06:51Z</time>
      </trkpt>
      <trkpt lat="45.82652" lon="4.36549">
        <ele>640</ele>
        <time>2025-05-11T09:06:52Z</time>
      </trkpt>
      <trkpt lat="45.82643" lon="4.36524">
        <ele>640</ele>
        <time>2025-05-11T09:06:53Z</time>
      </trkpt>
      <trkpt lat="45.82639" lon="4.36511">
        <ele>639</ele>
        <time>2025-05-11T09:06:54Z</time>
      </trkpt>
      <trkpt lat="45.82633" lon="4.36482">
        <ele>639</ele>
        <time>2025-05-11T09:06:56Z</time>
      </trkpt>
      <trkpt lat="45.82631" lon="4.36467">
        <ele>639</ele>
        <time>2025-05-11T09:06:57Z</time>
      </trkpt>
      <trkpt lat="45.82629" lon="4.36454">
        <ele>638</ele>
        <time>2025-05-11T09:06:59Z</time>
      </trkpt>
      <trkpt lat="45.82626" lon="4.3643">
        <ele>638</ele>
        <time>2025-05-11T09:07:00Z</time>
      </trkpt>
      <trkpt lat="45.82624" lon="4.3642">
        <ele>638</ele>
        <time>2025-05-11T09:07:01Z</time>
      </trkpt>
      <trkpt lat="45.82622" lon="4.3641">
        <ele>638</ele>
        <time>2025-05-11T09:07:02Z</time>
      </trkpt>
      <trkpt lat="45.82621" lon="4.36401">
        <ele>638</ele>
        <time>2025-05-11T09:07:03Z</time>
      </trkpt>
      <trkpt lat="45.82619" lon="4.36387">
        <ele>638</ele>
        <time>2025-05-11T09:07:05Z</time>
      </trkpt>
      <trkpt lat="45.82617" lon="4.36381">
        <ele>638</ele>
        <time>2025-05-11T09:07:07Z</time>
      </trkpt>
      <trkpt lat="45.82614" lon="4.36374">
        <ele>638</ele>
        <time>2025-05-11T09:07:08Z</time>
      </trkpt>
      <trkpt lat="45.82611" lon="4.36366">
        <ele>638</ele>
        <time>2025-05-11T09:07:09Z</time>
      </trkpt>
      <trkpt lat="45.82609" lon="4.36359">
        <ele>638</ele>
        <time>2025-05-11T09:07:10Z</time>
      </trkpt>
      <trkpt lat="45.82606" lon="4.36343">
        <ele>638</ele>
        <time>2025-05-11T09:07:11Z</time>
      </trkpt>
      <trkpt lat="45.82605" lon="4.36322">
        <ele>638</ele>
        <time>2025-05-11T09:07:13Z</time>
      </trkpt>
      <trkpt lat="45.82605" lon="4.36311">
        <ele>637</ele>
        <time>2025-05-11T09:07:15Z</time>
      </trkpt>
      <trkpt lat="45.82605" lon="4.36298">
        <ele>637</ele>
        <time>2025-05-11T09:07:16Z</time>
      </trkpt>
      <trkpt lat="45.82605" lon="4.36286">
        <ele>637</ele>
        <time>2025-05-11T09:07:17Z</time>
      </trkpt>
      <trkpt lat="45.82606" lon="4.36274">
        <ele>637</ele>
        <time>2025-05-11T09:07:18Z</time>
      </trkpt>
      <trkpt lat="45.82606" lon="4.36262">
        <ele>636</ele>
        <time>2025-05-11T09:07:19Z</time>
      </trkpt>
      <trkpt lat="45.82607" lon="4.3625">
        <ele>636</ele>
        <time>2025-05-11T09:07:20Z</time>
      </trkpt>
      <trkpt lat="45.82608" lon="4.36228">
        <ele>635</ele>
        <time>2025-05-11T09:07:21Z</time>
      </trkpt>
      <trkpt lat="45.82608" lon="4.36218">
        <ele>635</ele>
        <time>2025-05-11T09:07:22Z</time>
      </trkpt>
      <trkpt lat="45.82609" lon="4.36208">
        <ele>634</ele>
        <time>2025-05-11T09:07:24Z</time>
      </trkpt>
      <trkpt lat="45.82609" lon="4.36198">
        <ele>634</ele>
        <time>2025-05-11T09:07:25Z</time>
      </trkpt>
      <trkpt lat="45.82609" lon="4.36188">
        <ele>633</ele>
        <time>2025-05-11T09:07:26Z</time>
      </trkpt>
      <trkpt lat="45.82609" lon="4.36178">
        <ele>633</ele>
        <time>2025-05-11T09:07:27Z</time>
      </trkpt>
      <trkpt lat="45.82609" lon="4.36157">
        <ele>633</ele>
        <time>2025-05-11T09:07:28Z</time>
      </trkpt>
      <trkpt lat="45.82609" lon="4.36147">
        <ele>632</ele>
        <time>2025-05-11T09:07:30Z</time>
      </trkpt>
      <trkpt lat="45.82609" lon="4.36136">
        <ele>631</ele>
        <time>2025-05-11T09:07:31Z</time>
      </trkpt>
      <trkpt lat="45.82609" lon="4.36126">
        <ele>631</ele>
        <time>2025-05-11T09:07:32Z</time>
      </trkpt>
      <trkpt lat="45.8261" lon="4.36108">
        <ele>631</ele>
        <time>2025-05-11T09:07:33Z</time>
      </trkpt>
      <trkpt lat="45.8261" lon="4.36099">
        <ele>629</ele>
        <time>2025-05-11T09:07:34Z</time>
      </trkpt>
      <trkpt lat="45.82609" lon="4.3609">
        <ele>629</ele>
        <time>2025-05-11T09:07:35Z</time>
      </trkpt>
      <trkpt lat="45.82607" lon="4.36081">
        <ele>628</ele>
        <time>2025-05-11T09:07:36Z</time>
      </trkpt>
      <trkpt lat="45.82604" lon="4.36071">
        <ele>628</ele>
        <time>2025-05-11T09:07:37Z</time>
      </trkpt>
      <trkpt lat="45.82599" lon="4.36051">
        <ele>627</ele>
        <time>2025-05-11T09:07:39Z</time>
      </trkpt>
      <trkpt lat="45.82597" lon="4.36042">
        <ele>626</ele>
        <time>2025-05-11T09:07:40Z</time>
      </trkpt>
      <trkpt lat="45.82595" lon="4.36035">
        <ele>625</ele>
        <time>2025-05-11T09:07:42Z</time>
      </trkpt>
      <trkpt lat="45.82592" lon="4.36028">
        <ele>625</ele>
        <time>2025-05-11T09:07:43Z</time>
      </trkpt>
      <trkpt lat="45.8259" lon="4.36021">
        <ele>624</ele>
        <time>2025-05-11T09:07:44Z</time>
      </trkpt>
      <trkpt lat="45.82583" lon="4.36015">
        <ele>624</ele>
        <time>2025-05-11T09:07:45Z</time>
      </trkpt>
      <trkpt lat="45.82578" lon="4.36014">
        <ele>623</ele>
        <time>2025-05-11T09:07:46Z</time>
      </trkpt>
      <trkpt lat="45.8257" lon="4.36012">
        <ele>622</ele>
        <time>2025-05-11T09:07:48Z</time>
      </trkpt>
      <trkpt lat="45.82563" lon="4.36009">
        <ele>621</ele>
        <time>2025-05-11T09:07:50Z</time>
      </trkpt>
      <trkpt lat="45.82559" lon="4.36006">
        <ele>621</ele>
        <time>2025-05-11T09:07:51Z</time>
      </trkpt>
      <trkpt lat="45.82555" lon="4.36003">
        <ele>621</ele>
        <time>2025-05-11T09:07:53Z</time>
      </trkpt>
      <trkpt lat="45.82547" lon="4.35995">
        <ele>620</ele>
        <time>2025-05-11T09:07:54Z</time>
      </trkpt>
      <trkpt lat="45.82538" lon="4.35984">
        <ele>620</ele>
        <time>2025-05-11T09:07:56Z</time>
      </trkpt>
      <trkpt lat="45.82533" lon="4.35977">
        <ele>620</ele>
        <time>2025-05-11T09:07:57Z</time>
      </trkpt>
      <trkpt lat="45.82529" lon="4.35969">
        <ele>620</ele>
        <time>2025-05-11T09:07:59Z</time>
      </trkpt>
      <trkpt lat="45.82524" lon="4.35961">
        <ele>620</ele>
        <time>2025-05-11T09:08:00Z</time>
      </trkpt>
      <trkpt lat="45.82519" lon="4.35954">
        <ele>620</ele>
        <time>2025-05-11T09:08:01Z</time>
      </trkpt>
      <trkpt lat="45.82514" lon="4.35949">
        <ele>619</ele>
        <time>2025-05-11T09:08:02Z</time>
      </trkpt>
      <trkpt lat="45.82508" lon="4.35943">
        <ele>619</ele>
        <time>2025-05-11T09:08:03Z</time>
      </trkpt>
      <trkpt lat="45.82499" lon="4.35936">
        <ele>619</ele>
        <time>2025-05-11T09:08:04Z</time>
      </trkpt>
      <trkpt lat="45.82495" lon="4.35933">
        <ele>619</ele>
        <time>2025-05-11T09:08:05Z</time>
      </trkpt>
      <trkpt lat="45.8249" lon="4.3593">
        <ele>619</ele>
        <time>2025-05-11T09:08:06Z</time>
      </trkpt>
      <trkpt lat="45.82482" lon="4.35923">
        <ele>618</ele>
        <time>2025-05-11T09:08:08Z</time>
      </trkpt>
      <trkpt lat="45.82477" lon="4.35918">
        <ele>618</ele>
        <time>2025-05-11T09:08:10Z</time>
      </trkpt>
      <trkpt lat="45.82468" lon="4.35903">
        <ele>618</ele>
        <time>2025-05-11T09:08:11Z</time>
      </trkpt>
      <trkpt lat="45.82462" lon="4.35894">
        <ele>618</ele>
        <time>2025-05-11T09:08:12Z</time>
      </trkpt>
      <trkpt lat="45.82456" lon="4.35885">
        <ele>617</ele>
        <time>2025-05-11T09:08:13Z</time>
      </trkpt>
      <trkpt lat="45.82451" lon="4.35878">
        <ele>616</ele>
        <time>2025-05-11T09:08:15Z</time>
      </trkpt>
      <trkpt lat="45.82445" lon="4.35872">
        <ele>616</ele>
        <time>2025-05-11T09:08:16Z</time>
      </trkpt>
      <trkpt lat="45.82441" lon="4.35869">
        <ele>616</ele>
        <time>2025-05-11T09:08:17Z</time>
      </trkpt>
      <trkpt lat="45.82434" lon="4.35864">
        <ele>615</ele>
        <time>2025-05-11T09:08:18Z</time>
      </trkpt>
      <trkpt lat="45.8243" lon="4.35862">
        <ele>615</ele>
        <time>2025-05-11T09:08:19Z</time>
      </trkpt>
      <trkpt lat="45.82427" lon="4.3586">
        <ele>615</ele>
        <time>2025-05-11T09:08:20Z</time>
      </trkpt>
      <trkpt lat="45.82424" lon="4.35859">
        <ele>614</ele>
        <time>2025-05-11T09:08:22Z</time>
      </trkpt>
      <trkpt lat="45.82421" lon="4.35857">
        <ele>614</ele>
        <time>2025-05-11T09:08:23Z</time>
      </trkpt>
      <trkpt lat="45.82414" lon="4.35854">
        <ele>613</ele>
        <time>2025-05-11T09:08:24Z</time>
      </trkpt>
      <trkpt lat="45.82411" lon="4.35852">
        <ele>613</ele>
        <time>2025-05-11T09:08:26Z</time>
      </trkpt>
      <trkpt lat="45.82408" lon="4.35851">
        <ele>613</ele>
        <time>2025-05-11T09:08:27Z</time>
      </trkpt>
      <trkpt lat="45.82402" lon="4.35848">
        <ele>613</ele>
        <time>2025-05-11T09:08:28Z</time>
      </trkpt>
      <trkpt lat="45.82396" lon="4.35844">
        <ele>613</ele>
        <time>2025-05-11T09:08:30Z</time>
      </trkpt>
      <trkpt lat="45.82393" lon="4.35842">
        <ele>613</ele>
        <time>2025-05-11T09:08:32Z</time>
      </trkpt>
      <trkpt lat="45.8239" lon="4.35841">
        <ele>613</ele>
        <time>2025-05-11T09:08:33Z</time>
      </trkpt>
      <trkpt lat="45.82388" lon="4.35839">
        <ele>613</ele>
        <time>2025-05-11T09:08:34Z</time>
      </trkpt>
      <trkpt lat="45.82381" lon="4.35832">
        <ele>613</ele>
        <time>2025-05-11T09:08:35Z</time>
      </trkpt>
      <trkpt lat="45.82377" lon="4.35828">
        <ele>613</ele>
        <time>2025-05-11T09:08:36Z</time>
      </trkpt>
      <trkpt lat="45.82374" lon="4.35824">
        <ele>613</ele>
        <time>2025-05-11T09:08:37Z</time>
      </trkpt>
      <trkpt lat="45.82371" lon="4.3582">
        <ele>613</ele>
        <time>2025-05-11T09:08:38Z</time>
      </trkpt>
      <trkpt lat="45.82368" lon="4.35815">
        <ele>613</ele>
        <time>2025-05-11T09:08:39Z</time>
      </trkpt>
      <trkpt lat="45.82362" lon="4.35803">
        <ele>612</ele>
        <time>2025-05-11T09:08:41Z</time>
      </trkpt>
      <trkpt lat="45.82359" lon="4.35796">
        <ele>612</ele>
        <time>2025-05-11T09:08:42Z</time>
      </trkpt>
      <trkpt lat="45.82354" lon="4.35784">
        <ele>612</ele>
        <time>2025-05-11T09:08:44Z</time>
      </trkpt>
      <trkpt lat="45.82349" lon="4.35773">
        <ele>611</ele>
        <time>2025-05-11T09:08:46Z</time>
      </trkpt>
      <trkpt lat="45.82346" lon="4.35768">
        <ele>611</ele>
        <time>2025-05-11T09:08:47Z</time>
      </trkpt>
      <trkpt lat="45.82342" lon="4.35762">
        <ele>611</ele>
        <time>2025-05-11T09:08:49Z</time>
      </trkpt>
      <trkpt lat="45.82332" lon="4.35752">
        <ele>611</ele>
        <time>2025-05-11T09:08:50Z</time>
      </trkpt>
      <trkpt lat="45.82327" lon="4.35747">
        <ele>611</ele>
        <time>2025-05-11T09:08:51Z</time>
      </trkpt>
      <trkpt lat="45.82323" lon="4.35742">
        <ele>611</ele>
        <time>2025-05-11T09:08:52Z</time>
      </trkpt>
      <trkpt lat="45.82317" lon="4.35738">
        <ele>611</ele>
        <time>2025-05-11T09:08:54Z</time>
      </trkpt>
      <trkpt lat="45.82308" lon="4.35731">
        <ele>610</ele>
        <time>2025-05-11T09:08:55Z</time>
      </trkpt>
      <trkpt lat="45.82304" lon="4.35729">
        <ele>610</ele>
        <time>2025-05-11T09:08:56Z</time>
      </trkpt>
      <trkpt lat="45.82301" lon="4.35726">
        <ele>610</ele>
        <time>2025-05-11T09:08:57Z</time>
      </trkpt>
      <trkpt lat="45.82297" lon="4.35724">
        <ele>610</ele>
        <time>2025-05-11T09:08:58Z</time>
      </trkpt>
      <trkpt lat="45.82288" lon="4.35718">
        <ele>610</ele>
        <time>2025-05-11T09:09:00Z</time>
      </trkpt>
      <trkpt lat="45.8228" lon="4.35711">
        <ele>610</ele>
        <time>2025-05-11T09:09:02Z</time>
      </trkpt>
      <trkpt lat="45.82272" lon="4.35703">
        <ele>609</ele>
        <time>2025-05-11T09:09:04Z</time>
      </trkpt>
      <trkpt lat="45.82268" lon="4.35698">
        <ele>609</ele>
        <time>2025-05-11T09:09:06Z</time>
      </trkpt>
      <trkpt lat="45.82264" lon="4.35694">
        <ele>609</ele>
        <time>2025-05-11T09:09:07Z</time>
      </trkpt>
      <trkpt lat="45.82261" lon="4.3569">
        <ele>609</ele>
        <time>2025-05-11T09:09:08Z</time>
      </trkpt>
      <trkpt lat="45.82254" lon="4.3568">
        <ele>609</ele>
        <time>2025-05-11T09:09:09Z</time>
      </trkpt>
      <trkpt lat="45.82252" lon="4.35674">
        <ele>609</ele>
        <time>2025-05-11T09:09:11Z</time>
      </trkpt>
      <trkpt lat="45.82245" lon="4.35663">
        <ele>609</ele>
        <time>2025-05-11T09:09:12Z</time>
      </trkpt>
      <trkpt lat="45.82239" lon="4.35651">
        <ele>608</ele>
        <time>2025-05-11T09:09:14Z</time>
      </trkpt>
      <trkpt lat="45.82236" lon="4.35645">
        <ele>608</ele>
        <time>2025-05-11T09:09:15Z</time>
      </trkpt>
      <trkpt lat="45.82233" lon="4.35639">
        <ele>608</ele>
        <time>2025-05-11T09:09:16Z</time>
      </trkpt>
      <trkpt lat="45.82231" lon="4.35633">
        <ele>608</ele>
        <time>2025-05-11T09:09:17Z</time>
      </trkpt>
      <trkpt lat="45.82228" lon="4.35627">
        <ele>608</ele>
        <time>2025-05-11T09:09:18Z</time>
      </trkpt>
      <trkpt lat="45.82225" lon="4.3562">
        <ele>608</ele>
        <time>2025-05-11T09:09:19Z</time>
      </trkpt>
      <trkpt lat="45.8222" lon="4.35606">
        <ele>608</ele>
        <time>2025-05-11T09:09:21Z</time>
      </trkpt>
      <trkpt lat="45.82212" lon="4.35593">
        <ele>608</ele>
        <time>2025-05-11T09:09:23Z</time>
      </trkpt>
      <trkpt lat="45.82207" lon="4.35586">
        <ele>608</ele>
        <time>2025-05-11T09:09:24Z</time>
      </trkpt>
      <trkpt lat="45.82202" lon="4.35581">
        <ele>607</ele>
        <time>2025-05-11T09:09:25Z</time>
      </trkpt>
      <trkpt lat="45.82191" lon="4.3557">
        <ele>607</ele>
        <time>2025-05-11T09:09:27Z</time>
      </trkpt>
      <trkpt lat="45.82179" lon="4.35558">
        <ele>607</ele>
        <time>2025-05-11T09:09:29Z</time>
      </trkpt>
      <trkpt lat="45.82173" lon="4.35553">
        <ele>606</ele>
        <time>2025-05-11T09:09:30Z</time>
      </trkpt>
      <trkpt lat="45.82167" lon="4.35547">
        <ele>606</ele>
        <time>2025-05-11T09:09:31Z</time>
      </trkpt>
      <trkpt lat="45.82156" lon="4.35535">
        <ele>606</ele>
        <time>2025-05-11T09:09:33Z</time>
      </trkpt>
      <trkpt lat="45.8215" lon="4.35528">
        <ele>606</ele>
        <time>2025-05-11T09:09:35Z</time>
      </trkpt>
      <trkpt lat="45.82144" lon="4.35521">
        <ele>606</ele>
        <time>2025-05-11T09:09:36Z</time>
      </trkpt>
      <trkpt lat="45.82133" lon="4.35505">
        <ele>606</ele>
        <time>2025-05-11T09:09:37Z</time>
      </trkpt>
      <trkpt lat="45.82128" lon="4.35497">
        <ele>605</ele>
        <time>2025-05-11T09:09:38Z</time>
      </trkpt>
      <trkpt lat="45.82122" lon="4.35489">
        <ele>605</ele>
        <time>2025-05-11T09:09:39Z</time>
      </trkpt>
      <trkpt lat="45.82117" lon="4.35483">
        <ele>605</ele>
        <time>2025-05-11T09:09:40Z</time>
      </trkpt>
      <trkpt lat="45.82108" lon="4.35476">
        <ele>605</ele>
        <time>2025-05-11T09:09:42Z</time>
      </trkpt>
      <trkpt lat="45.82097" lon="4.35469">
        <ele>605</ele>
        <time>2025-05-11T09:09:44Z</time>
      </trkpt>
      <trkpt lat="45.82085" lon="4.35462">
        <ele>604</ele>
        <time>2025-05-11T09:09:46Z</time>
      </trkpt>
      <trkpt lat="45.82074" lon="4.35455">
        <ele>604</ele>
        <time>2025-05-11T09:09:49Z</time>
      </trkpt>
      <trkpt lat="45.82065" lon="4.35448">
        <ele>604</ele>
        <time>2025-05-11T09:09:52Z</time>
      </trkpt>
      <trkpt lat="45.82054" lon="4.3544">
        <ele>604</ele>
        <time>2025-05-11T09:09:53Z</time>
      </trkpt>
      <trkpt lat="45.82044" lon="4.3543">
        <ele>604</ele>
        <time>2025-05-11T09:09:55Z</time>
      </trkpt>
      <trkpt lat="45.82035" lon="4.35419">
        <ele>604</ele>
        <time>2025-05-11T09:09:57Z</time>
      </trkpt>
      <trkpt lat="45.82026" lon="4.35413">
        <ele>603</ele>
        <time>2025-05-11T09:10:00Z</time>
      </trkpt>
      <trkpt lat="45.82014" lon="4.35411">
        <ele>603</ele>
        <time>2025-05-11T09:10:02Z</time>
      </trkpt>
      <trkpt lat="45.82" lon="4.35405">
        <ele>603</ele>
        <time>2025-05-11T09:10:06Z</time>
      </trkpt>
      <trkpt lat="45.81988" lon="4.35396">
        <ele>602</ele>
        <time>2025-05-11T09:10:07Z</time>
      </trkpt>
      <trkpt lat="45.81978" lon="4.35385">
        <ele>601</ele>
        <time>2025-05-11T09:10:09Z</time>
      </trkpt>
      <trkpt lat="45.81971" lon="4.35371">
        <ele>600</ele>
        <time>2025-05-11T09:10:11Z</time>
      </trkpt>
      <trkpt lat="45.81967" lon="4.35363">
        <ele>600</ele>
        <time>2025-05-11T09:10:13Z</time>
      </trkpt>
      <trkpt lat="45.81962" lon="4.35356">
        <ele>599</ele>
        <time>2025-05-11T09:10:14Z</time>
      </trkpt>
      <trkpt lat="45.81959" lon="4.35348">
        <ele>599</ele>
        <time>2025-05-11T09:10:15Z</time>
      </trkpt>
      <trkpt lat="45.81951" lon="4.35335">
        <ele>599</ele>
        <time>2025-05-11T09:10:16Z</time>
      </trkpt>
      <trkpt lat="45.81948" lon="4.35329">
        <ele>598</ele>
        <time>2025-05-11T09:10:18Z</time>
      </trkpt>
      <trkpt lat="45.81941" lon="4.35317">
        <ele>598</ele>
        <time>2025-05-11T09:10:19Z</time>
      </trkpt>
      <trkpt lat="45.81933" lon="4.35306">
        <ele>598</ele>
        <time>2025-05-11T09:10:21Z</time>
      </trkpt>
      <trkpt lat="45.81928" lon="4.35301">
        <ele>598</ele>
        <time>2025-05-11T09:10:22Z</time>
      </trkpt>
      <trkpt lat="45.81924" lon="4.35295">
        <ele>598</ele>
        <time>2025-05-11T09:10:23Z</time>
      </trkpt>
      <trkpt lat="45.8192" lon="4.3529">
        <ele>598</ele>
        <time>2025-05-11T09:10:24Z</time>
      </trkpt>
      <trkpt lat="45.81916" lon="4.35285">
        <ele>597</ele>
        <time>2025-05-11T09:10:25Z</time>
      </trkpt>
      <trkpt lat="45.81907" lon="4.35275">
        <ele>597</ele>
        <time>2025-05-11T09:10:28Z</time>
      </trkpt>
      <trkpt lat="45.81895" lon="4.35266">
        <ele>597</ele>
        <time>2025-05-11T09:10:32Z</time>
      </trkpt>
      <trkpt lat="45.81887" lon="4.35257">
        <ele>597</ele>
        <time>2025-05-11T09:10:34Z</time>
      </trkpt>
      <trkpt lat="45.8188" lon="4.35248">
        <ele>597</ele>
        <time>2025-05-11T09:10:36Z</time>
      </trkpt>
      <trkpt lat="45.81873" lon="4.35233">
        <ele>596</ele>
        <time>2025-05-11T09:10:39Z</time>
      </trkpt>
      <trkpt lat="45.81871" lon="4.35219">
        <ele>596</ele>
        <time>2025-05-11T09:10:41Z</time>
      </trkpt>
      <trkpt lat="45.81872" lon="4.35205">
        <ele>596</ele>
        <time>2025-05-11T09:10:43Z</time>
      </trkpt>
      <trkpt lat="45.81873" lon="4.35189">
        <ele>595</ele>
        <time>2025-05-11T09:10:44Z</time>
      </trkpt>
      <trkpt lat="45.81874" lon="4.35173">
        <ele>596</ele>
        <time>2025-05-11T09:10:47Z</time>
      </trkpt>
      <trkpt lat="45.81876" lon="4.35158">
        <ele>596</ele>
        <time>2025-05-11T09:10:49Z</time>
      </trkpt>
      <trkpt lat="45.81878" lon="4.35145">
        <ele>596</ele>
        <time>2025-05-11T09:10:51Z</time>
      </trkpt>
      <trkpt lat="45.81877" lon="4.35128">
        <ele>596</ele>
        <time>2025-05-11T09:10:54Z</time>
      </trkpt>
      <trkpt lat="45.81879" lon="4.35111">
        <ele>596</ele>
        <time>2025-05-11T09:10:57Z</time>
      </trkpt>
      <trkpt lat="45.81884" lon="4.35094">
        <ele>596</ele>
        <time>2025-05-11T09:10:59Z</time>
      </trkpt>
      <trkpt lat="45.81887" lon="4.35079">
        <ele>596</ele>
        <time>2025-05-11T09:11:00Z</time>
      </trkpt>
      <trkpt lat="45.81887" lon="4.35064">
        <ele>596</ele>
        <time>2025-05-11T09:11:02Z</time>
      </trkpt>
      <trkpt lat="45.81887" lon="4.35056">
        <ele>596</ele>
        <time>2025-05-11T09:11:03Z</time>
      </trkpt>
      <trkpt lat="45.81888" lon="4.35041">
        <ele>595</ele>
        <time>2025-05-11T09:11:05Z</time>
      </trkpt>
      <trkpt lat="45.81888" lon="4.35025">
        <ele>595</ele>
        <time>2025-05-11T09:11:07Z</time>
      </trkpt>
      <trkpt lat="45.81887" lon="4.3501">
        <ele>594</ele>
        <time>2025-05-11T09:11:10Z</time>
      </trkpt>
      <trkpt lat="45.81885" lon="4.34997">
        <ele>594</ele>
        <time>2025-05-11T09:11:11Z</time>
      </trkpt>
      <trkpt lat="45.81883" lon="4.34979">
        <ele>592</ele>
        <time>2025-05-11T09:11:15Z</time>
      </trkpt>
      <trkpt lat="45.81882" lon="4.34962">
        <ele>591</ele>
        <time>2025-05-11T09:11:18Z</time>
      </trkpt>
      <trkpt lat="45.8188" lon="4.34944">
        <ele>591</ele>
        <time>2025-05-11T09:11:21Z</time>
      </trkpt>
      <trkpt lat="45.81877" lon="4.34926">
        <ele>590</ele>
        <time>2025-05-11T09:11:23Z</time>
      </trkpt>
      <trkpt lat="45.81877" lon="4.34906">
        <ele>590</ele>
        <time>2025-05-11T09:11:26Z</time>
      </trkpt>
      <trkpt lat="45.81878" lon="4.34892">
        <ele>589</ele>
        <time>2025-05-11T09:11:29Z</time>
      </trkpt>
      <trkpt lat="45.81882" lon="4.34874">
        <ele>589</ele>
        <time>2025-05-11T09:11:31Z</time>
      </trkpt>
      <trkpt lat="45.81886" lon="4.34856">
        <ele>588</ele>
        <time>2025-05-11T09:11:32Z</time>
      </trkpt>
      <trkpt lat="45.8189" lon="4.34839">
        <ele>588</ele>
        <time>2025-05-11T09:11:34Z</time>
      </trkpt>
      <trkpt lat="45.81891" lon="4.34832">
        <ele>587</ele>
        <time>2025-05-11T09:11:36Z</time>
      </trkpt>
      <trkpt lat="45.81895" lon="4.34819">
        <ele>587</ele>
        <time>2025-05-11T09:11:37Z</time>
      </trkpt>
      <trkpt lat="45.81897" lon="4.34801">
        <ele>587</ele>
        <time>2025-05-11T09:11:41Z</time>
      </trkpt>
      <trkpt lat="45.81899" lon="4.34783">
        <ele>586</ele>
        <time>2025-05-11T09:11:44Z</time>
      </trkpt>
      <trkpt lat="45.819" lon="4.3477">
        <ele>586</ele>
        <time>2025-05-11T09:11:46Z</time>
      </trkpt>
      <trkpt lat="45.81903" lon="4.34757">
        <ele>586</ele>
        <time>2025-05-11T09:11:48Z</time>
      </trkpt>
      <trkpt lat="45.81906" lon="4.34745">
        <ele>585</ele>
        <time>2025-05-11T09:11:50Z</time>
      </trkpt>
      <trkpt lat="45.81912" lon="4.34727">
        <ele>585</ele>
        <time>2025-05-11T09:11:52Z</time>
      </trkpt>
      <trkpt lat="45.8192" lon="4.34714">
        <ele>585</ele>
        <time>2025-05-11T09:11:54Z</time>
      </trkpt>
      <trkpt lat="45.8193" lon="4.34701">
        <ele>585</ele>
        <time>2025-05-11T09:11:57Z</time>
      </trkpt>
      <trkpt lat="45.81939" lon="4.34689">
        <ele>585</ele>
        <time>2025-05-11T09:11:58Z</time>
      </trkpt>
      <trkpt lat="45.81947" lon="4.34677">
        <ele>585</ele>
        <time>2025-05-11T09:12:01Z</time>
      </trkpt>
      <trkpt lat="45.81955" lon="4.34666">
        <ele>585</ele>
        <time>2025-05-11T09:12:02Z</time>
      </trkpt>
      <trkpt lat="45.81966" lon="4.34649">
        <ele>584</ele>
        <time>2025-05-11T09:12:05Z</time>
      </trkpt>
      <trkpt lat="45.8197" lon="4.34644">
        <ele>584</ele>
        <time>2025-05-11T09:12:06Z</time>
      </trkpt>
      <trkpt lat="45.81974" lon="4.34639">
        <ele>584</ele>
        <time>2025-05-11T09:12:07Z</time>
      </trkpt>
      <trkpt lat="45.81979" lon="4.34635">
        <ele>584</ele>
        <time>2025-05-11T09:12:08Z</time>
      </trkpt>
      <trkpt lat="45.81983" lon="4.34629">
        <ele>584</ele>
        <time>2025-05-11T09:12:10Z</time>
      </trkpt>
      <trkpt lat="45.81991" lon="4.34619">
        <ele>584</ele>
        <time>2025-05-11T09:12:11Z</time>
      </trkpt>
      <trkpt lat="45.81999" lon="4.34608">
        <ele>583</ele>
        <time>2025-05-11T09:12:13Z</time>
      </trkpt>
      <trkpt lat="45.82006" lon="4.34598">
        <ele>583</ele>
        <time>2025-05-11T09:12:16Z</time>
      </trkpt>
      <trkpt lat="45.82011" lon="4.34587">
        <ele>583</ele>
        <time>2025-05-11T09:12:18Z</time>
      </trkpt>
      <trkpt lat="45.82017" lon="4.34574">
        <ele>582</ele>
        <time>2025-05-11T09:12:21Z</time>
      </trkpt>
      <trkpt lat="45.82021" lon="4.3456">
        <ele>581</ele>
        <time>2025-05-11T09:12:24Z</time>
      </trkpt>
      <trkpt lat="45.82023" lon="4.34553">
        <ele>581</ele>
        <time>2025-05-11T09:12:25Z</time>
      </trkpt>
      <trkpt lat="45.82027" lon="4.34538">
        <ele>581</ele>
        <time>2025-05-11T09:12:26Z</time>
      </trkpt>
      <trkpt lat="45.82029" lon="4.34531">
        <ele>581</ele>
        <time>2025-05-11T09:12:28Z</time>
      </trkpt>
      <trkpt lat="45.82032" lon="4.34523">
        <ele>581</ele>
        <time>2025-05-11T09:12:29Z</time>
      </trkpt>
      <trkpt lat="45.82035" lon="4.34516">
        <ele>580</ele>
        <time>2025-05-11T09:12:30Z</time>
      </trkpt>
      <trkpt lat="45.82042" lon="4.34499">
        <ele>580</ele>
        <time>2025-05-11T09:12:31Z</time>
      </trkpt>
      <trkpt lat="45.82045" lon="4.34491">
        <ele>580</ele>
        <time>2025-05-11T09:12:32Z</time>
      </trkpt>
      <trkpt lat="45.82053" lon="4.34475">
        <ele>580</ele>
        <time>2025-05-11T09:12:34Z</time>
      </trkpt>
      <trkpt lat="45.82056" lon="4.34467">
        <ele>580</ele>
        <time>2025-05-11T09:12:36Z</time>
      </trkpt>
      <trkpt lat="45.8206" lon="4.34453">
        <ele>579</ele>
        <time>2025-05-11T09:12:38Z</time>
      </trkpt>
      <trkpt lat="45.82061" lon="4.34446">
        <ele>579</ele>
        <time>2025-05-11T09:12:39Z</time>
      </trkpt>
      <trkpt lat="45.82064" lon="4.34419">
        <ele>579</ele>
        <time>2025-05-11T09:12:41Z</time>
      </trkpt>
      <trkpt lat="45.82064" lon="4.34409">
        <ele>579</ele>
        <time>2025-05-11T09:12:42Z</time>
      </trkpt>
      <trkpt lat="45.82063" lon="4.344">
        <ele>579</ele>
        <time>2025-05-11T09:12:43Z</time>
      </trkpt>
      <trkpt lat="45.82063" lon="4.34391">
        <ele>579</ele>
        <time>2025-05-11T09:12:45Z</time>
      </trkpt>
      <trkpt lat="45.82062" lon="4.34374">
        <ele>579</ele>
        <time>2025-05-11T09:12:46Z</time>
      </trkpt>
      <trkpt lat="45.82062" lon="4.34365">
        <ele>578</ele>
        <time>2025-05-11T09:12:48Z</time>
      </trkpt>
      <trkpt lat="45.82063" lon="4.34349">
        <ele>578</ele>
        <time>2025-05-11T09:12:49Z</time>
      </trkpt>
      <trkpt lat="45.82061" lon="4.34332">
        <ele>577</ele>
        <time>2025-05-11T09:12:51Z</time>
      </trkpt>
      <trkpt lat="45.8206" lon="4.34324">
        <ele>577</ele>
        <time>2025-05-11T09:12:52Z</time>
      </trkpt>
      <trkpt lat="45.8206" lon="4.34317">
        <ele>576</ele>
        <time>2025-05-11T09:12:53Z</time>
      </trkpt>
      <trkpt lat="45.82058" lon="4.34302">
        <ele>576</ele>
        <time>2025-05-11T09:12:55Z</time>
      </trkpt>
      <trkpt lat="45.82058" lon="4.34296">
        <ele>576</ele>
        <time>2025-05-11T09:12:56Z</time>
      </trkpt>
      <trkpt lat="45.82058" lon="4.34289">
        <ele>576</ele>
        <time>2025-05-11T09:12:57Z</time>
      </trkpt>
      <trkpt lat="45.8206" lon="4.34272">
        <ele>575</ele>
        <time>2025-05-11T09:12:59Z</time>
      </trkpt>
      <trkpt lat="45.82061" lon="4.34264">
        <ele>575</ele>
        <time>2025-05-11T09:13:01Z</time>
      </trkpt>
      <trkpt lat="45.82065" lon="4.34249">
        <ele>575</ele>
        <time>2025-05-11T09:13:02Z</time>
      </trkpt>
      <trkpt lat="45.82067" lon="4.34244">
        <ele>575</ele>
        <time>2025-05-11T09:13:04Z</time>
      </trkpt>
      <trkpt lat="45.82067" lon="4.3424">
        <ele>575</ele>
        <time>2025-05-11T09:13:05Z</time>
      </trkpt>
      <trkpt lat="45.82068" lon="4.34238">
        <ele>575</ele>
        <time>2025-05-11T09:13:19Z</time>
      </trkpt>
      <trkpt lat="45.82069" lon="4.3424">
        <ele>572</ele>
        <time>2025-05-11T09:14:31Z</time>
      </trkpt>
      <trkpt lat="45.82068" lon="4.34244">
        <ele>572</ele>
        <time>2025-05-11T09:14:38Z</time>
      </trkpt>
      <trkpt lat="45.82067" lon="4.34248">
        <ele>572</ele>
        <time>2025-05-11T09:14:40Z</time>
      </trkpt>
      <trkpt lat="45.8207" lon="4.34246">
        <ele>572</ele>
        <time>2025-05-11T09:14:54Z</time>
      </trkpt>
      <trkpt lat="45.82072" lon="4.34246">
        <ele>572</ele>
        <time>2025-05-11T09:14:55Z</time>
      </trkpt>
      <trkpt lat="45.82074" lon="4.34247">
        <ele>572</ele>
        <time>2025-05-11T09:14:56Z</time>
      </trkpt>
      <trkpt lat="45.82077" lon="4.34248">
        <ele>572</ele>
        <time>2025-05-11T09:14:57Z</time>
      </trkpt>
      <trkpt lat="45.82079" lon="4.3425">
        <ele>572</ele>
        <time>2025-05-11T09:14:58Z</time>
      </trkpt>
      <trkpt lat="45.82082" lon="4.34252">
        <ele>572</ele>
        <time>2025-05-11T09:14:59Z</time>
      </trkpt>
      <trkpt lat="45.82088" lon="4.34255">
        <ele>572</ele>
        <time>2025-05-11T09:15:00Z</time>
      </trkpt>
      <trkpt lat="45.82093" lon="4.34258">
        <ele>573</ele>
        <time>2025-05-11T09:15:02Z</time>
      </trkpt>
      <trkpt lat="45.82096" lon="4.34261">
        <ele>573</ele>
        <time>2025-05-11T09:15:04Z</time>
      </trkpt>
      <trkpt lat="45.82102" lon="4.34265">
        <ele>573</ele>
        <time>2025-05-11T09:15:05Z</time>
      </trkpt>
      <trkpt lat="45.82105" lon="4.34266">
        <ele>573</ele>
        <time>2025-05-11T09:15:06Z</time>
      </trkpt>
      <trkpt lat="45.82111" lon="4.34269">
        <ele>573</ele>
        <time>2025-05-11T09:15:08Z</time>
      </trkpt>
      <trkpt lat="45.82117" lon="4.34271">
        <ele>573</ele>
        <time>2025-05-11T09:15:10Z</time>
      </trkpt>
      <trkpt lat="45.82129" lon="4.34283">
        <ele>574</ele>
        <time>2025-05-11T09:15:15Z</time>
      </trkpt>
      <trkpt lat="45.82134" lon="4.34288">
        <ele>574</ele>
        <time>2025-05-11T09:15:17Z</time>
      </trkpt>
      <trkpt lat="45.82137" lon="4.34291">
        <ele>575</ele>
        <time>2025-05-11T09:15:19Z</time>
      </trkpt>
      <trkpt lat="45.82142" lon="4.34294">
        <ele>575</ele>
        <time>2025-05-11T09:15:20Z</time>
      </trkpt>
      <trkpt lat="45.82149" lon="4.34292">
        <ele>575</ele>
        <time>2025-05-11T09:15:22Z</time>
      </trkpt>
      <trkpt lat="45.82152" lon="4.3429">
        <ele>576</ele>
        <time>2025-05-11T09:15:24Z</time>
      </trkpt>
      <trkpt lat="45.8216" lon="4.34289">
        <ele>576</ele>
        <time>2025-05-11T09:15:25Z</time>
      </trkpt>
      <trkpt lat="45.82164" lon="4.34289">
        <ele>576</ele>
        <time>2025-05-11T09:15:26Z</time>
      </trkpt>
      <trkpt lat="45.82169" lon="4.34289">
        <ele>577</ele>
        <time>2025-05-11T09:15:28Z</time>
      </trkpt>
      <trkpt lat="45.82174" lon="4.34288">
        <ele>577</ele>
        <time>2025-05-11T09:15:29Z</time>
      </trkpt>
      <trkpt lat="45.82184" lon="4.34289">
        <ele>578</ele>
        <time>2025-05-11T09:15:30Z</time>
      </trkpt>
      <trkpt lat="45.82189" lon="4.3429">
        <ele>579</ele>
        <time>2025-05-11T09:15:32Z</time>
      </trkpt>
      <trkpt lat="45.82197" lon="4.34289">
        <ele>579</ele>
        <time>2025-05-11T09:15:33Z</time>
      </trkpt>
      <trkpt lat="45.82202" lon="4.34289">
        <ele>580</ele>
        <time>2025-05-11T09:15:35Z</time>
      </trkpt>
      <trkpt lat="45.82206" lon="4.34289">
        <ele>580</ele>
        <time>2025-05-11T09:15:36Z</time>
      </trkpt>
      <trkpt lat="45.82211" lon="4.34288">
        <ele>581</ele>
        <time>2025-05-11T09:15:37Z</time>
      </trkpt>
      <trkpt lat="45.8222" lon="4.34286">
        <ele>581</ele>
        <time>2025-05-11T09:15:38Z</time>
      </trkpt>
      <trkpt lat="45.82224" lon="4.34285">
        <ele>581</ele>
        <time>2025-05-11T09:15:39Z</time>
      </trkpt>
      <trkpt lat="45.82228" lon="4.34284">
        <ele>582</ele>
        <time>2025-05-11T09:15:41Z</time>
      </trkpt>
      <trkpt lat="45.82232" lon="4.34284">
        <ele>582</ele>
        <time>2025-05-11T09:15:42Z</time>
      </trkpt>
      <trkpt lat="45.8224" lon="4.34282">
        <ele>582</ele>
        <time>2025-05-11T09:15:43Z</time>
      </trkpt>
      <trkpt lat="45.82253" lon="4.34279">
        <ele>583</ele>
        <time>2025-05-11T09:15:46Z</time>
      </trkpt>
      <trkpt lat="45.8226" lon="4.34279">
        <ele>584</ele>
        <time>2025-05-11T09:15:49Z</time>
      </trkpt>
      <trkpt lat="45.82264" lon="4.34279">
        <ele>585</ele>
        <time>2025-05-11T09:15:50Z</time>
      </trkpt>
      <trkpt lat="45.82268" lon="4.34279">
        <ele>585</ele>
        <time>2025-05-11T09:15:51Z</time>
      </trkpt>
      <trkpt lat="45.82271" lon="4.34279">
        <ele>586</ele>
        <time>2025-05-11T09:15:52Z</time>
      </trkpt>
      <trkpt lat="45.82275" lon="4.3428">
        <ele>586</ele>
        <time>2025-05-11T09:15:53Z</time>
      </trkpt>
      <trkpt lat="45.82279" lon="4.3428">
        <ele>586</ele>
        <time>2025-05-11T09:15:54Z</time>
      </trkpt>
      <trkpt lat="45.82287" lon="4.3428">
        <ele>587</ele>
        <time>2025-05-11T09:15:55Z</time>
      </trkpt>
      <trkpt lat="45.82291" lon="4.3428">
        <ele>587</ele>
        <time>2025-05-11T09:15:56Z</time>
      </trkpt>
      <trkpt lat="45.82299" lon="4.3428">
        <ele>588</ele>
        <time>2025-05-11T09:15:58Z</time>
      </trkpt>
      <trkpt lat="45.82302" lon="4.3428">
        <ele>588</ele>
        <time>2025-05-11T09:15:59Z</time>
      </trkpt>
      <trkpt lat="45.82306" lon="4.34281">
        <ele>589</ele>
        <time>2025-05-11T09:16:00Z</time>
      </trkpt>
      <trkpt lat="45.82309" lon="4.34283">
        <ele>589</ele>
        <time>2025-05-11T09:16:01Z</time>
      </trkpt>
      <trkpt lat="45.82312" lon="4.34283">
        <ele>590</ele>
        <time>2025-05-11T09:16:02Z</time>
      </trkpt>
      <trkpt lat="45.82315" lon="4.34284">
        <ele>590</ele>
        <time>2025-05-11T09:16:04Z</time>
      </trkpt>
      <trkpt lat="45.82318" lon="4.34286">
        <ele>591</ele>
        <time>2025-05-11T09:16:05Z</time>
      </trkpt>
      <trkpt lat="45.82321" lon="4.34287">
        <ele>591</ele>
        <time>2025-05-11T09:16:06Z</time>
      </trkpt>
      <trkpt lat="45.82327" lon="4.34289">
        <ele>591</ele>
        <time>2025-05-11T09:16:07Z</time>
      </trkpt>
      <trkpt lat="45.8233" lon="4.3429">
        <ele>591</ele>
        <time>2025-05-11T09:16:08Z</time>
      </trkpt>
      <trkpt lat="45.82333" lon="4.34291">
        <ele>592</ele>
        <time>2025-05-11T09:16:10Z</time>
      </trkpt>
      <trkpt lat="45.82339" lon="4.34296">
        <ele>593</ele>
        <time>2025-05-11T09:16:11Z</time>
      </trkpt>
      <trkpt lat="45.82342" lon="4.34298">
        <ele>594</ele>
        <time>2025-05-11T09:16:13Z</time>
      </trkpt>
      <trkpt lat="45.82348" lon="4.34304">
        <ele>594</ele>
        <time>2025-05-11T09:16:14Z</time>
      </trkpt>
      <trkpt lat="45.82354" lon="4.34307">
        <ele>595</ele>
        <time>2025-05-11T09:16:16Z</time>
      </trkpt>
      <trkpt lat="45.82358" lon="4.34309">
        <ele>595</ele>
        <time>2025-05-11T09:16:18Z</time>
      </trkpt>
      <trkpt lat="45.82364" lon="4.34312">
        <ele>596</ele>
        <time>2025-05-11T09:16:20Z</time>
      </trkpt>
      <trkpt lat="45.8237" lon="4.34315">
        <ele>596</ele>
        <time>2025-05-11T09:16:21Z</time>
      </trkpt>
      <trkpt lat="45.8238" lon="4.34322">
        <ele>598</ele>
        <time>2025-05-11T09:16:26Z</time>
      </trkpt>
      <trkpt lat="45.8239" lon="4.34324">
        <ele>600</ele>
        <time>2025-05-11T09:16:28Z</time>
      </trkpt>
      <trkpt lat="45.82395" lon="4.34328">
        <ele>600</ele>
        <time>2025-05-11T09:16:31Z</time>
      </trkpt>
      <trkpt lat="45.82397" lon="4.34329">
        <ele>601</ele>
        <time>2025-05-11T09:16:32Z</time>
      </trkpt>
      <trkpt lat="45.82401" lon="4.34331">
        <ele>602</ele>
        <time>2025-05-11T09:16:33Z</time>
      </trkpt>
      <trkpt lat="45.82403" lon="4.34333">
        <ele>603</ele>
        <time>2025-05-11T09:16:35Z</time>
      </trkpt>
      <trkpt lat="45.82407" lon="4.34337">
        <ele>604</ele>
        <time>2025-05-11T09:16:36Z</time>
      </trkpt>
      <trkpt lat="45.8241" lon="4.34339">
        <ele>605</ele>
        <time>2025-05-11T09:16:38Z</time>
      </trkpt>
      <trkpt lat="45.82412" lon="4.34341">
        <ele>606</ele>
        <time>2025-05-11T09:16:40Z</time>
      </trkpt>
      <trkpt lat="45.82414" lon="4.34342">
        <ele>606</ele>
        <time>2025-05-11T09:16:41Z</time>
      </trkpt>
      <trkpt lat="45.82419" lon="4.34347">
        <ele>607</ele>
        <time>2025-05-11T09:16:44Z</time>
      </trkpt>
      <trkpt lat="45.82422" lon="4.34349">
        <ele>608</ele>
        <time>2025-05-11T09:16:46Z</time>
      </trkpt>
      <trkpt lat="45.82432" lon="4.34353">
        <ele>610</ele>
        <time>2025-05-11T09:16:53Z</time>
      </trkpt>
      <trkpt lat="45.82438" lon="4.34363">
        <ele>612</ele>
        <time>2025-05-11T09:16:57Z</time>
      </trkpt>
      <trkpt lat="45.82447" lon="4.34364">
        <ele>614</ele>
        <time>2025-05-11T09:17:02Z</time>
      </trkpt>
      <trkpt lat="45.82456" lon="4.34364">
        <ele>616</ele>
        <time>2025-05-11T09:17:06Z</time>
      </trkpt>
      <trkpt lat="45.82466" lon="4.34364">
        <ele>618</ele>
        <time>2025-05-11T09:17:11Z</time>
      </trkpt>
      <trkpt lat="45.82476" lon="4.34367">
        <ele>621</ele>
        <time>2025-05-11T09:17:16Z</time>
      </trkpt>
      <trkpt lat="45.82483" lon="4.34375">
        <ele>623</ele>
        <time>2025-05-11T09:17:21Z</time>
      </trkpt>
      <trkpt lat="45.82493" lon="4.34382">
        <ele>625</ele>
        <time>2025-05-11T09:17:25Z</time>
      </trkpt>
      <trkpt lat="45.82503" lon="4.3439">
        <ele>626</ele>
        <time>2025-05-11T09:17:30Z</time>
      </trkpt>
      <trkpt lat="45.82512" lon="4.34396">
        <ele>627</ele>
        <time>2025-05-11T09:17:35Z</time>
      </trkpt>
      <trkpt lat="45.82522" lon="4.344">
        <ele>629</ele>
        <time>2025-05-11T09:17:41Z</time>
      </trkpt>
      <trkpt lat="45.82526" lon="4.344">
        <ele>631</ele>
        <time>2025-05-11T09:17:44Z</time>
      </trkpt>
      <trkpt lat="45.82529" lon="4.34401">
        <ele>631</ele>
        <time>2025-05-11T09:17:45Z</time>
      </trkpt>
      <trkpt lat="45.82531" lon="4.34401">
        <ele>632</ele>
        <time>2025-05-11T09:17:46Z</time>
      </trkpt>
      <trkpt lat="45.82533" lon="4.34402">
        <ele>633</ele>
        <time>2025-05-11T09:17:47Z</time>
      </trkpt>
      <trkpt lat="45.82539" lon="4.34403">
        <ele>634</ele>
        <time>2025-05-11T09:17:49Z</time>
      </trkpt>
      <trkpt lat="45.82541" lon="4.34404">
        <ele>634</ele>
        <time>2025-05-11T09:17:50Z</time>
      </trkpt>
      <trkpt lat="45.82543" lon="4.34405">
        <ele>635</ele>
        <time>2025-05-11T09:17:51Z</time>
      </trkpt>
      <trkpt lat="45.82551" lon="4.34409">
        <ele>638</ele>
        <time>2025-05-11T09:17:56Z</time>
      </trkpt>
      <trkpt lat="45.8256" lon="4.34416">
        <ele>641</ele>
        <time>2025-05-11T09:18:01Z</time>
      </trkpt>
      <trkpt lat="45.82568" lon="4.34423">
        <ele>643</ele>
        <time>2025-05-11T09:18:05Z</time>
      </trkpt>
      <trkpt lat="45.82576" lon="4.34431">
        <ele>645</ele>
        <time>2025-05-11T09:18:10Z</time>
      </trkpt>
      <trkpt lat="45.82578" lon="4.34431">
        <ele>646</ele>
        <time>2025-05-11T09:18:11Z</time>
      </trkpt>
      <trkpt lat="45.82581" lon="4.34434">
        <ele>647</ele>
        <time>2025-05-11T09:18:13Z</time>
      </trkpt>
      <trkpt lat="45.82583" lon="4.34436">
        <ele>648</ele>
        <time>2025-05-11T09:18:16Z</time>
      </trkpt>
      <trkpt lat="45.82586" lon="4.34439">
        <ele>649</ele>
        <time>2025-05-11T09:18:18Z</time>
      </trkpt>
      <trkpt lat="45.82588" lon="4.34441">
        <ele>650</ele>
        <time>2025-05-11T09:18:19Z</time>
      </trkpt>
      <trkpt lat="45.82591" lon="4.34443">
        <ele>651</ele>
        <time>2025-05-11T09:18:22Z</time>
      </trkpt>
      <trkpt lat="45.82594" lon="4.34444">
        <ele>652</ele>
        <time>2025-05-11T09:18:23Z</time>
      </trkpt>
      <trkpt lat="45.82598" lon="4.34446">
        <ele>653</ele>
        <time>2025-05-11T09:18:25Z</time>
      </trkpt>
      <trkpt lat="45.82601" lon="4.34448">
        <ele>653</ele>
        <time>2025-05-11T09:18:26Z</time>
      </trkpt>
      <trkpt lat="45.82603" lon="4.34449">
        <ele>653</ele>
        <time>2025-05-11T09:18:27Z</time>
      </trkpt>
      <trkpt lat="45.82606" lon="4.34451">
        <ele>654</ele>
        <time>2025-05-11T09:18:29Z</time>
      </trkpt>
      <trkpt lat="45.8261" lon="4.34455">
        <ele>654</ele>
        <time>2025-05-11T09:18:30Z</time>
      </trkpt>
      <trkpt lat="45.82612" lon="4.34458">
        <ele>655</ele>
        <time>2025-05-11T09:18:31Z</time>
      </trkpt>
      <trkpt lat="45.82613" lon="4.3446">
        <ele>655</ele>
        <time>2025-05-11T09:18:32Z</time>
      </trkpt>
      <trkpt lat="45.82621" lon="4.34469">
        <ele>656</ele>
        <time>2025-05-11T09:18:36Z</time>
      </trkpt>
      <trkpt lat="45.82629" lon="4.34476">
        <ele>657</ele>
        <time>2025-05-11T09:18:41Z</time>
      </trkpt>
      <trkpt lat="45.82636" lon="4.34483">
        <ele>659</ele>
        <time>2025-05-11T09:18:45Z</time>
      </trkpt>
      <trkpt lat="45.82638" lon="4.34484">
        <ele>660</ele>
        <time>2025-05-11T09:18:46Z</time>
      </trkpt>
      <trkpt lat="45.8264" lon="4.34487">
        <ele>660</ele>
        <time>2025-05-11T09:18:47Z</time>
      </trkpt>
      <trkpt lat="45.82649" lon="4.34496">
        <ele>661</ele>
        <time>2025-05-11T09:18:49Z</time>
      </trkpt>
      <trkpt lat="45.82656" lon="4.34507">
        <ele>662</ele>
        <time>2025-05-11T09:18:53Z</time>
      </trkpt>
      <trkpt lat="45.82663" lon="4.34519">
        <ele>663</ele>
        <time>2025-05-11T09:18:55Z</time>
      </trkpt>
      <trkpt lat="45.82674" lon="4.34531">
        <ele>666</ele>
        <time>2025-05-11T09:18:59Z</time>
      </trkpt>
      <trkpt lat="45.82681" lon="4.3454">
        <ele>668</ele>
        <time>2025-05-11T09:19:02Z</time>
      </trkpt>
      <trkpt lat="45.82687" lon="4.34554">
        <ele>670</ele>
        <time>2025-05-11T09:19:05Z</time>
      </trkpt>
      <trkpt lat="45.82693" lon="4.34567">
        <ele>671</ele>
        <time>2025-05-11T09:19:08Z</time>
      </trkpt>
      <trkpt lat="45.82699" lon="4.34582">
        <ele>673</ele>
        <time>2025-05-11T09:19:12Z</time>
      </trkpt>
      <trkpt lat="45.82706" lon="4.34592">
        <ele>674</ele>
        <time>2025-05-11T09:19:17Z</time>
      </trkpt>
      <trkpt lat="45.82714" lon="4.34606">
        <ele>677</ele>
        <time>2025-05-11T09:19:20Z</time>
      </trkpt>
      <trkpt lat="45.82721" lon="4.34615">
        <ele>680</ele>
        <time>2025-05-11T09:19:24Z</time>
      </trkpt>
      <trkpt lat="45.82727" lon="4.34626">
        <ele>682</ele>
        <time>2025-05-11T09:19:27Z</time>
      </trkpt>
      <trkpt lat="45.82731" lon="4.34642">
        <ele>684</ele>
        <time>2025-05-11T09:19:31Z</time>
      </trkpt>
      <trkpt lat="45.82729" lon="4.34657">
        <ele>685</ele>
        <time>2025-05-11T09:19:33Z</time>
      </trkpt>
      <trkpt lat="45.82727" lon="4.34672">
        <ele>687</ele>
        <time>2025-05-11T09:19:36Z</time>
      </trkpt>
      <trkpt lat="45.82727" lon="4.34686">
        <ele>690</ele>
        <time>2025-05-11T09:19:40Z</time>
      </trkpt>
      <trkpt lat="45.82725" lon="4.34702">
        <ele>693</ele>
        <time>2025-05-11T09:19:43Z</time>
      </trkpt>
      <trkpt lat="45.82725" lon="4.34715">
        <ele>696</ele>
        <time>2025-05-11T09:19:46Z</time>
      </trkpt>
      <trkpt lat="45.82731" lon="4.34731">
        <ele>699</ele>
        <time>2025-05-11T09:19:51Z</time>
      </trkpt>
      <trkpt lat="45.82735" lon="4.34745">
        <ele>701</ele>
        <time>2025-05-11T09:19:54Z</time>
      </trkpt>
      <trkpt lat="45.82736" lon="4.34757">
        <ele>702</ele>
        <time>2025-05-11T09:19:56Z</time>
      </trkpt>
      <trkpt lat="45.82737" lon="4.34762">
        <ele>703</ele>
        <time>2025-05-11T09:19:57Z</time>
      </trkpt>
      <trkpt lat="45.82738" lon="4.34768">
        <ele>703</ele>
        <time>2025-05-11T09:19:58Z</time>
      </trkpt>
      <trkpt lat="45.82739" lon="4.34773">
        <ele>703</ele>
        <time>2025-05-11T09:19:59Z</time>
      </trkpt>
      <trkpt lat="45.82741" lon="4.34778">
        <ele>704</ele>
        <time>2025-05-11T09:20:00Z</time>
      </trkpt>
      <trkpt lat="45.82742" lon="4.34784">
        <ele>704</ele>
        <time>2025-05-11T09:20:01Z</time>
      </trkpt>
      <trkpt lat="45.82743" lon="4.34789">
        <ele>704</ele>
        <time>2025-05-11T09:20:02Z</time>
      </trkpt>
      <trkpt lat="45.82745" lon="4.34805">
        <ele>705</ele>
        <time>2025-05-11T09:20:05Z</time>
      </trkpt>
      <trkpt lat="45.82746" lon="4.3481">
        <ele>706</ele>
        <time>2025-05-11T09:20:06Z</time>
      </trkpt>
      <trkpt lat="45.82746" lon="4.34815">
        <ele>706</ele>
        <time>2025-05-11T09:20:07Z</time>
      </trkpt>
      <trkpt lat="45.82747" lon="4.3482">
        <ele>706</ele>
        <time>2025-05-11T09:20:08Z</time>
      </trkpt>
      <trkpt lat="45.82751" lon="4.3483">
        <ele>707</ele>
        <time>2025-05-11T09:20:09Z</time>
      </trkpt>
      <trkpt lat="45.82752" lon="4.34835">
        <ele>708</ele>
        <time>2025-05-11T09:20:11Z</time>
      </trkpt>
      <trkpt lat="45.82753" lon="4.3484">
        <ele>708</ele>
        <time>2025-05-11T09:20:12Z</time>
      </trkpt>
      <trkpt lat="45.82754" lon="4.34845">
        <ele>709</ele>
        <time>2025-05-11T09:20:13Z</time>
      </trkpt>
      <trkpt lat="45.82755" lon="4.3485">
        <ele>709</ele>
        <time>2025-05-11T09:20:14Z</time>
      </trkpt>
      <trkpt lat="45.82756" lon="4.34853">
        <ele>709</ele>
        <time>2025-05-11T09:20:15Z</time>
      </trkpt>
      <trkpt lat="45.82756" lon="4.34867">
        <ele>711</ele>
        <time>2025-05-11T09:20:19Z</time>
      </trkpt>
      <trkpt lat="45.82757" lon="4.34882">
        <ele>711</ele>
        <time>2025-05-11T09:20:21Z</time>
      </trkpt>
      <trkpt lat="45.82761" lon="4.34897">
        <ele>712</ele>
        <time>2025-05-11T09:20:24Z</time>
      </trkpt>
      <trkpt lat="45.82764" lon="4.34914">
        <ele>714</ele>
        <time>2025-05-11T09:20:28Z</time>
      </trkpt>
      <trkpt lat="45.82768" lon="4.34926">
        <ele>715</ele>
        <time>2025-05-11T09:20:29Z</time>
      </trkpt>
      <trkpt lat="45.82772" lon="4.34939">
        <ele>716</ele>
        <time>2025-05-11T09:20:32Z</time>
      </trkpt>
      <trkpt lat="45.82776" lon="4.34953">
        <ele>716</ele>
        <time>2025-05-11T09:20:33Z</time>
      </trkpt>
      <trkpt lat="45.82782" lon="4.34971">
        <ele>717</ele>
        <time>2025-05-11T09:20:36Z</time>
      </trkpt>
      <trkpt lat="45.82789" lon="4.34988">
        <ele>718</ele>
        <time>2025-05-11T09:20:37Z</time>
      </trkpt>
      <trkpt lat="45.82792" lon="4.35004">
        <ele>718</ele>
        <time>2025-05-11T09:20:39Z</time>
      </trkpt>
      <trkpt lat="45.82793" lon="4.35018">
        <ele>719</ele>
        <time>2025-05-11T09:20:41Z</time>
      </trkpt>
      <trkpt lat="45.82791" lon="4.35034">
        <ele>722</ele>
        <time>2025-05-11T09:20:46Z</time>
      </trkpt>
      <trkpt lat="45.82789" lon="4.35044">
        <ele>722</ele>
        <time>2025-05-11T09:20:47Z</time>
      </trkpt>
      <trkpt lat="45.82791" lon="4.35055">
        <ele>723</ele>
        <time>2025-05-11T09:20:49Z</time>
      </trkpt>
      <trkpt lat="45.82793" lon="4.35061">
        <ele>723</ele>
        <time>2025-05-11T09:20:51Z</time>
      </trkpt>
      <trkpt lat="45.82801" lon="4.35075">
        <ele>724</ele>
        <time>2025-05-11T09:20:52Z</time>
      </trkpt>
      <trkpt lat="45.82806" lon="4.35084">
        <ele>724</ele>
        <time>2025-05-11T09:20:53Z</time>
      </trkpt>
      <trkpt lat="45.82811" lon="4.35093">
        <ele>725</ele>
        <time>2025-05-11T09:20:54Z</time>
      </trkpt>
      <trkpt lat="45.8282" lon="4.35112">
        <ele>726</ele>
        <time>2025-05-11T09:20:56Z</time>
      </trkpt>
      <trkpt lat="45.82825" lon="4.35122">
        <ele>726</ele>
        <time>2025-05-11T09:20:57Z</time>
      </trkpt>
      <trkpt lat="45.82831" lon="4.3513">
        <ele>727</ele>
        <time>2025-05-11T09:20:59Z</time>
      </trkpt>
      <trkpt lat="45.82837" lon="4.35138">
        <ele>728</ele>
        <time>2025-05-11T09:21:00Z</time>
      </trkpt>
      <trkpt lat="45.82843" lon="4.35143">
        <ele>728</ele>
        <time>2025-05-11T09:21:01Z</time>
      </trkpt>
      <trkpt lat="45.82849" lon="4.35148">
        <ele>729</ele>
        <time>2025-05-11T09:21:02Z</time>
      </trkpt>
      <trkpt lat="45.82855" lon="4.3515">
        <ele>729</ele>
        <time>2025-05-11T09:21:03Z</time>
      </trkpt>
      <trkpt lat="45.82869" lon="4.35153">
        <ele>730</ele>
        <time>2025-05-11T09:21:04Z</time>
      </trkpt>
      <trkpt lat="45.82876" lon="4.35155">
        <ele>732</ele>
        <time>2025-05-11T09:21:05Z</time>
      </trkpt>
      <trkpt lat="45.82889" lon="4.35157">
        <ele>734</ele>
        <time>2025-05-11T09:21:07Z</time>
      </trkpt>
      <trkpt lat="45.82894" lon="4.35158">
        <ele>735</ele>
        <time>2025-05-11T09:21:09Z</time>
      </trkpt>
      <trkpt lat="45.82907" lon="4.35159">
        <ele>735</ele>
        <time>2025-05-11T09:21:10Z</time>
      </trkpt>
      <trkpt lat="45.82914" lon="4.35158">
        <ele>736</ele>
        <time>2025-05-11T09:21:11Z</time>
      </trkpt>
      <trkpt lat="45.82921" lon="4.35157">
        <ele>736</ele>
        <time>2025-05-11T09:21:12Z</time>
      </trkpt>
      <trkpt lat="45.82936" lon="4.35155">
        <ele>737</ele>
        <time>2025-05-11T09:21:14Z</time>
      </trkpt>
      <trkpt lat="45.82944" lon="4.35155">
        <ele>737</ele>
        <time>2025-05-11T09:21:16Z</time>
      </trkpt>
      <trkpt lat="45.82963" lon="4.35155">
        <ele>738</ele>
        <time>2025-05-11T09:21:17Z</time>
      </trkpt>
      <trkpt lat="45.82972" lon="4.35155">
        <ele>740</ele>
        <time>2025-05-11T09:21:19Z</time>
      </trkpt>
      <trkpt lat="45.82981" lon="4.35155">
        <ele>740</ele>
        <time>2025-05-11T09:21:20Z</time>
      </trkpt>
      <trkpt lat="45.82989" lon="4.35157">
        <ele>741</ele>
        <time>2025-05-11T09:21:21Z</time>
      </trkpt>
      <trkpt lat="45.82996" lon="4.35158">
        <ele>741</ele>
        <time>2025-05-11T09:21:22Z</time>
      </trkpt>
      <trkpt lat="45.83003" lon="4.35161">
        <ele>741</ele>
        <time>2025-05-11T09:21:23Z</time>
      </trkpt>
      <trkpt lat="45.8301" lon="4.35164">
        <ele>741</ele>
        <time>2025-05-11T09:21:24Z</time>
      </trkpt>
      <trkpt lat="45.83018" lon="4.35168">
        <ele>741</ele>
        <time>2025-05-11T09:21:25Z</time>
      </trkpt>
      <trkpt lat="45.83026" lon="4.35172">
        <ele>741</ele>
        <time>2025-05-11T09:21:26Z</time>
      </trkpt>
      <trkpt lat="45.83034" lon="4.35177">
        <ele>741</ele>
        <time>2025-05-11T09:21:27Z</time>
      </trkpt>
      <trkpt lat="45.8305" lon="4.35185">
        <ele>741</ele>
        <time>2025-05-11T09:21:28Z</time>
      </trkpt>
      <trkpt lat="45.83065" lon="4.35195">
        <ele>740</ele>
        <time>2025-05-11T09:21:30Z</time>
      </trkpt>
      <trkpt lat="45.83072" lon="4.352">
        <ele>740</ele>
        <time>2025-05-11T09:21:31Z</time>
      </trkpt>
      <trkpt lat="45.8308" lon="4.35203">
        <ele>740</ele>
        <time>2025-05-11T09:21:33Z</time>
      </trkpt>
      <trkpt lat="45.83097" lon="4.35211">
        <ele>740</ele>
        <time>2025-05-11T09:21:34Z</time>
      </trkpt>
      <trkpt lat="45.83106" lon="4.35215">
        <ele>740</ele>
        <time>2025-05-11T09:21:35Z</time>
      </trkpt>
      <trkpt lat="45.83116" lon="4.35218">
        <ele>740</ele>
        <time>2025-05-11T09:21:37Z</time>
      </trkpt>
      <trkpt lat="45.83125" lon="4.35222">
        <ele>739</ele>
        <time>2025-05-11T09:21:38Z</time>
      </trkpt>
      <trkpt lat="45.83134" lon="4.35225">
        <ele>739</ele>
        <time>2025-05-11T09:21:39Z</time>
      </trkpt>
      <trkpt lat="45.83142" lon="4.35228">
        <ele>739</ele>
        <time>2025-05-11T09:21:40Z</time>
      </trkpt>
      <trkpt lat="45.8315" lon="4.35231">
        <ele>739</ele>
        <time>2025-05-11T09:21:41Z</time>
      </trkpt>
      <trkpt lat="45.83158" lon="4.35234">
        <ele>739</ele>
        <time>2025-05-11T09:21:42Z</time>
      </trkpt>
      <trkpt lat="45.83175" lon="4.35241">
        <ele>739</ele>
        <time>2025-05-11T09:21:43Z</time>
      </trkpt>
      <trkpt lat="45.83184" lon="4.35244">
        <ele>739</ele>
        <time>2025-05-11T09:21:44Z</time>
      </trkpt>
      <trkpt lat="45.83192" lon="4.35247">
        <ele>739</ele>
        <time>2025-05-11T09:21:45Z</time>
      </trkpt>
      <trkpt lat="45.83201" lon="4.35251">
        <ele>739</ele>
        <time>2025-05-11T09:21:46Z</time>
      </trkpt>
      <trkpt lat="45.83209" lon="4.35255">
        <ele>739</ele>
        <time>2025-05-11T09:21:47Z</time>
      </trkpt>
      <trkpt lat="45.83217" lon="4.3526">
        <ele>739</ele>
        <time>2025-05-11T09:21:48Z</time>
      </trkpt>
      <trkpt lat="45.83225" lon="4.35264">
        <ele>739</ele>
        <time>2025-05-11T09:21:49Z</time>
      </trkpt>
      <trkpt lat="45.83232" lon="4.35268">
        <ele>739</ele>
        <time>2025-05-11T09:21:51Z</time>
      </trkpt>
      <trkpt lat="45.83239" lon="4.35273">
        <ele>739</ele>
        <time>2025-05-11T09:21:52Z</time>
      </trkpt>
      <trkpt lat="45.83254" lon="4.35283">
        <ele>739</ele>
        <time>2025-05-11T09:21:53Z</time>
      </trkpt>
      <trkpt lat="45.83261" lon="4.35289">
        <ele>740</ele>
        <time>2025-05-11T09:21:55Z</time>
      </trkpt>
      <trkpt lat="45.83276" lon="4.35298">
        <ele>740</ele>
        <time>2025-05-11T09:21:56Z</time>
      </trkpt>
      <trkpt lat="45.83291" lon="4.35304">
        <ele>740</ele>
        <time>2025-05-11T09:21:58Z</time>
      </trkpt>
      <trkpt lat="45.83298" lon="4.35305">
        <ele>740</ele>
        <time>2025-05-11T09:22:00Z</time>
      </trkpt>
      <trkpt lat="45.83307" lon="4.35306">
        <ele>740</ele>
        <time>2025-05-11T09:22:01Z</time>
      </trkpt>
      <trkpt lat="45.83316" lon="4.35306">
        <ele>740</ele>
        <time>2025-05-11T09:22:02Z</time>
      </trkpt>
      <trkpt lat="45.83326" lon="4.35307">
        <ele>740</ele>
        <time>2025-05-11T09:22:03Z</time>
      </trkpt>
      <trkpt lat="45.83347" lon="4.3531">
        <ele>740</ele>
        <time>2025-05-11T09:22:04Z</time>
      </trkpt>
      <trkpt lat="45.83368" lon="4.35314">
        <ele>740</ele>
        <time>2025-05-11T09:22:06Z</time>
      </trkpt>
      <trkpt lat="45.83389" lon="4.35318">
        <ele>741</ele>
        <time>2025-05-11T09:22:08Z</time>
      </trkpt>
      <trkpt lat="45.834" lon="4.35318">
        <ele>741</ele>
        <time>2025-05-11T09:22:09Z</time>
      </trkpt>
      <trkpt lat="45.8341" lon="4.35318">
        <ele>741</ele>
        <time>2025-05-11T09:22:10Z</time>
      </trkpt>
      <trkpt lat="45.83421" lon="4.35317">
        <ele>741</ele>
        <time>2025-05-11T09:22:11Z</time>
      </trkpt>
      <trkpt lat="45.83432" lon="4.35315">
        <ele>742</ele>
        <time>2025-05-11T09:22:12Z</time>
      </trkpt>
      <trkpt lat="45.83443" lon="4.35313">
        <ele>742</ele>
        <time>2025-05-11T09:22:13Z</time>
      </trkpt>
      <trkpt lat="45.83464" lon="4.35307">
        <ele>742</ele>
        <time>2025-05-11T09:22:15Z</time>
      </trkpt>
      <trkpt lat="45.83474" lon="4.35304">
        <ele>743</ele>
        <time>2025-05-11T09:22:17Z</time>
      </trkpt>
      <trkpt lat="45.83483" lon="4.35301">
        <ele>743</ele>
        <time>2025-05-11T09:22:18Z</time>
      </trkpt>
      <trkpt lat="45.83492" lon="4.35297">
        <ele>743</ele>
        <time>2025-05-11T09:22:19Z</time>
      </trkpt>
      <trkpt lat="45.83508" lon="4.35287">
        <ele>743</ele>
        <time>2025-05-11T09:22:20Z</time>
      </trkpt>
      <trkpt lat="45.83516" lon="4.35281">
        <ele>743</ele>
        <time>2025-05-11T09:22:22Z</time>
      </trkpt>
      <trkpt lat="45.83524" lon="4.35275">
        <ele>743</ele>
        <time>2025-05-11T09:22:23Z</time>
      </trkpt>
      <trkpt lat="45.8354" lon="4.35264">
        <ele>743</ele>
        <time>2025-05-11T09:22:24Z</time>
      </trkpt>
      <trkpt lat="45.83557" lon="4.35256">
        <ele>743</ele>
        <time>2025-05-11T09:22:26Z</time>
      </trkpt>
      <trkpt lat="45.83565" lon="4.35252">
        <ele>743</ele>
        <time>2025-05-11T09:22:27Z</time>
      </trkpt>
      <trkpt lat="45.83581" lon="4.35246">
        <ele>743</ele>
        <time>2025-05-11T09:22:29Z</time>
      </trkpt>
      <trkpt lat="45.83597" lon="4.35238">
        <ele>743</ele>
        <time>2025-05-11T09:22:31Z</time>
      </trkpt>
      <trkpt lat="45.83605" lon="4.35232">
        <ele>743</ele>
        <time>2025-05-11T09:22:32Z</time>
      </trkpt>
      <trkpt lat="45.83613" lon="4.35227">
        <ele>743</ele>
        <time>2025-05-11T09:22:33Z</time>
      </trkpt>
      <trkpt lat="45.83626" lon="4.35216">
        <ele>742</ele>
        <time>2025-05-11T09:22:35Z</time>
      </trkpt>
      <trkpt lat="45.83636" lon="4.35208">
        <ele>741</ele>
        <time>2025-05-11T09:22:37Z</time>
      </trkpt>
      <trkpt lat="45.83641" lon="4.35205">
        <ele>741</ele>
        <time>2025-05-11T09:22:38Z</time>
      </trkpt>
      <trkpt lat="45.83646" lon="4.35201">
        <ele>741</ele>
        <time>2025-05-11T09:22:40Z</time>
      </trkpt>
      <trkpt lat="45.8365" lon="4.35197">
        <ele>741</ele>
        <time>2025-05-11T09:22:41Z</time>
      </trkpt>
      <trkpt lat="45.83657" lon="4.3519">
        <ele>741</ele>
        <time>2025-05-11T09:22:42Z</time>
      </trkpt>
      <trkpt lat="45.83661" lon="4.35187">
        <ele>740</ele>
        <time>2025-05-11T09:22:44Z</time>
      </trkpt>
      <trkpt lat="45.83665" lon="4.35183">
        <ele>740</ele>
        <time>2025-05-11T09:22:45Z</time>
      </trkpt>
      <trkpt lat="45.83669" lon="4.3518">
        <ele>740</ele>
        <time>2025-05-11T09:22:46Z</time>
      </trkpt>
      <trkpt lat="45.83673" lon="4.35175">
        <ele>740</ele>
        <time>2025-05-11T09:22:47Z</time>
      </trkpt>
      <trkpt lat="45.83677" lon="4.35171">
        <ele>740</ele>
        <time>2025-05-11T09:22:48Z</time>
      </trkpt>
      <trkpt lat="45.83684" lon="4.35164">
        <ele>740</ele>
        <time>2025-05-11T09:22:49Z</time>
      </trkpt>
      <trkpt lat="45.83686" lon="4.35161">
        <ele>740</ele>
        <time>2025-05-11T09:22:50Z</time>
      </trkpt>
      <trkpt lat="45.83688" lon="4.35158">
        <ele>740</ele>
        <time>2025-05-11T09:22:52Z</time>
      </trkpt>
      <trkpt lat="45.8369" lon="4.35156">
        <ele>740</ele>
        <time>2025-05-11T09:22:53Z</time>
      </trkpt>
      <trkpt lat="45.83695" lon="4.35152">
        <ele>740</ele>
        <time>2025-05-11T09:22:54Z</time>
      </trkpt>
      <trkpt lat="45.83699" lon="4.3515">
        <ele>740</ele>
        <time>2025-05-11T09:22:55Z</time>
      </trkpt>
      <trkpt lat="45.83707" lon="4.35144">
        <ele>740</ele>
        <time>2025-05-11T09:22:57Z</time>
      </trkpt>
      <trkpt lat="45.83711" lon="4.3514">
        <ele>740</ele>
        <time>2025-05-11T09:22:58Z</time>
      </trkpt>
      <trkpt lat="45.83721" lon="4.35132">
        <ele>740</ele>
        <time>2025-05-11T09:23:00Z</time>
      </trkpt>
      <trkpt lat="45.83731" lon="4.35124">
        <ele>740</ele>
        <time>2025-05-11T09:23:02Z</time>
      </trkpt>
      <trkpt lat="45.83737" lon="4.35119">
        <ele>741</ele>
        <time>2025-05-11T09:23:04Z</time>
      </trkpt>
      <trkpt lat="45.83742" lon="4.35114">
        <ele>741</ele>
        <time>2025-05-11T09:23:05Z</time>
      </trkpt>
      <trkpt lat="45.83752" lon="4.35105">
        <ele>741</ele>
        <time>2025-05-11T09:23:06Z</time>
      </trkpt>
      <trkpt lat="45.83757" lon="4.35099">
        <ele>742</ele>
        <time>2025-05-11T09:23:08Z</time>
      </trkpt>
      <trkpt lat="45.83761" lon="4.35094">
        <ele>742</ele>
        <time>2025-05-11T09:23:09Z</time>
      </trkpt>
      <trkpt lat="45.83771" lon="4.35083">
        <ele>742</ele>
        <time>2025-05-11T09:23:10Z</time>
      </trkpt>
      <trkpt lat="45.83777" lon="4.35077">
        <ele>743</ele>
        <time>2025-05-11T09:23:12Z</time>
      </trkpt>
      <trkpt lat="45.83787" lon="4.35064">
        <ele>744</ele>
        <time>2025-05-11T09:23:13Z</time>
      </trkpt>
      <trkpt lat="45.83792" lon="4.35058">
        <ele>744</ele>
        <time>2025-05-11T09:23:14Z</time>
      </trkpt>
      <trkpt lat="45.83797" lon="4.35052">
        <ele>744</ele>
        <time>2025-05-11T09:23:15Z</time>
      </trkpt>
      <trkpt lat="45.83802" lon="4.35046">
        <ele>745</ele>
        <time>2025-05-11T09:23:16Z</time>
      </trkpt>
      <trkpt lat="45.83806" lon="4.35041">
        <ele>745</ele>
        <time>2025-05-11T09:23:18Z</time>
      </trkpt>
      <trkpt lat="45.8381" lon="4.35036">
        <ele>746</ele>
        <time>2025-05-11T09:23:19Z</time>
      </trkpt>
      <trkpt lat="45.83814" lon="4.3503">
        <ele>746</ele>
        <time>2025-05-11T09:23:20Z</time>
      </trkpt>
      <trkpt lat="45.83822" lon="4.3502">
        <ele>746</ele>
        <time>2025-05-11T09:23:21Z</time>
      </trkpt>
      <trkpt lat="45.83825" lon="4.35015">
        <ele>746</ele>
        <time>2025-05-11T09:23:23Z</time>
      </trkpt>
      <trkpt lat="45.83833" lon="4.35007">
        <ele>746</ele>
        <time>2025-05-11T09:23:24Z</time>
      </trkpt>
      <trkpt lat="45.83837" lon="4.35002">
        <ele>747</ele>
        <time>2025-05-11T09:23:26Z</time>
      </trkpt>
      <trkpt lat="45.83841" lon="4.34996">
        <ele>747</ele>
        <time>2025-05-11T09:23:27Z</time>
      </trkpt>
      <trkpt lat="45.83845" lon="4.34992">
        <ele>747</ele>
        <time>2025-05-11T09:23:28Z</time>
      </trkpt>
      <trkpt lat="45.83852" lon="4.34983">
        <ele>748</ele>
        <time>2025-05-11T09:23:29Z</time>
      </trkpt>
      <trkpt lat="45.83859" lon="4.34974">
        <ele>748</ele>
        <time>2025-05-11T09:23:31Z</time>
      </trkpt>
      <trkpt lat="45.83863" lon="4.34969">
        <ele>748</ele>
        <time>2025-05-11T09:23:32Z</time>
      </trkpt>
      <trkpt lat="45.83868" lon="4.34963">
        <ele>749</ele>
        <time>2025-05-11T09:23:33Z</time>
      </trkpt>
      <trkpt lat="45.83873" lon="4.34958">
        <ele>749</ele>
        <time>2025-05-11T09:23:34Z</time>
      </trkpt>
      <trkpt lat="45.83878" lon="4.34952">
        <ele>749</ele>
        <time>2025-05-11T09:23:35Z</time>
      </trkpt>
      <trkpt lat="45.83882" lon="4.34947">
        <ele>750</ele>
        <time>2025-05-11T09:23:37Z</time>
      </trkpt>
      <trkpt lat="45.83886" lon="4.34942">
        <ele>751</ele>
        <time>2025-05-11T09:23:38Z</time>
      </trkpt>
      <trkpt lat="45.8389" lon="4.34938">
        <ele>751</ele>
        <time>2025-05-11T09:23:39Z</time>
      </trkpt>
      <trkpt lat="45.83893" lon="4.34934">
        <ele>752</ele>
        <time>2025-05-11T09:23:40Z</time>
      </trkpt>
      <trkpt lat="45.83897" lon="4.3493">
        <ele>753</ele>
        <time>2025-05-11T09:23:41Z</time>
      </trkpt>
      <trkpt lat="45.83901" lon="4.34926">
        <ele>753</ele>
        <time>2025-05-11T09:23:42Z</time>
      </trkpt>
      <trkpt lat="45.83904" lon="4.34923">
        <ele>754</ele>
        <time>2025-05-11T09:23:43Z</time>
      </trkpt>
      <trkpt lat="45.83907" lon="4.3492">
        <ele>754</ele>
        <time>2025-05-11T09:23:44Z</time>
      </trkpt>
      <trkpt lat="45.8391" lon="4.34917">
        <ele>755</ele>
        <time>2025-05-11T09:23:45Z</time>
      </trkpt>
      <trkpt lat="45.83913" lon="4.34914">
        <ele>755</ele>
        <time>2025-05-11T09:23:46Z</time>
      </trkpt>
      <trkpt lat="45.83916" lon="4.34912">
        <ele>755</ele>
        <time>2025-05-11T09:23:47Z</time>
      </trkpt>
      <trkpt lat="45.83919" lon="4.3491">
        <ele>755</ele>
        <time>2025-05-11T09:23:48Z</time>
      </trkpt>
      <trkpt lat="45.83924" lon="4.34906">
        <ele>756</ele>
        <time>2025-05-11T09:23:49Z</time>
      </trkpt>
      <trkpt lat="45.83926" lon="4.34903">
        <ele>756</ele>
        <time>2025-05-11T09:23:50Z</time>
      </trkpt>
      <trkpt lat="45.83929" lon="4.34901">
        <ele>756</ele>
        <time>2025-05-11T09:23:51Z</time>
      </trkpt>
      <trkpt lat="45.83932" lon="4.34897">
        <ele>757</ele>
        <time>2025-05-11T09:23:52Z</time>
      </trkpt>
      <trkpt lat="45.83936" lon="4.34894">
        <ele>758</ele>
        <time>2025-05-11T09:23:54Z</time>
      </trkpt>
      <trkpt lat="45.83942" lon="4.34887">
        <ele>758</ele>
        <time>2025-05-11T09:23:55Z</time>
      </trkpt>
      <trkpt lat="45.83944" lon="4.34884">
        <ele>759</ele>
        <time>2025-05-11T09:23:56Z</time>
      </trkpt>
      <trkpt lat="45.83947" lon="4.34881">
        <ele>759</ele>
        <time>2025-05-11T09:23:58Z</time>
      </trkpt>
      <trkpt lat="45.8395" lon="4.34878">
        <ele>759</ele>
        <time>2025-05-11T09:23:59Z</time>
      </trkpt>
      <trkpt lat="45.83954" lon="4.34873">
        <ele>760</ele>
        <time>2025-05-11T09:24:00Z</time>
      </trkpt>
      <trkpt lat="45.83956" lon="4.34871">
        <ele>761</ele>
        <time>2025-05-11T09:24:10Z</time>
      </trkpt>
      <trkpt lat="45.83958" lon="4.34868">
        <ele>761</ele>
        <time>2025-05-11T09:24:12Z</time>
      </trkpt>
      <trkpt lat="45.83961" lon="4.34864">
        <ele>761</ele>
        <time>2025-05-11T09:24:13Z</time>
      </trkpt>
      <trkpt lat="45.83964" lon="4.3486">
        <ele>762</ele>
        <time>2025-05-11T09:24:14Z</time>
      </trkpt>
      <trkpt lat="45.83968" lon="4.34855">
        <ele>762</ele>
        <time>2025-05-11T09:24:15Z</time>
      </trkpt>
      <trkpt lat="45.83975" lon="4.34845">
        <ele>763</ele>
        <time>2025-05-11T09:24:16Z</time>
      </trkpt>
      <trkpt lat="45.83979" lon="4.3484">
        <ele>763</ele>
        <time>2025-05-11T09:24:17Z</time>
      </trkpt>
      <trkpt lat="45.83983" lon="4.34835">
        <ele>763</ele>
        <time>2025-05-11T09:24:18Z</time>
      </trkpt>
      <trkpt lat="45.83987" lon="4.34829">
        <ele>764</ele>
        <time>2025-05-11T09:24:19Z</time>
      </trkpt>
      <trkpt lat="45.83996" lon="4.34817">
        <ele>765</ele>
        <time>2025-05-11T09:24:21Z</time>
      </trkpt>
      <trkpt lat="45.84001" lon="4.34811">
        <ele>765</ele>
        <time>2025-05-11T09:24:23Z</time>
      </trkpt>
      <trkpt lat="45.84006" lon="4.34805">
        <ele>766</ele>
        <time>2025-05-11T09:24:24Z</time>
      </trkpt>
      <trkpt lat="45.8401" lon="4.34798">
        <ele>766</ele>
        <time>2025-05-11T09:24:25Z</time>
      </trkpt>
      <trkpt lat="45.8402" lon="4.34786">
        <ele>766</ele>
        <time>2025-05-11T09:24:26Z</time>
      </trkpt>
      <trkpt lat="45.84024" lon="4.34781">
        <ele>767</ele>
        <time>2025-05-11T09:24:27Z</time>
      </trkpt>
      <trkpt lat="45.84029" lon="4.34775">
        <ele>767</ele>
        <time>2025-05-11T09:24:28Z</time>
      </trkpt>
      <trkpt lat="45.84034" lon="4.3477">
        <ele>767</ele>
        <time>2025-05-11T09:24:29Z</time>
      </trkpt>
      <trkpt lat="45.84039" lon="4.34764">
        <ele>768</ele>
        <time>2025-05-11T09:24:30Z</time>
      </trkpt>
      <trkpt lat="45.84044" lon="4.34759">
        <ele>768</ele>
        <time>2025-05-11T09:24:31Z</time>
      </trkpt>
      <trkpt lat="45.84048" lon="4.34754">
        <ele>769</ele>
        <time>2025-05-11T09:24:33Z</time>
      </trkpt>
      <trkpt lat="45.84052" lon="4.34748">
        <ele>769</ele>
        <time>2025-05-11T09:24:34Z</time>
      </trkpt>
      <trkpt lat="45.84056" lon="4.34743">
        <ele>769</ele>
        <time>2025-05-11T09:24:35Z</time>
      </trkpt>
      <trkpt lat="45.8406" lon="4.34737">
        <ele>770</ele>
        <time>2025-05-11T09:24:36Z</time>
      </trkpt>
      <trkpt lat="45.84065" lon="4.34732">
        <ele>770</ele>
        <time>2025-05-11T09:24:37Z</time>
      </trkpt>
      <trkpt lat="45.84069" lon="4.34727">
        <ele>770</ele>
        <time>2025-05-11T09:24:38Z</time>
      </trkpt>
      <trkpt lat="45.84073" lon="4.34722">
        <ele>770</ele>
        <time>2025-05-11T09:24:39Z</time>
      </trkpt>
      <trkpt lat="45.84083" lon="4.34711">
        <ele>770</ele>
        <time>2025-05-11T09:24:40Z</time>
      </trkpt>
      <trkpt lat="45.84094" lon="4.34699">
        <ele>771</ele>
        <time>2025-05-11T09:24:42Z</time>
      </trkpt>
      <trkpt lat="45.841" lon="4.34693">
        <ele>771</ele>
        <time>2025-05-11T09:24:44Z</time>
      </trkpt>
      <trkpt lat="45.84113" lon="4.3468">
        <ele>771</ele>
        <time>2025-05-11T09:24:45Z</time>
      </trkpt>
      <trkpt lat="45.8412" lon="4.34674">
        <ele>772</ele>
        <time>2025-05-11T09:24:46Z</time>
      </trkpt>
      <trkpt lat="45.84127" lon="4.34668">
        <ele>772</ele>
        <time>2025-05-11T09:24:47Z</time>
      </trkpt>
      <trkpt lat="45.84141" lon="4.34654">
        <ele>772</ele>
        <time>2025-05-11T09:24:49Z</time>
      </trkpt>
      <trkpt lat="45.84148" lon="4.34648">
        <ele>773</ele>
        <time>2025-05-11T09:24:51Z</time>
      </trkpt>
      <trkpt lat="45.84154" lon="4.34642">
        <ele>773</ele>
        <time>2025-05-11T09:24:52Z</time>
      </trkpt>
      <trkpt lat="45.84161" lon="4.34635">
        <ele>773</ele>
        <time>2025-05-11T09:24:53Z</time>
      </trkpt>
      <trkpt lat="45.84168" lon="4.34629">
        <ele>773</ele>
        <time>2025-05-11T09:24:54Z</time>
      </trkpt>
      <trkpt lat="45.84175" lon="4.34623">
        <ele>773</ele>
        <time>2025-05-11T09:24:55Z</time>
      </trkpt>
      <trkpt lat="45.84181" lon="4.34617">
        <ele>773</ele>
        <time>2025-05-11T09:24:56Z</time>
      </trkpt>
      <trkpt lat="45.84188" lon="4.34611">
        <ele>774</ele>
        <time>2025-05-11T09:24:57Z</time>
      </trkpt>
      <trkpt lat="45.84195" lon="4.34605">
        <ele>774</ele>
        <time>2025-05-11T09:24:58Z</time>
      </trkpt>
      <trkpt lat="45.84202" lon="4.34599">
        <ele>775</ele>
        <time>2025-05-11T09:24:59Z</time>
      </trkpt>
      <trkpt lat="45.8421" lon="4.34594">
        <ele>775</ele>
        <time>2025-05-11T09:25:00Z</time>
      </trkpt>
      <trkpt lat="45.84226" lon="4.34583">
        <ele>776</ele>
        <time>2025-05-11T09:25:01Z</time>
      </trkpt>
      <trkpt lat="45.84243" lon="4.34571">
        <ele>777</ele>
        <time>2025-05-11T09:25:03Z</time>
      </trkpt>
      <trkpt lat="45.84251" lon="4.34566">
        <ele>778</ele>
        <time>2025-05-11T09:25:04Z</time>
      </trkpt>
      <trkpt lat="45.84259" lon="4.34561">
        <ele>778</ele>
        <time>2025-05-11T09:25:05Z</time>
      </trkpt>
      <trkpt lat="45.84274" lon="4.34551">
        <ele>780</ele>
        <time>2025-05-11T09:25:07Z</time>
      </trkpt>
      <trkpt lat="45.84287" lon="4.34543">
        <ele>781</ele>
        <time>2025-05-11T09:25:09Z</time>
      </trkpt>
      <trkpt lat="45.84294" lon="4.34538">
        <ele>782</ele>
        <time>2025-05-11T09:25:10Z</time>
      </trkpt>
      <trkpt lat="45.843" lon="4.34533">
        <ele>784</ele>
        <time>2025-05-11T09:25:12Z</time>
      </trkpt>
      <trkpt lat="45.84314" lon="4.34523">
        <ele>785</ele>
        <time>2025-05-11T09:25:13Z</time>
      </trkpt>
      <trkpt lat="45.84327" lon="4.34514">
        <ele>787</ele>
        <time>2025-05-11T09:25:15Z</time>
      </trkpt>
      <trkpt lat="45.84334" lon="4.3451">
        <ele>788</ele>
        <time>2025-05-11T09:25:16Z</time>
      </trkpt>
      <trkpt lat="45.84347" lon="4.34501">
        <ele>789</ele>
        <time>2025-05-11T09:25:18Z</time>
      </trkpt>
      <trkpt lat="45.84361" lon="4.34494">
        <ele>790</ele>
        <time>2025-05-11T09:25:20Z</time>
      </trkpt>
      <trkpt lat="45.84368" lon="4.3449">
        <ele>791</ele>
        <time>2025-05-11T09:25:22Z</time>
      </trkpt>
      <trkpt lat="45.84381" lon="4.34482">
        <ele>791</ele>
        <time>2025-05-11T09:25:23Z</time>
      </trkpt>
      <trkpt lat="45.84387" lon="4.34478">
        <ele>791</ele>
        <time>2025-05-11T09:25:24Z</time>
      </trkpt>
      <trkpt lat="45.84393" lon="4.34475">
        <ele>792</ele>
        <time>2025-05-11T09:25:25Z</time>
      </trkpt>
      <trkpt lat="45.84398" lon="4.34472">
        <ele>792</ele>
        <time>2025-05-11T09:25:26Z</time>
      </trkpt>
      <trkpt lat="45.84403" lon="4.34469">
        <ele>793</ele>
        <time>2025-05-11T09:25:27Z</time>
      </trkpt>
      <trkpt lat="45.84408" lon="4.34467">
        <ele>793</ele>
        <time>2025-05-11T09:25:28Z</time>
      </trkpt>
      <trkpt lat="45.84418" lon="4.34461">
        <ele>794</ele>
        <time>2025-05-11T09:25:30Z</time>
      </trkpt>
      <trkpt lat="45.84424" lon="4.34459">
        <ele>794</ele>
        <time>2025-05-11T09:25:31Z</time>
      </trkpt>
      <trkpt lat="45.84434" lon="4.34455">
        <ele>794</ele>
        <time>2025-05-11T09:25:33Z</time>
      </trkpt>
      <trkpt lat="45.84438" lon="4.34453">
        <ele>794</ele>
        <time>2025-05-11T09:25:34Z</time>
      </trkpt>
      <trkpt lat="45.84442" lon="4.34451">
        <ele>795</ele>
        <time>2025-05-11T09:25:36Z</time>
      </trkpt>
      <trkpt lat="45.84448" lon="4.34449">
        <ele>795</ele>
        <time>2025-05-11T09:25:37Z</time>
      </trkpt>
      <trkpt lat="45.84456" lon="4.34446">
        <ele>795</ele>
        <time>2025-05-11T09:25:38Z</time>
      </trkpt>
      <trkpt lat="45.8446" lon="4.34445">
        <ele>795</ele>
        <time>2025-05-11T09:25:40Z</time>
      </trkpt>
      <trkpt lat="45.84463" lon="4.34443">
        <ele>795</ele>
        <time>2025-05-11T09:25:41Z</time>
      </trkpt>
      <trkpt lat="45.84465" lon="4.34442">
        <ele>796</ele>
        <time>2025-05-11T09:25:42Z</time>
      </trkpt>
      <trkpt lat="45.84465" lon="4.34439">
        <ele>796</ele>
        <time>2025-05-11T09:25:51Z</time>
      </trkpt>
      <trkpt lat="45.84465" lon="4.34435">
        <ele>796</ele>
        <time>2025-05-11T09:25:53Z</time>
      </trkpt>
      <trkpt lat="45.84465" lon="4.34432">
        <ele>797</ele>
        <time>2025-05-11T09:25:54Z</time>
      </trkpt>
      <trkpt lat="45.84465" lon="4.34428">
        <ele>797</ele>
        <time>2025-05-11T09:25:55Z</time>
      </trkpt>
      <trkpt lat="45.84463" lon="4.34424">
        <ele>797</ele>
        <time>2025-05-11T09:25:56Z</time>
      </trkpt>
      <trkpt lat="45.84457" lon="4.34412">
        <ele>797</ele>
        <time>2025-05-11T09:25:57Z</time>
      </trkpt>
      <trkpt lat="45.84455" lon="4.34407">
        <ele>797</ele>
        <time>2025-05-11T09:25:59Z</time>
      </trkpt>
      <trkpt lat="45.84452" lon="4.34402">
        <ele>797</ele>
        <time>2025-05-11T09:26:00Z</time>
      </trkpt>
      <trkpt lat="45.84448" lon="4.34394">
        <ele>797</ele>
        <time>2025-05-11T09:26:01Z</time>
      </trkpt>
      <trkpt lat="45.84443" lon="4.34386">
        <ele>797</ele>
        <time>2025-05-11T09:26:03Z</time>
      </trkpt>
      <trkpt lat="45.84441" lon="4.34382">
        <ele>797</ele>
        <time>2025-05-11T09:26:04Z</time>
      </trkpt>
      <trkpt lat="45.8444" lon="4.34378">
        <ele>797</ele>
        <time>2025-05-11T09:26:05Z</time>
      </trkpt>
      <trkpt lat="45.84438" lon="4.34374">
        <ele>797</ele>
        <time>2025-05-11T09:26:06Z</time>
      </trkpt>
      <trkpt lat="45.84438" lon="4.34369">
        <ele>797</ele>
        <time>2025-05-11T09:26:07Z</time>
      </trkpt>
      <trkpt lat="45.84439" lon="4.34365">
        <ele>797</ele>
        <time>2025-05-11T09:26:08Z</time>
      </trkpt>
      <trkpt lat="45.84441" lon="4.34362">
        <ele>797</ele>
        <time>2025-05-11T09:26:10Z</time>
      </trkpt>
      <trkpt lat="45.84446" lon="4.34356">
        <ele>797</ele>
        <time>2025-05-11T09:26:11Z</time>
      </trkpt>
      <trkpt lat="45.84448" lon="4.34353">
        <ele>797</ele>
        <time>2025-05-11T09:26:13Z</time>
      </trkpt>
      <trkpt lat="45.84451" lon="4.3435">
        <ele>798</ele>
        <time>2025-05-11T09:26:14Z</time>
      </trkpt>
      <trkpt lat="45.84454" lon="4.34345">
        <ele>798</ele>
        <time>2025-05-11T09:26:15Z</time>
      </trkpt>
      <trkpt lat="45.84456" lon="4.34339">
        <ele>798</ele>
        <time>2025-05-11T09:26:16Z</time>
      </trkpt>
      <trkpt lat="45.84459" lon="4.34333">
        <ele>798</ele>
        <time>2025-05-11T09:26:17Z</time>
      </trkpt>
      <trkpt lat="45.84461" lon="4.34326">
        <ele>798</ele>
        <time>2025-05-11T09:26:18Z</time>
      </trkpt>
      <trkpt lat="45.84463" lon="4.34319">
        <ele>798</ele>
        <time>2025-05-11T09:26:19Z</time>
      </trkpt>
      <trkpt lat="45.84465" lon="4.34313">
        <ele>798</ele>
        <time>2025-05-11T09:26:20Z</time>
      </trkpt>
      <trkpt lat="45.84467" lon="4.34306">
        <ele>798</ele>
        <time>2025-05-11T09:26:21Z</time>
      </trkpt>
      <trkpt lat="45.84468" lon="4.34299">
        <ele>798</ele>
        <time>2025-05-11T09:26:22Z</time>
      </trkpt>
      <trkpt lat="45.84469" lon="4.34291">
        <ele>798</ele>
        <time>2025-05-11T09:26:23Z</time>
      </trkpt>
      <trkpt lat="45.8447" lon="4.34283">
        <ele>798</ele>
        <time>2025-05-11T09:26:24Z</time>
      </trkpt>
      <trkpt lat="45.8447" lon="4.34267">
        <ele>798</ele>
        <time>2025-05-11T09:26:25Z</time>
      </trkpt>
      <trkpt lat="45.84471" lon="4.34259">
        <ele>799</ele>
        <time>2025-05-11T09:26:26Z</time>
      </trkpt>
      <trkpt lat="45.84474" lon="4.34245">
        <ele>799</ele>
        <time>2025-05-11T09:26:29Z</time>
      </trkpt>
      <trkpt lat="45.84476" lon="4.34238">
        <ele>799</ele>
        <time>2025-05-11T09:26:30Z</time>
      </trkpt>
      <trkpt lat="45.84481" lon="4.34223">
        <ele>800</ele>
        <time>2025-05-11T09:26:31Z</time>
      </trkpt>
      <trkpt lat="45.84487" lon="4.34207">
        <ele>800</ele>
        <time>2025-05-11T09:26:33Z</time>
      </trkpt>
      <trkpt lat="45.8449" lon="4.34199">
        <ele>801</ele>
        <time>2025-05-11T09:26:35Z</time>
      </trkpt>
      <trkpt lat="45.84494" lon="4.34191">
        <ele>801</ele>
        <time>2025-05-11T09:26:36Z</time>
      </trkpt>
      <trkpt lat="45.84498" lon="4.34184">
        <ele>801</ele>
        <time>2025-05-11T09:26:37Z</time>
      </trkpt>
      <trkpt lat="45.84501" lon="4.34178">
        <ele>801</ele>
        <time>2025-05-11T09:26:38Z</time>
      </trkpt>
      <trkpt lat="45.84505" lon="4.34172">
        <ele>802</ele>
        <time>2025-05-11T09:26:39Z</time>
      </trkpt>
      <trkpt lat="45.84508" lon="4.34165">
        <ele>802</ele>
        <time>2025-05-11T09:26:40Z</time>
      </trkpt>
      <trkpt lat="45.84512" lon="4.34159">
        <ele>802</ele>
        <time>2025-05-11T09:26:41Z</time>
      </trkpt>
      <trkpt lat="45.8452" lon="4.34146">
        <ele>802</ele>
        <time>2025-05-11T09:26:42Z</time>
      </trkpt>
      <trkpt lat="45.84525" lon="4.3414">
        <ele>802</ele>
        <time>2025-05-11T09:26:44Z</time>
      </trkpt>
      <trkpt lat="45.84534" lon="4.34126">
        <ele>803</ele>
        <time>2025-05-11T09:26:45Z</time>
      </trkpt>
      <trkpt lat="45.84544" lon="4.34112">
        <ele>803</ele>
        <time>2025-05-11T09:26:47Z</time>
      </trkpt>
      <trkpt lat="45.84555" lon="4.34097">
        <ele>803</ele>
        <time>2025-05-11T09:26:49Z</time>
      </trkpt>
      <trkpt lat="45.84561" lon="4.34089">
        <ele>804</ele>
        <time>2025-05-11T09:26:51Z</time>
      </trkpt>
      <trkpt lat="45.84566" lon="4.34082">
        <ele>804</ele>
        <time>2025-05-11T09:26:52Z</time>
      </trkpt>
      <trkpt lat="45.84572" lon="4.34074">
        <ele>804</ele>
        <time>2025-05-11T09:26:53Z</time>
      </trkpt>
      <trkpt lat="45.84578" lon="4.34067">
        <ele>804</ele>
        <time>2025-05-11T09:26:54Z</time>
      </trkpt>
      <trkpt lat="45.84582" lon="4.3406">
        <ele>804</ele>
        <time>2025-05-11T09:26:55Z</time>
      </trkpt>
      <trkpt lat="45.8459" lon="4.34048">
        <ele>804</ele>
        <time>2025-05-11T09:26:56Z</time>
      </trkpt>
      <trkpt lat="45.84594" lon="4.34041">
        <ele>804</ele>
        <time>2025-05-11T09:26:57Z</time>
      </trkpt>
      <trkpt lat="45.84597" lon="4.34035">
        <ele>804</ele>
        <time>2025-05-11T09:26:58Z</time>
      </trkpt>
      <trkpt lat="45.84604" lon="4.34022">
        <ele>804</ele>
        <time>2025-05-11T09:27:00Z</time>
      </trkpt>
      <trkpt lat="45.84607" lon="4.34016">
        <ele>804</ele>
        <time>2025-05-11T09:27:01Z</time>
      </trkpt>
      <trkpt lat="45.84612" lon="4.34003">
        <ele>804</ele>
        <time>2025-05-11T09:27:03Z</time>
      </trkpt>
      <trkpt lat="45.84615" lon="4.33997">
        <ele>804</ele>
        <time>2025-05-11T09:27:04Z</time>
      </trkpt>
      <trkpt lat="45.84617" lon="4.33991">
        <ele>804</ele>
        <time>2025-05-11T09:27:05Z</time>
      </trkpt>
      <trkpt lat="45.84619" lon="4.33986">
        <ele>804</ele>
        <time>2025-05-11T09:27:07Z</time>
      </trkpt>
      <trkpt lat="45.84622" lon="4.3398">
        <ele>804</ele>
        <time>2025-05-11T09:27:08Z</time>
      </trkpt>
      <trkpt lat="45.84627" lon="4.33968">
        <ele>804</ele>
        <time>2025-05-11T09:27:09Z</time>
      </trkpt>
      <trkpt lat="45.8463" lon="4.33961">
        <ele>803</ele>
        <time>2025-05-11T09:27:11Z</time>
      </trkpt>
      <trkpt lat="45.84632" lon="4.33947">
        <ele>803</ele>
        <time>2025-05-11T09:27:12Z</time>
      </trkpt>
      <trkpt lat="45.84631" lon="4.33933">
        <ele>803</ele>
        <time>2025-05-11T09:27:14Z</time>
      </trkpt>
      <trkpt lat="45.84629" lon="4.33919">
        <ele>803</ele>
        <time>2025-05-11T09:27:16Z</time>
      </trkpt>
      <trkpt lat="45.84629" lon="4.33911">
        <ele>803</ele>
        <time>2025-05-11T09:27:17Z</time>
      </trkpt>
      <trkpt lat="45.84632" lon="4.33895">
        <ele>803</ele>
        <time>2025-05-11T09:27:19Z</time>
      </trkpt>
      <trkpt lat="45.84634" lon="4.33887">
        <ele>803</ele>
        <time>2025-05-11T09:27:20Z</time>
      </trkpt>
      <trkpt lat="45.84637" lon="4.33879">
        <ele>803</ele>
        <time>2025-05-11T09:27:22Z</time>
      </trkpt>
      <trkpt lat="45.8464" lon="4.3387">
        <ele>804</ele>
        <time>2025-05-11T09:27:23Z</time>
      </trkpt>
      <trkpt lat="45.84645" lon="4.33851">
        <ele>804</ele>
        <time>2025-05-11T09:27:25Z</time>
      </trkpt>
      <trkpt lat="45.8465" lon="4.33829">
        <ele>804</ele>
        <time>2025-05-11T09:27:26Z</time>
      </trkpt>
      <trkpt lat="45.84656" lon="4.33809">
        <ele>805</ele>
        <time>2025-05-11T09:27:28Z</time>
      </trkpt>
      <trkpt lat="45.84663" lon="4.33788">
        <ele>805</ele>
        <time>2025-05-11T09:27:30Z</time>
      </trkpt>
      <trkpt lat="45.84667" lon="4.33778">
        <ele>806</ele>
        <time>2025-05-11T09:27:32Z</time>
      </trkpt>
      <trkpt lat="45.84675" lon="4.33758">
        <ele>806</ele>
        <time>2025-05-11T09:27:33Z</time>
      </trkpt>
      <trkpt lat="45.84678" lon="4.33749">
        <ele>807</ele>
        <time>2025-05-11T09:27:35Z</time>
      </trkpt>
      <trkpt lat="45.84685" lon="4.33729">
        <ele>808</ele>
        <time>2025-05-11T09:27:36Z</time>
      </trkpt>
      <trkpt lat="45.84691" lon="4.33708">
        <ele>808</ele>
        <time>2025-05-11T09:27:38Z</time>
      </trkpt>
      <trkpt lat="45.84693" lon="4.33696">
        <ele>809</ele>
        <time>2025-05-11T09:27:40Z</time>
      </trkpt>
      <trkpt lat="45.84697" lon="4.33675">
        <ele>809</ele>
        <time>2025-05-11T09:27:41Z</time>
      </trkpt>
      <trkpt lat="45.84699" lon="4.33667">
        <ele>810</ele>
        <time>2025-05-11T09:27:43Z</time>
      </trkpt>
      <trkpt lat="45.84706" lon="4.33656">
        <ele>810</ele>
        <time>2025-05-11T09:27:44Z</time>
      </trkpt>
      <trkpt lat="45.84712" lon="4.33651">
        <ele>810</ele>
        <time>2025-05-11T09:27:45Z</time>
      </trkpt>
      <trkpt lat="45.84717" lon="4.33645">
        <ele>810</ele>
        <time>2025-05-11T09:27:46Z</time>
      </trkpt>
      <trkpt lat="45.84725" lon="4.33633">
        <ele>810</ele>
        <time>2025-05-11T09:27:48Z</time>
      </trkpt>
      <trkpt lat="45.84729" lon="4.33626">
        <ele>810</ele>
        <time>2025-05-11T09:27:49Z</time>
      </trkpt>
      <trkpt lat="45.84735" lon="4.33612">
        <ele>810</ele>
        <time>2025-05-11T09:27:51Z</time>
      </trkpt>
      <trkpt lat="45.84739" lon="4.336">
        <ele>809</ele>
        <time>2025-05-11T09:27:53Z</time>
      </trkpt>
      <trkpt lat="45.84741" lon="4.33596">
        <ele>809</ele>
        <time>2025-05-11T09:27:54Z</time>
      </trkpt>
      <trkpt lat="45.84742" lon="4.33591">
        <ele>808</ele>
        <time>2025-05-11T09:27:56Z</time>
      </trkpt>
      <trkpt lat="45.84744" lon="4.33586">
        <ele>808</ele>
        <time>2025-05-11T09:27:57Z</time>
      </trkpt>
      <trkpt lat="45.84748" lon="4.33578">
        <ele>808</ele>
        <time>2025-05-11T09:27:58Z</time>
      </trkpt>
      <trkpt lat="45.84753" lon="4.33568">
        <ele>807</ele>
        <time>2025-05-11T09:28:00Z</time>
      </trkpt>
      <trkpt lat="45.84759" lon="4.33557">
        <ele>806</ele>
        <time>2025-05-11T09:28:02Z</time>
      </trkpt>
      <trkpt lat="45.84766" lon="4.33546">
        <ele>806</ele>
        <time>2025-05-11T09:28:04Z</time>
      </trkpt>
      <trkpt lat="45.84769" lon="4.33542">
        <ele>805</ele>
        <time>2025-05-11T09:28:05Z</time>
      </trkpt>
      <trkpt lat="45.84777" lon="4.33534">
        <ele>805</ele>
        <time>2025-05-11T09:28:07Z</time>
      </trkpt>
      <trkpt lat="45.8478" lon="4.3353">
        <ele>805</ele>
        <time>2025-05-11T09:28:08Z</time>
      </trkpt>
      <trkpt lat="45.84783" lon="4.33527">
        <ele>805</ele>
        <time>2025-05-11T09:28:09Z</time>
      </trkpt>
      <trkpt lat="45.84786" lon="4.33524">
        <ele>804</ele>
        <time>2025-05-11T09:28:11Z</time>
      </trkpt>
      <trkpt lat="45.84789" lon="4.33522">
        <ele>804</ele>
        <time>2025-05-11T09:28:12Z</time>
      </trkpt>
      <trkpt lat="45.84792" lon="4.33521">
        <ele>804</ele>
        <time>2025-05-11T09:28:13Z</time>
      </trkpt>
      <trkpt lat="45.84795" lon="4.33519">
        <ele>804</ele>
        <time>2025-05-11T09:28:14Z</time>
      </trkpt>
      <trkpt lat="45.84798" lon="4.33518">
        <ele>804</ele>
        <time>2025-05-11T09:28:15Z</time>
      </trkpt>
      <trkpt lat="45.84801" lon="4.33518">
        <ele>804</ele>
        <time>2025-05-11T09:28:16Z</time>
      </trkpt>
      <trkpt lat="45.84804" lon="4.33518">
        <ele>804</ele>
        <time>2025-05-11T09:28:17Z</time>
      </trkpt>
      <trkpt lat="45.84806" lon="4.33518">
        <ele>804</ele>
        <time>2025-05-11T09:28:18Z</time>
      </trkpt>
      <trkpt lat="45.84809" lon="4.33518">
        <ele>804</ele>
        <time>2025-05-11T09:28:19Z</time>
      </trkpt>
      <trkpt lat="45.84814" lon="4.33516">
        <ele>804</ele>
        <time>2025-05-11T09:28:20Z</time>
      </trkpt>
      <trkpt lat="45.84816" lon="4.33514">
        <ele>804</ele>
        <time>2025-05-11T09:28:21Z</time>
      </trkpt>
      <trkpt lat="45.84817" lon="4.33508">
        <ele>803</ele>
        <time>2025-05-11T09:28:23Z</time>
      </trkpt>
      <trkpt lat="45.84818" lon="4.335">
        <ele>803</ele>
        <time>2025-05-11T09:28:25Z</time>
      </trkpt>
      <trkpt lat="45.84819" lon="4.33497">
        <ele>802</ele>
        <time>2025-05-11T09:28:26Z</time>
      </trkpt>
      <trkpt lat="45.8482" lon="4.33491">
        <ele>802</ele>
        <time>2025-05-11T09:28:28Z</time>
      </trkpt>
      <trkpt lat="45.8482" lon="4.33488">
        <ele>802</ele>
        <time>2025-05-11T09:28:29Z</time>
      </trkpt>
      <trkpt lat="45.84821" lon="4.33483">
        <ele>801</ele>
        <time>2025-05-11T09:28:32Z</time>
      </trkpt>
      <trkpt lat="45.84821" lon="4.3348">
        <ele>801</ele>
        <time>2025-05-11T09:28:33Z</time>
      </trkpt>
      <trkpt lat="45.84821" lon="4.33475">
        <ele>801</ele>
        <time>2025-05-11T09:28:34Z</time>
      </trkpt>
      <trkpt lat="45.84821" lon="4.33472">
        <ele>801</ele>
        <time>2025-05-11T09:28:35Z</time>
      </trkpt>
      <trkpt lat="45.84822" lon="4.33469">
        <ele>801</ele>
        <time>2025-05-11T09:28:36Z</time>
      </trkpt>
      <trkpt lat="45.84822" lon="4.33464">
        <ele>800</ele>
        <time>2025-05-11T09:28:39Z</time>
      </trkpt>
      <trkpt lat="45.84823" lon="4.3346">
        <ele>800</ele>
        <time>2025-05-11T09:28:41Z</time>
      </trkpt>
      <trkpt lat="45.84822" lon="4.33457">
        <ele>800</ele>
        <time>2025-05-11T09:28:42Z</time>
      </trkpt>
      <trkpt lat="45.84822" lon="4.33454">
        <ele>800</ele>
        <time>2025-05-11T09:28:43Z</time>
      </trkpt>
      <trkpt lat="45.84822" lon="4.3345">
        <ele>800</ele>
        <time>2025-05-11T09:28:44Z</time>
      </trkpt>
      <trkpt lat="45.84821" lon="4.33447">
        <ele>799</ele>
        <time>2025-05-11T09:28:45Z</time>
      </trkpt>
      <trkpt lat="45.84821" lon="4.33444">
        <ele>798</ele>
        <time>2025-05-11T09:28:47Z</time>
      </trkpt>
      <trkpt lat="45.84821" lon="4.33438">
        <ele>798</ele>
        <time>2025-05-11T09:28:48Z</time>
      </trkpt>
      <trkpt lat="45.84821" lon="4.33434">
        <ele>798</ele>
        <time>2025-05-11T09:28:49Z</time>
      </trkpt>
      <trkpt lat="45.84821" lon="4.33431">
        <ele>798</ele>
        <time>2025-05-11T09:28:50Z</time>
      </trkpt>
      <trkpt lat="45.84821" lon="4.33428">
        <ele>798</ele>
        <time>2025-05-11T09:28:51Z</time>
      </trkpt>
      <trkpt lat="45.8482" lon="4.33424">
        <ele>797</ele>
        <time>2025-05-11T09:28:53Z</time>
      </trkpt>
      <trkpt lat="45.8482" lon="4.33421">
        <ele>797</ele>
        <time>2025-05-11T09:28:54Z</time>
      </trkpt>
      <trkpt lat="45.84819" lon="4.33414">
        <ele>797</ele>
        <time>2025-05-11T09:28:55Z</time>
      </trkpt>
      <trkpt lat="45.84818" lon="4.33407">
        <ele>796</ele>
        <time>2025-05-11T09:28:57Z</time>
      </trkpt>
      <trkpt lat="45.84817" lon="4.33393">
        <ele>796</ele>
        <time>2025-05-11T09:29:01Z</time>
      </trkpt>
      <trkpt lat="45.84816" lon="4.3339">
        <ele>795</ele>
        <time>2025-05-11T09:29:02Z</time>
      </trkpt>
      <trkpt lat="45.84818" lon="4.33377">
        <ele>794</ele>
        <time>2025-05-11T09:29:07Z</time>
      </trkpt>
      <trkpt lat="45.84819" lon="4.33369">
        <ele>794</ele>
        <time>2025-05-11T09:29:10Z</time>
      </trkpt>
      <trkpt lat="45.84819" lon="4.33366">
        <ele>793</ele>
        <time>2025-05-11T09:29:12Z</time>
      </trkpt>
      <trkpt lat="45.8482" lon="4.33352">
        <ele>791</ele>
        <time>2025-05-11T09:29:16Z</time>
      </trkpt>
      <trkpt lat="45.84819" lon="4.33335">
        <ele>788</ele>
        <time>2025-05-11T09:29:21Z</time>
      </trkpt>
      <trkpt lat="45.84818" lon="4.33323">
        <ele>787</ele>
        <time>2025-05-11T09:29:24Z</time>
      </trkpt>
      <trkpt lat="45.84817" lon="4.3332">
        <ele>787</ele>
        <time>2025-05-11T09:29:25Z</time>
      </trkpt>
      <trkpt lat="45.84817" lon="4.33317">
        <ele>786</ele>
        <time>2025-05-11T09:29:26Z</time>
      </trkpt>
      <trkpt lat="45.84816" lon="4.3331">
        <ele>786</ele>
        <time>2025-05-11T09:29:27Z</time>
      </trkpt>
      <trkpt lat="45.84816" lon="4.33307">
        <ele>785</ele>
        <time>2025-05-11T09:29:29Z</time>
      </trkpt>
      <trkpt lat="45.84815" lon="4.333">
        <ele>785</ele>
        <time>2025-05-11T09:29:30Z</time>
      </trkpt>
      <trkpt lat="45.84814" lon="4.33296">
        <ele>784</ele>
        <time>2025-05-11T09:29:31Z</time>
      </trkpt>
      <trkpt lat="45.84814" lon="4.33292">
        <ele>784</ele>
        <time>2025-05-11T09:29:32Z</time>
      </trkpt>
      <trkpt lat="45.84813" lon="4.33288">
        <ele>783</ele>
        <time>2025-05-11T09:29:34Z</time>
      </trkpt>
      <trkpt lat="45.84812" lon="4.33279">
        <ele>783</ele>
        <time>2025-05-11T09:29:35Z</time>
      </trkpt>
      <trkpt lat="45.84812" lon="4.33271">
        <ele>782</ele>
        <time>2025-05-11T09:29:37Z</time>
      </trkpt>
      <trkpt lat="45.84812" lon="4.33266">
        <ele>781</ele>
        <time>2025-05-11T09:29:38Z</time>
      </trkpt>
      <trkpt lat="45.84811" lon="4.33262">
        <ele>781</ele>
        <time>2025-05-11T09:29:40Z</time>
      </trkpt>
      <trkpt lat="45.8481" lon="4.33259">
        <ele>781</ele>
        <time>2025-05-11T09:29:41Z</time>
      </trkpt>
      <trkpt lat="45.8481" lon="4.33254">
        <ele>780</ele>
        <time>2025-05-11T09:29:42Z</time>
      </trkpt>
      <trkpt lat="45.84809" lon="4.3325">
        <ele>780</ele>
        <time>2025-05-11T09:29:43Z</time>
      </trkpt>
      <trkpt lat="45.84808" lon="4.33245">
        <ele>780</ele>
        <time>2025-05-11T09:29:44Z</time>
      </trkpt>
      <trkpt lat="45.84807" lon="4.3324">
        <ele>780</ele>
        <time>2025-05-11T09:29:45Z</time>
      </trkpt>
      <trkpt lat="45.84806" lon="4.33235">
        <ele>779</ele>
        <time>2025-05-11T09:29:46Z</time>
      </trkpt>
      <trkpt lat="45.84805" lon="4.33231">
        <ele>779</ele>
        <time>2025-05-11T09:29:47Z</time>
      </trkpt>
      <trkpt lat="45.84804" lon="4.33226">
        <ele>779</ele>
        <time>2025-05-11T09:29:48Z</time>
      </trkpt>
      <trkpt lat="45.84802" lon="4.33217">
        <ele>779</ele>
        <time>2025-05-11T09:29:49Z</time>
      </trkpt>
      <trkpt lat="45.848" lon="4.33212">
        <ele>778</ele>
        <time>2025-05-11T09:29:50Z</time>
      </trkpt>
      <trkpt lat="45.84799" lon="4.33208">
        <ele>778</ele>
        <time>2025-05-11T09:29:51Z</time>
      </trkpt>
      <trkpt lat="45.84798" lon="4.33204">
        <ele>778</ele>
        <time>2025-05-11T09:29:53Z</time>
      </trkpt>
      <trkpt lat="45.84797" lon="4.332">
        <ele>777</ele>
        <time>2025-05-11T09:29:54Z</time>
      </trkpt>
      <trkpt lat="45.84796" lon="4.33196">
        <ele>777</ele>
        <time>2025-05-11T09:29:55Z</time>
      </trkpt>
      <trkpt lat="45.84794" lon="4.33187">
        <ele>777</ele>
        <time>2025-05-11T09:29:56Z</time>
      </trkpt>
      <trkpt lat="45.84794" lon="4.33182">
        <ele>777</ele>
        <time>2025-05-11T09:29:57Z</time>
      </trkpt>
      <trkpt lat="45.84793" lon="4.33177">
        <ele>776</ele>
        <time>2025-05-11T09:29:59Z</time>
      </trkpt>
      <trkpt lat="45.84791" lon="4.33166">
        <ele>776</ele>
        <time>2025-05-11T09:30:00Z</time>
      </trkpt>
      <trkpt lat="45.84791" lon="4.33158">
        <ele>776</ele>
        <time>2025-05-11T09:30:02Z</time>
      </trkpt>
      <trkpt lat="45.84791" lon="4.33154">
        <ele>775</ele>
        <time>2025-05-11T09:30:04Z</time>
      </trkpt>
      <trkpt lat="45.84791" lon="4.33149">
        <ele>775</ele>
        <time>2025-05-11T09:30:05Z</time>
      </trkpt>
      <trkpt lat="45.84791" lon="4.33144">
        <ele>775</ele>
        <time>2025-05-11T09:30:06Z</time>
      </trkpt>
      <trkpt lat="45.84791" lon="4.33139">
        <ele>775</ele>
        <time>2025-05-11T09:30:07Z</time>
      </trkpt>
      <trkpt lat="45.84791" lon="4.3313">
        <ele>774</ele>
        <time>2025-05-11T09:30:08Z</time>
      </trkpt>
      <trkpt lat="45.84792" lon="4.33126">
        <ele>774</ele>
        <time>2025-05-11T09:30:10Z</time>
      </trkpt>
      <trkpt lat="45.84792" lon="4.33122">
        <ele>774</ele>
        <time>2025-05-11T09:30:11Z</time>
      </trkpt>
      <trkpt lat="45.84791" lon="4.33113">
        <ele>774</ele>
        <time>2025-05-11T09:30:12Z</time>
      </trkpt>
      <trkpt lat="45.84791" lon="4.33108">
        <ele>773</ele>
        <time>2025-05-11T09:30:13Z</time>
      </trkpt>
      <trkpt lat="45.84791" lon="4.33103">
        <ele>773</ele>
        <time>2025-05-11T09:30:15Z</time>
      </trkpt>
      <trkpt lat="45.84791" lon="4.33095">
        <ele>773</ele>
        <time>2025-05-11T09:30:16Z</time>
      </trkpt>
      <trkpt lat="45.84792" lon="4.33091">
        <ele>772</ele>
        <time>2025-05-11T09:30:17Z</time>
      </trkpt>
      <trkpt lat="45.84792" lon="4.33088">
        <ele>772</ele>
        <time>2025-05-11T09:30:18Z</time>
      </trkpt>
      <trkpt lat="45.84792" lon="4.33084">
        <ele>771</ele>
        <time>2025-05-11T09:30:20Z</time>
      </trkpt>
      <trkpt lat="45.84792" lon="4.3308">
        <ele>771</ele>
        <time>2025-05-11T09:30:21Z</time>
      </trkpt>
      <trkpt lat="45.84792" lon="4.33075">
        <ele>771</ele>
        <time>2025-05-11T09:30:22Z</time>
      </trkpt>
      <trkpt lat="45.84793" lon="4.33066">
        <ele>771</ele>
        <time>2025-05-11T09:30:23Z</time>
      </trkpt>
      <trkpt lat="45.84793" lon="4.33061">
        <ele>771</ele>
        <time>2025-05-11T09:30:25Z</time>
      </trkpt>
      <trkpt lat="45.84794" lon="4.33056">
        <ele>771</ele>
        <time>2025-05-11T09:30:26Z</time>
      </trkpt>
      <trkpt lat="45.84796" lon="4.33045">
        <ele>771</ele>
        <time>2025-05-11T09:30:27Z</time>
      </trkpt>
      <trkpt lat="45.84796" lon="4.3304">
        <ele>770</ele>
        <time>2025-05-11T09:30:28Z</time>
      </trkpt>
      <trkpt lat="45.84797" lon="4.33035">
        <ele>770</ele>
        <time>2025-05-11T09:30:29Z</time>
      </trkpt>
      <trkpt lat="45.84798" lon="4.3303">
        <ele>770</ele>
        <time>2025-05-11T09:30:31Z</time>
      </trkpt>
      <trkpt lat="45.84799" lon="4.3302">
        <ele>770</ele>
        <time>2025-05-11T09:30:32Z</time>
      </trkpt>
      <trkpt lat="45.848" lon="4.33014">
        <ele>770</ele>
        <time>2025-05-11T09:30:33Z</time>
      </trkpt>
      <trkpt lat="45.84803" lon="4.33003">
        <ele>770</ele>
        <time>2025-05-11T09:30:35Z</time>
      </trkpt>
      <trkpt lat="45.84805" lon="4.32993">
        <ele>770</ele>
        <time>2025-05-11T09:30:37Z</time>
      </trkpt>
      <trkpt lat="45.84807" lon="4.32984">
        <ele>770</ele>
        <time>2025-05-11T09:30:39Z</time>
      </trkpt>
      <trkpt lat="45.84809" lon="4.32974">
        <ele>769</ele>
        <time>2025-05-11T09:30:41Z</time>
      </trkpt>
      <trkpt lat="45.84808" lon="4.32963">
        <ele>769</ele>
        <time>2025-05-11T09:30:43Z</time>
      </trkpt>
      <trkpt lat="45.84807" lon="4.32958">
        <ele>769</ele>
        <time>2025-05-11T09:30:44Z</time>
      </trkpt>
      <trkpt lat="45.84805" lon="4.32954">
        <ele>769</ele>
        <time>2025-05-11T09:30:46Z</time>
      </trkpt>
      <trkpt lat="45.84805" lon="4.32945">
        <ele>769</ele>
        <time>2025-05-11T09:30:47Z</time>
      </trkpt>
      <trkpt lat="45.84807" lon="4.32928">
        <ele>769</ele>
        <time>2025-05-11T09:30:51Z</time>
      </trkpt>
      <trkpt lat="45.84809" lon="4.32915">
        <ele>769</ele>
        <time>2025-05-11T09:30:52Z</time>
      </trkpt>
      <trkpt lat="45.84813" lon="4.32902">
        <ele>769</ele>
        <time>2025-05-11T09:30:54Z</time>
      </trkpt>
      <trkpt lat="45.84816" lon="4.3289">
        <ele>769</ele>
        <time>2025-05-11T09:30:56Z</time>
      </trkpt>
      <trkpt lat="45.84822" lon="4.32879">
        <ele>769</ele>
        <time>2025-05-11T09:31:01Z</time>
      </trkpt>
      <trkpt lat="45.84827" lon="4.32865">
        <ele>770</ele>
        <time>2025-05-11T09:31:05Z</time>
      </trkpt>
      <trkpt lat="45.84831" lon="4.32853">
        <ele>770</ele>
        <time>2025-05-11T09:31:07Z</time>
      </trkpt>
      <trkpt lat="45.84835" lon="4.32844">
        <ele>770</ele>
        <time>2025-05-11T09:31:09Z</time>
      </trkpt>
      <trkpt lat="45.84841" lon="4.3283">
        <ele>770</ele>
        <time>2025-05-11T09:31:13Z</time>
      </trkpt>
      <trkpt lat="45.84845" lon="4.32818">
        <ele>770</ele>
        <time>2025-05-11T09:31:16Z</time>
      </trkpt>
      <trkpt lat="45.84848" lon="4.32805">
        <ele>770</ele>
        <time>2025-05-11T09:31:19Z</time>
      </trkpt>
      <trkpt lat="45.8485" lon="4.32792">
        <ele>770</ele>
        <time>2025-05-11T09:31:21Z</time>
      </trkpt>
      <trkpt lat="45.84853" lon="4.32779">
        <ele>771</ele>
        <time>2025-05-11T09:31:25Z</time>
      </trkpt>
      <trkpt lat="45.84857" lon="4.32765">
        <ele>771</ele>
        <time>2025-05-11T09:31:28Z</time>
      </trkpt>
      <trkpt lat="45.8486" lon="4.32752">
        <ele>771</ele>
        <time>2025-05-11T09:31:30Z</time>
      </trkpt>
      <trkpt lat="45.84866" lon="4.32739">
        <ele>771</ele>
        <time>2025-05-11T09:31:32Z</time>
      </trkpt>
      <trkpt lat="45.84873" lon="4.32726">
        <ele>771</ele>
        <time>2025-05-11T09:31:33Z</time>
      </trkpt>
      <trkpt lat="45.84878" lon="4.32713">
        <ele>771</ele>
        <time>2025-05-11T09:31:35Z</time>
      </trkpt>
      <trkpt lat="45.84882" lon="4.32696">
        <ele>771</ele>
        <time>2025-05-11T09:31:39Z</time>
      </trkpt>
      <trkpt lat="45.84879" lon="4.32682">
        <ele>771</ele>
        <time>2025-05-11T09:31:42Z</time>
      </trkpt>
      <trkpt lat="45.8487" lon="4.32671">
        <ele>771</ele>
        <time>2025-05-11T09:31:46Z</time>
      </trkpt>
      <trkpt lat="45.84859" lon="4.3266">
        <ele>770</ele>
        <time>2025-05-11T09:31:52Z</time>
      </trkpt>
      <trkpt lat="45.84858" lon="4.32658">
        <ele>770</ele>
        <time>2025-05-11T09:31:53Z</time>
      </trkpt>
      <trkpt lat="45.84858" lon="4.32654">
        <ele>769</ele>
        <time>2025-05-11T09:31:55Z</time>
      </trkpt>
      <trkpt lat="45.84857" lon="4.32651">
        <ele>769</ele>
        <time>2025-05-11T09:31:56Z</time>
      </trkpt>
      <trkpt lat="45.84857" lon="4.32649">
        <ele>768</ele>
        <time>2025-05-11T09:31:58Z</time>
      </trkpt>
      <trkpt lat="45.84858" lon="4.32646">
        <ele>768</ele>
        <time>2025-05-11T09:31:59Z</time>
      </trkpt>
      <trkpt lat="45.84863" lon="4.32643">
        <ele>768</ele>
        <time>2025-05-11T09:32:01Z</time>
      </trkpt>
      <trkpt lat="45.84867" lon="4.32643">
        <ele>768</ele>
        <time>2025-05-11T09:32:02Z</time>
      </trkpt>
      <trkpt lat="45.84872" lon="4.32644">
        <ele>767</ele>
        <time>2025-05-11T09:32:04Z</time>
      </trkpt>
      <trkpt lat="45.84877" lon="4.32645">
        <ele>767</ele>
        <time>2025-05-11T09:32:05Z</time>
      </trkpt>
      <trkpt lat="45.84882" lon="4.32647">
        <ele>766</ele>
        <time>2025-05-11T09:32:06Z</time>
      </trkpt>
      <trkpt lat="45.84892" lon="4.32654">
        <ele>766</ele>
        <time>2025-05-11T09:32:07Z</time>
      </trkpt>
      <trkpt lat="45.84898" lon="4.32659">
        <ele>765</ele>
        <time>2025-05-11T09:32:09Z</time>
      </trkpt>
      <trkpt lat="45.84903" lon="4.32662">
        <ele>765</ele>
        <time>2025-05-11T09:32:10Z</time>
      </trkpt>
      <trkpt lat="45.84909" lon="4.32662">
        <ele>765</ele>
        <time>2025-05-11T09:32:11Z</time>
      </trkpt>
      <trkpt lat="45.84916" lon="4.32661">
        <ele>765</ele>
        <time>2025-05-11T09:32:12Z</time>
      </trkpt>
      <trkpt lat="45.84922" lon="4.32657">
        <ele>765</ele>
        <time>2025-05-11T09:32:13Z</time>
      </trkpt>
      <trkpt lat="45.84931" lon="4.32652">
        <ele>765</ele>
        <time>2025-05-11T09:32:14Z</time>
      </trkpt>
      <trkpt lat="45.84935" lon="4.32651">
        <ele>765</ele>
        <time>2025-05-11T09:32:15Z</time>
      </trkpt>
      <trkpt lat="45.84974" lon="4.32643">
        <ele>757.6</ele>
      </trkpt>
      <trkpt lat="45.85086" lon="4.32671">
        <ele>761</ele>
        <time>2025-05-11T07:22:02Z</time>
      </trkpt>
      <trkpt lat="45.85096" lon="4.32677">
        <ele>760</ele>
        <time>2025-05-11T07:22:05Z</time>
      </trkpt>
      <trkpt lat="45.85106" lon="4.32679">
        <ele>760</ele>
        <time>2025-05-11T07:22:08Z</time>
      </trkpt>
      <trkpt lat="45.85116" lon="4.32679">
        <ele>760</ele>
        <time>2025-05-11T07:22:17Z</time>
      </trkpt>
      <trkpt lat="45.85125" lon="4.32684">
        <ele>760</ele>
        <time>2025-05-11T07:22:20Z</time>
      </trkpt>
      <trkpt lat="45.85135" lon="4.32689">
        <ele>760</ele>
        <time>2025-05-11T07:22:22Z</time>
      </trkpt>
      <trkpt lat="45.85144" lon="4.32692">
        <ele>760</ele>
        <time>2025-05-11T07:22:24Z</time>
      </trkpt>
      <trkpt lat="45.85156" lon="4.32694">
        <ele>760</ele>
        <time>2025-05-11T07:22:26Z</time>
      </trkpt>
      <trkpt lat="45.85169" lon="4.32694">
        <ele>759</ele>
        <time>2025-05-11T07:22:28Z</time>
      </trkpt>
      <trkpt lat="45.85181" lon="4.32695">
        <ele>759</ele>
        <time>2025-05-11T07:22:30Z</time>
      </trkpt>
      <trkpt lat="45.85193" lon="4.32696">
        <ele>758</ele>
        <time>2025-05-11T07:22:32Z</time>
      </trkpt>
      <trkpt lat="45.85204" lon="4.32697">
        <ele>757</ele>
        <time>2025-05-11T07:22:34Z</time>
      </trkpt>
      <trkpt lat="45.85214" lon="4.32698">
        <ele>755</ele>
        <time>2025-05-11T07:22:36Z</time>
      </trkpt>
      <trkpt lat="45.85226" lon="4.32701">
        <ele>753</ele>
        <time>2025-05-11T07:22:38Z</time>
      </trkpt>
      <trkpt lat="45.85235" lon="4.32706">
        <ele>750</ele>
        <time>2025-05-11T07:22:40Z</time>
      </trkpt>
      <trkpt lat="45.85243" lon="4.32711">
        <ele>749</ele>
        <time>2025-05-11T07:22:42Z</time>
      </trkpt>
      <trkpt lat="45.85253" lon="4.32715">
        <ele>747</ele>
        <time>2025-05-11T07:22:44Z</time>
      </trkpt>
      <trkpt lat="45.85265" lon="4.32718">
        <ele>745</ele>
        <time>2025-05-11T07:22:46Z</time>
      </trkpt>
      <trkpt lat="45.85276" lon="4.32717">
        <ele>743</ele>
        <time>2025-05-11T07:22:48Z</time>
      </trkpt>
      <trkpt lat="45.85289" lon="4.32715">
        <ele>741</ele>
        <time>2025-05-11T07:22:50Z</time>
      </trkpt>
      <trkpt lat="45.85302" lon="4.32713">
        <ele>739</ele>
        <time>2025-05-11T07:22:52Z</time>
      </trkpt>
      <trkpt lat="45.85314" lon="4.3271">
        <ele>737</ele>
        <time>2025-05-11T07:22:54Z</time>
      </trkpt>
      <trkpt lat="45.85325" lon="4.32709">
        <ele>736</ele>
        <time>2025-05-11T07:22:57Z</time>
      </trkpt>
      <trkpt lat="45.85336" lon="4.32712">
        <ele>735</ele>
        <time>2025-05-11T07:23:00Z</time>
      </trkpt>
      <trkpt lat="45.85345" lon="4.32715">
        <ele>733</ele>
        <time>2025-05-11T07:23:03Z</time>
      </trkpt>
      <trkpt lat="45.85356" lon="4.32721">
        <ele>732</ele>
        <time>2025-05-11T07:23:06Z</time>
      </trkpt>
      <trkpt lat="45.8537" lon="4.32727">
        <ele>730</ele>
        <time>2025-05-11T07:23:09Z</time>
      </trkpt>
      <trkpt lat="45.85382" lon="4.32732">
        <ele>729</ele>
        <time>2025-05-11T07:23:11Z</time>
      </trkpt>
      <trkpt lat="45.85394" lon="4.32734">
        <ele>728</ele>
        <time>2025-05-11T07:23:13Z</time>
      </trkpt>
      <trkpt lat="45.85404" lon="4.32739">
        <ele>726</ele>
        <time>2025-05-11T07:23:15Z</time>
      </trkpt>
      <trkpt lat="45.85411" lon="4.32747">
        <ele>725</ele>
        <time>2025-05-11T07:23:18Z</time>
      </trkpt>
      <trkpt lat="45.85422" lon="4.32753">
        <ele>723</ele>
        <time>2025-05-11T07:23:22Z</time>
      </trkpt>
      <trkpt lat="45.8543" lon="4.32761">
        <ele>719</ele>
        <time>2025-05-11T07:23:28Z</time>
      </trkpt>
      <trkpt lat="45.85434" lon="4.32774">
        <ele>715</ele>
        <time>2025-05-11T07:23:35Z</time>
      </trkpt>
      <trkpt lat="45.85443" lon="4.32779">
        <ele>708</ele>
        <time>2025-05-11T07:23:46Z</time>
      </trkpt>
      <trkpt lat="45.85454" lon="4.32777">
        <ele>706</ele>
        <time>2025-05-11T07:23:53Z</time>
      </trkpt>
      <trkpt lat="45.85462" lon="4.32774">
        <ele>704</ele>
        <time>2025-05-11T07:23:57Z</time>
      </trkpt>
      <trkpt lat="45.85474" lon="4.32767">
        <ele>703</ele>
        <time>2025-05-11T07:24:00Z</time>
      </trkpt>
      <trkpt lat="45.85483" lon="4.32764">
        <ele>701</ele>
        <time>2025-05-11T07:24:03Z</time>
      </trkpt>
      <trkpt lat="45.85493" lon="4.32764">
        <ele>698</ele>
        <time>2025-05-11T07:24:07Z</time>
      </trkpt>
      <trkpt lat="45.85502" lon="4.32768">
        <ele>695</ele>
        <time>2025-05-11T07:24:11Z</time>
      </trkpt>
      <trkpt lat="45.85512" lon="4.32775">
        <ele>694</ele>
        <time>2025-05-11T07:24:15Z</time>
      </trkpt>
      <trkpt lat="45.85518" lon="4.32788">
        <ele>693</ele>
        <time>2025-05-11T07:24:19Z</time>
      </trkpt>
      <trkpt lat="45.85526" lon="4.32797">
        <ele>692</ele>
        <time>2025-05-11T07:24:24Z</time>
      </trkpt>
      <trkpt lat="45.85536" lon="4.3279">
        <ele>691</ele>
        <time>2025-05-11T07:24:27Z</time>
      </trkpt>
      <trkpt lat="45.85548" lon="4.3278">
        <ele>690</ele>
        <time>2025-05-11T07:24:30Z</time>
      </trkpt>
      <trkpt lat="45.85556" lon="4.3277">
        <ele>690</ele>
        <time>2025-05-11T07:24:32Z</time>
      </trkpt>
      <trkpt lat="45.85564" lon="4.32762">
        <ele>690</ele>
        <time>2025-05-11T07:24:34Z</time>
      </trkpt>
      <trkpt lat="45.85573" lon="4.32757">
        <ele>689</ele>
        <time>2025-05-11T07:24:36Z</time>
      </trkpt>
      <trkpt lat="45.85582" lon="4.32754">
        <ele>689</ele>
        <time>2025-05-11T07:24:38Z</time>
      </trkpt>
      <trkpt lat="45.85595" lon="4.32751">
        <ele>689</ele>
        <time>2025-05-11T07:24:41Z</time>
      </trkpt>
      <trkpt lat="45.85607" lon="4.32749">
        <ele>688</ele>
        <time>2025-05-11T07:24:45Z</time>
      </trkpt>
      <trkpt lat="45.85618" lon="4.32748">
        <ele>688</ele>
        <time>2025-05-11T07:24:47Z</time>
      </trkpt>
      <trkpt lat="45.85628" lon="4.32747">
        <ele>688</ele>
        <time>2025-05-11T07:24:49Z</time>
      </trkpt>
      <trkpt lat="45.85638" lon="4.32747">
        <ele>688</ele>
        <time>2025-05-11T07:24:51Z</time>
      </trkpt>
      <trkpt lat="45.85649" lon="4.32748">
        <ele>689</ele>
        <time>2025-05-11T07:24:53Z</time>
      </trkpt>
      <trkpt lat="45.8566" lon="4.3275">
        <ele>689</ele>
        <time>2025-05-11T07:24:55Z</time>
      </trkpt>
      <trkpt lat="45.85673" lon="4.32755">
        <ele>689</ele>
        <time>2025-05-11T07:24:58Z</time>
      </trkpt>
      <trkpt lat="45.85687" lon="4.32763">
        <ele>689</ele>
        <time>2025-05-11T07:25:01Z</time>
      </trkpt>
      <trkpt lat="45.85696" lon="4.32769">
        <ele>689</ele>
        <time>2025-05-11T07:25:03Z</time>
      </trkpt>
      <trkpt lat="45.85704" lon="4.32777">
        <ele>689</ele>
        <time>2025-05-11T07:25:05Z</time>
      </trkpt>
      <trkpt lat="45.85714" lon="4.32788">
        <ele>690</ele>
        <time>2025-05-11T07:25:08Z</time>
      </trkpt>
      <trkpt lat="45.85725" lon="4.32797">
        <ele>691</ele>
        <time>2025-05-11T07:25:11Z</time>
      </trkpt>
      <trkpt lat="45.85734" lon="4.32807">
        <ele>691</ele>
        <time>2025-05-11T07:25:14Z</time>
      </trkpt>
      <trkpt lat="45.85742" lon="4.32815">
        <ele>692</ele>
        <time>2025-05-11T07:25:18Z</time>
      </trkpt>
      <trkpt lat="45.8575" lon="4.32817">
        <ele>702</ele>
        <time>2025-05-11T07:27:01Z</time>
      </trkpt>
      <trkpt lat="45.85756" lon="4.32818">
        <ele>702</ele>
        <time>2025-05-11T07:27:08Z</time>
      </trkpt>
      <trkpt lat="45.85767" lon="4.32821">
        <ele>703</ele>
        <time>2025-05-11T07:27:11Z</time>
      </trkpt>
      <trkpt lat="45.85781" lon="4.32825">
        <ele>703</ele>
        <time>2025-05-11T07:27:14Z</time>
      </trkpt>
      <trkpt lat="45.85793" lon="4.32829">
        <ele>703</ele>
        <time>2025-05-11T07:27:17Z</time>
      </trkpt>
      <trkpt lat="45.85802" lon="4.32836">
        <ele>704</ele>
        <time>2025-05-11T07:27:21Z</time>
      </trkpt>
      <trkpt lat="45.85811" lon="4.32828">
        <ele>704</ele>
        <time>2025-05-11T07:27:29Z</time>
      </trkpt>
      <trkpt lat="45.85821" lon="4.32822">
        <ele>704</ele>
        <time>2025-05-11T07:27:33Z</time>
      </trkpt>
      <trkpt lat="45.85834" lon="4.3282">
        <ele>704</ele>
        <time>2025-05-11T07:27:36Z</time>
      </trkpt>
      <trkpt lat="45.85844" lon="4.32818">
        <ele>704</ele>
        <time>2025-05-11T07:27:38Z</time>
      </trkpt>
      <trkpt lat="45.85855" lon="4.32816">
        <ele>703</ele>
        <time>2025-05-11T07:27:40Z</time>
      </trkpt>
      <trkpt lat="45.85866" lon="4.32813">
        <ele>703</ele>
        <time>2025-05-11T07:27:42Z</time>
      </trkpt>
      <trkpt lat="45.85875" lon="4.32811">
        <ele>703</ele>
        <time>2025-05-11T07:27:44Z</time>
      </trkpt>
      <trkpt lat="45.85887" lon="4.32807">
        <ele>703</ele>
        <time>2025-05-11T07:27:47Z</time>
      </trkpt>
      <trkpt lat="45.85897" lon="4.32806">
        <ele>702</ele>
        <time>2025-05-11T07:28:06Z</time>
      </trkpt>
      <trkpt lat="45.85907" lon="4.32804">
        <ele>702</ele>
        <time>2025-05-11T07:28:09Z</time>
      </trkpt>
      <trkpt lat="45.8592" lon="4.32804">
        <ele>702</ele>
        <time>2025-05-11T07:28:12Z</time>
      </trkpt>
      <trkpt lat="45.8593" lon="4.32803">
        <ele>703</ele>
        <time>2025-05-11T07:28:14Z</time>
      </trkpt>
      <trkpt lat="45.85941" lon="4.32804">
        <ele>703</ele>
        <time>2025-05-11T07:28:16Z</time>
      </trkpt>
      <trkpt lat="45.85951" lon="4.32805">
        <ele>703</ele>
        <time>2025-05-11T07:28:18Z</time>
      </trkpt>
      <trkpt lat="45.85961" lon="4.32808">
        <ele>703</ele>
        <time>2025-05-11T07:28:20Z</time>
      </trkpt>
      <trkpt lat="45.85971" lon="4.32812">
        <ele>703</ele>
        <time>2025-05-11T07:28:22Z</time>
      </trkpt>
      <trkpt lat="45.8598" lon="4.32816">
        <ele>704</ele>
        <time>2025-05-11T07:28:24Z</time>
      </trkpt>
      <trkpt lat="45.85989" lon="4.3282">
        <ele>704</ele>
        <time>2025-05-11T07:28:26Z</time>
      </trkpt>
      <trkpt lat="45.85999" lon="4.32826">
        <ele>704</ele>
        <time>2025-05-11T07:28:28Z</time>
      </trkpt>
      <trkpt lat="45.86009" lon="4.32832">
        <ele>705</ele>
        <time>2025-05-11T07:28:30Z</time>
      </trkpt>
      <trkpt lat="45.86017" lon="4.32838">
        <ele>704</ele>
        <time>2025-05-11T07:28:32Z</time>
      </trkpt>
      <trkpt lat="45.86027" lon="4.32846">
        <ele>704</ele>
        <time>2025-05-11T07:28:35Z</time>
      </trkpt>
      <trkpt lat="45.86033" lon="4.32852">
        <ele>704</ele>
        <time>2025-05-11T07:28:37Z</time>
      </trkpt>
      <trkpt lat="45.86036" lon="4.32855">
        <ele>704</ele>
        <time>2025-05-11T07:28:38Z</time>
      </trkpt>
      <trkpt lat="45.86038" lon="4.32859">
        <ele>704</ele>
        <time>2025-05-11T07:28:39Z</time>
      </trkpt>
      <trkpt lat="45.86041" lon="4.32864">
        <ele>704</ele>
        <time>2025-05-11T07:28:40Z</time>
      </trkpt>
      <trkpt lat="45.86044" lon="4.32868">
        <ele>704</ele>
        <time>2025-05-11T07:28:41Z</time>
      </trkpt>
      <trkpt lat="45.86046" lon="4.32873">
        <ele>704</ele>
        <time>2025-05-11T07:28:42Z</time>
      </trkpt>
      <trkpt lat="45.86049" lon="4.32878">
        <ele>704</ele>
        <time>2025-05-11T07:28:43Z</time>
      </trkpt>
      <trkpt lat="45.86051" lon="4.32883">
        <ele>704</ele>
        <time>2025-05-11T07:28:44Z</time>
      </trkpt>
      <trkpt lat="45.86053" lon="4.32888">
        <ele>704</ele>
        <time>2025-05-11T07:28:45Z</time>
      </trkpt>
      <trkpt lat="45.86055" lon="4.32891">
        <ele>704</ele>
        <time>2025-05-11T07:28:46Z</time>
      </trkpt>
      <trkpt lat="45.86057" lon="4.32895">
        <ele>704</ele>
        <time>2025-05-11T07:28:47Z</time>
      </trkpt>
      <trkpt lat="45.86059" lon="4.32898">
        <ele>704</ele>
        <time>2025-05-11T07:28:48Z</time>
      </trkpt>
      <trkpt lat="45.86063" lon="4.329">
        <ele>704</ele>
        <time>2025-05-11T07:28:49Z</time>
      </trkpt>
      <trkpt lat="45.86066" lon="4.32902">
        <ele>704</ele>
        <time>2025-05-11T07:28:50Z</time>
      </trkpt>
      <trkpt lat="45.86076" lon="4.32902">
        <ele>704</ele>
        <time>2025-05-11T07:28:52Z</time>
      </trkpt>
      <trkpt lat="45.86086" lon="4.32896">
        <ele>704</ele>
        <time>2025-05-11T07:28:54Z</time>
      </trkpt>
      <trkpt lat="45.8609" lon="4.32891">
        <ele>704</ele>
        <time>2025-05-11T07:28:55Z</time>
      </trkpt>
      <trkpt lat="45.86093" lon="4.32885">
        <ele>704</ele>
        <time>2025-05-11T07:28:56Z</time>
      </trkpt>
      <trkpt lat="45.86096" lon="4.32881">
        <ele>704</ele>
        <time>2025-05-11T07:28:57Z</time>
      </trkpt>
      <trkpt lat="45.86099" lon="4.32876">
        <ele>704</ele>
        <time>2025-05-11T07:28:58Z</time>
      </trkpt>
      <trkpt lat="45.86102" lon="4.32872">
        <ele>704</ele>
        <time>2025-05-11T07:28:59Z</time>
      </trkpt>
      <trkpt lat="45.86105" lon="4.32867">
        <ele>704</ele>
        <time>2025-05-11T07:29:00Z</time>
      </trkpt>
      <trkpt lat="45.86108" lon="4.32863">
        <ele>704</ele>
        <time>2025-05-11T07:29:01Z</time>
      </trkpt>
      <trkpt lat="45.86112" lon="4.32858">
        <ele>705</ele>
        <time>2025-05-11T07:29:02Z</time>
      </trkpt>
      <trkpt lat="45.86115" lon="4.32854">
        <ele>705</ele>
        <time>2025-05-11T07:29:03Z</time>
      </trkpt>
      <trkpt lat="45.86119" lon="4.3285">
        <ele>705</ele>
        <time>2025-05-11T07:29:04Z</time>
      </trkpt>
      <trkpt lat="45.86123" lon="4.32845">
        <ele>705</ele>
        <time>2025-05-11T07:29:05Z</time>
      </trkpt>
      <trkpt lat="45.86127" lon="4.32841">
        <ele>705</ele>
        <time>2025-05-11T07:29:06Z</time>
      </trkpt>
      <trkpt lat="45.86131" lon="4.32836">
        <ele>705</ele>
        <time>2025-05-11T07:29:07Z</time>
      </trkpt>
      <trkpt lat="45.86134" lon="4.32831">
        <ele>705</ele>
        <time>2025-05-11T07:29:08Z</time>
      </trkpt>
      <trkpt lat="45.86139" lon="4.32825">
        <ele>705</ele>
        <time>2025-05-11T07:29:09Z</time>
      </trkpt>
      <trkpt lat="45.86143" lon="4.3282">
        <ele>705</ele>
        <time>2025-05-11T07:29:10Z</time>
      </trkpt>
      <trkpt lat="45.86148" lon="4.32814">
        <ele>705</ele>
        <time>2025-05-11T07:29:11Z</time>
      </trkpt>
      <trkpt lat="45.86153" lon="4.32809">
        <ele>705</ele>
        <time>2025-05-11T07:29:12Z</time>
      </trkpt>
      <trkpt lat="45.86157" lon="4.32804">
        <ele>705</ele>
        <time>2025-05-11T07:29:13Z</time>
      </trkpt>
      <trkpt lat="45.86162" lon="4.32799">
        <ele>705</ele>
        <time>2025-05-11T07:29:14Z</time>
      </trkpt>
      <trkpt lat="45.86167" lon="4.32795">
        <ele>705</ele>
        <time>2025-05-11T07:29:15Z</time>
      </trkpt>
      <trkpt lat="45.86172" lon="4.32791">
        <ele>705</ele>
        <time>2025-05-11T07:29:16Z</time>
      </trkpt>
      <trkpt lat="45.86176" lon="4.32787">
        <ele>705</ele>
        <time>2025-05-11T07:29:17Z</time>
      </trkpt>
      <trkpt lat="45.8618" lon="4.32784">
        <ele>705</ele>
        <time>2025-05-11T07:29:18Z</time>
      </trkpt>
      <trkpt lat="45.86183" lon="4.32781">
        <ele>705</ele>
        <time>2025-05-11T07:29:19Z</time>
      </trkpt>
      <trkpt lat="45.86187" lon="4.32778">
        <ele>705</ele>
        <time>2025-05-11T07:29:20Z</time>
      </trkpt>
      <trkpt lat="45.8619" lon="4.32776">
        <ele>705</ele>
        <time>2025-05-11T07:29:21Z</time>
      </trkpt>
      <trkpt lat="45.86192" lon="4.32775">
        <ele>705</ele>
        <time>2025-05-11T07:29:22Z</time>
      </trkpt>
      <trkpt lat="45.86194" lon="4.32775">
        <ele>705</ele>
        <time>2025-05-11T07:29:23Z</time>
      </trkpt>
      <trkpt lat="45.86197" lon="4.32777">
        <ele>705</ele>
        <time>2025-05-11T07:29:24Z</time>
      </trkpt>
      <trkpt lat="45.86198" lon="4.32779">
        <ele>705</ele>
        <time>2025-05-11T07:29:25Z</time>
      </trkpt>
      <trkpt lat="45.862" lon="4.32782">
        <ele>705</ele>
        <time>2025-05-11T07:29:26Z</time>
      </trkpt>
      <trkpt lat="45.86201" lon="4.32786">
        <ele>706</ele>
        <time>2025-05-11T07:29:27Z</time>
      </trkpt>
      <trkpt lat="45.86202" lon="4.32791">
        <ele>706</ele>
        <time>2025-05-11T07:29:28Z</time>
      </trkpt>
      <trkpt lat="45.86203" lon="4.32804">
        <ele>706</ele>
        <time>2025-05-11T07:29:31Z</time>
      </trkpt>
      <trkpt lat="45.86204" lon="4.32819">
        <ele>707</ele>
        <time>2025-05-11T07:29:34Z</time>
      </trkpt>
      <trkpt lat="45.86203" lon="4.32824">
        <ele>708</ele>
        <time>2025-05-11T07:29:35Z</time>
      </trkpt>
      <trkpt lat="45.86201" lon="4.3283">
        <ele>708</ele>
        <time>2025-05-11T07:29:36Z</time>
      </trkpt>
      <trkpt lat="45.86199" lon="4.32835">
        <ele>708</ele>
        <time>2025-05-11T07:29:37Z</time>
      </trkpt>
      <trkpt lat="45.86196" lon="4.32839">
        <ele>708</ele>
        <time>2025-05-11T07:29:38Z</time>
      </trkpt>
      <trkpt lat="45.86192" lon="4.32844">
        <ele>709</ele>
        <time>2025-05-11T07:29:39Z</time>
      </trkpt>
      <trkpt lat="45.86189" lon="4.32848">
        <ele>709</ele>
        <time>2025-05-11T07:29:40Z</time>
      </trkpt>
      <trkpt lat="45.86185" lon="4.32853">
        <ele>709</ele>
        <time>2025-05-11T07:29:41Z</time>
      </trkpt>
      <trkpt lat="45.86181" lon="4.32858">
        <ele>709</ele>
        <time>2025-05-11T07:29:42Z</time>
      </trkpt>
      <trkpt lat="45.86178" lon="4.32863">
        <ele>709</ele>
        <time>2025-05-11T07:29:43Z</time>
      </trkpt>
      <trkpt lat="45.86175" lon="4.32868">
        <ele>710</ele>
        <time>2025-05-11T07:29:44Z</time>
      </trkpt>
      <trkpt lat="45.86173" lon="4.32874">
        <ele>710</ele>
        <time>2025-05-11T07:29:45Z</time>
      </trkpt>
      <trkpt lat="45.86171" lon="4.32881">
        <ele>710</ele>
        <time>2025-05-11T07:29:46Z</time>
      </trkpt>
      <trkpt lat="45.8617" lon="4.32889">
        <ele>711</ele>
        <time>2025-05-11T07:29:47Z</time>
      </trkpt>
      <trkpt lat="45.86167" lon="4.32907">
        <ele>712</ele>
        <time>2025-05-11T07:29:49Z</time>
      </trkpt>
      <trkpt lat="45.86165" lon="4.32917">
        <ele>713</ele>
        <time>2025-05-11T07:29:50Z</time>
      </trkpt>
      <trkpt lat="45.86164" lon="4.32927">
        <ele>714</ele>
        <time>2025-05-11T07:29:51Z</time>
      </trkpt>
      <trkpt lat="45.86162" lon="4.32937">
        <ele>715</ele>
        <time>2025-05-11T07:29:52Z</time>
      </trkpt>
      <trkpt lat="45.86162" lon="4.32948">
        <ele>716</ele>
        <time>2025-05-11T07:29:53Z</time>
      </trkpt>
      <trkpt lat="45.86161" lon="4.32958">
        <ele>717</ele>
        <time>2025-05-11T07:29:54Z</time>
      </trkpt>
      <trkpt lat="45.8616" lon="4.32969">
        <ele>718</ele>
        <time>2025-05-11T07:29:55Z</time>
      </trkpt>
      <trkpt lat="45.8616" lon="4.3298">
        <ele>719</ele>
        <time>2025-05-11T07:29:56Z</time>
      </trkpt>
      <trkpt lat="45.86159" lon="4.32991">
        <ele>720</ele>
        <time>2025-05-11T07:29:57Z</time>
      </trkpt>
      <trkpt lat="45.86158" lon="4.33001">
        <ele>721</ele>
        <time>2025-05-11T07:29:58Z</time>
      </trkpt>
      <trkpt lat="45.86158" lon="4.33012">
        <ele>722</ele>
        <time>2025-05-11T07:29:59Z</time>
      </trkpt>
      <trkpt lat="45.86156" lon="4.33023">
        <ele>723</ele>
        <time>2025-05-11T07:30:00Z</time>
      </trkpt>
      <trkpt lat="45.86155" lon="4.33033">
        <ele>724</ele>
        <time>2025-05-11T07:30:01Z</time>
      </trkpt>
      <trkpt lat="45.86154" lon="4.33044">
        <ele>725</ele>
        <time>2025-05-11T07:30:02Z</time>
      </trkpt>
      <trkpt lat="45.86153" lon="4.33054">
        <ele>726</ele>
        <time>2025-05-11T07:30:03Z</time>
      </trkpt>
      <trkpt lat="45.86151" lon="4.33065">
        <ele>727</ele>
        <time>2025-05-11T07:30:04Z</time>
      </trkpt>
      <trkpt lat="45.8615" lon="4.33077">
        <ele>728</ele>
        <time>2025-05-11T07:30:05Z</time>
      </trkpt>
      <trkpt lat="45.8615" lon="4.33089">
        <ele>729</ele>
        <time>2025-05-11T07:30:06Z</time>
      </trkpt>
      <trkpt lat="45.86149" lon="4.33101">
        <ele>731</ele>
        <time>2025-05-11T07:30:07Z</time>
      </trkpt>
      <trkpt lat="45.8615" lon="4.33113">
        <ele>732</ele>
        <time>2025-05-11T07:30:08Z</time>
      </trkpt>
      <trkpt lat="45.86151" lon="4.33125">
        <ele>734</ele>
        <time>2025-05-11T07:30:09Z</time>
      </trkpt>
      <trkpt lat="45.86152" lon="4.33137">
        <ele>735</ele>
        <time>2025-05-11T07:30:10Z</time>
      </trkpt>
      <trkpt lat="45.86153" lon="4.33147">
        <ele>737</ele>
        <time>2025-05-11T07:30:11Z</time>
      </trkpt>
      <trkpt lat="45.86154" lon="4.33158">
        <ele>738</ele>
        <time>2025-05-11T07:30:12Z</time>
      </trkpt>
      <trkpt lat="45.86155" lon="4.33168">
        <ele>739</ele>
        <time>2025-05-11T07:30:13Z</time>
      </trkpt>
      <trkpt lat="45.86156" lon="4.33178">
        <ele>740</ele>
        <time>2025-05-11T07:30:14Z</time>
      </trkpt>
      <trkpt lat="45.86157" lon="4.33187">
        <ele>742</ele>
        <time>2025-05-11T07:30:15Z</time>
      </trkpt>
      <trkpt lat="45.86158" lon="4.33195">
        <ele>743</ele>
        <time>2025-05-11T07:30:16Z</time>
      </trkpt>
      <trkpt lat="45.86159" lon="4.33202">
        <ele>744</ele>
        <time>2025-05-11T07:30:17Z</time>
      </trkpt>
      <trkpt lat="45.86161" lon="4.33208">
        <ele>744</ele>
        <time>2025-05-11T07:30:18Z</time>
      </trkpt>
      <trkpt lat="45.86162" lon="4.33213">
        <ele>745</ele>
        <time>2025-05-11T07:30:19Z</time>
      </trkpt>
      <trkpt lat="45.86164" lon="4.33216">
        <ele>746</ele>
        <time>2025-05-11T07:30:20Z</time>
      </trkpt>
      <trkpt lat="45.86165" lon="4.33217">
        <ele>753</ele>
        <time>2025-05-11T07:32:19Z</time>
      </trkpt>
      <trkpt lat="45.86168" lon="4.33221">
        <ele>753</ele>
        <time>2025-05-11T07:32:21Z</time>
      </trkpt>
      <trkpt lat="45.86171" lon="4.33217">
        <ele>746</ele>
        <time>2025-05-11T07:55:52Z</time>
      </trkpt>
      <trkpt lat="45.86172" lon="4.33213">
        <ele>746</ele>
        <time>2025-05-11T07:55:53Z</time>
      </trkpt>
      <trkpt lat="45.86177" lon="4.33205">
        <ele>746</ele>
        <time>2025-05-11T07:55:55Z</time>
      </trkpt>
      <trkpt lat="45.86181" lon="4.332">
        <ele>746</ele>
        <time>2025-05-11T07:55:56Z</time>
      </trkpt>
      <trkpt lat="45.86186" lon="4.33193">
        <ele>746</ele>
        <time>2025-05-11T07:55:57Z</time>
      </trkpt>
      <trkpt lat="45.86192" lon="4.33184">
        <ele>747</ele>
        <time>2025-05-11T07:55:58Z</time>
      </trkpt>
      <trkpt lat="45.86199" lon="4.33173">
        <ele>747</ele>
        <time>2025-05-11T07:55:59Z</time>
      </trkpt>
      <trkpt lat="45.86206" lon="4.33161">
        <ele>747</ele>
        <time>2025-05-11T07:56:00Z</time>
      </trkpt>
      <trkpt lat="45.86214" lon="4.33149">
        <ele>747</ele>
        <time>2025-05-11T07:56:01Z</time>
      </trkpt>
      <trkpt lat="45.86222" lon="4.33137">
        <ele>747</ele>
        <time>2025-05-11T07:56:02Z</time>
      </trkpt>
      <trkpt lat="45.86236" lon="4.33116">
        <ele>748</ele>
        <time>2025-05-11T07:56:04Z</time>
      </trkpt>
      <trkpt lat="45.86242" lon="4.33107">
        <ele>748</ele>
        <time>2025-05-11T07:56:05Z</time>
      </trkpt>
      <trkpt lat="45.86249" lon="4.33098">
        <ele>748</ele>
        <time>2025-05-11T07:56:06Z</time>
      </trkpt>
      <trkpt lat="45.86257" lon="4.3309">
        <ele>748</ele>
        <time>2025-05-11T07:56:07Z</time>
      </trkpt>
      <trkpt lat="45.86264" lon="4.33084">
        <ele>748</ele>
        <time>2025-05-11T07:56:08Z</time>
      </trkpt>
      <trkpt lat="45.86272" lon="4.33078">
        <ele>748</ele>
        <time>2025-05-11T07:56:09Z</time>
      </trkpt>
      <trkpt lat="45.86281" lon="4.33073">
        <ele>748</ele>
        <time>2025-05-11T07:56:10Z</time>
      </trkpt>
      <trkpt lat="45.86289" lon="4.33068">
        <ele>748</ele>
        <time>2025-05-11T07:56:11Z</time>
      </trkpt>
      <trkpt lat="45.86297" lon="4.33063">
        <ele>748</ele>
        <time>2025-05-11T07:56:12Z</time>
      </trkpt>
      <trkpt lat="45.86305" lon="4.33059">
        <ele>748</ele>
        <time>2025-05-11T07:56:13Z</time>
      </trkpt>
      <trkpt lat="45.86321" lon="4.33052">
        <ele>747</ele>
        <time>2025-05-11T07:56:15Z</time>
      </trkpt>
      <trkpt lat="45.86336" lon="4.33048">
        <ele>747</ele>
        <time>2025-05-11T07:56:17Z</time>
      </trkpt>
      <trkpt lat="45.86343" lon="4.33047">
        <ele>747</ele>
        <time>2025-05-11T07:56:18Z</time>
      </trkpt>
      <trkpt lat="45.8635" lon="4.33045">
        <ele>747</ele>
        <time>2025-05-11T07:56:19Z</time>
      </trkpt>
      <trkpt lat="45.86356" lon="4.33044">
        <ele>747</ele>
        <time>2025-05-11T07:56:20Z</time>
      </trkpt>
      <trkpt lat="45.86362" lon="4.33043">
        <ele>747</ele>
        <time>2025-05-11T07:56:21Z</time>
      </trkpt>
      <trkpt lat="45.86367" lon="4.33043">
        <ele>747</ele>
        <time>2025-05-11T07:56:22Z</time>
      </trkpt>
      <trkpt lat="45.86371" lon="4.33044">
        <ele>747</ele>
        <time>2025-05-11T07:56:23Z</time>
      </trkpt>
      <trkpt lat="45.86375" lon="4.33045">
        <ele>747</ele>
        <time>2025-05-11T07:56:24Z</time>
      </trkpt>
      <trkpt lat="45.86379" lon="4.33046">
        <ele>747</ele>
        <time>2025-05-11T07:56:25Z</time>
      </trkpt>
      <trkpt lat="45.86383" lon="4.33048">
        <ele>747</ele>
        <time>2025-05-11T07:56:26Z</time>
      </trkpt>
      <trkpt lat="45.86387" lon="4.3305">
        <ele>747</ele>
        <time>2025-05-11T07:56:27Z</time>
      </trkpt>
      <trkpt lat="45.86391" lon="4.33052">
        <ele>747</ele>
        <time>2025-05-11T07:56:28Z</time>
      </trkpt>
      <trkpt lat="45.86396" lon="4.33055">
        <ele>747</ele>
        <time>2025-05-11T07:56:29Z</time>
      </trkpt>
      <trkpt lat="45.86401" lon="4.33057">
        <ele>747</ele>
        <time>2025-05-11T07:56:30Z</time>
      </trkpt>
      <trkpt lat="45.86406" lon="4.3306">
        <ele>747</ele>
        <time>2025-05-11T07:56:31Z</time>
      </trkpt>
      <trkpt lat="45.86411" lon="4.33063">
        <ele>747</ele>
        <time>2025-05-11T07:56:32Z</time>
      </trkpt>
      <trkpt lat="45.86415" lon="4.33065">
        <ele>747</ele>
        <time>2025-05-11T07:56:33Z</time>
      </trkpt>
      <trkpt lat="45.86419" lon="4.33067">
        <ele>747</ele>
        <time>2025-05-11T07:56:34Z</time>
      </trkpt>
      <trkpt lat="45.86422" lon="4.3307">
        <ele>747</ele>
        <time>2025-05-11T07:56:35Z</time>
      </trkpt>
      <trkpt lat="45.86426" lon="4.33072">
        <ele>747</ele>
        <time>2025-05-11T07:56:36Z</time>
      </trkpt>
      <trkpt lat="45.86429" lon="4.33074">
        <ele>747</ele>
        <time>2025-05-11T07:56:37Z</time>
      </trkpt>
      <trkpt lat="45.86437" lon="4.33078">
        <ele>747</ele>
        <time>2025-05-11T07:56:39Z</time>
      </trkpt>
      <trkpt lat="45.8644" lon="4.3308">
        <ele>747</ele>
        <time>2025-05-11T07:56:40Z</time>
      </trkpt>
      <trkpt lat="45.86444" lon="4.33082">
        <ele>747</ele>
        <time>2025-05-11T07:56:41Z</time>
      </trkpt>
      <trkpt lat="45.86447" lon="4.33084">
        <ele>747</ele>
        <time>2025-05-11T07:56:42Z</time>
      </trkpt>
      <trkpt lat="45.86451" lon="4.33085">
        <ele>747</ele>
        <time>2025-05-11T07:56:43Z</time>
      </trkpt>
      <trkpt lat="45.86459" lon="4.33086">
        <ele>747</ele>
        <time>2025-05-11T07:56:45Z</time>
      </trkpt>
      <trkpt lat="45.86464" lon="4.33086">
        <ele>746</ele>
        <time>2025-05-11T07:56:46Z</time>
      </trkpt>
      <trkpt lat="45.86468" lon="4.33086">
        <ele>746</ele>
        <time>2025-05-11T07:56:47Z</time>
      </trkpt>
      <trkpt lat="45.86472" lon="4.33086">
        <ele>746</ele>
        <time>2025-05-11T07:56:48Z</time>
      </trkpt>
      <trkpt lat="45.86477" lon="4.33086">
        <ele>746</ele>
        <time>2025-05-11T07:56:49Z</time>
      </trkpt>
      <trkpt lat="45.86481" lon="4.33085">
        <ele>746</ele>
        <time>2025-05-11T07:56:50Z</time>
      </trkpt>
      <trkpt lat="45.86485" lon="4.33085">
        <ele>746</ele>
        <time>2025-05-11T07:56:51Z</time>
      </trkpt>
      <trkpt lat="45.8649" lon="4.33085">
        <ele>746</ele>
        <time>2025-05-11T07:56:52Z</time>
      </trkpt>
      <trkpt lat="45.86495" lon="4.33085">
        <ele>746</ele>
        <time>2025-05-11T07:56:53Z</time>
      </trkpt>
      <trkpt lat="45.865" lon="4.33085">
        <ele>746</ele>
        <time>2025-05-11T07:56:54Z</time>
      </trkpt>
      <trkpt lat="45.86506" lon="4.33084">
        <ele>745</ele>
        <time>2025-05-11T07:56:55Z</time>
      </trkpt>
      <trkpt lat="45.86511" lon="4.33084">
        <ele>745</ele>
        <time>2025-05-11T07:56:56Z</time>
      </trkpt>
      <trkpt lat="45.86516" lon="4.33084">
        <ele>745</ele>
        <time>2025-05-11T07:56:57Z</time>
      </trkpt>
      <trkpt lat="45.86521" lon="4.33084">
        <ele>745</ele>
        <time>2025-05-11T07:56:58Z</time>
      </trkpt>
      <trkpt lat="45.86527" lon="4.33084">
        <ele>745</ele>
        <time>2025-05-11T07:56:59Z</time>
      </trkpt>
      <trkpt lat="45.86532" lon="4.33084">
        <ele>745</ele>
        <time>2025-05-11T07:57:00Z</time>
      </trkpt>
      <trkpt lat="45.86538" lon="4.33084">
        <ele>744</ele>
        <time>2025-05-11T07:57:01Z</time>
      </trkpt>
      <trkpt lat="45.86549" lon="4.33083">
        <ele>743</ele>
        <time>2025-05-11T07:57:03Z</time>
      </trkpt>
      <trkpt lat="45.86554" lon="4.33082">
        <ele>743</ele>
        <time>2025-05-11T07:57:04Z</time>
      </trkpt>
      <trkpt lat="45.86559" lon="4.33082">
        <ele>742</ele>
        <time>2025-05-11T07:57:05Z</time>
      </trkpt>
      <trkpt lat="45.86564" lon="4.33081">
        <ele>742</ele>
        <time>2025-05-11T07:57:06Z</time>
      </trkpt>
      <trkpt lat="45.8657" lon="4.33081">
        <ele>741</ele>
        <time>2025-05-11T07:57:07Z</time>
      </trkpt>
      <trkpt lat="45.86575" lon="4.33081">
        <ele>741</ele>
        <time>2025-05-11T07:57:08Z</time>
      </trkpt>
      <trkpt lat="45.86581" lon="4.33082">
        <ele>740</ele>
        <time>2025-05-11T07:57:09Z</time>
      </trkpt>
      <trkpt lat="45.86586" lon="4.33083">
        <ele>740</ele>
        <time>2025-05-11T07:57:10Z</time>
      </trkpt>
      <trkpt lat="45.86591" lon="4.33084">
        <ele>740</ele>
        <time>2025-05-11T07:57:11Z</time>
      </trkpt>
      <trkpt lat="45.86595" lon="4.33086">
        <ele>739</ele>
        <time>2025-05-11T07:57:12Z</time>
      </trkpt>
      <trkpt lat="45.866" lon="4.33088">
        <ele>739</ele>
        <time>2025-05-11T07:57:13Z</time>
      </trkpt>
      <trkpt lat="45.86606" lon="4.33091">
        <ele>738</ele>
        <time>2025-05-11T07:57:15Z</time>
      </trkpt>
      <trkpt lat="45.86608" lon="4.33093">
        <ele>738</ele>
        <time>2025-05-11T07:57:16Z</time>
      </trkpt>
      <trkpt lat="45.8661" lon="4.33095">
        <ele>738</ele>
        <time>2025-05-11T07:57:17Z</time>
      </trkpt>
      <trkpt lat="45.86612" lon="4.33097">
        <ele>738</ele>
        <time>2025-05-11T07:57:18Z</time>
      </trkpt>
      <trkpt lat="45.86614" lon="4.331">
        <ele>738</ele>
        <time>2025-05-11T07:57:19Z</time>
      </trkpt>
      <trkpt lat="45.86617" lon="4.33102">
        <ele>738</ele>
        <time>2025-05-11T07:57:20Z</time>
      </trkpt>
      <trkpt lat="45.8662" lon="4.33105">
        <ele>738</ele>
        <time>2025-05-11T07:57:21Z</time>
      </trkpt>
      <trkpt lat="45.86624" lon="4.33108">
        <ele>738</ele>
        <time>2025-05-11T07:57:22Z</time>
      </trkpt>
      <trkpt lat="45.86629" lon="4.33111">
        <ele>738</ele>
        <time>2025-05-11T07:57:23Z</time>
      </trkpt>
      <trkpt lat="45.86634" lon="4.33114">
        <ele>738</ele>
        <time>2025-05-11T07:57:24Z</time>
      </trkpt>
      <trkpt lat="45.86639" lon="4.33116">
        <ele>738</ele>
        <time>2025-05-11T07:57:25Z</time>
      </trkpt>
      <trkpt lat="45.86651" lon="4.33119">
        <ele>738</ele>
        <time>2025-05-11T07:57:28Z</time>
      </trkpt>
      <trkpt lat="45.86663" lon="4.33119">
        <ele>736</ele>
        <time>2025-05-11T07:57:32Z</time>
      </trkpt>
      <trkpt lat="45.86671" lon="4.33119">
        <ele>735</ele>
        <time>2025-05-11T07:57:33Z</time>
      </trkpt>
      <trkpt lat="45.86676" lon="4.33119">
        <ele>735</ele>
        <time>2025-05-11T07:57:34Z</time>
      </trkpt>
      <trkpt lat="45.86688" lon="4.33119">
        <ele>734</ele>
        <time>2025-05-11T07:57:36Z</time>
      </trkpt>
      <trkpt lat="45.86695" lon="4.33118">
        <ele>733</ele>
        <time>2025-05-11T07:57:37Z</time>
      </trkpt>
      <trkpt lat="45.86702" lon="4.33117">
        <ele>733</ele>
        <time>2025-05-11T07:57:38Z</time>
      </trkpt>
      <trkpt lat="45.86709" lon="4.33116">
        <ele>732</ele>
        <time>2025-05-11T07:57:39Z</time>
      </trkpt>
      <trkpt lat="45.86721" lon="4.33115">
        <ele>731</ele>
        <time>2025-05-11T07:57:41Z</time>
      </trkpt>
      <trkpt lat="45.86727" lon="4.33114">
        <ele>731</ele>
        <time>2025-05-11T07:57:42Z</time>
      </trkpt>
      <trkpt lat="45.86732" lon="4.33114">
        <ele>731</ele>
        <time>2025-05-11T07:57:43Z</time>
      </trkpt>
      <trkpt lat="45.86737" lon="4.33113">
        <ele>731</ele>
        <time>2025-05-11T07:57:44Z</time>
      </trkpt>
      <trkpt lat="45.86742" lon="4.33112">
        <ele>731</ele>
        <time>2025-05-11T07:57:45Z</time>
      </trkpt>
      <trkpt lat="45.86754" lon="4.3311">
        <ele>731</ele>
        <time>2025-05-11T07:57:48Z</time>
      </trkpt>
      <trkpt lat="45.86765" lon="4.33109">
        <ele>731</ele>
        <time>2025-05-11T07:57:51Z</time>
      </trkpt>
      <trkpt lat="45.86775" lon="4.33112">
        <ele>731</ele>
        <time>2025-05-11T07:57:55Z</time>
      </trkpt>
      <trkpt lat="45.86786" lon="4.33112">
        <ele>731</ele>
        <time>2025-05-11T07:57:58Z</time>
      </trkpt>
      <trkpt lat="45.86795" lon="4.33109">
        <ele>730</ele>
        <time>2025-05-11T07:57:59Z</time>
      </trkpt>
      <trkpt lat="45.86804" lon="4.33105">
        <ele>730</ele>
        <time>2025-05-11T07:58:01Z</time>
      </trkpt>
      <trkpt lat="45.86808" lon="4.33103">
        <ele>729</ele>
        <time>2025-05-11T07:58:02Z</time>
      </trkpt>
      <trkpt lat="45.86812" lon="4.33101">
        <ele>729</ele>
        <time>2025-05-11T07:58:03Z</time>
      </trkpt>
      <trkpt lat="45.86816" lon="4.33099">
        <ele>729</ele>
        <time>2025-05-11T07:58:04Z</time>
      </trkpt>
      <trkpt lat="45.8682" lon="4.33097">
        <ele>728</ele>
        <time>2025-05-11T07:58:05Z</time>
      </trkpt>
      <trkpt lat="45.86829" lon="4.33091">
        <ele>727</ele>
        <time>2025-05-11T07:58:07Z</time>
      </trkpt>
      <trkpt lat="45.86833" lon="4.33089">
        <ele>727</ele>
        <time>2025-05-11T07:58:08Z</time>
      </trkpt>
      <trkpt lat="45.86837" lon="4.33086">
        <ele>726</ele>
        <time>2025-05-11T07:58:09Z</time>
      </trkpt>
      <trkpt lat="45.86841" lon="4.33084">
        <ele>726</ele>
        <time>2025-05-11T07:58:10Z</time>
      </trkpt>
      <trkpt lat="45.86845" lon="4.33081">
        <ele>726</ele>
        <time>2025-05-11T07:58:11Z</time>
      </trkpt>
      <trkpt lat="45.86848" lon="4.33079">
        <ele>725</ele>
        <time>2025-05-11T07:58:12Z</time>
      </trkpt>
      <trkpt lat="45.86852" lon="4.33077">
        <ele>724</ele>
        <time>2025-05-11T07:58:13Z</time>
      </trkpt>
      <trkpt lat="45.86858" lon="4.33072">
        <ele>723</ele>
        <time>2025-05-11T07:58:15Z</time>
      </trkpt>
      <trkpt lat="45.86861" lon="4.33069">
        <ele>722</ele>
        <time>2025-05-11T07:58:16Z</time>
      </trkpt>
      <trkpt lat="45.86864" lon="4.33066">
        <ele>722</ele>
        <time>2025-05-11T07:58:17Z</time>
      </trkpt>
      <trkpt lat="45.8687" lon="4.33059">
        <ele>721</ele>
        <time>2025-05-11T07:58:19Z</time>
      </trkpt>
      <trkpt lat="45.86872" lon="4.33056">
        <ele>721</ele>
        <time>2025-05-11T07:58:20Z</time>
      </trkpt>
      <trkpt lat="45.86875" lon="4.33052">
        <ele>721</ele>
        <time>2025-05-11T07:58:21Z</time>
      </trkpt>
      <trkpt lat="45.8688" lon="4.33045">
        <ele>720</ele>
        <time>2025-05-11T07:58:23Z</time>
      </trkpt>
      <trkpt lat="45.86883" lon="4.33041">
        <ele>719</ele>
        <time>2025-05-11T07:58:24Z</time>
      </trkpt>
      <trkpt lat="45.86887" lon="4.33032">
        <ele>718</ele>
        <time>2025-05-11T07:58:26Z</time>
      </trkpt>
      <trkpt lat="45.86889" lon="4.33027">
        <ele>717</ele>
        <time>2025-05-11T07:58:27Z</time>
      </trkpt>
      <trkpt lat="45.86891" lon="4.33022">
        <ele>717</ele>
        <time>2025-05-11T07:58:28Z</time>
      </trkpt>
      <trkpt lat="45.86893" lon="4.33019">
        <ele>717</ele>
        <time>2025-05-11T07:58:29Z</time>
      </trkpt>
      <trkpt lat="45.86895" lon="4.33016">
        <ele>716</ele>
        <time>2025-05-11T07:58:30Z</time>
      </trkpt>
      <trkpt lat="45.86897" lon="4.33013">
        <ele>716</ele>
        <time>2025-05-11T07:58:31Z</time>
      </trkpt>
      <trkpt lat="45.86899" lon="4.33009">
        <ele>715</ele>
        <time>2025-05-11T07:58:32Z</time>
      </trkpt>
      <trkpt lat="45.86901" lon="4.33006">
        <ele>714</ele>
        <time>2025-05-11T07:58:33Z</time>
      </trkpt>
      <trkpt lat="45.86903" lon="4.33002">
        <ele>713</ele>
        <time>2025-05-11T07:58:34Z</time>
      </trkpt>
      <trkpt lat="45.86906" lon="4.32998">
        <ele>712</ele>
        <time>2025-05-11T07:58:35Z</time>
      </trkpt>
      <trkpt lat="45.86909" lon="4.32993">
        <ele>711</ele>
        <time>2025-05-11T07:58:36Z</time>
      </trkpt>
      <trkpt lat="45.86912" lon="4.32989">
        <ele>710</ele>
        <time>2025-05-11T07:58:37Z</time>
      </trkpt>
      <trkpt lat="45.86916" lon="4.32985">
        <ele>709</ele>
        <time>2025-05-11T07:58:38Z</time>
      </trkpt>
      <trkpt lat="45.86919" lon="4.3298">
        <ele>708</ele>
        <time>2025-05-11T07:58:39Z</time>
      </trkpt>
      <trkpt lat="45.86922" lon="4.32976">
        <ele>707</ele>
        <time>2025-05-11T07:58:40Z</time>
      </trkpt>
      <trkpt lat="45.86925" lon="4.32973">
        <ele>705</ele>
        <time>2025-05-11T07:58:41Z</time>
      </trkpt>
      <trkpt lat="45.86928" lon="4.32969">
        <ele>705</ele>
        <time>2025-05-11T07:58:42Z</time>
      </trkpt>
      <trkpt lat="45.8693" lon="4.32966">
        <ele>704</ele>
        <time>2025-05-11T07:58:43Z</time>
      </trkpt>
      <trkpt lat="45.86933" lon="4.32963">
        <ele>703</ele>
        <time>2025-05-11T07:58:44Z</time>
      </trkpt>
      <trkpt lat="45.86936" lon="4.32959">
        <ele>702</ele>
        <time>2025-05-11T07:58:45Z</time>
      </trkpt>
      <trkpt lat="45.86939" lon="4.32955">
        <ele>701</ele>
        <time>2025-05-11T07:58:46Z</time>
      </trkpt>
      <trkpt lat="45.86942" lon="4.32952">
        <ele>700</ele>
        <time>2025-05-11T07:58:47Z</time>
      </trkpt>
      <trkpt lat="45.86945" lon="4.32948">
        <ele>699</ele>
        <time>2025-05-11T07:58:48Z</time>
      </trkpt>
      <trkpt lat="45.86948" lon="4.32944">
        <ele>699</ele>
        <time>2025-05-11T07:58:49Z</time>
      </trkpt>
      <trkpt lat="45.86951" lon="4.3294">
        <ele>698</ele>
        <time>2025-05-11T07:58:50Z</time>
      </trkpt>
      <trkpt lat="45.86954" lon="4.32937">
        <ele>697</ele>
        <time>2025-05-11T07:58:51Z</time>
      </trkpt>
      <trkpt lat="45.86959" lon="4.32929">
        <ele>696</ele>
        <time>2025-05-11T07:58:53Z</time>
      </trkpt>
      <trkpt lat="45.86962" lon="4.32925">
        <ele>695</ele>
        <time>2025-05-11T07:58:54Z</time>
      </trkpt>
      <trkpt lat="45.86965" lon="4.32921">
        <ele>694</ele>
        <time>2025-05-11T07:58:55Z</time>
      </trkpt>
      <trkpt lat="45.86968" lon="4.32917">
        <ele>694</ele>
        <time>2025-05-11T07:58:56Z</time>
      </trkpt>
      <trkpt lat="45.8697" lon="4.32912">
        <ele>693</ele>
        <time>2025-05-11T07:58:57Z</time>
      </trkpt>
      <trkpt lat="45.86973" lon="4.32909">
        <ele>693</ele>
        <time>2025-05-11T07:58:58Z</time>
      </trkpt>
      <trkpt lat="45.86975" lon="4.32905">
        <ele>693</ele>
        <time>2025-05-11T07:58:59Z</time>
      </trkpt>
      <trkpt lat="45.86977" lon="4.32901">
        <ele>692</ele>
        <time>2025-05-11T07:59:00Z</time>
      </trkpt>
      <trkpt lat="45.86979" lon="4.32897">
        <ele>692</ele>
        <time>2025-05-11T07:59:01Z</time>
      </trkpt>
      <trkpt lat="45.86985" lon="4.32883">
        <ele>691</ele>
        <time>2025-05-11T07:59:04Z</time>
      </trkpt>
      <trkpt lat="45.86991" lon="4.32871">
        <ele>690</ele>
        <time>2025-05-11T07:59:07Z</time>
      </trkpt>
      <trkpt lat="45.86998" lon="4.32857">
        <ele>689</ele>
        <time>2025-05-11T07:59:10Z</time>
      </trkpt>
      <trkpt lat="45.87001" lon="4.32853">
        <ele>689</ele>
        <time>2025-05-11T07:59:11Z</time>
      </trkpt>
      <trkpt lat="45.87003" lon="4.32851">
        <ele>688</ele>
        <time>2025-05-11T07:59:12Z</time>
      </trkpt>
      <trkpt lat="45.87005" lon="4.32849">
        <ele>688</ele>
        <time>2025-05-11T07:59:13Z</time>
      </trkpt>
      <trkpt lat="45.87007" lon="4.32847">
        <ele>687</ele>
        <time>2025-05-11T07:59:14Z</time>
      </trkpt>
      <trkpt lat="45.87009" lon="4.32845">
        <ele>686</ele>
        <time>2025-05-11T07:59:15Z</time>
      </trkpt>
      <trkpt lat="45.87011" lon="4.32844">
        <ele>685</ele>
        <time>2025-05-11T07:59:16Z</time>
      </trkpt>
      <trkpt lat="45.87013" lon="4.32842">
        <ele>684</ele>
        <time>2025-05-11T07:59:17Z</time>
      </trkpt>
      <trkpt lat="45.87016" lon="4.32842">
        <ele>683</ele>
        <time>2025-05-11T07:59:18Z</time>
      </trkpt>
      <trkpt lat="45.87018" lon="4.3284">
        <ele>682</ele>
        <time>2025-05-11T07:59:19Z</time>
      </trkpt>
      <trkpt lat="45.8702" lon="4.32839">
        <ele>682</ele>
        <time>2025-05-11T07:59:20Z</time>
      </trkpt>
      <trkpt lat="45.87021" lon="4.32839">
        <ele>681</ele>
        <time>2025-05-11T07:59:21Z</time>
      </trkpt>
      <trkpt lat="45.87024" lon="4.32837">
        <ele>680</ele>
        <time>2025-05-11T07:59:23Z</time>
      </trkpt>
      <trkpt lat="45.87026" lon="4.32835">
        <ele>679</ele>
        <time>2025-05-11T07:59:25Z</time>
      </trkpt>
      <trkpt lat="45.87028" lon="4.32834">
        <ele>678</ele>
        <time>2025-05-11T07:59:28Z</time>
      </trkpt>
      <trkpt lat="45.8703" lon="4.32834">
        <ele>677</ele>
        <time>2025-05-11T07:59:31Z</time>
      </trkpt>
      <trkpt lat="45.87033" lon="4.32836">
        <ele>675</ele>
        <time>2025-05-11T07:59:34Z</time>
      </trkpt>
      <trkpt lat="45.87034" lon="4.3284">
        <ele>673</ele>
        <time>2025-05-11T07:59:40Z</time>
      </trkpt>
      <trkpt lat="45.87036" lon="4.32846">
        <ele>672</ele>
        <time>2025-05-11T07:59:42Z</time>
      </trkpt>
      <trkpt lat="45.87037" lon="4.3285">
        <ele>671</ele>
        <time>2025-05-11T07:59:43Z</time>
      </trkpt>
      <trkpt lat="45.87038" lon="4.32854">
        <ele>671</ele>
        <time>2025-05-11T07:59:44Z</time>
      </trkpt>
      <trkpt lat="45.87041" lon="4.32866">
        <ele>670</ele>
        <time>2025-05-11T07:59:46Z</time>
      </trkpt>
      <trkpt lat="45.87044" lon="4.32873">
        <ele>670</ele>
        <time>2025-05-11T07:59:47Z</time>
      </trkpt>
      <trkpt lat="45.87047" lon="4.32881">
        <ele>670</ele>
        <time>2025-05-11T07:59:48Z</time>
      </trkpt>
      <trkpt lat="45.8705" lon="4.32888">
        <ele>669</ele>
        <time>2025-05-11T07:59:49Z</time>
      </trkpt>
      <trkpt lat="45.87054" lon="4.32895">
        <ele>669</ele>
        <time>2025-05-11T07:59:50Z</time>
      </trkpt>
      <trkpt lat="45.87058" lon="4.32902">
        <ele>668</ele>
        <time>2025-05-11T07:59:51Z</time>
      </trkpt>
      <trkpt lat="45.87063" lon="4.32908">
        <ele>668</ele>
        <time>2025-05-11T07:59:52Z</time>
      </trkpt>
      <trkpt lat="45.87069" lon="4.32913">
        <ele>667</ele>
        <time>2025-05-11T07:59:53Z</time>
      </trkpt>
      <trkpt lat="45.87075" lon="4.32918">
        <ele>667</ele>
        <time>2025-05-11T07:59:54Z</time>
      </trkpt>
      <trkpt lat="45.87081" lon="4.32923">
        <ele>667</ele>
        <time>2025-05-11T07:59:55Z</time>
      </trkpt>
      <trkpt lat="45.87094" lon="4.32929">
        <ele>666</ele>
        <time>2025-05-11T07:59:57Z</time>
      </trkpt>
      <trkpt lat="45.87099" lon="4.32931">
        <ele>665</ele>
        <time>2025-05-11T07:59:58Z</time>
      </trkpt>
      <trkpt lat="45.87103" lon="4.32931">
        <ele>665</ele>
        <time>2025-05-11T07:59:59Z</time>
      </trkpt>
      <trkpt lat="45.87107" lon="4.3293">
        <ele>665</ele>
        <time>2025-05-11T08:00:00Z</time>
      </trkpt>
      <trkpt lat="45.8711" lon="4.32929">
        <ele>665</ele>
        <time>2025-05-11T08:00:01Z</time>
      </trkpt>
      <trkpt lat="45.87114" lon="4.32928">
        <ele>664</ele>
        <time>2025-05-11T08:00:02Z</time>
      </trkpt>
      <trkpt lat="45.87117" lon="4.32925">
        <ele>664</ele>
        <time>2025-05-11T08:00:03Z</time>
      </trkpt>
      <trkpt lat="45.87121" lon="4.32922">
        <ele>663</ele>
        <time>2025-05-11T08:00:04Z</time>
      </trkpt>
      <trkpt lat="45.87125" lon="4.32919">
        <ele>663</ele>
        <time>2025-05-11T08:00:05Z</time>
      </trkpt>
      <trkpt lat="45.87131" lon="4.32914">
        <ele>663</ele>
        <time>2025-05-11T08:00:06Z</time>
      </trkpt>
      <trkpt lat="45.87137" lon="4.32908">
        <ele>663</ele>
        <time>2025-05-11T08:00:07Z</time>
      </trkpt>
      <trkpt lat="45.87144" lon="4.32902">
        <ele>662</ele>
        <time>2025-05-11T08:00:08Z</time>
      </trkpt>
      <trkpt lat="45.87151" lon="4.32896">
        <ele>662</ele>
        <time>2025-05-11T08:00:09Z</time>
      </trkpt>
      <trkpt lat="45.87158" lon="4.32889">
        <ele>662</ele>
        <time>2025-05-11T08:00:10Z</time>
      </trkpt>
      <trkpt lat="45.87164" lon="4.32881">
        <ele>662</ele>
        <time>2025-05-11T08:00:11Z</time>
      </trkpt>
      <trkpt lat="45.87171" lon="4.32872">
        <ele>662</ele>
        <time>2025-05-11T08:00:12Z</time>
      </trkpt>
      <trkpt lat="45.87177" lon="4.32864">
        <ele>663</ele>
        <time>2025-05-11T08:00:13Z</time>
      </trkpt>
      <trkpt lat="45.87182" lon="4.32856">
        <ele>663</ele>
        <time>2025-05-11T08:00:14Z</time>
      </trkpt>
      <trkpt lat="45.87188" lon="4.3285">
        <ele>663</ele>
        <time>2025-05-11T08:00:15Z</time>
      </trkpt>
      <trkpt lat="45.87193" lon="4.32846">
        <ele>663</ele>
        <time>2025-05-11T08:00:16Z</time>
      </trkpt>
      <trkpt lat="45.87198" lon="4.32843">
        <ele>663</ele>
        <time>2025-05-11T08:00:17Z</time>
      </trkpt>
      <trkpt lat="45.87204" lon="4.32842">
        <ele>663</ele>
        <time>2025-05-11T08:00:18Z</time>
      </trkpt>
      <trkpt lat="45.87209" lon="4.32843">
        <ele>663</ele>
        <time>2025-05-11T08:00:19Z</time>
      </trkpt>
      <trkpt lat="45.87214" lon="4.32846">
        <ele>663</ele>
        <time>2025-05-11T08:00:20Z</time>
      </trkpt>
      <trkpt lat="45.87219" lon="4.3285">
        <ele>663</ele>
        <time>2025-05-11T08:00:21Z</time>
      </trkpt>
      <trkpt lat="45.87224" lon="4.32855">
        <ele>664</ele>
        <time>2025-05-11T08:00:22Z</time>
      </trkpt>
      <trkpt lat="45.87229" lon="4.3286">
        <ele>664</ele>
        <time>2025-05-11T08:00:23Z</time>
      </trkpt>
      <trkpt lat="45.87234" lon="4.32865">
        <ele>664</ele>
        <time>2025-05-11T08:00:24Z</time>
      </trkpt>
      <trkpt lat="45.8724" lon="4.32869">
        <ele>664</ele>
        <time>2025-05-11T08:00:25Z</time>
      </trkpt>
      <trkpt lat="45.87246" lon="4.32872">
        <ele>664</ele>
        <time>2025-05-11T08:00:26Z</time>
      </trkpt>
      <trkpt lat="45.87252" lon="4.32874">
        <ele>665</ele>
        <time>2025-05-11T08:00:27Z</time>
      </trkpt>
      <trkpt lat="45.87264" lon="4.32878">
        <ele>666</ele>
        <time>2025-05-11T08:00:29Z</time>
      </trkpt>
      <trkpt lat="45.87269" lon="4.3288">
        <ele>666</ele>
        <time>2025-05-11T08:00:30Z</time>
      </trkpt>
      <trkpt lat="45.87274" lon="4.32881">
        <ele>666</ele>
        <time>2025-05-11T08:00:31Z</time>
      </trkpt>
      <trkpt lat="45.87278" lon="4.32883">
        <ele>667</ele>
        <time>2025-05-11T08:00:32Z</time>
      </trkpt>
      <trkpt lat="45.87282" lon="4.32886">
        <ele>667</ele>
        <time>2025-05-11T08:00:33Z</time>
      </trkpt>
      <trkpt lat="45.87285" lon="4.32889">
        <ele>667</ele>
        <time>2025-05-11T08:00:34Z</time>
      </trkpt>
      <trkpt lat="45.87291" lon="4.32895">
        <ele>668</ele>
        <time>2025-05-11T08:00:36Z</time>
      </trkpt>
      <trkpt lat="45.87296" lon="4.32897">
        <ele>668</ele>
        <time>2025-05-11T08:00:37Z</time>
      </trkpt>
      <trkpt lat="45.873" lon="4.32899">
        <ele>668</ele>
        <time>2025-05-11T08:00:38Z</time>
      </trkpt>
      <trkpt lat="45.87307" lon="4.32899">
        <ele>668</ele>
        <time>2025-05-11T08:00:39Z</time>
      </trkpt>
      <trkpt lat="45.87323" lon="4.32897">
        <ele>669</ele>
        <time>2025-05-11T08:00:41Z</time>
      </trkpt>
      <trkpt lat="45.87333" lon="4.32895">
        <ele>669</ele>
        <time>2025-05-11T08:00:42Z</time>
      </trkpt>
      <trkpt lat="45.87344" lon="4.32892">
        <ele>670</ele>
        <time>2025-05-11T08:00:43Z</time>
      </trkpt>
      <trkpt lat="45.87354" lon="4.32889">
        <ele>670</ele>
        <time>2025-05-11T08:00:44Z</time>
      </trkpt>
      <trkpt lat="45.87377" lon="4.32885">
        <ele>671</ele>
        <time>2025-05-11T08:00:46Z</time>
      </trkpt>
      <trkpt lat="45.87399" lon="4.3288">
        <ele>674</ele>
        <time>2025-05-11T08:00:48Z</time>
      </trkpt>
      <trkpt lat="45.87409" lon="4.32879">
        <ele>675</ele>
        <time>2025-05-11T08:00:49Z</time>
      </trkpt>
      <trkpt lat="45.87418" lon="4.32877">
        <ele>676</ele>
        <time>2025-05-11T08:00:50Z</time>
      </trkpt>
      <trkpt lat="45.87426" lon="4.32876">
        <ele>677</ele>
        <time>2025-05-11T08:00:51Z</time>
      </trkpt>
      <trkpt lat="45.87434" lon="4.32875">
        <ele>678</ele>
        <time>2025-05-11T08:00:52Z</time>
      </trkpt>
      <trkpt lat="45.87449" lon="4.32875">
        <ele>680</ele>
        <time>2025-05-11T08:00:54Z</time>
      </trkpt>
      <trkpt lat="45.87456" lon="4.32877">
        <ele>680</ele>
        <time>2025-05-11T08:00:55Z</time>
      </trkpt>
      <trkpt lat="45.87463" lon="4.32879">
        <ele>681</ele>
        <time>2025-05-11T08:00:56Z</time>
      </trkpt>
      <trkpt lat="45.8747" lon="4.32881">
        <ele>682</ele>
        <time>2025-05-11T08:00:57Z</time>
      </trkpt>
      <trkpt lat="45.87478" lon="4.32883">
        <ele>684</ele>
        <time>2025-05-11T08:00:59Z</time>
      </trkpt>
      <trkpt lat="45.87491" lon="4.32887">
        <ele>685</ele>
        <time>2025-05-11T08:01:00Z</time>
      </trkpt>
      <trkpt lat="45.87498" lon="4.32889">
        <ele>686</ele>
        <time>2025-05-11T08:01:01Z</time>
      </trkpt>
      <trkpt lat="45.87505" lon="4.32891">
        <ele>687</ele>
        <time>2025-05-11T08:01:02Z</time>
      </trkpt>
      <trkpt lat="45.87512" lon="4.32891">
        <ele>688</ele>
        <time>2025-05-11T08:01:03Z</time>
      </trkpt>
      <trkpt lat="45.87518" lon="4.32892">
        <ele>689</ele>
        <time>2025-05-11T08:01:04Z</time>
      </trkpt>
      <trkpt lat="45.87524" lon="4.32892">
        <ele>689</ele>
        <time>2025-05-11T08:01:05Z</time>
      </trkpt>
      <trkpt lat="45.87529" lon="4.32891">
        <ele>690</ele>
        <time>2025-05-11T08:01:06Z</time>
      </trkpt>
      <trkpt lat="45.87535" lon="4.3289">
        <ele>691</ele>
        <time>2025-05-11T08:01:07Z</time>
      </trkpt>
      <trkpt lat="45.8754" lon="4.32889">
        <ele>692</ele>
        <time>2025-05-11T08:01:08Z</time>
      </trkpt>
      <trkpt lat="45.87546" lon="4.32889">
        <ele>693</ele>
        <time>2025-05-11T08:01:09Z</time>
      </trkpt>
      <trkpt lat="45.87551" lon="4.32888">
        <ele>694</ele>
        <time>2025-05-11T08:01:10Z</time>
      </trkpt>
      <trkpt lat="45.87557" lon="4.32887">
        <ele>695</ele>
        <time>2025-05-11T08:01:11Z</time>
      </trkpt>
      <trkpt lat="45.87562" lon="4.32886">
        <ele>696</ele>
        <time>2025-05-11T08:01:12Z</time>
      </trkpt>
      <trkpt lat="45.87572" lon="4.32886">
        <ele>697</ele>
        <time>2025-05-11T08:01:14Z</time>
      </trkpt>
      <trkpt lat="45.87578" lon="4.32886">
        <ele>698</ele>
        <time>2025-05-11T08:01:15Z</time>
      </trkpt>
      <trkpt lat="45.87588" lon="4.32886">
        <ele>699</ele>
        <time>2025-05-11T08:01:17Z</time>
      </trkpt>
      <trkpt lat="45.87594" lon="4.32886">
        <ele>699</ele>
        <time>2025-05-11T08:01:18Z</time>
      </trkpt>
      <trkpt lat="45.87599" lon="4.32887">
        <ele>700</ele>
        <time>2025-05-11T08:01:19Z</time>
      </trkpt>
      <trkpt lat="45.87604" lon="4.32889">
        <ele>701</ele>
        <time>2025-05-11T08:01:20Z</time>
      </trkpt>
      <trkpt lat="45.87609" lon="4.32892">
        <ele>701</ele>
        <time>2025-05-11T08:01:21Z</time>
      </trkpt>
      <trkpt lat="45.87614" lon="4.32895">
        <ele>702</ele>
        <time>2025-05-11T08:01:22Z</time>
      </trkpt>
      <trkpt lat="45.87618" lon="4.329">
        <ele>703</ele>
        <time>2025-05-11T08:01:23Z</time>
      </trkpt>
      <trkpt lat="45.87625" lon="4.32909">
        <ele>704</ele>
        <time>2025-05-11T08:01:25Z</time>
      </trkpt>
      <trkpt lat="45.87628" lon="4.32913">
        <ele>705</ele>
        <time>2025-05-11T08:01:26Z</time>
      </trkpt>
      <trkpt lat="45.8763" lon="4.32917">
        <ele>706</ele>
        <time>2025-05-11T08:01:27Z</time>
      </trkpt>
      <trkpt lat="45.87633" lon="4.32921">
        <ele>706</ele>
        <time>2025-05-11T08:01:28Z</time>
      </trkpt>
      <trkpt lat="45.87636" lon="4.32924">
        <ele>707</ele>
        <time>2025-05-11T08:01:29Z</time>
      </trkpt>
      <trkpt lat="45.87638" lon="4.32928">
        <ele>708</ele>
        <time>2025-05-11T08:01:30Z</time>
      </trkpt>
      <trkpt lat="45.87641" lon="4.32931">
        <ele>708</ele>
        <time>2025-05-11T08:01:31Z</time>
      </trkpt>
      <trkpt lat="45.87642" lon="4.32933">
        <ele>719</ele>
        <time>2025-05-11T08:05:10Z</time>
      </trkpt>
      <trkpt lat="45.87647" lon="4.32947">
        <ele>741</ele>
        <time>2025-05-11T08:14:31Z</time>
      </trkpt>
      <trkpt lat="45.87651" lon="4.32949">
        <ele>740</ele>
        <time>2025-05-11T08:14:32Z</time>
      </trkpt>
      <trkpt lat="45.87655" lon="4.32951">
        <ele>740</ele>
        <time>2025-05-11T08:14:33Z</time>
      </trkpt>
      <trkpt lat="45.87658" lon="4.32953">
        <ele>740</ele>
        <time>2025-05-11T08:14:34Z</time>
      </trkpt>
      <trkpt lat="45.87662" lon="4.32956">
        <ele>739</ele>
        <time>2025-05-11T08:14:35Z</time>
      </trkpt>
      <trkpt lat="45.87666" lon="4.32958">
        <ele>739</ele>
        <time>2025-05-11T08:14:36Z</time>
      </trkpt>
      <trkpt lat="45.8767" lon="4.32961">
        <ele>738</ele>
        <time>2025-05-11T08:14:37Z</time>
      </trkpt>
      <trkpt lat="45.87674" lon="4.32965">
        <ele>738</ele>
        <time>2025-05-11T08:14:38Z</time>
      </trkpt>
      <trkpt lat="45.87678" lon="4.32969">
        <ele>738</ele>
        <time>2025-05-11T08:14:39Z</time>
      </trkpt>
      <trkpt lat="45.87681" lon="4.32972">
        <ele>738</ele>
        <time>2025-05-11T08:14:40Z</time>
      </trkpt>
      <trkpt lat="45.87685" lon="4.32976">
        <ele>738</ele>
        <time>2025-05-11T08:14:41Z</time>
      </trkpt>
      <trkpt lat="45.87688" lon="4.32979">
        <ele>737</ele>
        <time>2025-05-11T08:14:42Z</time>
      </trkpt>
      <trkpt lat="45.87692" lon="4.32983">
        <ele>737</ele>
        <time>2025-05-11T08:14:43Z</time>
      </trkpt>
      <trkpt lat="45.87696" lon="4.32987">
        <ele>737</ele>
        <time>2025-05-11T08:14:44Z</time>
      </trkpt>
      <trkpt lat="45.87699" lon="4.32991">
        <ele>736</ele>
        <time>2025-05-11T08:14:45Z</time>
      </trkpt>
      <trkpt lat="45.87702" lon="4.32995">
        <ele>735</ele>
        <time>2025-05-11T08:14:46Z</time>
      </trkpt>
      <trkpt lat="45.87705" lon="4.32998">
        <ele>735</ele>
        <time>2025-05-11T08:14:47Z</time>
      </trkpt>
      <trkpt lat="45.87708" lon="4.33002">
        <ele>734</ele>
        <time>2025-05-11T08:14:48Z</time>
      </trkpt>
      <trkpt lat="45.87711" lon="4.33006">
        <ele>734</ele>
        <time>2025-05-11T08:14:49Z</time>
      </trkpt>
      <trkpt lat="45.87714" lon="4.33009">
        <ele>733</ele>
        <time>2025-05-11T08:14:50Z</time>
      </trkpt>
      <trkpt lat="45.87718" lon="4.33013">
        <ele>733</ele>
        <time>2025-05-11T08:14:51Z</time>
      </trkpt>
      <trkpt lat="45.87722" lon="4.33018">
        <ele>733</ele>
        <time>2025-05-11T08:14:52Z</time>
      </trkpt>
      <trkpt lat="45.87727" lon="4.33023">
        <ele>732</ele>
        <time>2025-05-11T08:14:53Z</time>
      </trkpt>
      <trkpt lat="45.87731" lon="4.33027">
        <ele>731</ele>
        <time>2025-05-11T08:14:54Z</time>
      </trkpt>
      <trkpt lat="45.87735" lon="4.33032">
        <ele>730</ele>
        <time>2025-05-11T08:14:55Z</time>
      </trkpt>
      <trkpt lat="45.87739" lon="4.33036">
        <ele>730</ele>
        <time>2025-05-11T08:14:56Z</time>
      </trkpt>
      <trkpt lat="45.87744" lon="4.3304">
        <ele>729</ele>
        <time>2025-05-11T08:14:57Z</time>
      </trkpt>
      <trkpt lat="45.87748" lon="4.33044">
        <ele>729</ele>
        <time>2025-05-11T08:14:58Z</time>
      </trkpt>
      <trkpt lat="45.87752" lon="4.33048">
        <ele>728</ele>
        <time>2025-05-11T08:14:59Z</time>
      </trkpt>
      <trkpt lat="45.87757" lon="4.33051">
        <ele>728</ele>
        <time>2025-05-11T08:15:00Z</time>
      </trkpt>
      <trkpt lat="45.87763" lon="4.33054">
        <ele>727</ele>
        <time>2025-05-11T08:15:01Z</time>
      </trkpt>
      <trkpt lat="45.87768" lon="4.33057">
        <ele>727</ele>
        <time>2025-05-11T08:15:02Z</time>
      </trkpt>
      <trkpt lat="45.87773" lon="4.3306">
        <ele>726</ele>
        <time>2025-05-11T08:15:03Z</time>
      </trkpt>
      <trkpt lat="45.87778" lon="4.33064">
        <ele>726</ele>
        <time>2025-05-11T08:15:04Z</time>
      </trkpt>
      <trkpt lat="45.87783" lon="4.33067">
        <ele>726</ele>
        <time>2025-05-11T08:15:05Z</time>
      </trkpt>
      <trkpt lat="45.87788" lon="4.33071">
        <ele>726</ele>
        <time>2025-05-11T08:15:06Z</time>
      </trkpt>
      <trkpt lat="45.87792" lon="4.33074">
        <ele>725</ele>
        <time>2025-05-11T08:15:07Z</time>
      </trkpt>
      <trkpt lat="45.87797" lon="4.33078">
        <ele>725</ele>
        <time>2025-05-11T08:15:08Z</time>
      </trkpt>
      <trkpt lat="45.87802" lon="4.33081">
        <ele>725</ele>
        <time>2025-05-11T08:15:09Z</time>
      </trkpt>
      <trkpt lat="45.87807" lon="4.33085">
        <ele>725</ele>
        <time>2025-05-11T08:15:10Z</time>
      </trkpt>
      <trkpt lat="45.87812" lon="4.3309">
        <ele>725</ele>
        <time>2025-05-11T08:15:11Z</time>
      </trkpt>
      <trkpt lat="45.87823" lon="4.33101">
        <ele>724</ele>
        <time>2025-05-11T08:15:13Z</time>
      </trkpt>
      <trkpt lat="45.87828" lon="4.33107">
        <ele>724</ele>
        <time>2025-05-11T08:15:14Z</time>
      </trkpt>
      <trkpt lat="45.87834" lon="4.33113">
        <ele>724</ele>
        <time>2025-05-11T08:15:15Z</time>
      </trkpt>
      <trkpt lat="45.8784" lon="4.33119">
        <ele>723</ele>
        <time>2025-05-11T08:15:16Z</time>
      </trkpt>
      <trkpt lat="45.87852" lon="4.33129">
        <ele>723</ele>
        <time>2025-05-11T08:15:18Z</time>
      </trkpt>
      <trkpt lat="45.87858" lon="4.33134">
        <ele>723</ele>
        <time>2025-05-11T08:15:19Z</time>
      </trkpt>
      <trkpt lat="45.8787" lon="4.33143">
        <ele>722</ele>
        <time>2025-05-11T08:15:21Z</time>
      </trkpt>
      <trkpt lat="45.87875" lon="4.33147">
        <ele>722</ele>
        <time>2025-05-11T08:15:22Z</time>
      </trkpt>
      <trkpt lat="45.87886" lon="4.33154">
        <ele>722</ele>
        <time>2025-05-11T08:15:24Z</time>
      </trkpt>
      <trkpt lat="45.87892" lon="4.33156">
        <ele>722</ele>
        <time>2025-05-11T08:15:25Z</time>
      </trkpt>
      <trkpt lat="45.87899" lon="4.33157">
        <ele>722</ele>
        <time>2025-05-11T08:15:26Z</time>
      </trkpt>
      <trkpt lat="45.87906" lon="4.33157">
        <ele>722</ele>
        <time>2025-05-11T08:15:27Z</time>
      </trkpt>
      <trkpt lat="45.87913" lon="4.33157">
        <ele>722</ele>
        <time>2025-05-11T08:15:28Z</time>
      </trkpt>
      <trkpt lat="45.8792" lon="4.33157">
        <ele>722</ele>
        <time>2025-05-11T08:15:29Z</time>
      </trkpt>
      <trkpt lat="45.87928" lon="4.33158">
        <ele>722</ele>
        <time>2025-05-11T08:15:30Z</time>
      </trkpt>
      <trkpt lat="45.87944" lon="4.33157">
        <ele>722</ele>
        <time>2025-05-11T08:15:32Z</time>
      </trkpt>
      <trkpt lat="45.87952" lon="4.33156">
        <ele>722</ele>
        <time>2025-05-11T08:15:33Z</time>
      </trkpt>
      <trkpt lat="45.8796" lon="4.33156">
        <ele>722</ele>
        <time>2025-05-11T08:15:34Z</time>
      </trkpt>
      <trkpt lat="45.87968" lon="4.33156">
        <ele>722</ele>
        <time>2025-05-11T08:15:35Z</time>
      </trkpt>
      <trkpt lat="45.87975" lon="4.33157">
        <ele>722</ele>
        <time>2025-05-11T08:15:36Z</time>
      </trkpt>
      <trkpt lat="45.87982" lon="4.33157">
        <ele>721</ele>
        <time>2025-05-11T08:15:37Z</time>
      </trkpt>
      <trkpt lat="45.87989" lon="4.33159">
        <ele>721</ele>
        <time>2025-05-11T08:15:38Z</time>
      </trkpt>
      <trkpt lat="45.87995" lon="4.33161">
        <ele>721</ele>
        <time>2025-05-11T08:15:39Z</time>
      </trkpt>
      <trkpt lat="45.88001" lon="4.33164">
        <ele>721</ele>
        <time>2025-05-11T08:15:40Z</time>
      </trkpt>
      <trkpt lat="45.88006" lon="4.33167">
        <ele>721</ele>
        <time>2025-05-11T08:15:41Z</time>
      </trkpt>
      <trkpt lat="45.88011" lon="4.33172">
        <ele>721</ele>
        <time>2025-05-11T08:15:42Z</time>
      </trkpt>
      <trkpt lat="45.88016" lon="4.33176">
        <ele>721</ele>
        <time>2025-05-11T08:15:43Z</time>
      </trkpt>
      <trkpt lat="45.8802" lon="4.33182">
        <ele>721</ele>
        <time>2025-05-11T08:15:44Z</time>
      </trkpt>
      <trkpt lat="45.88023" lon="4.33186">
        <ele>721</ele>
        <time>2025-05-11T08:15:45Z</time>
      </trkpt>
      <trkpt lat="45.88027" lon="4.33191">
        <ele>721</ele>
        <time>2025-05-11T08:15:46Z</time>
      </trkpt>
      <trkpt lat="45.88031" lon="4.33194">
        <ele>721</ele>
        <time>2025-05-11T08:15:47Z</time>
      </trkpt>
      <trkpt lat="45.88036" lon="4.33197">
        <ele>721</ele>
        <time>2025-05-11T08:15:48Z</time>
      </trkpt>
      <trkpt lat="45.88041" lon="4.33198">
        <ele>721</ele>
        <time>2025-05-11T08:15:49Z</time>
      </trkpt>
      <trkpt lat="45.88046" lon="4.33198">
        <ele>722</ele>
        <time>2025-05-11T08:15:50Z</time>
      </trkpt>
      <trkpt lat="45.8805" lon="4.33198">
        <ele>722</ele>
        <time>2025-05-11T08:15:51Z</time>
      </trkpt>
      <trkpt lat="45.88055" lon="4.33197">
        <ele>722</ele>
        <time>2025-05-11T08:15:52Z</time>
      </trkpt>
      <trkpt lat="45.8806" lon="4.33195">
        <ele>723</ele>
        <time>2025-05-11T08:15:53Z</time>
      </trkpt>
      <trkpt lat="45.88066" lon="4.33194">
        <ele>723</ele>
        <time>2025-05-11T08:15:54Z</time>
      </trkpt>
      <trkpt lat="45.88071" lon="4.33191">
        <ele>723</ele>
        <time>2025-05-11T08:15:55Z</time>
      </trkpt>
      <trkpt lat="45.88076" lon="4.33189">
        <ele>723</ele>
        <time>2025-05-11T08:15:56Z</time>
      </trkpt>
      <trkpt lat="45.8808" lon="4.33185">
        <ele>724</ele>
        <time>2025-05-11T08:15:57Z</time>
      </trkpt>
      <trkpt lat="45.88083" lon="4.33182">
        <ele>724</ele>
        <time>2025-05-11T08:15:58Z</time>
      </trkpt>
      <trkpt lat="45.88085" lon="4.33181">
        <ele>725</ele>
        <time>2025-05-11T08:15:59Z</time>
      </trkpt>
      <trkpt lat="45.88088" lon="4.33179">
        <ele>725</ele>
        <time>2025-05-11T08:16:01Z</time>
      </trkpt>
      <trkpt lat="45.88088" lon="4.33176">
        <ele>727</ele>
        <time>2025-05-11T08:16:26Z</time>
      </trkpt>
      <trkpt lat="45.88086" lon="4.33174">
        <ele>729</ele>
        <time>2025-05-11T08:18:05Z</time>
      </trkpt>
      <trkpt lat="45.88087" lon="4.33176">
        <ele>730</ele>
        <time>2025-05-11T08:19:10Z</time>
      </trkpt>
      <trkpt lat="45.8809" lon="4.3318">
        <ele>730</ele>
        <time>2025-05-11T08:19:12Z</time>
      </trkpt>
      <trkpt lat="45.8809" lon="4.33184">
        <ele>730</ele>
        <time>2025-05-11T08:19:13Z</time>
      </trkpt>
      <trkpt lat="45.8809" lon="4.33187">
        <ele>731</ele>
        <time>2025-05-11T08:19:14Z</time>
      </trkpt>
      <trkpt lat="45.88089" lon="4.33191">
        <ele>731</ele>
        <time>2025-05-11T08:19:15Z</time>
      </trkpt>
      <trkpt lat="45.88088" lon="4.33195">
        <ele>731</ele>
        <time>2025-05-11T08:19:16Z</time>
      </trkpt>
      <trkpt lat="45.88088" lon="4.33199">
        <ele>731</ele>
        <time>2025-05-11T08:19:17Z</time>
      </trkpt>
      <trkpt lat="45.88089" lon="4.33204">
        <ele>731</ele>
        <time>2025-05-11T08:19:18Z</time>
      </trkpt>
      <trkpt lat="45.8809" lon="4.33209">
        <ele>731</ele>
        <time>2025-05-11T08:19:19Z</time>
      </trkpt>
      <trkpt lat="45.88091" lon="4.33214">
        <ele>731</ele>
        <time>2025-05-11T08:19:20Z</time>
      </trkpt>
      <trkpt lat="45.88093" lon="4.33218">
        <ele>731</ele>
        <time>2025-05-11T08:19:21Z</time>
      </trkpt>
      <trkpt lat="45.88098" lon="4.33224">
        <ele>731</ele>
        <time>2025-05-11T08:19:23Z</time>
      </trkpt>
      <trkpt lat="45.88101" lon="4.33227">
        <ele>731</ele>
        <time>2025-05-11T08:19:24Z</time>
      </trkpt>
      <trkpt lat="45.88105" lon="4.33228">
        <ele>732</ele>
        <time>2025-05-11T08:19:25Z</time>
      </trkpt>
      <trkpt lat="45.88108" lon="4.3323">
        <ele>732</ele>
        <time>2025-05-11T08:19:26Z</time>
      </trkpt>
      <trkpt lat="45.88112" lon="4.33231">
        <ele>732</ele>
        <time>2025-05-11T08:19:27Z</time>
      </trkpt>
      <trkpt lat="45.88115" lon="4.33232">
        <ele>732</ele>
        <time>2025-05-11T08:19:28Z</time>
      </trkpt>
      <trkpt lat="45.88119" lon="4.33234">
        <ele>733</ele>
        <time>2025-05-11T08:19:29Z</time>
      </trkpt>
      <trkpt lat="45.88122" lon="4.33237">
        <ele>733</ele>
        <time>2025-05-11T08:19:30Z</time>
      </trkpt>
      <trkpt lat="45.88125" lon="4.3324">
        <ele>733</ele>
        <time>2025-05-11T08:19:31Z</time>
      </trkpt>
      <trkpt lat="45.88127" lon="4.33244">
        <ele>734</ele>
        <time>2025-05-11T08:19:32Z</time>
      </trkpt>
      <trkpt lat="45.88129" lon="4.33249">
        <ele>734</ele>
        <time>2025-05-11T08:19:33Z</time>
      </trkpt>
      <trkpt lat="45.8813" lon="4.33254">
        <ele>734</ele>
        <time>2025-05-11T08:19:34Z</time>
      </trkpt>
      <trkpt lat="45.88131" lon="4.33259">
        <ele>735</ele>
        <time>2025-05-11T08:19:35Z</time>
      </trkpt>
      <trkpt lat="45.88131" lon="4.33264">
        <ele>735</ele>
        <time>2025-05-11T08:19:36Z</time>
      </trkpt>
      <trkpt lat="45.88131" lon="4.33269">
        <ele>735</ele>
        <time>2025-05-11T08:19:37Z</time>
      </trkpt>
      <trkpt lat="45.8813" lon="4.33274">
        <ele>735</ele>
        <time>2025-05-11T08:19:38Z</time>
      </trkpt>
      <trkpt lat="45.88128" lon="4.33278">
        <ele>735</ele>
        <time>2025-05-11T08:19:39Z</time>
      </trkpt>
      <trkpt lat="45.88126" lon="4.33287">
        <ele>735</ele>
        <time>2025-05-11T08:19:41Z</time>
      </trkpt>
      <trkpt lat="45.88124" lon="4.33292">
        <ele>735</ele>
        <time>2025-05-11T08:19:42Z</time>
      </trkpt>
      <trkpt lat="45.88122" lon="4.33297">
        <ele>735</ele>
        <time>2025-05-11T08:19:43Z</time>
      </trkpt>
      <trkpt lat="45.8812" lon="4.33301">
        <ele>735</ele>
        <time>2025-05-11T08:19:44Z</time>
      </trkpt>
      <trkpt lat="45.88118" lon="4.33307">
        <ele>736</ele>
        <time>2025-05-11T08:19:45Z</time>
      </trkpt>
      <trkpt lat="45.88115" lon="4.33312">
        <ele>736</ele>
        <time>2025-05-11T08:19:46Z</time>
      </trkpt>
      <trkpt lat="45.88113" lon="4.33318">
        <ele>736</ele>
        <time>2025-05-11T08:19:47Z</time>
      </trkpt>
      <trkpt lat="45.8811" lon="4.33324">
        <ele>737</ele>
        <time>2025-05-11T08:19:48Z</time>
      </trkpt>
      <trkpt lat="45.88107" lon="4.33329">
        <ele>737</ele>
        <time>2025-05-11T08:19:49Z</time>
      </trkpt>
      <trkpt lat="45.88104" lon="4.33335">
        <ele>737</ele>
        <time>2025-05-11T08:19:50Z</time>
      </trkpt>
      <trkpt lat="45.88101" lon="4.33342">
        <ele>737</ele>
        <time>2025-05-11T08:19:51Z</time>
      </trkpt>
      <trkpt lat="45.88098" lon="4.33348">
        <ele>737</ele>
        <time>2025-05-11T08:19:52Z</time>
      </trkpt>
      <trkpt lat="45.88096" lon="4.33355">
        <ele>737</ele>
        <time>2025-05-11T08:19:53Z</time>
      </trkpt>
      <trkpt lat="45.88093" lon="4.33362">
        <ele>738</ele>
        <time>2025-05-11T08:19:54Z</time>
      </trkpt>
      <trkpt lat="45.8809" lon="4.33368">
        <ele>738</ele>
        <time>2025-05-11T08:19:55Z</time>
      </trkpt>
      <trkpt lat="45.88088" lon="4.33374">
        <ele>738</ele>
        <time>2025-05-11T08:19:56Z</time>
      </trkpt>
      <trkpt lat="45.88086" lon="4.33379">
        <ele>739</ele>
        <time>2025-05-11T08:19:57Z</time>
      </trkpt>
      <trkpt lat="45.88083" lon="4.33384">
        <ele>739</ele>
        <time>2025-05-11T08:19:58Z</time>
      </trkpt>
      <trkpt lat="45.88081" lon="4.33388">
        <ele>739</ele>
        <time>2025-05-11T08:19:59Z</time>
      </trkpt>
      <trkpt lat="45.88078" lon="4.33392">
        <ele>739</ele>
        <time>2025-05-11T08:20:00Z</time>
      </trkpt>
      <trkpt lat="45.88074" lon="4.33396">
        <ele>740</ele>
        <time>2025-05-11T08:20:01Z</time>
      </trkpt>
      <trkpt lat="45.88071" lon="4.33402">
        <ele>740</ele>
        <time>2025-05-11T08:20:02Z</time>
      </trkpt>
      <trkpt lat="45.88067" lon="4.33407">
        <ele>741</ele>
        <time>2025-05-11T08:20:03Z</time>
      </trkpt>
      <trkpt lat="45.8806" lon="4.33419">
        <ele>741</ele>
        <time>2025-05-11T08:20:05Z</time>
      </trkpt>
      <trkpt lat="45.88056" lon="4.33424">
        <ele>741</ele>
        <time>2025-05-11T08:20:06Z</time>
      </trkpt>
      <trkpt lat="45.88049" lon="4.33436">
        <ele>742</ele>
        <time>2025-05-11T08:20:08Z</time>
      </trkpt>
      <trkpt lat="45.88045" lon="4.33441">
        <ele>742</ele>
        <time>2025-05-11T08:20:09Z</time>
      </trkpt>
      <trkpt lat="45.88042" lon="4.33447">
        <ele>742</ele>
        <time>2025-05-11T08:20:10Z</time>
      </trkpt>
      <trkpt lat="45.88038" lon="4.33452">
        <ele>742</ele>
        <time>2025-05-11T08:20:11Z</time>
      </trkpt>
      <trkpt lat="45.88033" lon="4.33463">
        <ele>742</ele>
        <time>2025-05-11T08:20:13Z</time>
      </trkpt>
      <trkpt lat="45.8803" lon="4.33469">
        <ele>742</ele>
        <time>2025-05-11T08:20:14Z</time>
      </trkpt>
      <trkpt lat="45.88027" lon="4.33475">
        <ele>742</ele>
        <time>2025-05-11T08:20:15Z</time>
      </trkpt>
      <trkpt lat="45.88024" lon="4.33481">
        <ele>742</ele>
        <time>2025-05-11T08:20:16Z</time>
      </trkpt>
      <trkpt lat="45.88021" lon="4.33488">
        <ele>743</ele>
        <time>2025-05-11T08:20:17Z</time>
      </trkpt>
      <trkpt lat="45.88018" lon="4.33495">
        <ele>743</ele>
        <time>2025-05-11T08:20:18Z</time>
      </trkpt>
      <trkpt lat="45.88015" lon="4.33501">
        <ele>743</ele>
        <time>2025-05-11T08:20:19Z</time>
      </trkpt>
      <trkpt lat="45.88013" lon="4.33507">
        <ele>744</ele>
        <time>2025-05-11T08:20:20Z</time>
      </trkpt>
      <trkpt lat="45.8801" lon="4.33511">
        <ele>744</ele>
        <time>2025-05-11T08:20:21Z</time>
      </trkpt>
      <trkpt lat="45.88007" lon="4.33515">
        <ele>745</ele>
        <time>2025-05-11T08:20:22Z</time>
      </trkpt>
      <trkpt lat="45.88004" lon="4.33517">
        <ele>745</ele>
        <time>2025-05-11T08:20:23Z</time>
      </trkpt>
      <trkpt lat="45.88" lon="4.33521">
        <ele>745</ele>
        <time>2025-05-11T08:20:24Z</time>
      </trkpt>
      <trkpt lat="45.87997" lon="4.33524">
        <ele>745</ele>
        <time>2025-05-11T08:20:25Z</time>
      </trkpt>
      <trkpt lat="45.87993" lon="4.33528">
        <ele>746</ele>
        <time>2025-05-11T08:20:26Z</time>
      </trkpt>
      <trkpt lat="45.87989" lon="4.33531">
        <ele>746</ele>
        <time>2025-05-11T08:20:27Z</time>
      </trkpt>
      <trkpt lat="45.87985" lon="4.33534">
        <ele>746</ele>
        <time>2025-05-11T08:20:28Z</time>
      </trkpt>
      <trkpt lat="45.87982" lon="4.33536">
        <ele>747</ele>
        <time>2025-05-11T08:20:29Z</time>
      </trkpt>
      <trkpt lat="45.87978" lon="4.33538">
        <ele>747</ele>
        <time>2025-05-11T08:20:30Z</time>
      </trkpt>
      <trkpt lat="45.87975" lon="4.33541">
        <ele>747</ele>
        <time>2025-05-11T08:20:31Z</time>
      </trkpt>
      <trkpt lat="45.87973" lon="4.33543">
        <ele>748</ele>
        <time>2025-05-11T08:20:32Z</time>
      </trkpt>
      <trkpt lat="45.8797" lon="4.33546">
        <ele>749</ele>
        <time>2025-05-11T08:20:34Z</time>
      </trkpt>
      <trkpt lat="45.87969" lon="4.33549">
        <ele>750</ele>
        <time>2025-05-11T08:20:36Z</time>
      </trkpt>
      <trkpt lat="45.87971" lon="4.33552">
        <ele>751</ele>
        <time>2025-05-11T08:20:39Z</time>
      </trkpt>
      <trkpt lat="45.87976" lon="4.33551">
        <ele>752</ele>
        <time>2025-05-11T08:20:41Z</time>
      </trkpt>
      <trkpt lat="45.87978" lon="4.33552">
        <ele>753</ele>
        <time>2025-05-11T08:20:42Z</time>
      </trkpt>
      <trkpt lat="45.87979" lon="4.33555">
        <ele>754</ele>
        <time>2025-05-11T08:20:43Z</time>
      </trkpt>
      <trkpt lat="45.8798" lon="4.33558">
        <ele>754</ele>
        <time>2025-05-11T08:20:44Z</time>
      </trkpt>
      <trkpt lat="45.87973" lon="4.33573">
        <ele>755</ele>
        <time>2025-05-11T08:20:49Z</time>
      </trkpt>
      <trkpt lat="45.87967" lon="4.33585">
        <ele>756</ele>
        <time>2025-05-11T08:20:52Z</time>
      </trkpt>
      <trkpt lat="45.87962" lon="4.33599">
        <ele>757</ele>
        <time>2025-05-11T08:20:55Z</time>
      </trkpt>
      <trkpt lat="45.87958" lon="4.33609">
        <ele>757</ele>
        <time>2025-05-11T08:20:57Z</time>
      </trkpt>
      <trkpt lat="45.87953" lon="4.33619">
        <ele>758</ele>
        <time>2025-05-11T08:20:59Z</time>
      </trkpt>
      <trkpt lat="45.8795" lon="4.33624">
        <ele>758</ele>
        <time>2025-05-11T08:21:00Z</time>
      </trkpt>
      <trkpt lat="45.87944" lon="4.33636">
        <ele>759</ele>
        <time>2025-05-11T08:21:02Z</time>
      </trkpt>
      <trkpt lat="45.87937" lon="4.33647">
        <ele>760</ele>
        <time>2025-05-11T08:21:04Z</time>
      </trkpt>
      <trkpt lat="45.87931" lon="4.33659">
        <ele>760</ele>
        <time>2025-05-11T08:21:06Z</time>
      </trkpt>
      <trkpt lat="45.87925" lon="4.3367">
        <ele>761</ele>
        <time>2025-05-11T08:21:08Z</time>
      </trkpt>
      <trkpt lat="45.8792" lon="4.33682">
        <ele>762</ele>
        <time>2025-05-11T08:21:10Z</time>
      </trkpt>
      <trkpt lat="45.87916" lon="4.33696">
        <ele>762</ele>
        <time>2025-05-11T08:21:12Z</time>
      </trkpt>
      <trkpt lat="45.8791" lon="4.33709">
        <ele>763</ele>
        <time>2025-05-11T08:21:14Z</time>
      </trkpt>
      <trkpt lat="45.87901" lon="4.33723">
        <ele>763</ele>
        <time>2025-05-11T08:21:16Z</time>
      </trkpt>
      <trkpt lat="45.87894" lon="4.33737">
        <ele>764</ele>
        <time>2025-05-11T08:21:18Z</time>
      </trkpt>
      <trkpt lat="45.87889" lon="4.33756">
        <ele>765</ele>
        <time>2025-05-11T08:21:20Z</time>
      </trkpt>
      <trkpt lat="45.87885" lon="4.33776">
        <ele>766</ele>
        <time>2025-05-11T08:21:22Z</time>
      </trkpt>
      <trkpt lat="45.87883" lon="4.33793">
        <ele>766</ele>
        <time>2025-05-11T08:21:24Z</time>
      </trkpt>
      <trkpt lat="45.8788" lon="4.33809">
        <ele>767</ele>
        <time>2025-05-11T08:21:26Z</time>
      </trkpt>
      <trkpt lat="45.87877" lon="4.33826">
        <ele>767</ele>
        <time>2025-05-11T08:21:28Z</time>
      </trkpt>
      <trkpt lat="45.87876" lon="4.33845">
        <ele>768</ele>
        <time>2025-05-11T08:21:30Z</time>
      </trkpt>
      <trkpt lat="45.87877" lon="4.33862">
        <ele>769</ele>
        <time>2025-05-11T08:21:32Z</time>
      </trkpt>
      <trkpt lat="45.87878" lon="4.33878">
        <ele>770</ele>
        <time>2025-05-11T08:21:34Z</time>
      </trkpt>
      <trkpt lat="45.87878" lon="4.33897">
        <ele>771</ele>
        <time>2025-05-11T08:21:36Z</time>
      </trkpt>
      <trkpt lat="45.87877" lon="4.33917">
        <ele>773</ele>
        <time>2025-05-11T08:21:38Z</time>
      </trkpt>
      <trkpt lat="45.87877" lon="4.33935">
        <ele>776</ele>
        <time>2025-05-11T08:21:41Z</time>
      </trkpt>
      <trkpt lat="45.87881" lon="4.33951">
        <ele>778</ele>
        <time>2025-05-11T08:21:44Z</time>
      </trkpt>
      <trkpt lat="45.87883" lon="4.33971">
        <ele>780</ele>
        <time>2025-05-11T08:21:47Z</time>
      </trkpt>
      <trkpt lat="45.87885" lon="4.33985">
        <ele>781</ele>
        <time>2025-05-11T08:21:49Z</time>
      </trkpt>
      <trkpt lat="45.87888" lon="4.34001">
        <ele>781</ele>
        <time>2025-05-11T08:21:51Z</time>
      </trkpt>
      <trkpt lat="45.87897" lon="4.34018">
        <ele>783</ele>
        <time>2025-05-11T08:21:53Z</time>
      </trkpt>
      <trkpt lat="45.87901" lon="4.34036">
        <ele>785</ele>
        <time>2025-05-11T08:21:55Z</time>
      </trkpt>
      <trkpt lat="45.87904" lon="4.34056">
        <ele>787</ele>
        <time>2025-05-11T08:21:57Z</time>
      </trkpt>
      <trkpt lat="45.87908" lon="4.34074">
        <ele>789</ele>
        <time>2025-05-11T08:21:59Z</time>
      </trkpt>
      <trkpt lat="45.87914" lon="4.34091">
        <ele>791</ele>
        <time>2025-05-11T08:22:01Z</time>
      </trkpt>
      <trkpt lat="45.8792" lon="4.34106">
        <ele>793</ele>
        <time>2025-05-11T08:22:03Z</time>
      </trkpt>
      <trkpt lat="45.87919" lon="4.34118">
        <ele>802</ele>
        <time>2025-05-11T08:22:09Z</time>
      </trkpt>
      <trkpt lat="45.87913" lon="4.34129">
        <ele>810</ele>
        <time>2025-05-11T08:22:19Z</time>
      </trkpt>
      <trkpt lat="45.87912" lon="4.34132">
        <ele>819</ele>
        <time>2025-05-11T08:22:27Z</time>
      </trkpt>
      <trkpt lat="45.87914" lon="4.34136">
        <ele>826</ele>
        <time>2025-05-11T08:22:40Z</time>
      </trkpt>
      <trkpt lat="45.87914" lon="4.34132">
        <ele>827</ele>
        <time>2025-05-11T08:22:52Z</time>
      </trkpt>
      <trkpt lat="45.87917" lon="4.3413">
        <ele>834</ele>
        <time>2025-05-11T08:23:08Z</time>
      </trkpt>
      <trkpt lat="45.8792" lon="4.34131">
        <ele>837</ele>
        <time>2025-05-11T08:23:32Z</time>
      </trkpt>
      <trkpt lat="45.87918" lon="4.34128">
        <ele>839</ele>
        <time>2025-05-11T08:23:45Z</time>
      </trkpt>
      <trkpt lat="45.87916" lon="4.34128">
        <ele>841</ele>
        <time>2025-05-11T08:23:52Z</time>
      </trkpt>
      <trkpt lat="45.87922" lon="4.34125">
        <ele>845</ele>
        <time>2025-05-11T08:24:02Z</time>
      </trkpt>
      <trkpt lat="45.87923" lon="4.3413">
        <ele>847</ele>
        <time>2025-05-11T08:24:07Z</time>
      </trkpt>
      <trkpt lat="45.87921" lon="4.34132">
        <ele>849</ele>
        <time>2025-05-11T08:24:19Z</time>
      </trkpt>
      <trkpt lat="45.8792" lon="4.34135">
        <ele>849</ele>
        <time>2025-05-11T08:24:59Z</time>
      </trkpt>
      <trkpt lat="45.87911" lon="4.34145">
        <ele>849</ele>
        <time>2025-05-11T08:25:02Z</time>
      </trkpt>
      <trkpt lat="45.87903" lon="4.3415">
        <ele>849</ele>
        <time>2025-05-11T08:25:06Z</time>
      </trkpt>
      <trkpt lat="45.87894" lon="4.34156">
        <ele>849</ele>
        <time>2025-05-11T08:25:10Z</time>
      </trkpt>
      <trkpt lat="45.87883" lon="4.34162">
        <ele>850</ele>
        <time>2025-05-11T08:25:14Z</time>
      </trkpt>
      <trkpt lat="45.87874" lon="4.34168">
        <ele>850</ele>
        <time>2025-05-11T08:25:17Z</time>
      </trkpt>
      <trkpt lat="45.87864" lon="4.34172">
        <ele>850</ele>
        <time>2025-05-11T08:25:20Z</time>
      </trkpt>
      <trkpt lat="45.87854" lon="4.34179">
        <ele>850</ele>
        <time>2025-05-11T08:25:23Z</time>
      </trkpt>
      <trkpt lat="45.87845" lon="4.34187">
        <ele>850</ele>
        <time>2025-05-11T08:25:26Z</time>
      </trkpt>
      <trkpt lat="45.87834" lon="4.34193">
        <ele>850</ele>
        <time>2025-05-11T08:25:30Z</time>
      </trkpt>
      <trkpt lat="45.87824" lon="4.34197">
        <ele>850</ele>
        <time>2025-05-11T08:25:31Z</time>
      </trkpt>
      <trkpt lat="45.87811" lon="4.34202">
        <ele>850</ele>
        <time>2025-05-11T08:25:33Z</time>
      </trkpt>
      <trkpt lat="45.87797" lon="4.3421">
        <ele>850</ele>
        <time>2025-05-11T08:25:35Z</time>
      </trkpt>
      <trkpt lat="45.87783" lon="4.34219">
        <ele>850</ele>
        <time>2025-05-11T08:25:37Z</time>
      </trkpt>
      <trkpt lat="45.87772" lon="4.34226">
        <ele>850</ele>
        <time>2025-05-11T08:25:39Z</time>
      </trkpt>
      <trkpt lat="45.8776" lon="4.34232">
        <ele>850</ele>
        <time>2025-05-11T08:25:41Z</time>
      </trkpt>
      <trkpt lat="45.87749" lon="4.34236">
        <ele>850</ele>
        <time>2025-05-11T08:25:43Z</time>
      </trkpt>
      <trkpt lat="45.87737" lon="4.34239">
        <ele>850</ele>
        <time>2025-05-11T08:25:45Z</time>
      </trkpt>
      <trkpt lat="45.87725" lon="4.34242">
        <ele>850</ele>
        <time>2025-05-11T08:25:48Z</time>
      </trkpt>
      <trkpt lat="45.87713" lon="4.34246">
        <ele>850</ele>
        <time>2025-05-11T08:25:49Z</time>
      </trkpt>
      <trkpt lat="45.877" lon="4.34256">
        <ele>850</ele>
        <time>2025-05-11T08:25:51Z</time>
      </trkpt>
      <trkpt lat="45.87687" lon="4.3427">
        <ele>850</ele>
        <time>2025-05-11T08:25:53Z</time>
      </trkpt>
      <trkpt lat="45.8768" lon="4.34286">
        <ele>849</ele>
        <time>2025-05-11T08:25:55Z</time>
      </trkpt>
      <trkpt lat="45.87674" lon="4.34306">
        <ele>850</ele>
        <time>2025-05-11T08:25:57Z</time>
      </trkpt>
      <trkpt lat="45.87666" lon="4.34326">
        <ele>849</ele>
        <time>2025-05-11T08:25:59Z</time>
      </trkpt>
      <trkpt lat="45.87662" lon="4.34336">
        <ele>849</ele>
        <time>2025-05-11T08:26:00Z</time>
      </trkpt>
      <trkpt lat="45.87658" lon="4.34345">
        <ele>849</ele>
        <time>2025-05-11T08:26:01Z</time>
      </trkpt>
      <trkpt lat="45.87655" lon="4.34353">
        <ele>849</ele>
        <time>2025-05-11T08:26:02Z</time>
      </trkpt>
      <trkpt lat="45.87652" lon="4.3436">
        <ele>849</ele>
        <time>2025-05-11T08:26:03Z</time>
      </trkpt>
      <trkpt lat="45.87647" lon="4.3437">
        <ele>849</ele>
        <time>2025-05-11T08:26:05Z</time>
      </trkpt>
      <trkpt lat="45.87645" lon="4.34376">
        <ele>849</ele>
        <time>2025-05-11T08:26:06Z</time>
      </trkpt>
      <trkpt lat="45.87642" lon="4.34381">
        <ele>849</ele>
        <time>2025-05-11T08:26:07Z</time>
      </trkpt>
      <trkpt lat="45.87639" lon="4.34388">
        <ele>849</ele>
        <time>2025-05-11T08:26:08Z</time>
      </trkpt>
      <trkpt lat="45.87636" lon="4.34394">
        <ele>849</ele>
        <time>2025-05-11T08:26:09Z</time>
      </trkpt>
      <trkpt lat="45.87633" lon="4.344">
        <ele>849</ele>
        <time>2025-05-11T08:26:10Z</time>
      </trkpt>
      <trkpt lat="45.8763" lon="4.34407">
        <ele>848</ele>
        <time>2025-05-11T08:26:11Z</time>
      </trkpt>
      <trkpt lat="45.87627" lon="4.34414">
        <ele>848</ele>
        <time>2025-05-11T08:26:12Z</time>
      </trkpt>
      <trkpt lat="45.87623" lon="4.34421">
        <ele>848</ele>
        <time>2025-05-11T08:26:13Z</time>
      </trkpt>
      <trkpt lat="45.8762" lon="4.34428">
        <ele>848</ele>
        <time>2025-05-11T08:26:14Z</time>
      </trkpt>
      <trkpt lat="45.87616" lon="4.34436">
        <ele>848</ele>
        <time>2025-05-11T08:26:15Z</time>
      </trkpt>
      <trkpt lat="45.87611" lon="4.34444">
        <ele>848</ele>
        <time>2025-05-11T08:26:16Z</time>
      </trkpt>
      <trkpt lat="45.87607" lon="4.34452">
        <ele>848</ele>
        <time>2025-05-11T08:26:17Z</time>
      </trkpt>
      <trkpt lat="45.87602" lon="4.3446">
        <ele>848</ele>
        <time>2025-05-11T08:26:18Z</time>
      </trkpt>
      <trkpt lat="45.87598" lon="4.34468">
        <ele>848</ele>
        <time>2025-05-11T08:26:19Z</time>
      </trkpt>
      <trkpt lat="45.87594" lon="4.34476">
        <ele>848</ele>
        <time>2025-05-11T08:26:20Z</time>
      </trkpt>
      <trkpt lat="45.87589" lon="4.34484">
        <ele>847</ele>
        <time>2025-05-11T08:26:21Z</time>
      </trkpt>
      <trkpt lat="45.87585" lon="4.34491">
        <ele>847</ele>
        <time>2025-05-11T08:26:22Z</time>
      </trkpt>
      <trkpt lat="45.87582" lon="4.34498">
        <ele>847</ele>
        <time>2025-05-11T08:26:23Z</time>
      </trkpt>
      <trkpt lat="45.87579" lon="4.34504">
        <ele>847</ele>
        <time>2025-05-11T08:26:24Z</time>
      </trkpt>
      <trkpt lat="45.87576" lon="4.34509">
        <ele>847</ele>
        <time>2025-05-11T08:26:25Z</time>
      </trkpt>
      <trkpt lat="45.87573" lon="4.34514">
        <ele>847</ele>
        <time>2025-05-11T08:26:26Z</time>
      </trkpt>
      <trkpt lat="45.87571" lon="4.34519">
        <ele>846</ele>
        <time>2025-05-11T08:26:27Z</time>
      </trkpt>
      <trkpt lat="45.87569" lon="4.34524">
        <ele>846</ele>
        <time>2025-05-11T08:26:28Z</time>
      </trkpt>
      <trkpt lat="45.87566" lon="4.3453">
        <ele>846</ele>
        <time>2025-05-11T08:26:29Z</time>
      </trkpt>
      <trkpt lat="45.87561" lon="4.34543">
        <ele>845</ele>
        <time>2025-05-11T08:26:31Z</time>
      </trkpt>
      <trkpt lat="45.87559" lon="4.34549">
        <ele>845</ele>
        <time>2025-05-11T08:26:32Z</time>
      </trkpt>
      <trkpt lat="45.87556" lon="4.34555">
        <ele>845</ele>
        <time>2025-05-11T08:26:33Z</time>
      </trkpt>
      <trkpt lat="45.87554" lon="4.34562">
        <ele>845</ele>
        <time>2025-05-11T08:26:34Z</time>
      </trkpt>
      <trkpt lat="45.87551" lon="4.34569">
        <ele>845</ele>
        <time>2025-05-11T08:26:35Z</time>
      </trkpt>
      <trkpt lat="45.87549" lon="4.34575">
        <ele>845</ele>
        <time>2025-05-11T08:26:36Z</time>
      </trkpt>
      <trkpt lat="45.87546" lon="4.34583">
        <ele>844</ele>
        <time>2025-05-11T08:26:37Z</time>
      </trkpt>
      <trkpt lat="45.87544" lon="4.3459">
        <ele>844</ele>
        <time>2025-05-11T08:26:38Z</time>
      </trkpt>
      <trkpt lat="45.87542" lon="4.34598">
        <ele>844</ele>
        <time>2025-05-11T08:26:39Z</time>
      </trkpt>
      <trkpt lat="45.87539" lon="4.34606">
        <ele>844</ele>
        <time>2025-05-11T08:26:40Z</time>
      </trkpt>
      <trkpt lat="45.87537" lon="4.34615">
        <ele>845</ele>
        <time>2025-05-11T08:26:41Z</time>
      </trkpt>
      <trkpt lat="45.87534" lon="4.34624">
        <ele>845</ele>
        <time>2025-05-11T08:26:42Z</time>
      </trkpt>
      <trkpt lat="45.87532" lon="4.34632">
        <ele>845</ele>
        <time>2025-05-11T08:26:43Z</time>
      </trkpt>
      <trkpt lat="45.87529" lon="4.34641">
        <ele>845</ele>
        <time>2025-05-11T08:26:44Z</time>
      </trkpt>
      <trkpt lat="45.87526" lon="4.3465">
        <ele>845</ele>
        <time>2025-05-11T08:26:45Z</time>
      </trkpt>
      <trkpt lat="45.87523" lon="4.34658">
        <ele>845</ele>
        <time>2025-05-11T08:26:46Z</time>
      </trkpt>
      <trkpt lat="45.8752" lon="4.34666">
        <ele>845</ele>
        <time>2025-05-11T08:26:47Z</time>
      </trkpt>
      <trkpt lat="45.87517" lon="4.34673">
        <ele>845</ele>
        <time>2025-05-11T08:26:48Z</time>
      </trkpt>
      <trkpt lat="45.87515" lon="4.3468">
        <ele>845</ele>
        <time>2025-05-11T08:26:49Z</time>
      </trkpt>
      <trkpt lat="45.87511" lon="4.34695">
        <ele>845</ele>
        <time>2025-05-11T08:26:51Z</time>
      </trkpt>
      <trkpt lat="45.87506" lon="4.3471">
        <ele>845</ele>
        <time>2025-05-11T08:26:53Z</time>
      </trkpt>
      <trkpt lat="45.87495" lon="4.3473">
        <ele>845</ele>
        <time>2025-05-11T08:26:55Z</time>
      </trkpt>
      <trkpt lat="45.87489" lon="4.3474">
        <ele>845</ele>
        <time>2025-05-11T08:26:56Z</time>
      </trkpt>
      <trkpt lat="45.87479" lon="4.34756">
        <ele>845</ele>
        <time>2025-05-11T08:26:58Z</time>
      </trkpt>
      <trkpt lat="45.87471" lon="4.3477">
        <ele>845</ele>
        <time>2025-05-11T08:27:00Z</time>
      </trkpt>
      <trkpt lat="45.87463" lon="4.34784">
        <ele>846</ele>
        <time>2025-05-11T08:27:02Z</time>
      </trkpt>
      <trkpt lat="45.87456" lon="4.34796">
        <ele>846</ele>
        <time>2025-05-11T08:27:04Z</time>
      </trkpt>
      <trkpt lat="45.87453" lon="4.34801">
        <ele>846</ele>
        <time>2025-05-11T08:27:05Z</time>
      </trkpt>
      <trkpt lat="45.87444" lon="4.34814">
        <ele>847</ele>
        <time>2025-05-11T08:27:08Z</time>
      </trkpt>
      <trkpt lat="45.87436" lon="4.34823">
        <ele>847</ele>
        <time>2025-05-11T08:27:11Z</time>
      </trkpt>
      <trkpt lat="45.87425" lon="4.34831">
        <ele>847</ele>
        <time>2025-05-11T08:27:14Z</time>
      </trkpt>
      <trkpt lat="45.87415" lon="4.34832">
        <ele>847</ele>
        <time>2025-05-11T08:27:16Z</time>
      </trkpt>
      <trkpt lat="45.87406" lon="4.34833">
        <ele>847</ele>
        <time>2025-05-11T08:27:18Z</time>
      </trkpt>
      <trkpt lat="45.87395" lon="4.34835">
        <ele>847</ele>
        <time>2025-05-11T08:27:20Z</time>
      </trkpt>
      <trkpt lat="45.87383" lon="4.34834">
        <ele>847</ele>
        <time>2025-05-11T08:27:22Z</time>
      </trkpt>
      <trkpt lat="45.87371" lon="4.34835">
        <ele>847</ele>
        <time>2025-05-11T08:27:24Z</time>
      </trkpt>
      <trkpt lat="45.87359" lon="4.34836">
        <ele>847</ele>
        <time>2025-05-11T08:27:26Z</time>
      </trkpt>
      <trkpt lat="45.87347" lon="4.34838">
        <ele>846</ele>
        <time>2025-05-11T08:27:28Z</time>
      </trkpt>
      <trkpt lat="45.87335" lon="4.34836">
        <ele>846</ele>
        <time>2025-05-11T08:27:30Z</time>
      </trkpt>
      <trkpt lat="45.87323" lon="4.34835">
        <ele>845</ele>
        <time>2025-05-11T08:27:32Z</time>
      </trkpt>
      <trkpt lat="45.87313" lon="4.34836">
        <ele>844</ele>
        <time>2025-05-11T08:27:34Z</time>
      </trkpt>
      <trkpt lat="45.87301" lon="4.34838">
        <ele>844</ele>
        <time>2025-05-11T08:27:36Z</time>
      </trkpt>
      <trkpt lat="45.87287" lon="4.34844">
        <ele>843</ele>
        <time>2025-05-11T08:27:38Z</time>
      </trkpt>
      <trkpt lat="45.87274" lon="4.34845">
        <ele>842</ele>
        <time>2025-05-11T08:27:40Z</time>
      </trkpt>
      <trkpt lat="45.87261" lon="4.34848">
        <ele>840</ele>
        <time>2025-05-11T08:27:42Z</time>
      </trkpt>
      <trkpt lat="45.8725" lon="4.34851">
        <ele>838</ele>
        <time>2025-05-11T08:27:45Z</time>
      </trkpt>
      <trkpt lat="45.87248" lon="4.34852">
        <ele>837</ele>
        <time>2025-05-11T08:27:46Z</time>
      </trkpt>
      <trkpt lat="45.87244" lon="4.34854">
        <ele>837</ele>
        <time>2025-05-11T08:27:47Z</time>
      </trkpt>
      <trkpt lat="45.87241" lon="4.34856">
        <ele>837</ele>
        <time>2025-05-11T08:27:48Z</time>
      </trkpt>
      <trkpt lat="45.87231" lon="4.34863">
        <ele>835</ele>
        <time>2025-05-11T08:27:51Z</time>
      </trkpt>
      <trkpt lat="45.87225" lon="4.34867">
        <ele>835</ele>
        <time>2025-05-11T08:27:53Z</time>
      </trkpt>
      <trkpt lat="45.87221" lon="4.34869">
        <ele>833</ele>
        <time>2025-05-11T08:27:54Z</time>
      </trkpt>
      <trkpt lat="45.87212" lon="4.34878">
        <ele>833</ele>
        <time>2025-05-11T08:27:57Z</time>
      </trkpt>
      <trkpt lat="45.87206" lon="4.34883">
        <ele>831</ele>
        <time>2025-05-11T08:28:00Z</time>
      </trkpt>
      <trkpt lat="45.87204" lon="4.34886">
        <ele>831</ele>
        <time>2025-05-11T08:28:03Z</time>
      </trkpt>
      <trkpt lat="45.87202" lon="4.34891">
        <ele>830</ele>
        <time>2025-05-11T08:28:12Z</time>
      </trkpt>
      <trkpt lat="45.872" lon="4.34896">
        <ele>830</ele>
        <time>2025-05-11T08:28:14Z</time>
      </trkpt>
      <trkpt lat="45.87198" lon="4.349">
        <ele>830</ele>
        <time>2025-05-11T08:28:15Z</time>
      </trkpt>
      <trkpt lat="45.87196" lon="4.34904">
        <ele>830</ele>
        <time>2025-05-11T08:28:16Z</time>
      </trkpt>
      <trkpt lat="45.87194" lon="4.34909">
        <ele>830</ele>
        <time>2025-05-11T08:28:17Z</time>
      </trkpt>
      <trkpt lat="45.87191" lon="4.34913">
        <ele>830</ele>
        <time>2025-05-11T08:28:18Z</time>
      </trkpt>
      <trkpt lat="45.87189" lon="4.34918">
        <ele>829</ele>
        <time>2025-05-11T08:28:19Z</time>
      </trkpt>
      <trkpt lat="45.87186" lon="4.34923">
        <ele>830</ele>
        <time>2025-05-11T08:28:20Z</time>
      </trkpt>
      <trkpt lat="45.8718" lon="4.34932">
        <ele>829</ele>
        <time>2025-05-11T08:28:22Z</time>
      </trkpt>
      <trkpt lat="45.87177" lon="4.34937">
        <ele>829</ele>
        <time>2025-05-11T08:28:23Z</time>
      </trkpt>
      <trkpt lat="45.87173" lon="4.34941">
        <ele>830</ele>
        <time>2025-05-11T08:28:24Z</time>
      </trkpt>
      <trkpt lat="45.8717" lon="4.34946">
        <ele>830</ele>
        <time>2025-05-11T08:28:25Z</time>
      </trkpt>
      <trkpt lat="45.87166" lon="4.3495">
        <ele>830</ele>
        <time>2025-05-11T08:28:26Z</time>
      </trkpt>
      <trkpt lat="45.87163" lon="4.34954">
        <ele>830</ele>
        <time>2025-05-11T08:28:27Z</time>
      </trkpt>
      <trkpt lat="45.87159" lon="4.34958">
        <ele>830</ele>
        <time>2025-05-11T08:28:28Z</time>
      </trkpt>
      <trkpt lat="45.87155" lon="4.34962">
        <ele>830</ele>
        <time>2025-05-11T08:28:29Z</time>
      </trkpt>
      <trkpt lat="45.87152" lon="4.34966">
        <ele>830</ele>
        <time>2025-05-11T08:28:30Z</time>
      </trkpt>
      <trkpt lat="45.87148" lon="4.3497">
        <ele>830</ele>
        <time>2025-05-11T08:28:31Z</time>
      </trkpt>
      <trkpt lat="45.87145" lon="4.34974">
        <ele>830</ele>
        <time>2025-05-11T08:28:32Z</time>
      </trkpt>
      <trkpt lat="45.87141" lon="4.34978">
        <ele>830</ele>
        <time>2025-05-11T08:28:33Z</time>
      </trkpt>
      <trkpt lat="45.87138" lon="4.34982">
        <ele>830</ele>
        <time>2025-05-11T08:28:34Z</time>
      </trkpt>
      <trkpt lat="45.87134" lon="4.34986">
        <ele>830</ele>
        <time>2025-05-11T08:28:35Z</time>
      </trkpt>
      <trkpt lat="45.87131" lon="4.34989">
        <ele>830</ele>
        <time>2025-05-11T08:28:36Z</time>
      </trkpt>
      <trkpt lat="45.87127" lon="4.34993">
        <ele>830</ele>
        <time>2025-05-11T08:28:37Z</time>
      </trkpt>
      <trkpt lat="45.87124" lon="4.34997">
        <ele>830</ele>
        <time>2025-05-11T08:28:38Z</time>
      </trkpt>
      <trkpt lat="45.87121" lon="4.35">
        <ele>830</ele>
        <time>2025-05-11T08:28:39Z</time>
      </trkpt>
      <trkpt lat="45.87118" lon="4.35003">
        <ele>830</ele>
        <time>2025-05-11T08:28:40Z</time>
      </trkpt>
      <trkpt lat="45.87115" lon="4.35007">
        <ele>830</ele>
        <time>2025-05-11T08:28:41Z</time>
      </trkpt>
      <trkpt lat="45.87112" lon="4.3501">
        <ele>830</ele>
        <time>2025-05-11T08:28:42Z</time>
      </trkpt>
      <trkpt lat="45.87109" lon="4.35013">
        <ele>830</ele>
        <time>2025-05-11T08:28:43Z</time>
      </trkpt>
      <trkpt lat="45.87106" lon="4.35016">
        <ele>830</ele>
        <time>2025-05-11T08:28:44Z</time>
      </trkpt>
      <trkpt lat="45.87103" lon="4.35019">
        <ele>830</ele>
        <time>2025-05-11T08:28:45Z</time>
      </trkpt>
      <trkpt lat="45.871" lon="4.35022">
        <ele>830</ele>
        <time>2025-05-11T08:28:46Z</time>
      </trkpt>
      <trkpt lat="45.87097" lon="4.35026">
        <ele>830</ele>
        <time>2025-05-11T08:28:47Z</time>
      </trkpt>
      <trkpt lat="45.87094" lon="4.3503">
        <ele>830</ele>
        <time>2025-05-11T08:28:48Z</time>
      </trkpt>
      <trkpt lat="45.87092" lon="4.35033">
        <ele>830</ele>
        <time>2025-05-11T08:28:49Z</time>
      </trkpt>
      <trkpt lat="45.8709" lon="4.35037">
        <ele>830</ele>
        <time>2025-05-11T08:28:51Z</time>
      </trkpt>
      <trkpt lat="45.87084" lon="4.35049">
        <ele>829</ele>
        <time>2025-05-11T08:28:53Z</time>
      </trkpt>
      <trkpt lat="45.87082" lon="4.35053">
        <ele>829</ele>
        <time>2025-05-11T08:28:54Z</time>
      </trkpt>
      <trkpt lat="45.8708" lon="4.35057">
        <ele>829</ele>
        <time>2025-05-11T08:28:55Z</time>
      </trkpt>
      <trkpt lat="45.87079" lon="4.35061">
        <ele>828</ele>
        <time>2025-05-11T08:28:56Z</time>
      </trkpt>
      <trkpt lat="45.87077" lon="4.35065">
        <ele>828</ele>
        <time>2025-05-11T08:28:57Z</time>
      </trkpt>
      <trkpt lat="45.87075" lon="4.35069">
        <ele>828</ele>
        <time>2025-05-11T08:28:58Z</time>
      </trkpt>
      <trkpt lat="45.87073" lon="4.35073">
        <ele>828</ele>
        <time>2025-05-11T08:28:59Z</time>
      </trkpt>
      <trkpt lat="45.87069" lon="4.35084">
        <ele>828</ele>
        <time>2025-05-11T08:29:01Z</time>
      </trkpt>
      <trkpt lat="45.87067" lon="4.3509">
        <ele>828</ele>
        <time>2025-05-11T08:29:02Z</time>
      </trkpt>
      <trkpt lat="45.87066" lon="4.35097">
        <ele>828</ele>
        <time>2025-05-11T08:29:03Z</time>
      </trkpt>
      <trkpt lat="45.87062" lon="4.3511">
        <ele>828</ele>
        <time>2025-05-11T08:29:05Z</time>
      </trkpt>
      <trkpt lat="45.87061" lon="4.35116">
        <ele>828</ele>
        <time>2025-05-11T08:29:06Z</time>
      </trkpt>
      <trkpt lat="45.87059" lon="4.35122">
        <ele>828</ele>
        <time>2025-05-11T08:29:07Z</time>
      </trkpt>
      <trkpt lat="45.87057" lon="4.35128">
        <ele>829</ele>
        <time>2025-05-11T08:29:08Z</time>
      </trkpt>
      <trkpt lat="45.87055" lon="4.35134">
        <ele>829</ele>
        <time>2025-05-11T08:29:09Z</time>
      </trkpt>
      <trkpt lat="45.87053" lon="4.3514">
        <ele>829</ele>
        <time>2025-05-11T08:29:10Z</time>
      </trkpt>
      <trkpt lat="45.8705" lon="4.35146">
        <ele>829</ele>
        <time>2025-05-11T08:29:11Z</time>
      </trkpt>
      <trkpt lat="45.87047" lon="4.35152">
        <ele>830</ele>
        <time>2025-05-11T08:29:12Z</time>
      </trkpt>
      <trkpt lat="45.87044" lon="4.35157">
        <ele>830</ele>
        <time>2025-05-11T08:29:13Z</time>
      </trkpt>
      <trkpt lat="45.87041" lon="4.35161">
        <ele>830</ele>
        <time>2025-05-11T08:29:14Z</time>
      </trkpt>
      <trkpt lat="45.87031" lon="4.35173">
        <ele>831</ele>
        <time>2025-05-11T08:29:17Z</time>
      </trkpt>
      <trkpt lat="45.87028" lon="4.35177">
        <ele>831</ele>
        <time>2025-05-11T08:29:18Z</time>
      </trkpt>
      <trkpt lat="45.87026" lon="4.35182">
        <ele>832</ele>
        <time>2025-05-11T08:29:19Z</time>
      </trkpt>
      <trkpt lat="45.87022" lon="4.35193">
        <ele>832</ele>
        <time>2025-05-11T08:29:21Z</time>
      </trkpt>
      <trkpt lat="45.87021" lon="4.35199">
        <ele>832</ele>
        <time>2025-05-11T08:29:22Z</time>
      </trkpt>
      <trkpt lat="45.8702" lon="4.35206">
        <ele>832</ele>
        <time>2025-05-11T08:29:23Z</time>
      </trkpt>
      <trkpt lat="45.87018" lon="4.35214">
        <ele>832</ele>
        <time>2025-05-11T08:29:24Z</time>
      </trkpt>
      <trkpt lat="45.87016" lon="4.35221">
        <ele>833</ele>
        <time>2025-05-11T08:29:25Z</time>
      </trkpt>
      <trkpt lat="45.87014" lon="4.35229">
        <ele>833</ele>
        <time>2025-05-11T08:29:26Z</time>
      </trkpt>
      <trkpt lat="45.87011" lon="4.35238">
        <ele>833</ele>
        <time>2025-05-11T08:29:27Z</time>
      </trkpt>
      <trkpt lat="45.87009" lon="4.35246">
        <ele>833</ele>
        <time>2025-05-11T08:29:28Z</time>
      </trkpt>
      <trkpt lat="45.87006" lon="4.35255">
        <ele>833</ele>
        <time>2025-05-11T08:29:29Z</time>
      </trkpt>
      <trkpt lat="45.87004" lon="4.35263">
        <ele>833</ele>
        <time>2025-05-11T08:29:30Z</time>
      </trkpt>
      <trkpt lat="45.87001" lon="4.35271">
        <ele>833</ele>
        <time>2025-05-11T08:29:31Z</time>
      </trkpt>
      <trkpt lat="45.86998" lon="4.35279">
        <ele>833</ele>
        <time>2025-05-11T08:29:32Z</time>
      </trkpt>
      <trkpt lat="45.86995" lon="4.35287">
        <ele>834</ele>
        <time>2025-05-11T08:29:33Z</time>
      </trkpt>
      <trkpt lat="45.86992" lon="4.35295">
        <ele>834</ele>
        <time>2025-05-11T08:29:34Z</time>
      </trkpt>
      <trkpt lat="45.86985" lon="4.35315">
        <ele>834</ele>
        <time>2025-05-11T08:29:36Z</time>
      </trkpt>
      <trkpt lat="45.86981" lon="4.35325">
        <ele>834</ele>
        <time>2025-05-11T08:29:37Z</time>
      </trkpt>
      <trkpt lat="45.86973" lon="4.35346">
        <ele>835</ele>
        <time>2025-05-11T08:29:39Z</time>
      </trkpt>
      <trkpt lat="45.86969" lon="4.35357">
        <ele>835</ele>
        <time>2025-05-11T08:29:40Z</time>
      </trkpt>
      <trkpt lat="45.86966" lon="4.35367">
        <ele>835</ele>
        <time>2025-05-11T08:29:41Z</time>
      </trkpt>
      <trkpt lat="45.86962" lon="4.35378">
        <ele>835</ele>
        <time>2025-05-11T08:29:42Z</time>
      </trkpt>
      <trkpt lat="45.86957" lon="4.35388">
        <ele>835</ele>
        <time>2025-05-11T08:29:43Z</time>
      </trkpt>
      <trkpt lat="45.86953" lon="4.35399">
        <ele>835</ele>
        <time>2025-05-11T08:29:44Z</time>
      </trkpt>
      <trkpt lat="45.86949" lon="4.35409">
        <ele>835</ele>
        <time>2025-05-11T08:29:45Z</time>
      </trkpt>
      <trkpt lat="45.86945" lon="4.35419">
        <ele>836</ele>
        <time>2025-05-11T08:29:46Z</time>
      </trkpt>
      <trkpt lat="45.86932" lon="4.35451">
        <ele>837</ele>
        <time>2025-05-11T08:29:49Z</time>
      </trkpt>
      <trkpt lat="45.86928" lon="4.35464">
        <ele>838</ele>
        <time>2025-05-11T08:29:50Z</time>
      </trkpt>
      <trkpt lat="45.86923" lon="4.35477">
        <ele>838</ele>
        <time>2025-05-11T08:29:51Z</time>
      </trkpt>
      <trkpt lat="45.86918" lon="4.3549">
        <ele>839</ele>
        <time>2025-05-11T08:29:52Z</time>
      </trkpt>
      <trkpt lat="45.86914" lon="4.35503">
        <ele>840</ele>
        <time>2025-05-11T08:29:53Z</time>
      </trkpt>
      <trkpt lat="45.86909" lon="4.35515">
        <ele>841</ele>
        <time>2025-05-11T08:29:54Z</time>
      </trkpt>
      <trkpt lat="45.86904" lon="4.35526">
        <ele>841</ele>
        <time>2025-05-11T08:29:55Z</time>
      </trkpt>
      <trkpt lat="45.86899" lon="4.35535">
        <ele>842</ele>
        <time>2025-05-11T08:29:56Z</time>
      </trkpt>
      <trkpt lat="45.86894" lon="4.35544">
        <ele>842</ele>
        <time>2025-05-11T08:29:57Z</time>
      </trkpt>
      <trkpt lat="45.86884" lon="4.3556">
        <ele>843</ele>
        <time>2025-05-11T08:29:59Z</time>
      </trkpt>
      <trkpt lat="45.86875" lon="4.35575">
        <ele>844</ele>
        <time>2025-05-11T08:30:01Z</time>
      </trkpt>
      <trkpt lat="45.86865" lon="4.35591">
        <ele>845</ele>
        <time>2025-05-11T08:30:03Z</time>
      </trkpt>
      <trkpt lat="45.86859" lon="4.35599">
        <ele>845</ele>
        <time>2025-05-11T08:30:04Z</time>
      </trkpt>
      <trkpt lat="45.86853" lon="4.35607">
        <ele>846</ele>
        <time>2025-05-11T08:30:05Z</time>
      </trkpt>
      <trkpt lat="45.86848" lon="4.35616">
        <ele>846</ele>
        <time>2025-05-11T08:30:06Z</time>
      </trkpt>
      <trkpt lat="45.86842" lon="4.35624">
        <ele>847</ele>
        <time>2025-05-11T08:30:07Z</time>
      </trkpt>
      <trkpt lat="45.86837" lon="4.35633">
        <ele>848</ele>
        <time>2025-05-11T08:30:08Z</time>
      </trkpt>
      <trkpt lat="45.86832" lon="4.35643">
        <ele>848</ele>
        <time>2025-05-11T08:30:09Z</time>
      </trkpt>
      <trkpt lat="45.86827" lon="4.35653">
        <ele>849</ele>
        <time>2025-05-11T08:30:10Z</time>
      </trkpt>
      <trkpt lat="45.86822" lon="4.35663">
        <ele>849</ele>
        <time>2025-05-11T08:30:11Z</time>
      </trkpt>
      <trkpt lat="45.86818" lon="4.35673">
        <ele>849</ele>
        <time>2025-05-11T08:30:12Z</time>
      </trkpt>
      <trkpt lat="45.86815" lon="4.35683">
        <ele>849</ele>
        <time>2025-05-11T08:30:13Z</time>
      </trkpt>
      <trkpt lat="45.86812" lon="4.35691">
        <ele>849</ele>
        <time>2025-05-11T08:30:14Z</time>
      </trkpt>
      <trkpt lat="45.86809" lon="4.35699">
        <ele>849</ele>
        <time>2025-05-11T08:30:15Z</time>
      </trkpt>
      <trkpt lat="45.86807" lon="4.35706">
        <ele>849</ele>
        <time>2025-05-11T08:30:16Z</time>
      </trkpt>
      <trkpt lat="45.86805" lon="4.35712">
        <ele>850</ele>
        <time>2025-05-11T08:30:17Z</time>
      </trkpt>
      <trkpt lat="45.86803" lon="4.35718">
        <ele>850</ele>
        <time>2025-05-11T08:30:18Z</time>
      </trkpt>
      <trkpt lat="45.86801" lon="4.35723">
        <ele>850</ele>
        <time>2025-05-11T08:30:19Z</time>
      </trkpt>
      <trkpt lat="45.86799" lon="4.3573">
        <ele>851</ele>
        <time>2025-05-11T08:30:20Z</time>
      </trkpt>
      <trkpt lat="45.86796" lon="4.35736">
        <ele>851</ele>
        <time>2025-05-11T08:30:21Z</time>
      </trkpt>
      <trkpt lat="45.86793" lon="4.35743">
        <ele>852</ele>
        <time>2025-05-11T08:30:22Z</time>
      </trkpt>
      <trkpt lat="45.8679" lon="4.3575">
        <ele>852</ele>
        <time>2025-05-11T08:30:23Z</time>
      </trkpt>
      <trkpt lat="45.86785" lon="4.35758">
        <ele>852</ele>
        <time>2025-05-11T08:30:24Z</time>
      </trkpt>
      <trkpt lat="45.86781" lon="4.35766">
        <ele>852</ele>
        <time>2025-05-11T08:30:25Z</time>
      </trkpt>
      <trkpt lat="45.86776" lon="4.35774">
        <ele>852</ele>
        <time>2025-05-11T08:30:26Z</time>
      </trkpt>
      <trkpt lat="45.86771" lon="4.35783">
        <ele>852</ele>
        <time>2025-05-11T08:30:27Z</time>
      </trkpt>
      <trkpt lat="45.86755" lon="4.3581">
        <ele>852</ele>
        <time>2025-05-11T08:30:30Z</time>
      </trkpt>
      <trkpt lat="45.86745" lon="4.35827">
        <ele>852</ele>
        <time>2025-05-11T08:30:32Z</time>
      </trkpt>
      <trkpt lat="45.8674" lon="4.35835">
        <ele>852</ele>
        <time>2025-05-11T08:30:33Z</time>
      </trkpt>
      <trkpt lat="45.86735" lon="4.35844">
        <ele>852</ele>
        <time>2025-05-11T08:30:34Z</time>
      </trkpt>
      <trkpt lat="45.86731" lon="4.35851">
        <ele>852</ele>
        <time>2025-05-11T08:30:35Z</time>
      </trkpt>
      <trkpt lat="45.86727" lon="4.35859">
        <ele>852</ele>
        <time>2025-05-11T08:30:36Z</time>
      </trkpt>
      <trkpt lat="45.86723" lon="4.35866">
        <ele>852</ele>
        <time>2025-05-11T08:30:37Z</time>
      </trkpt>
      <trkpt lat="45.86719" lon="4.35875">
        <ele>852</ele>
        <time>2025-05-11T08:30:38Z</time>
      </trkpt>
      <trkpt lat="45.86715" lon="4.35883">
        <ele>852</ele>
        <time>2025-05-11T08:30:39Z</time>
      </trkpt>
      <trkpt lat="45.86711" lon="4.35892">
        <ele>852</ele>
        <time>2025-05-11T08:30:40Z</time>
      </trkpt>
      <trkpt lat="45.86707" lon="4.35901">
        <ele>852</ele>
        <time>2025-05-11T08:30:41Z</time>
      </trkpt>
      <trkpt lat="45.86702" lon="4.3591">
        <ele>852</ele>
        <time>2025-05-11T08:30:42Z</time>
      </trkpt>
      <trkpt lat="45.86698" lon="4.35919">
        <ele>852</ele>
        <time>2025-05-11T08:30:43Z</time>
      </trkpt>
      <trkpt lat="45.86693" lon="4.35928">
        <ele>852</ele>
        <time>2025-05-11T08:30:44Z</time>
      </trkpt>
      <trkpt lat="45.86689" lon="4.35937">
        <ele>852</ele>
        <time>2025-05-11T08:30:45Z</time>
      </trkpt>
      <trkpt lat="45.8668" lon="4.35955">
        <ele>852</ele>
        <time>2025-05-11T08:30:47Z</time>
      </trkpt>
      <trkpt lat="45.86676" lon="4.35964">
        <ele>852</ele>
        <time>2025-05-11T08:30:48Z</time>
      </trkpt>
      <trkpt lat="45.86671" lon="4.35974">
        <ele>852</ele>
        <time>2025-05-11T08:30:49Z</time>
      </trkpt>
      <trkpt lat="45.86666" lon="4.35984">
        <ele>852</ele>
        <time>2025-05-11T08:30:50Z</time>
      </trkpt>
      <trkpt lat="45.86661" lon="4.35994">
        <ele>852</ele>
        <time>2025-05-11T08:30:51Z</time>
      </trkpt>
      <trkpt lat="45.86655" lon="4.36003">
        <ele>852</ele>
        <time>2025-05-11T08:30:52Z</time>
      </trkpt>
      <trkpt lat="45.8665" lon="4.36013">
        <ele>852</ele>
        <time>2025-05-11T08:30:53Z</time>
      </trkpt>
      <trkpt lat="45.8664" lon="4.36032">
        <ele>853</ele>
        <time>2025-05-11T08:30:55Z</time>
      </trkpt>
      <trkpt lat="45.86635" lon="4.3604">
        <ele>853</ele>
        <time>2025-05-11T08:30:56Z</time>
      </trkpt>
      <trkpt lat="45.86631" lon="4.36048">
        <ele>853</ele>
        <time>2025-05-11T08:30:57Z</time>
      </trkpt>
      <trkpt lat="45.86626" lon="4.36056">
        <ele>853</ele>
        <time>2025-05-11T08:30:58Z</time>
      </trkpt>
      <trkpt lat="45.86622" lon="4.36065">
        <ele>853</ele>
        <time>2025-05-11T08:30:59Z</time>
      </trkpt>
      <trkpt lat="45.86618" lon="4.36073">
        <ele>854</ele>
        <time>2025-05-11T08:31:00Z</time>
      </trkpt>
      <trkpt lat="45.86613" lon="4.36081">
        <ele>854</ele>
        <time>2025-05-11T08:31:01Z</time>
      </trkpt>
      <trkpt lat="45.86605" lon="4.36097">
        <ele>855</ele>
        <time>2025-05-11T08:31:03Z</time>
      </trkpt>
      <trkpt lat="45.866" lon="4.36105">
        <ele>856</ele>
        <time>2025-05-11T08:31:04Z</time>
      </trkpt>
      <trkpt lat="45.86592" lon="4.36122">
        <ele>856</ele>
        <time>2025-05-11T08:31:06Z</time>
      </trkpt>
      <trkpt lat="45.86588" lon="4.36131">
        <ele>857</ele>
        <time>2025-05-11T08:31:07Z</time>
      </trkpt>
      <trkpt lat="45.86584" lon="4.36139">
        <ele>857</ele>
        <time>2025-05-11T08:31:08Z</time>
      </trkpt>
      <trkpt lat="45.86579" lon="4.36147">
        <ele>857</ele>
        <time>2025-05-11T08:31:09Z</time>
      </trkpt>
      <trkpt lat="45.86575" lon="4.36156">
        <ele>857</ele>
        <time>2025-05-11T08:31:10Z</time>
      </trkpt>
      <trkpt lat="45.8657" lon="4.36164">
        <ele>858</ele>
        <time>2025-05-11T08:31:11Z</time>
      </trkpt>
      <trkpt lat="45.86565" lon="4.36173">
        <ele>858</ele>
        <time>2025-05-11T08:31:12Z</time>
      </trkpt>
      <trkpt lat="45.86559" lon="4.3618">
        <ele>859</ele>
        <time>2025-05-11T08:31:13Z</time>
      </trkpt>
      <trkpt lat="45.86547" lon="4.36197">
        <ele>859</ele>
        <time>2025-05-11T08:31:15Z</time>
      </trkpt>
      <trkpt lat="45.86541" lon="4.36205">
        <ele>860</ele>
        <time>2025-05-11T08:31:16Z</time>
      </trkpt>
      <trkpt lat="45.86534" lon="4.36213">
        <ele>860</ele>
        <time>2025-05-11T08:31:17Z</time>
      </trkpt>
      <trkpt lat="45.86521" lon="4.36227">
        <ele>861</ele>
        <time>2025-05-11T08:31:19Z</time>
      </trkpt>
      <trkpt lat="45.86514" lon="4.36234">
        <ele>861</ele>
        <time>2025-05-11T08:31:20Z</time>
      </trkpt>
      <trkpt lat="45.86501" lon="4.36248">
        <ele>862</ele>
        <time>2025-05-11T08:31:22Z</time>
      </trkpt>
      <trkpt lat="45.86488" lon="4.36264">
        <ele>862</ele>
        <time>2025-05-11T08:31:24Z</time>
      </trkpt>
      <trkpt lat="45.86481" lon="4.36272">
        <ele>863</ele>
        <time>2025-05-11T08:31:25Z</time>
      </trkpt>
      <trkpt lat="45.86474" lon="4.36281">
        <ele>863</ele>
        <time>2025-05-11T08:31:26Z</time>
      </trkpt>
      <trkpt lat="45.86467" lon="4.36288">
        <ele>863</ele>
        <time>2025-05-11T08:31:27Z</time>
      </trkpt>
      <trkpt lat="45.86461" lon="4.36294">
        <ele>863</ele>
        <time>2025-05-11T08:31:28Z</time>
      </trkpt>
      <trkpt lat="45.86456" lon="4.36301">
        <ele>863</ele>
        <time>2025-05-11T08:31:29Z</time>
      </trkpt>
      <trkpt lat="45.8645" lon="4.36307">
        <ele>864</ele>
        <time>2025-05-11T08:31:30Z</time>
      </trkpt>
      <trkpt lat="45.86444" lon="4.36312">
        <ele>864</ele>
        <time>2025-05-11T08:31:31Z</time>
      </trkpt>
      <trkpt lat="45.86438" lon="4.36317">
        <ele>864</ele>
        <time>2025-05-11T08:31:32Z</time>
      </trkpt>
      <trkpt lat="45.86433" lon="4.3632">
        <ele>864</ele>
        <time>2025-05-11T08:31:33Z</time>
      </trkpt>
      <trkpt lat="45.86429" lon="4.36323">
        <ele>864</ele>
        <time>2025-05-11T08:31:34Z</time>
      </trkpt>
      <trkpt lat="45.86424" lon="4.36325">
        <ele>864</ele>
        <time>2025-05-11T08:31:35Z</time>
      </trkpt>
      <trkpt lat="45.8642" lon="4.36327">
        <ele>865</ele>
        <time>2025-05-11T08:31:36Z</time>
      </trkpt>
      <trkpt lat="45.86415" lon="4.36328">
        <ele>865</ele>
        <time>2025-05-11T08:31:37Z</time>
      </trkpt>
      <trkpt lat="45.86411" lon="4.36328">
        <ele>866</ele>
        <time>2025-05-11T08:31:38Z</time>
      </trkpt>
      <trkpt lat="45.86399" lon="4.36328">
        <ele>867</ele>
        <time>2025-05-11T08:31:40Z</time>
      </trkpt>
      <trkpt lat="45.86387" lon="4.36328">
        <ele>868</ele>
        <time>2025-05-11T08:31:42Z</time>
      </trkpt>
      <trkpt lat="45.8638" lon="4.36328">
        <ele>868</ele>
        <time>2025-05-11T08:31:43Z</time>
      </trkpt>
      <trkpt lat="45.86366" lon="4.36328">
        <ele>869</ele>
        <time>2025-05-11T08:31:45Z</time>
      </trkpt>
      <trkpt lat="45.86351" lon="4.3633">
        <ele>869</ele>
        <time>2025-05-11T08:31:47Z</time>
      </trkpt>
      <trkpt lat="45.86335" lon="4.36332">
        <ele>870</ele>
        <time>2025-05-11T08:31:49Z</time>
      </trkpt>
      <trkpt lat="45.8632" lon="4.36333">
        <ele>870</ele>
        <time>2025-05-11T08:31:51Z</time>
      </trkpt>
      <trkpt lat="45.86312" lon="4.36333">
        <ele>870</ele>
        <time>2025-05-11T08:31:53Z</time>
      </trkpt>
      <trkpt lat="45.86294" lon="4.36334">
        <ele>871</ele>
        <time>2025-05-11T08:31:54Z</time>
      </trkpt>
      <trkpt lat="45.86286" lon="4.36334">
        <ele>871</ele>
        <time>2025-05-11T08:31:55Z</time>
      </trkpt>
      <trkpt lat="45.86277" lon="4.36333">
        <ele>871</ele>
        <time>2025-05-11T08:31:56Z</time>
      </trkpt>
      <trkpt lat="45.86268" lon="4.36332">
        <ele>871</ele>
        <time>2025-05-11T08:31:57Z</time>
      </trkpt>
      <trkpt lat="45.8626" lon="4.36329">
        <ele>871</ele>
        <time>2025-05-11T08:31:58Z</time>
      </trkpt>
      <trkpt lat="45.86251" lon="4.36326">
        <ele>871</ele>
        <time>2025-05-11T08:31:59Z</time>
      </trkpt>
      <trkpt lat="45.86242" lon="4.36323">
        <ele>872</ele>
        <time>2025-05-11T08:32:00Z</time>
      </trkpt>
      <trkpt lat="45.86233" lon="4.3632">
        <ele>872</ele>
        <time>2025-05-11T08:32:01Z</time>
      </trkpt>
      <trkpt lat="45.86225" lon="4.36317">
        <ele>873</ele>
        <time>2025-05-11T08:32:02Z</time>
      </trkpt>
      <trkpt lat="45.86208" lon="4.3631">
        <ele>873</ele>
        <time>2025-05-11T08:32:04Z</time>
      </trkpt>
      <trkpt lat="45.86193" lon="4.36301">
        <ele>874</ele>
        <time>2025-05-11T08:32:06Z</time>
      </trkpt>
      <trkpt lat="45.86186" lon="4.36297">
        <ele>875</ele>
        <time>2025-05-11T08:32:07Z</time>
      </trkpt>
      <trkpt lat="45.86178" lon="4.36294">
        <ele>875</ele>
        <time>2025-05-11T08:32:08Z</time>
      </trkpt>
      <trkpt lat="45.86171" lon="4.3629">
        <ele>875</ele>
        <time>2025-05-11T08:32:09Z</time>
      </trkpt>
      <trkpt lat="45.86164" lon="4.36287">
        <ele>875</ele>
        <time>2025-05-11T08:32:10Z</time>
      </trkpt>
      <trkpt lat="45.8615" lon="4.36282">
        <ele>876</ele>
        <time>2025-05-11T08:32:12Z</time>
      </trkpt>
      <trkpt lat="45.86142" lon="4.36279">
        <ele>876</ele>
        <time>2025-05-11T08:32:13Z</time>
      </trkpt>
      <trkpt lat="45.86135" lon="4.36276">
        <ele>876</ele>
        <time>2025-05-11T08:32:14Z</time>
      </trkpt>
      <trkpt lat="45.8612" lon="4.3627">
        <ele>876</ele>
        <time>2025-05-11T08:32:16Z</time>
      </trkpt>
      <trkpt lat="45.86113" lon="4.36268">
        <ele>876</ele>
        <time>2025-05-11T08:32:17Z</time>
      </trkpt>
      <trkpt lat="45.86106" lon="4.36265">
        <ele>876</ele>
        <time>2025-05-11T08:32:18Z</time>
      </trkpt>
      <trkpt lat="45.86099" lon="4.36262">
        <ele>876</ele>
        <time>2025-05-11T08:32:19Z</time>
      </trkpt>
      <trkpt lat="45.86092" lon="4.36259">
        <ele>876</ele>
        <time>2025-05-11T08:32:20Z</time>
      </trkpt>
      <trkpt lat="45.86085" lon="4.36256">
        <ele>876</ele>
        <time>2025-05-11T08:32:21Z</time>
      </trkpt>
      <trkpt lat="45.86077" lon="4.36254">
        <ele>876</ele>
        <time>2025-05-11T08:32:22Z</time>
      </trkpt>
      <trkpt lat="45.86069" lon="4.36251">
        <ele>876</ele>
        <time>2025-05-11T08:32:23Z</time>
      </trkpt>
      <trkpt lat="45.86054" lon="4.36248">
        <ele>877</ele>
        <time>2025-05-11T08:32:25Z</time>
      </trkpt>
      <trkpt lat="45.86047" lon="4.36247">
        <ele>877</ele>
        <time>2025-05-11T08:32:26Z</time>
      </trkpt>
      <trkpt lat="45.8604" lon="4.36246">
        <ele>877</ele>
        <time>2025-05-11T08:32:27Z</time>
      </trkpt>
      <trkpt lat="45.86033" lon="4.36245">
        <ele>877</ele>
        <time>2025-05-11T08:32:28Z</time>
      </trkpt>
      <trkpt lat="45.86026" lon="4.36244">
        <ele>878</ele>
        <time>2025-05-11T08:32:29Z</time>
      </trkpt>
      <trkpt lat="45.8602" lon="4.36242">
        <ele>878</ele>
        <time>2025-05-11T08:32:31Z</time>
      </trkpt>
      <trkpt lat="45.86005" lon="4.36238">
        <ele>878</ele>
        <time>2025-05-11T08:32:32Z</time>
      </trkpt>
      <trkpt lat="45.85997" lon="4.36236">
        <ele>878</ele>
        <time>2025-05-11T08:32:33Z</time>
      </trkpt>
      <trkpt lat="45.8599" lon="4.36233">
        <ele>878</ele>
        <time>2025-05-11T08:32:34Z</time>
      </trkpt>
      <trkpt lat="45.85981" lon="4.36231">
        <ele>879</ele>
        <time>2025-05-11T08:32:35Z</time>
      </trkpt>
      <trkpt lat="45.85973" lon="4.36228">
        <ele>879</ele>
        <time>2025-05-11T08:32:36Z</time>
      </trkpt>
      <trkpt lat="45.85957" lon="4.36221">
        <ele>878</ele>
        <time>2025-05-11T08:32:38Z</time>
      </trkpt>
      <trkpt lat="45.85941" lon="4.36216">
        <ele>877</ele>
        <time>2025-05-11T08:32:40Z</time>
      </trkpt>
      <trkpt lat="45.85932" lon="4.36215">
        <ele>877</ele>
        <time>2025-05-11T08:32:41Z</time>
      </trkpt>
      <trkpt lat="45.85924" lon="4.36215">
        <ele>877</ele>
        <time>2025-05-11T08:32:43Z</time>
      </trkpt>
      <trkpt lat="45.85908" lon="4.36212">
        <ele>876</ele>
        <time>2025-05-11T08:32:44Z</time>
      </trkpt>
      <trkpt lat="45.85893" lon="4.36209">
        <ele>876</ele>
        <time>2025-05-11T08:32:46Z</time>
      </trkpt>
      <trkpt lat="45.85877" lon="4.36205">
        <ele>876</ele>
        <time>2025-05-11T08:32:48Z</time>
      </trkpt>
      <trkpt lat="45.85862" lon="4.362">
        <ele>876</ele>
        <time>2025-05-11T08:32:51Z</time>
      </trkpt>
      <trkpt lat="45.85855" lon="4.36198">
        <ele>875</ele>
        <time>2025-05-11T08:32:52Z</time>
      </trkpt>
      <trkpt lat="45.8584" lon="4.36193">
        <ele>875</ele>
        <time>2025-05-11T08:32:53Z</time>
      </trkpt>
      <trkpt lat="45.85832" lon="4.3619">
        <ele>875</ele>
        <time>2025-05-11T08:32:54Z</time>
      </trkpt>
      <trkpt lat="45.85824" lon="4.36188">
        <ele>875</ele>
        <time>2025-05-11T08:32:55Z</time>
      </trkpt>
      <trkpt lat="45.85816" lon="4.36185">
        <ele>875</ele>
        <time>2025-05-11T08:32:56Z</time>
      </trkpt>
      <trkpt lat="45.85808" lon="4.36183">
        <ele>875</ele>
        <time>2025-05-11T08:32:57Z</time>
      </trkpt>
      <trkpt lat="45.858" lon="4.36182">
        <ele>875</ele>
        <time>2025-05-11T08:32:58Z</time>
      </trkpt>
      <trkpt lat="45.85793" lon="4.36181">
        <ele>876</ele>
        <time>2025-05-11T08:32:59Z</time>
      </trkpt>
      <trkpt lat="45.85787" lon="4.36181">
        <ele>876</ele>
        <time>2025-05-11T08:33:00Z</time>
      </trkpt>
      <trkpt lat="45.8578" lon="4.36181">
        <ele>877</ele>
        <time>2025-05-11T08:33:01Z</time>
      </trkpt>
      <trkpt lat="45.85774" lon="4.36182">
        <ele>877</ele>
        <time>2025-05-11T08:33:02Z</time>
      </trkpt>
      <trkpt lat="45.85767" lon="4.36184">
        <ele>877</ele>
        <time>2025-05-11T08:33:03Z</time>
      </trkpt>
      <trkpt lat="45.85761" lon="4.36186">
        <ele>877</ele>
        <time>2025-05-11T08:33:04Z</time>
      </trkpt>
      <trkpt lat="45.85755" lon="4.36189">
        <ele>877</ele>
        <time>2025-05-11T08:33:05Z</time>
      </trkpt>
      <trkpt lat="45.85743" lon="4.36197">
        <ele>877</ele>
        <time>2025-05-11T08:33:07Z</time>
      </trkpt>
      <trkpt lat="45.85731" lon="4.36208">
        <ele>877</ele>
        <time>2025-05-11T08:33:09Z</time>
      </trkpt>
      <trkpt lat="45.85719" lon="4.36218">
        <ele>878</ele>
        <time>2025-05-11T08:33:11Z</time>
      </trkpt>
      <trkpt lat="45.85713" lon="4.36223">
        <ele>878</ele>
        <time>2025-05-11T08:33:12Z</time>
      </trkpt>
      <trkpt lat="45.85706" lon="4.36228">
        <ele>877</ele>
        <time>2025-05-11T08:33:13Z</time>
      </trkpt>
      <trkpt lat="45.857" lon="4.36233">
        <ele>877</ele>
        <time>2025-05-11T08:33:14Z</time>
      </trkpt>
      <trkpt lat="45.8569" lon="4.36244">
        <ele>877</ele>
        <time>2025-05-11T08:33:16Z</time>
      </trkpt>
      <trkpt lat="45.85684" lon="4.3625">
        <ele>877</ele>
        <time>2025-05-11T08:33:17Z</time>
      </trkpt>
      <trkpt lat="45.85678" lon="4.36257">
        <ele>877</ele>
        <time>2025-05-11T08:33:18Z</time>
      </trkpt>
      <trkpt lat="45.85667" lon="4.36269">
        <ele>877</ele>
        <time>2025-05-11T08:33:20Z</time>
      </trkpt>
      <trkpt lat="45.85663" lon="4.36275">
        <ele>877</ele>
        <time>2025-05-11T08:33:21Z</time>
      </trkpt>
      <trkpt lat="45.85658" lon="4.3628">
        <ele>877</ele>
        <time>2025-05-11T08:33:22Z</time>
      </trkpt>
      <trkpt lat="45.85653" lon="4.36286">
        <ele>876</ele>
        <time>2025-05-11T08:33:23Z</time>
      </trkpt>
      <trkpt lat="45.85649" lon="4.36292">
        <ele>876</ele>
        <time>2025-05-11T08:33:24Z</time>
      </trkpt>
      <trkpt lat="45.85645" lon="4.36298">
        <ele>876</ele>
        <time>2025-05-11T08:33:25Z</time>
      </trkpt>
      <trkpt lat="45.85641" lon="4.36303">
        <ele>876</ele>
        <time>2025-05-11T08:33:26Z</time>
      </trkpt>
      <trkpt lat="45.85636" lon="4.36309">
        <ele>876</ele>
        <time>2025-05-11T08:33:27Z</time>
      </trkpt>
      <trkpt lat="45.85632" lon="4.36314">
        <ele>876</ele>
        <time>2025-05-11T08:33:28Z</time>
      </trkpt>
      <trkpt lat="45.85628" lon="4.36319">
        <ele>876</ele>
        <time>2025-05-11T08:33:29Z</time>
      </trkpt>
      <trkpt lat="45.85624" lon="4.36324">
        <ele>876</ele>
        <time>2025-05-11T08:33:30Z</time>
      </trkpt>
      <trkpt lat="45.8562" lon="4.36328">
        <ele>876</ele>
        <time>2025-05-11T08:33:31Z</time>
      </trkpt>
      <trkpt lat="45.85615" lon="4.36332">
        <ele>876</ele>
        <time>2025-05-11T08:33:32Z</time>
      </trkpt>
      <trkpt lat="45.85611" lon="4.36336">
        <ele>876</ele>
        <time>2025-05-11T08:33:33Z</time>
      </trkpt>
      <trkpt lat="45.85606" lon="4.36339">
        <ele>876</ele>
        <time>2025-05-11T08:33:34Z</time>
      </trkpt>
      <trkpt lat="45.85602" lon="4.36343">
        <ele>876</ele>
        <time>2025-05-11T08:33:35Z</time>
      </trkpt>
      <trkpt lat="45.85596" lon="4.36345">
        <ele>876</ele>
        <time>2025-05-11T08:33:36Z</time>
      </trkpt>
      <trkpt lat="45.85584" lon="4.3635">
        <ele>876</ele>
        <time>2025-05-11T08:33:38Z</time>
      </trkpt>
      <trkpt lat="45.85572" lon="4.36352">
        <ele>876</ele>
        <time>2025-05-11T08:33:40Z</time>
      </trkpt>
      <trkpt lat="45.8556" lon="4.36352">
        <ele>875</ele>
        <time>2025-05-11T08:33:42Z</time>
      </trkpt>
      <trkpt lat="45.8555" lon="4.36353">
        <ele>874</ele>
        <time>2025-05-11T08:33:44Z</time>
      </trkpt>
      <trkpt lat="45.8554" lon="4.36353">
        <ele>874</ele>
        <time>2025-05-11T08:33:46Z</time>
      </trkpt>
      <trkpt lat="45.85529" lon="4.36355">
        <ele>873</ele>
        <time>2025-05-11T08:33:48Z</time>
      </trkpt>
      <trkpt lat="45.85518" lon="4.36354">
        <ele>873</ele>
        <time>2025-05-11T08:33:51Z</time>
      </trkpt>
      <trkpt lat="45.85507" lon="4.3636">
        <ele>872</ele>
        <time>2025-05-11T08:33:53Z</time>
      </trkpt>
      <trkpt lat="45.855" lon="4.3637">
        <ele>871</ele>
        <time>2025-05-11T08:34:00Z</time>
      </trkpt>
      <trkpt lat="45.85491" lon="4.36383">
        <ele>871</ele>
        <time>2025-05-11T08:34:03Z</time>
      </trkpt>
      <trkpt lat="45.85489" lon="4.36386">
        <ele>871</ele>
        <time>2025-05-11T08:34:04Z</time>
      </trkpt>
      <trkpt lat="45.85483" lon="4.36397">
        <ele>870</ele>
        <time>2025-05-11T08:34:09Z</time>
      </trkpt>
      <trkpt lat="45.85482" lon="4.364">
        <ele>870</ele>
        <time>2025-05-11T08:34:10Z</time>
      </trkpt>
      <trkpt lat="45.85481" lon="4.36404">
        <ele>870</ele>
        <time>2025-05-11T08:34:11Z</time>
      </trkpt>
      <trkpt lat="45.85479" lon="4.36417">
        <ele>870</ele>
        <time>2025-05-11T08:34:14Z</time>
      </trkpt>
      <trkpt lat="45.85477" lon="4.36432">
        <ele>871</ele>
        <time>2025-05-11T08:34:17Z</time>
      </trkpt>
      <trkpt lat="45.85474" lon="4.36451">
        <ele>871</ele>
        <time>2025-05-11T08:34:20Z</time>
      </trkpt>
      <trkpt lat="45.85469" lon="4.36465">
        <ele>871</ele>
        <time>2025-05-11T08:34:22Z</time>
      </trkpt>
      <trkpt lat="45.85466" lon="4.36478">
        <ele>871</ele>
        <time>2025-05-11T08:34:24Z</time>
      </trkpt>
      <trkpt lat="45.85463" lon="4.36491">
        <ele>871</ele>
        <time>2025-05-11T08:34:26Z</time>
      </trkpt>
      <trkpt lat="45.85459" lon="4.36506">
        <ele>871</ele>
        <time>2025-05-11T08:34:28Z</time>
      </trkpt>
      <trkpt lat="45.85456" lon="4.3652">
        <ele>872</ele>
        <time>2025-05-11T08:34:30Z</time>
      </trkpt>
      <trkpt lat="45.85453" lon="4.36536">
        <ele>873</ele>
        <time>2025-05-11T08:34:33Z</time>
      </trkpt>
      <trkpt lat="45.85449" lon="4.36551">
        <ele>873</ele>
        <time>2025-05-11T08:34:34Z</time>
      </trkpt>
      <trkpt lat="45.85442" lon="4.36566">
        <ele>874</ele>
        <time>2025-05-11T08:34:37Z</time>
      </trkpt>
      <trkpt lat="45.85431" lon="4.36582">
        <ele>875</ele>
        <time>2025-05-11T08:34:38Z</time>
      </trkpt>
      <trkpt lat="45.85421" lon="4.36597">
        <ele>876</ele>
        <time>2025-05-11T08:34:40Z</time>
      </trkpt>
      <trkpt lat="45.85415" lon="4.36606">
        <ele>876</ele>
        <time>2025-05-11T08:34:41Z</time>
      </trkpt>
      <trkpt lat="45.85409" lon="4.36615">
        <ele>877</ele>
        <time>2025-05-11T08:34:42Z</time>
      </trkpt>
      <trkpt lat="45.85403" lon="4.36625">
        <ele>877</ele>
        <time>2025-05-11T08:34:43Z</time>
      </trkpt>
      <trkpt lat="45.85397" lon="4.36634">
        <ele>877</ele>
        <time>2025-05-11T08:34:44Z</time>
      </trkpt>
      <trkpt lat="45.85391" lon="4.36643">
        <ele>878</ele>
        <time>2025-05-11T08:34:45Z</time>
      </trkpt>
      <trkpt lat="45.85385" lon="4.36652">
        <ele>878</ele>
        <time>2025-05-11T08:34:46Z</time>
      </trkpt>
      <trkpt lat="45.85379" lon="4.36661">
        <ele>879</ele>
        <time>2025-05-11T08:34:47Z</time>
      </trkpt>
      <trkpt lat="45.85374" lon="4.36669">
        <ele>879</ele>
        <time>2025-05-11T08:34:48Z</time>
      </trkpt>
      <trkpt lat="45.85368" lon="4.36678">
        <ele>879</ele>
        <time>2025-05-11T08:34:49Z</time>
      </trkpt>
      <trkpt lat="45.85362" lon="4.36687">
        <ele>880</ele>
        <time>2025-05-11T08:34:50Z</time>
      </trkpt>
      <trkpt lat="45.85356" lon="4.36696">
        <ele>880</ele>
        <time>2025-05-11T08:34:51Z</time>
      </trkpt>
      <trkpt lat="45.85349" lon="4.36705">
        <ele>880</ele>
        <time>2025-05-11T08:34:52Z</time>
      </trkpt>
      <trkpt lat="45.85342" lon="4.36717">
        <ele>880</ele>
        <time>2025-05-11T08:34:53Z</time>
      </trkpt>
      <trkpt lat="45.85334" lon="4.36728">
        <ele>880</ele>
        <time>2025-05-11T08:34:54Z</time>
      </trkpt>
      <trkpt lat="45.85327" lon="4.36741">
        <ele>881</ele>
        <time>2025-05-11T08:34:55Z</time>
      </trkpt>
      <trkpt lat="45.85319" lon="4.36753">
        <ele>881</ele>
        <time>2025-05-11T08:34:56Z</time>
      </trkpt>
      <trkpt lat="45.8531" lon="4.36766">
        <ele>881</ele>
        <time>2025-05-11T08:34:57Z</time>
      </trkpt>
      <trkpt lat="45.85302" lon="4.36778">
        <ele>882</ele>
        <time>2025-05-11T08:34:58Z</time>
      </trkpt>
      <trkpt lat="45.85294" lon="4.3679">
        <ele>882</ele>
        <time>2025-05-11T08:34:59Z</time>
      </trkpt>
      <trkpt lat="45.85279" lon="4.36813">
        <ele>883</ele>
        <time>2025-05-11T08:35:01Z</time>
      </trkpt>
      <trkpt lat="45.85272" lon="4.36824">
        <ele>886</ele>
        <time>2025-05-11T08:35:03Z</time>
      </trkpt>
      <trkpt lat="45.85259" lon="4.36845">
        <ele>886</ele>
        <time>2025-05-11T08:35:04Z</time>
      </trkpt>
      <trkpt lat="45.85252" lon="4.36854">
        <ele>889</ele>
        <time>2025-05-11T08:35:05Z</time>
      </trkpt>
      <trkpt lat="45.85246" lon="4.36863">
        <ele>890</ele>
        <time>2025-05-11T08:35:06Z</time>
      </trkpt>
      <trkpt lat="45.85241" lon="4.36872">
        <ele>892</ele>
        <time>2025-05-11T08:35:08Z</time>
      </trkpt>
      <trkpt lat="45.8523" lon="4.3689">
        <ele>894</ele>
        <time>2025-05-11T08:35:09Z</time>
      </trkpt>
      <trkpt lat="45.85226" lon="4.36899">
        <ele>895</ele>
        <time>2025-05-11T08:35:10Z</time>
      </trkpt>
      <trkpt lat="45.85221" lon="4.36908">
        <ele>896</ele>
        <time>2025-05-11T08:35:11Z</time>
      </trkpt>
      <trkpt lat="45.85216" lon="4.36916">
        <ele>896</ele>
        <time>2025-05-11T08:35:12Z</time>
      </trkpt>
      <trkpt lat="45.85207" lon="4.36934">
        <ele>898</ele>
        <time>2025-05-11T08:35:14Z</time>
      </trkpt>
      <trkpt lat="45.85197" lon="4.36952">
        <ele>899</ele>
        <time>2025-05-11T08:35:16Z</time>
      </trkpt>
      <trkpt lat="45.85192" lon="4.36961">
        <ele>900</ele>
        <time>2025-05-11T08:35:17Z</time>
      </trkpt>
      <trkpt lat="45.85188" lon="4.3697">
        <ele>901</ele>
        <time>2025-05-11T08:35:18Z</time>
      </trkpt>
      <trkpt lat="45.85183" lon="4.36978">
        <ele>901</ele>
        <time>2025-05-11T08:35:19Z</time>
      </trkpt>
      <trkpt lat="45.85179" lon="4.36986">
        <ele>902</ele>
        <time>2025-05-11T08:35:20Z</time>
      </trkpt>
      <trkpt lat="45.85175" lon="4.36994">
        <ele>902</ele>
        <time>2025-05-11T08:35:21Z</time>
      </trkpt>
      <trkpt lat="45.85168" lon="4.37011">
        <ele>902</ele>
        <time>2025-05-11T08:35:23Z</time>
      </trkpt>
      <trkpt lat="45.85165" lon="4.37019">
        <ele>902</ele>
        <time>2025-05-11T08:35:24Z</time>
      </trkpt>
      <trkpt lat="45.85163" lon="4.37027">
        <ele>902</ele>
        <time>2025-05-11T08:35:25Z</time>
      </trkpt>
      <trkpt lat="45.8516" lon="4.37035">
        <ele>903</ele>
        <time>2025-05-11T08:35:26Z</time>
      </trkpt>
      <trkpt lat="45.85157" lon="4.37044">
        <ele>903</ele>
        <time>2025-05-11T08:35:27Z</time>
      </trkpt>
      <trkpt lat="45.85155" lon="4.37052">
        <ele>903</ele>
        <time>2025-05-11T08:35:28Z</time>
      </trkpt>
      <trkpt lat="45.85153" lon="4.3706">
        <ele>903</ele>
        <time>2025-05-11T08:35:29Z</time>
      </trkpt>
      <trkpt lat="45.85151" lon="4.37067">
        <ele>903</ele>
        <time>2025-05-11T08:35:30Z</time>
      </trkpt>
      <trkpt lat="45.8515" lon="4.37074">
        <ele>904</ele>
        <time>2025-05-11T08:35:31Z</time>
      </trkpt>
      <trkpt lat="45.85148" lon="4.3708">
        <ele>904</ele>
        <time>2025-05-11T08:35:32Z</time>
      </trkpt>
      <trkpt lat="45.85145" lon="4.37093">
        <ele>904</ele>
        <time>2025-05-11T08:35:34Z</time>
      </trkpt>
      <trkpt lat="45.8514" lon="4.37107">
        <ele>905</ele>
        <time>2025-05-11T08:35:36Z</time>
      </trkpt>
      <trkpt lat="45.85138" lon="4.37115">
        <ele>905</ele>
        <time>2025-05-11T08:35:37Z</time>
      </trkpt>
      <trkpt lat="45.85133" lon="4.37132">
        <ele>905</ele>
        <time>2025-05-11T08:35:39Z</time>
      </trkpt>
      <trkpt lat="45.85129" lon="4.37149">
        <ele>906</ele>
        <time>2025-05-11T08:35:41Z</time>
      </trkpt>
      <trkpt lat="45.85126" lon="4.37166">
        <ele>906</ele>
        <time>2025-05-11T08:35:43Z</time>
      </trkpt>
      <trkpt lat="45.85122" lon="4.37182">
        <ele>906</ele>
        <time>2025-05-11T08:35:45Z</time>
      </trkpt>
      <trkpt lat="45.85118" lon="4.37196">
        <ele>907</ele>
        <time>2025-05-11T08:35:47Z</time>
      </trkpt>
      <trkpt lat="45.85114" lon="4.37212">
        <ele>907</ele>
        <time>2025-05-11T08:35:49Z</time>
      </trkpt>
      <trkpt lat="45.8511" lon="4.37225">
        <ele>907</ele>
        <time>2025-05-11T08:35:51Z</time>
      </trkpt>
      <trkpt lat="45.85105" lon="4.37242">
        <ele>907</ele>
        <time>2025-05-11T08:35:53Z</time>
      </trkpt>
      <trkpt lat="45.85098" lon="4.37261">
        <ele>908</ele>
        <time>2025-05-11T08:35:55Z</time>
      </trkpt>
      <trkpt lat="45.85091" lon="4.37274">
        <ele>908</ele>
        <time>2025-05-11T08:35:57Z</time>
      </trkpt>
      <trkpt lat="45.85084" lon="4.3729">
        <ele>908</ele>
        <time>2025-05-11T08:35:59Z</time>
      </trkpt>
      <trkpt lat="45.85077" lon="4.37307">
        <ele>909</ele>
        <time>2025-05-11T08:36:01Z</time>
      </trkpt>
      <trkpt lat="45.85068" lon="4.37327">
        <ele>909</ele>
        <time>2025-05-11T08:36:03Z</time>
      </trkpt>
      <trkpt lat="45.85061" lon="4.37345">
        <ele>910</ele>
        <time>2025-05-11T08:36:05Z</time>
      </trkpt>
      <trkpt lat="45.85052" lon="4.37362">
        <ele>910</ele>
        <time>2025-05-11T08:36:07Z</time>
      </trkpt>
      <trkpt lat="45.85041" lon="4.37383">
        <ele>911</ele>
        <time>2025-05-11T08:36:09Z</time>
      </trkpt>
      <trkpt lat="45.85032" lon="4.37404">
        <ele>912</ele>
        <time>2025-05-11T08:36:11Z</time>
      </trkpt>
      <trkpt lat="45.85021" lon="4.37423">
        <ele>913</ele>
        <time>2025-05-11T08:36:13Z</time>
      </trkpt>
      <trkpt lat="45.85011" lon="4.3744">
        <ele>914</ele>
        <time>2025-05-11T08:36:15Z</time>
      </trkpt>
      <trkpt lat="45.85002" lon="4.37456">
        <ele>915</ele>
        <time>2025-05-11T08:36:17Z</time>
      </trkpt>
      <trkpt lat="45.8499" lon="4.37476">
        <ele>917</ele>
        <time>2025-05-11T08:36:19Z</time>
      </trkpt>
      <trkpt lat="45.84976" lon="4.37498">
        <ele>919</ele>
        <time>2025-05-11T08:36:21Z</time>
      </trkpt>
      <trkpt lat="45.8497" lon="4.37508">
        <ele>920</ele>
        <time>2025-05-11T08:36:22Z</time>
      </trkpt>
      <trkpt lat="45.84961" lon="4.37526">
        <ele>922</ele>
        <time>2025-05-11T08:36:24Z</time>
      </trkpt>
      <trkpt lat="45.84952" lon="4.37543">
        <ele>924</ele>
        <time>2025-05-11T08:36:26Z</time>
      </trkpt>
      <trkpt lat="45.84945" lon="4.37559">
        <ele>926</ele>
        <time>2025-05-11T08:36:28Z</time>
      </trkpt>
      <trkpt lat="45.84938" lon="4.37572">
        <ele>927</ele>
        <time>2025-05-11T08:36:30Z</time>
      </trkpt>
      <trkpt lat="45.84932" lon="4.37584">
        <ele>928</ele>
        <time>2025-05-11T08:36:32Z</time>
      </trkpt>
      <trkpt lat="45.84925" lon="4.37599">
        <ele>930</ele>
        <time>2025-05-11T08:36:34Z</time>
      </trkpt>
      <trkpt lat="45.84919" lon="4.37613">
        <ele>932</ele>
        <time>2025-05-11T08:36:36Z</time>
      </trkpt>
      <trkpt lat="45.84916" lon="4.37625">
        <ele>933</ele>
        <time>2025-05-11T08:36:38Z</time>
      </trkpt>
      <trkpt lat="45.84912" lon="4.37639">
        <ele>934</ele>
        <time>2025-05-11T08:36:40Z</time>
      </trkpt>
      <trkpt lat="45.84906" lon="4.37657">
        <ele>936</ele>
        <time>2025-05-11T08:36:42Z</time>
      </trkpt>
      <trkpt lat="45.84904" lon="4.37675">
        <ele>937</ele>
        <time>2025-05-11T08:36:44Z</time>
      </trkpt>
      <trkpt lat="45.849" lon="4.37689">
        <ele>939</ele>
        <time>2025-05-11T08:36:46Z</time>
      </trkpt>
      <trkpt lat="45.84895" lon="4.37703">
        <ele>941</ele>
        <time>2025-05-11T08:36:49Z</time>
      </trkpt>
      <trkpt lat="45.8489" lon="4.37714">
        <ele>941</ele>
        <time>2025-05-11T08:36:50Z</time>
      </trkpt>
      <trkpt lat="45.84885" lon="4.37729">
        <ele>944</ele>
        <time>2025-05-11T08:36:54Z</time>
      </trkpt>
      <trkpt lat="45.84877" lon="4.37736">
        <ele>946</ele>
        <time>2025-05-11T08:36:58Z</time>
      </trkpt>
      <trkpt lat="45.84869" lon="4.37729">
        <ele>954</ele>
        <time>2025-05-11T08:37:40Z</time>
      </trkpt>
      <trkpt lat="45.84864" lon="4.37716">
        <ele>956</ele>
        <time>2025-05-11T08:37:47Z</time>
      </trkpt>
      <trkpt lat="45.84859" lon="4.37702">
        <ele>956</ele>
        <time>2025-05-11T08:37:51Z</time>
      </trkpt>
      <trkpt lat="45.84852" lon="4.37693">
        <ele>957</ele>
        <time>2025-05-11T08:37:53Z</time>
      </trkpt>
      <trkpt lat="45.84844" lon="4.37682">
        <ele>958</ele>
        <time>2025-05-11T08:37:56Z</time>
      </trkpt>
      <trkpt lat="45.84836" lon="4.37674">
        <ele>958</ele>
        <time>2025-05-11T08:37:59Z</time>
      </trkpt>
      <trkpt lat="45.84827" lon="4.37671">
        <ele>958</ele>
        <time>2025-05-11T08:38:02Z</time>
      </trkpt>
      <trkpt lat="45.84817" lon="4.37664">
        <ele>957</ele>
        <time>2025-05-11T08:38:05Z</time>
      </trkpt>
      <trkpt lat="45.84807" lon="4.37661">
        <ele>958</ele>
        <time>2025-05-11T08:38:08Z</time>
      </trkpt>
      <trkpt lat="45.84796" lon="4.37658">
        <ele>957</ele>
        <time>2025-05-11T08:38:11Z</time>
      </trkpt>
      <trkpt lat="45.84784" lon="4.37656">
        <ele>957</ele>
        <time>2025-05-11T08:38:14Z</time>
      </trkpt>
      <trkpt lat="45.84772" lon="4.37653">
        <ele>957</ele>
        <time>2025-05-11T08:38:17Z</time>
      </trkpt>
      <trkpt lat="45.84761" lon="4.37648">
        <ele>957</ele>
        <time>2025-05-11T08:38:20Z</time>
      </trkpt>
      <trkpt lat="45.84749" lon="4.37645">
        <ele>957</ele>
        <time>2025-05-11T08:38:23Z</time>
      </trkpt>
      <trkpt lat="45.84737" lon="4.37641">
        <ele>957</ele>
        <time>2025-05-11T08:38:26Z</time>
      </trkpt>
      <trkpt lat="45.84727" lon="4.3764">
        <ele>957</ele>
        <time>2025-05-11T08:38:29Z</time>
      </trkpt>
      <trkpt lat="45.84716" lon="4.37637">
        <ele>957</ele>
        <time>2025-05-11T08:38:32Z</time>
      </trkpt>
      <trkpt lat="45.84706" lon="4.3763">
        <ele>957</ele>
        <time>2025-05-11T08:38:35Z</time>
      </trkpt>
      <trkpt lat="45.84695" lon="4.37628">
        <ele>957</ele>
        <time>2025-05-11T08:38:38Z</time>
      </trkpt>
      <trkpt lat="45.84685" lon="4.37623">
        <ele>957</ele>
        <time>2025-05-11T08:38:41Z</time>
      </trkpt>
      <trkpt lat="45.84675" lon="4.37621">
        <ele>956</ele>
        <time>2025-05-11T08:38:43Z</time>
      </trkpt>
      <trkpt lat="45.84665" lon="4.3762">
        <ele>956</ele>
        <time>2025-05-11T08:38:45Z</time>
      </trkpt>
      <trkpt lat="45.84653" lon="4.37615">
        <ele>955</ele>
        <time>2025-05-11T08:38:48Z</time>
      </trkpt>
      <trkpt lat="45.84642" lon="4.37616">
        <ele>955</ele>
        <time>2025-05-11T08:38:51Z</time>
      </trkpt>
      <trkpt lat="45.8463" lon="4.37619">
        <ele>955</ele>
        <time>2025-05-11T08:38:54Z</time>
      </trkpt>
      <trkpt lat="45.84619" lon="4.37628">
        <ele>954</ele>
        <time>2025-05-11T08:38:56Z</time>
      </trkpt>
      <trkpt lat="45.84607" lon="4.37637">
        <ele>954</ele>
        <time>2025-05-11T08:38:58Z</time>
      </trkpt>
      <trkpt lat="45.84596" lon="4.37645">
        <ele>954</ele>
        <time>2025-05-11T08:39:00Z</time>
      </trkpt>
      <trkpt lat="45.84585" lon="4.37653">
        <ele>954</ele>
        <time>2025-05-11T08:39:02Z</time>
      </trkpt>
      <trkpt lat="45.84575" lon="4.37658">
        <ele>954</ele>
        <time>2025-05-11T08:39:04Z</time>
      </trkpt>
      <trkpt lat="45.84565" lon="4.37666">
        <ele>954</ele>
        <time>2025-05-11T08:39:06Z</time>
      </trkpt>
      <trkpt lat="45.84553" lon="4.37673">
        <ele>954</ele>
        <time>2025-05-11T08:39:08Z</time>
      </trkpt>
      <trkpt lat="45.84541" lon="4.3768">
        <ele>953</ele>
        <time>2025-05-11T08:39:10Z</time>
      </trkpt>
      <trkpt lat="45.84528" lon="4.37689">
        <ele>952</ele>
        <time>2025-05-11T08:39:12Z</time>
      </trkpt>
      <trkpt lat="45.84516" lon="4.37696">
        <ele>951</ele>
        <time>2025-05-11T08:39:14Z</time>
      </trkpt>
      <trkpt lat="45.84505" lon="4.37701">
        <ele>950</ele>
        <time>2025-05-11T08:39:16Z</time>
      </trkpt>
      <trkpt lat="45.84495" lon="4.37708">
        <ele>949</ele>
        <time>2025-05-11T08:39:18Z</time>
      </trkpt>
      <trkpt lat="45.84485" lon="4.37715">
        <ele>947</ele>
        <time>2025-05-11T08:39:21Z</time>
      </trkpt>
      <trkpt lat="45.84476" lon="4.37725">
        <ele>945</ele>
        <time>2025-05-11T08:39:28Z</time>
      </trkpt>
      <trkpt lat="45.84466" lon="4.37732">
        <ele>944</ele>
        <time>2025-05-11T08:39:32Z</time>
      </trkpt>
      <trkpt lat="45.84454" lon="4.37731">
        <ele>941</ele>
        <time>2025-05-11T08:39:37Z</time>
      </trkpt>
      <trkpt lat="45.84444" lon="4.37731">
        <ele>939</ele>
        <time>2025-05-11T08:39:42Z</time>
      </trkpt>
      <trkpt lat="45.84436" lon="4.37738">
        <ele>937</ele>
        <time>2025-05-11T08:39:47Z</time>
      </trkpt>
      <trkpt lat="45.84428" lon="4.37748">
        <ele>937</ele>
        <time>2025-05-11T08:39:50Z</time>
      </trkpt>
      <trkpt lat="45.84422" lon="4.37759">
        <ele>937</ele>
        <time>2025-05-11T08:39:53Z</time>
      </trkpt>
      <trkpt lat="45.84416" lon="4.37769">
        <ele>937</ele>
        <time>2025-05-11T08:39:54Z</time>
      </trkpt>
      <trkpt lat="45.84409" lon="4.3778">
        <ele>937</ele>
        <time>2025-05-11T08:39:56Z</time>
      </trkpt>
      <trkpt lat="45.84402" lon="4.37793">
        <ele>937</ele>
        <time>2025-05-11T08:39:58Z</time>
      </trkpt>
      <trkpt lat="45.84396" lon="4.37803">
        <ele>937</ele>
        <time>2025-05-11T08:40:00Z</time>
      </trkpt>
      <trkpt lat="45.84388" lon="4.3782">
        <ele>937</ele>
        <time>2025-05-11T08:40:04Z</time>
      </trkpt>
      <trkpt lat="45.84381" lon="4.37831">
        <ele>937</ele>
        <time>2025-05-11T08:40:05Z</time>
      </trkpt>
      <trkpt lat="45.84371" lon="4.37843">
        <ele>937</ele>
        <time>2025-05-11T08:40:08Z</time>
      </trkpt>
      <trkpt lat="45.84363" lon="4.37855">
        <ele>937</ele>
        <time>2025-05-11T08:40:09Z</time>
      </trkpt>
      <trkpt lat="45.84355" lon="4.37865">
        <ele>937</ele>
        <time>2025-05-11T08:40:11Z</time>
      </trkpt>
      <trkpt lat="45.84344" lon="4.37876">
        <ele>937</ele>
        <time>2025-05-11T08:40:14Z</time>
      </trkpt>
      <trkpt lat="45.84331" lon="4.37878">
        <ele>937</ele>
        <time>2025-05-11T08:40:17Z</time>
      </trkpt>
      <trkpt lat="45.8432" lon="4.37878">
        <ele>936</ele>
        <time>2025-05-11T08:40:20Z</time>
      </trkpt>
      <trkpt lat="45.84311" lon="4.3788">
        <ele>936</ele>
        <time>2025-05-11T08:40:23Z</time>
      </trkpt>
      <trkpt lat="45.84303" lon="4.37889">
        <ele>935</ele>
        <time>2025-05-11T08:40:31Z</time>
      </trkpt>
      <trkpt lat="45.84305" lon="4.37894">
        <ele>935</ele>
        <time>2025-05-11T08:40:47Z</time>
      </trkpt>
      <trkpt lat="45.84304" lon="4.37892">
        <ele>934</ele>
        <time>2025-05-11T08:40:59Z</time>
      </trkpt>
      <trkpt lat="45.84305" lon="4.37891">
        <ele>932</ele>
        <time>2025-05-11T08:41:14Z</time>
      </trkpt>
      <trkpt lat="45.84304" lon="4.37889">
        <ele>932</ele>
        <time>2025-05-11T08:41:40Z</time>
      </trkpt>
      <trkpt lat="45.84305" lon="4.37887">
        <ele>931</ele>
        <time>2025-05-11T08:42:56Z</time>
      </trkpt>
      <trkpt lat="45.84303" lon="4.37888">
        <ele>930</ele>
        <time>2025-05-11T08:43:52Z</time>
      </trkpt>
      <trkpt lat="45.84305" lon="4.37888">
        <ele>930</ele>
        <time>2025-05-11T08:44:32Z</time>
      </trkpt>
      <trkpt lat="45.84306" lon="4.3789">
        <ele>929</ele>
        <time>2025-05-11T08:48:23Z</time>
      </trkpt>
      <trkpt lat="45.84309" lon="4.3789">
        <ele>930</ele>
        <time>2025-05-11T08:48:30Z</time>
      </trkpt>
      <trkpt lat="45.84311" lon="4.37891">
        <ele>930</ele>
        <time>2025-05-11T08:48:35Z</time>
      </trkpt>
      <trkpt lat="45.8431" lon="4.37895">
        <ele>928</ele>
        <time>2025-05-11T08:49:07Z</time>
      </trkpt>
      <trkpt lat="45.84308" lon="4.37894">
        <ele>929</ele>
        <time>2025-05-11T08:49:10Z</time>
      </trkpt>
      <trkpt lat="45.84306" lon="4.37895">
        <ele>929</ele>
        <time>2025-05-11T08:49:13Z</time>
      </trkpt>
      <trkpt lat="45.84307" lon="4.37893">
        <ele>929</ele>
        <time>2025-05-11T08:49:20Z</time>
      </trkpt>
      <trkpt lat="45.84308" lon="4.3789">
        <ele>928</ele>
        <time>2025-05-11T08:49:25Z</time>
      </trkpt>
      <trkpt lat="45.84306" lon="4.37888">
        <ele>928</ele>
        <time>2025-05-11T08:49:47Z</time>
      </trkpt>
      <trkpt lat="45.84308" lon="4.37886">
        <ele>927</ele>
        <time>2025-05-11T08:50:42Z</time>
      </trkpt>
      <trkpt lat="45.8431" lon="4.37886">
        <ele>926</ele>
        <time>2025-05-11T08:51:21Z</time>
      </trkpt>
      <trkpt lat="45.84311" lon="4.37888">
        <ele>928</ele>
        <time>2025-05-11T08:52:43Z</time>
      </trkpt>
      <trkpt lat="45.84316" lon="4.37899">
        <ele>929</ele>
        <time>2025-05-11T08:53:05Z</time>
      </trkpt>
      <trkpt lat="45.8432" lon="4.37898">
        <ele>929</ele>
        <time>2025-05-11T08:53:06Z</time>
      </trkpt>
      <trkpt lat="45.84327" lon="4.37888">
        <ele>930</ele>
        <time>2025-05-11T08:53:11Z</time>
        <extensions>
          <visugpx:TrkExtension xmlns:visugpx="https://www.visugpx.com/editgpx/">
            <visugpx:node>1</visugpx:node>
            </visugpx:TrkExtension>
        </extensions>
      </trkpt>
    </trkseg>
  </trk>
</gpx>